<?xml version='1.0' encoding='UTF-8'?><gpx version="1.1" creator="JPX - https://github.com/jenetics/jpx" xmlns="http://www.topografix.com/GPX/1/1"><trk><trkseg><trkpt lat="45.2535235" lon="10.7316672"><ele>32.0</ele><time>2026-04-27T10:28:57.017Z</time></trkpt><trkpt lat="45.2534835" lon="10.731763"><ele>31.999999999999996</ele><time>2026-04-27T10:29:04.016Z</time></trkpt><trkpt lat="45.2534874" lon="10.7318779"><ele>32.0</ele><time>2026-04-27T10:29:07.016Z</time></trkpt><trkpt lat="45.2535552" lon="10.7318993"><ele>32.0</ele><time>2026-04-27T10:29:10.017Z</time></trkpt><trkpt lat="45.253619" lon="10.7318977"><ele>31.999999999999996</ele><time>2026-04-27T10:29:12.016Z</time></trkpt><trkpt lat="45.2536822" lon="10.7319015"><ele>32.0</ele><time>2026-04-27T10:29:14.016Z</time></trkpt><trkpt lat="45.2537747" lon="10.7319115"><ele>32.0</ele><time>2026-04-27T10:29:17.016Z</time></trkpt><trkpt lat="45.2538433" lon="10.7319198"><ele>32.5</ele><time>2026-04-27T10:29:20.016Z</time></trkpt><trkpt lat="45.2539156" lon="10.7319618"><ele>33.0</ele><time>2026-04-27T10:29:23.016Z</time></trkpt><trkpt lat="45.2539727" lon="10.7320011"><ele>33.5</ele><time>2026-04-27T10:29:25.016Z</time></trkpt><trkpt lat="45.2540403" lon="10.7320491"><ele>34.0</ele><time>2026-04-27T10:29:27.016Z</time></trkpt><trkpt lat="45.2541136" lon="10.7320946"><ele>34.5</ele><time>2026-04-27T10:29:29.017Z</time></trkpt><trkpt lat="45.2541914" lon="10.7321492"><ele>35.0</ele><time>2026-04-27T10:29:31.016Z</time></trkpt><trkpt lat="45.2542707" lon="10.7321996"><ele>35.0</ele><time>2026-04-27T10:29:33.017Z</time></trkpt><trkpt lat="45.2543447" lon="10.7322401"><ele>35.0</ele><time>2026-04-27T10:29:35.016Z</time></trkpt><trkpt lat="45.2544211" lon="10.7322754"><ele>35.0</ele><time>2026-04-27T10:29:37.017Z</time></trkpt><trkpt lat="45.2544949" lon="10.7323014"><ele>35.0</ele><time>2026-04-27T10:29:39.017Z</time></trkpt><trkpt lat="45.2545839" lon="10.7323348"><ele>35.0</ele><time>2026-04-27T10:29:41.017Z</time></trkpt><trkpt lat="45.2546472" lon="10.732366"><ele>35.0</ele><time>2026-04-27T10:29:43.017Z</time></trkpt><trkpt lat="45.2547003" lon="10.7324232"><ele>35.0</ele><time>2026-04-27T10:29:45.017Z</time></trkpt><trkpt lat="45.2547359" lon="10.7324988"><ele>35.0</ele><time>2026-04-27T10:29:47.017Z</time></trkpt><trkpt lat="45.2547499" lon="10.732588"><ele>35.0</ele><time>2026-04-27T10:29:49.016Z</time></trkpt><trkpt lat="45.2547281" lon="10.7326821"><ele>35.0</ele><time>2026-04-27T10:29:51.016Z</time></trkpt><trkpt lat="45.2547073" lon="10.7327723"><ele>35.0</ele><time>2026-04-27T10:29:54.016Z</time></trkpt><trkpt lat="45.2547534" lon="10.7328381"><ele>35.0</ele><time>2026-04-27T10:30:01.016Z</time></trkpt><trkpt lat="45.2548383" lon="10.7328366"><ele>35.0</ele><time>2026-04-27T10:30:04.016Z</time></trkpt><trkpt lat="45.2549283" lon="10.7328103"><ele>35.142857142857146</ele><time>2026-04-27T10:30:07.016Z</time></trkpt><trkpt lat="45.2549924" lon="10.7328064"><ele>35.285714285714285</ele><time>2026-04-27T10:30:09.016Z</time></trkpt><trkpt lat="45.2550687" lon="10.7328062"><ele>35.42857142857143</ele><time>2026-04-27T10:30:11.016Z</time></trkpt><trkpt lat="45.2551526" lon="10.732793"><ele>35.57142857142857</ele><time>2026-04-27T10:30:13.017Z</time></trkpt><trkpt lat="45.255235" lon="10.7327701"><ele>35.714285714285715</ele><time>2026-04-27T10:30:15.016Z</time></trkpt><trkpt lat="45.2552936" lon="10.7327152"><ele>35.85714285714286</ele><time>2026-04-27T10:30:17.016Z</time></trkpt><trkpt lat="45.2553412" lon="10.7326534"><ele>36.0</ele><time>2026-04-27T10:30:19.016Z</time></trkpt><trkpt lat="45.2554075" lon="10.7326365"><ele>36.166666666666664</ele><time>2026-04-27T10:30:23.016Z</time></trkpt><trkpt lat="45.255448" lon="10.7327449"><ele>36.333333333333336</ele><time>2026-04-27T10:30:58.015Z</time></trkpt><trkpt lat="45.2555067" lon="10.7327843"><ele>36.5</ele><time>2026-04-27T10:31:11.016Z</time></trkpt><trkpt lat="45.2555891" lon="10.732808"><ele>36.66666666666667</ele><time>2026-04-27T10:31:14.016Z</time></trkpt><trkpt lat="45.2556712" lon="10.7328158"><ele>36.833333333333336</ele><time>2026-04-27T10:31:17.016Z</time></trkpt><trkpt lat="45.255748" lon="10.7328635"><ele>37.0</ele><time>2026-04-27T10:31:20.015Z</time></trkpt><trkpt lat="45.2558244" lon="10.7329081"><ele>37.333333333333336</ele><time>2026-04-27T10:31:23.015Z</time></trkpt><trkpt lat="45.2558972" lon="10.7329512"><ele>37.66666666666667</ele><time>2026-04-27T10:31:26.015Z</time></trkpt><trkpt lat="45.2559836" lon="10.7329989"><ele>38.0</ele><time>2026-04-27T10:31:29.015Z</time></trkpt><trkpt lat="45.2560606" lon="10.7330624"><ele>38.333333333333336</ele><time>2026-04-27T10:31:32.015Z</time></trkpt><trkpt lat="45.2561334" lon="10.7331024"><ele>38.666666666666664</ele><time>2026-04-27T10:31:34.015Z</time></trkpt><trkpt lat="45.2562148" lon="10.7331424"><ele>39.0</ele><time>2026-04-27T10:31:36.015Z</time></trkpt><trkpt lat="45.2562948" lon="10.7331767"><ele>39.0</ele><time>2026-04-27T10:31:38.015Z</time></trkpt><trkpt lat="45.2563709" lon="10.7332139"><ele>39.0</ele><time>2026-04-27T10:31:40.015Z</time></trkpt><trkpt lat="45.256452" lon="10.7332341"><ele>39.0</ele><time>2026-04-27T10:31:42.016Z</time></trkpt><trkpt lat="45.2565378" lon="10.7332414"><ele>39.0</ele><time>2026-04-27T10:31:44.015Z</time></trkpt><trkpt lat="45.2566301" lon="10.73326"><ele>39.0</ele><time>2026-04-27T10:31:46.016Z</time></trkpt><trkpt lat="45.25672" lon="10.7332707"><ele>39.0</ele><time>2026-04-27T10:31:48.015Z</time></trkpt><trkpt lat="45.256807" lon="10.733277"><ele>39.2</ele><time>2026-04-27T10:31:50.016Z</time></trkpt><trkpt lat="45.2568976" lon="10.7332775"><ele>39.4</ele><time>2026-04-27T10:31:52.015Z</time></trkpt><trkpt lat="45.2569906" lon="10.7332712"><ele>39.6</ele><time>2026-04-27T10:31:54.016Z</time></trkpt><trkpt lat="45.2570883" lon="10.7332477"><ele>39.8</ele><time>2026-04-27T10:31:56.015Z</time></trkpt><trkpt lat="45.2571793" lon="10.7332133"><ele>40.0</ele><time>2026-04-27T10:31:58.016Z</time></trkpt><trkpt lat="45.2572683" lon="10.7331935"><ele>40.0</ele><time>2026-04-27T10:32:00.015Z</time></trkpt><trkpt lat="45.2573499" lon="10.7331623"><ele>40.0</ele><time>2026-04-27T10:32:02.015Z</time></trkpt><trkpt lat="45.2574297" lon="10.7331251"><ele>40.0</ele><time>2026-04-27T10:32:04.015Z</time></trkpt><trkpt lat="45.2575152" lon="10.7330914"><ele>40.0</ele><time>2026-04-27T10:32:06.016Z</time></trkpt><trkpt lat="45.2576145" lon="10.7330726"><ele>40.0</ele><time>2026-04-27T10:32:08.016Z</time></trkpt><trkpt lat="45.2577132" lon="10.7330314"><ele>40.0</ele><time>2026-04-27T10:32:10.015Z</time></trkpt><trkpt lat="45.2578005" lon="10.7329825"><ele>40.0</ele><time>2026-04-27T10:32:12.015Z</time></trkpt><trkpt lat="45.2578807" lon="10.7329247"><ele>40.0</ele><time>2026-04-27T10:32:14.016Z</time></trkpt><trkpt lat="45.257958" lon="10.7328583"><ele>40.0</ele><time>2026-04-27T10:32:16.016Z</time></trkpt><trkpt lat="45.258038" lon="10.732791"><ele>40.0</ele><time>2026-04-27T10:32:18.016Z</time></trkpt><trkpt lat="45.2581137" lon="10.7327159"><ele>40.2</ele><time>2026-04-27T10:32:20.015Z</time></trkpt><trkpt lat="45.258181" lon="10.7326327"><ele>40.4</ele><time>2026-04-27T10:32:22.015Z</time></trkpt><trkpt lat="45.2582393" lon="10.7325252"><ele>40.599999999999994</ele><time>2026-04-27T10:32:24.016Z</time></trkpt><trkpt lat="45.258294" lon="10.7324142"><ele>40.8</ele><time>2026-04-27T10:32:26.015Z</time></trkpt><trkpt lat="45.2583469" lon="10.732304"><ele>41.0</ele><time>2026-04-27T10:32:28.016Z</time></trkpt><trkpt lat="45.2584002" lon="10.7321981"><ele>41.0</ele><time>2026-04-27T10:32:30.015Z</time></trkpt><trkpt lat="45.2584475" lon="10.7320908"><ele>41.0</ele><time>2026-04-27T10:32:32.016Z</time></trkpt><trkpt lat="45.2584934" lon="10.7319879"><ele>41.0</ele><time>2026-04-27T10:32:34.015Z</time></trkpt><trkpt lat="45.2585348" lon="10.7318906"><ele>41.0</ele><time>2026-04-27T10:32:36.016Z</time></trkpt><trkpt lat="45.2585773" lon="10.7318024"><ele>41.0</ele><time>2026-04-27T10:32:38.015Z</time></trkpt><trkpt lat="45.258613" lon="10.7317166"><ele>41.0</ele><time>2026-04-27T10:32:40.015Z</time></trkpt><trkpt lat="45.2586498" lon="10.7316249"><ele>40.99999999999999</ele><time>2026-04-27T10:32:42.015Z</time></trkpt><trkpt lat="45.2586843" lon="10.7315314"><ele>41.0</ele><time>2026-04-27T10:32:44.016Z</time></trkpt><trkpt lat="45.2587148" lon="10.7314409"><ele>41.0</ele><time>2026-04-27T10:32:46.015Z</time></trkpt><trkpt lat="45.25875" lon="10.7313501"><ele>41.0</ele><time>2026-04-27T10:32:48.016Z</time></trkpt><trkpt lat="45.2587943" lon="10.7312614"><ele>41.0</ele><time>2026-04-27T10:32:50.015Z</time></trkpt><trkpt lat="45.2588352" lon="10.7311726"><ele>40.99999999999999</ele><time>2026-04-27T10:32:52.016Z</time></trkpt><trkpt lat="45.25887" lon="10.7310978"><ele>41.0</ele><time>2026-04-27T10:32:54.015Z</time></trkpt><trkpt lat="45.2589171" lon="10.7309988"><ele>41.166666666666664</ele><time>2026-04-27T10:32:57.015Z</time></trkpt><trkpt lat="45.258957" lon="10.7309243"><ele>41.33333333333333</ele><time>2026-04-27T10:32:59.015Z</time></trkpt><trkpt lat="45.2590072" lon="10.7308634"><ele>41.5</ele><time>2026-04-27T10:33:01.016Z</time></trkpt><trkpt lat="45.2590574" lon="10.7307787"><ele>41.666666666666664</ele><time>2026-04-27T10:33:03.016Z</time></trkpt><trkpt lat="45.2591048" lon="10.7306794"><ele>41.833333333333336</ele><time>2026-04-27T10:33:05.016Z</time></trkpt><trkpt lat="45.2591632" lon="10.7305975"><ele>42.0</ele><time>2026-04-27T10:33:07.016Z</time></trkpt><trkpt lat="45.2592317" lon="10.7305377"><ele>42.0</ele><time>2026-04-27T10:33:09.015Z</time></trkpt><trkpt lat="45.2593073" lon="10.7304829"><ele>42.0</ele><time>2026-04-27T10:33:11.016Z</time></trkpt><trkpt lat="45.2593806" lon="10.7304241"><ele>42.0</ele><time>2026-04-27T10:33:13.016Z</time></trkpt><trkpt lat="45.2594506" lon="10.7303743"><ele>42.0</ele><time>2026-04-27T10:33:15.015Z</time></trkpt><trkpt lat="45.259528" lon="10.7303369"><ele>42.0</ele><time>2026-04-27T10:33:17.016Z</time></trkpt><trkpt lat="45.2596084" lon="10.7303172"><ele>42.0</ele><time>2026-04-27T10:33:19.016Z</time></trkpt><trkpt lat="45.2596901" lon="10.730306"><ele>42.0</ele><time>2026-04-27T10:33:21.016Z</time></trkpt><trkpt lat="45.2597672" lon="10.7302814"><ele>42.0</ele><time>2026-04-27T10:33:23.015Z</time></trkpt><trkpt lat="45.2598391" lon="10.730265"><ele>42.0</ele><time>2026-04-27T10:33:25.016Z</time></trkpt><trkpt lat="45.2599117" lon="10.7302409"><ele>42.0</ele><time>2026-04-27T10:33:27.015Z</time></trkpt><trkpt lat="45.2599858" lon="10.7302178"><ele>42.0</ele><time>2026-04-27T10:33:29.015Z</time></trkpt><trkpt lat="45.2600724" lon="10.7302053"><ele>42.0</ele><time>2026-04-27T10:33:31.016Z</time></trkpt><trkpt lat="45.2601481" lon="10.7301859"><ele>41.666666666666664</ele><time>2026-04-27T10:33:33.016Z</time></trkpt><trkpt lat="45.2602274" lon="10.7301593"><ele>41.333333333333336</ele><time>2026-04-27T10:33:35.016Z</time></trkpt><trkpt lat="45.2603087" lon="10.7301367"><ele>41.0</ele><time>2026-04-27T10:33:37.015Z</time></trkpt><trkpt lat="45.2603995" lon="10.7301204"><ele>40.66666666666667</ele><time>2026-04-27T10:33:39.015Z</time></trkpt><trkpt lat="45.260489" lon="10.7301065"><ele>40.333333333333336</ele><time>2026-04-27T10:33:41.015Z</time></trkpt><trkpt lat="45.2605805" lon="10.7300983"><ele>40.0</ele><time>2026-04-27T10:33:43.015Z</time></trkpt><trkpt lat="45.2606752" lon="10.730087"><ele>40.0</ele><time>2026-04-27T10:33:45.016Z</time></trkpt><trkpt lat="45.260766" lon="10.7300654"><ele>40.0</ele><time>2026-04-27T10:33:47.016Z</time></trkpt><trkpt lat="45.2608506" lon="10.7300477"><ele>40.0</ele><time>2026-04-27T10:33:49.016Z</time></trkpt><trkpt lat="45.2609412" lon="10.730024"><ele>40.0</ele><time>2026-04-27T10:33:51.015Z</time></trkpt><trkpt lat="45.2610284" lon="10.7300076"><ele>40.0</ele><time>2026-04-27T10:33:53.016Z</time></trkpt><trkpt lat="45.2611174" lon="10.7299909"><ele>40.0</ele><time>2026-04-27T10:33:55.015Z</time></trkpt><trkpt lat="45.2612117" lon="10.7299732"><ele>40.0</ele><time>2026-04-27T10:33:57.015Z</time></trkpt><trkpt lat="45.261306" lon="10.7299509"><ele>40.0</ele><time>2026-04-27T10:33:59.015Z</time></trkpt><trkpt lat="45.261399" lon="10.7299221"><ele>40.0</ele><time>2026-04-27T10:34:01.016Z</time></trkpt><trkpt lat="45.2614934" lon="10.7299019"><ele>40.0</ele><time>2026-04-27T10:34:03.016Z</time></trkpt><trkpt lat="45.2615854" lon="10.7298854"><ele>40.0</ele><time>2026-04-27T10:34:05.015Z</time></trkpt><trkpt lat="45.2616666" lon="10.7298705"><ele>39.833333333333336</ele><time>2026-04-27T10:34:07.015Z</time></trkpt><trkpt lat="45.2617524" lon="10.7298492"><ele>39.66666666666667</ele><time>2026-04-27T10:34:09.016Z</time></trkpt><trkpt lat="45.2618435" lon="10.7298231"><ele>39.5</ele><time>2026-04-27T10:34:11.015Z</time></trkpt><trkpt lat="45.2619186" lon="10.7298033"><ele>39.333333333333336</ele><time>2026-04-27T10:34:13.015Z</time></trkpt><trkpt lat="45.2619992" lon="10.7297879"><ele>39.166666666666664</ele><time>2026-04-27T10:34:15.016Z</time></trkpt><trkpt lat="45.2620857" lon="10.7297696"><ele>39.0</ele><time>2026-04-27T10:34:17.016Z</time></trkpt><trkpt lat="45.262185" lon="10.7297557"><ele>39.2</ele><time>2026-04-27T10:34:19.015Z</time></trkpt><trkpt lat="45.2622865" lon="10.7297438"><ele>39.4</ele><time>2026-04-27T10:34:21.016Z</time></trkpt><trkpt lat="45.262393" lon="10.7297233"><ele>39.6</ele><time>2026-04-27T10:34:23.016Z</time></trkpt><trkpt lat="45.2624956" lon="10.7296982"><ele>39.8</ele><time>2026-04-27T10:34:25.016Z</time></trkpt><trkpt lat="45.2625979" lon="10.729672"><ele>40.0</ele><time>2026-04-27T10:34:27.015Z</time></trkpt><trkpt lat="45.2626871" lon="10.7296408"><ele>40.0</ele><time>2026-04-27T10:34:29.016Z</time></trkpt><trkpt lat="45.2627653" lon="10.7296141"><ele>40.0</ele><time>2026-04-27T10:34:31.015Z</time></trkpt><trkpt lat="45.2628479" lon="10.7295837"><ele>40.0</ele><time>2026-04-27T10:34:33.015Z</time></trkpt><trkpt lat="45.2629304" lon="10.7295634"><ele>40.0</ele><time>2026-04-27T10:34:35.016Z</time></trkpt><trkpt lat="45.2630153" lon="10.7295467"><ele>40.0</ele><time>2026-04-27T10:34:37.016Z</time></trkpt><trkpt lat="45.2631068" lon="10.7295343"><ele>40.0</ele><time>2026-04-27T10:34:39.015Z</time></trkpt><trkpt lat="45.2631963" lon="10.729521"><ele>40.2</ele><time>2026-04-27T10:34:41.015Z</time></trkpt><trkpt lat="45.2632905" lon="10.729503"><ele>40.4</ele><time>2026-04-27T10:34:43.016Z</time></trkpt><trkpt lat="45.2633827" lon="10.7294881"><ele>40.599999999999994</ele><time>2026-04-27T10:34:45.016Z</time></trkpt><trkpt lat="45.2634791" lon="10.7294717"><ele>40.8</ele><time>2026-04-27T10:34:47.015Z</time></trkpt><trkpt lat="45.2635759" lon="10.7294518"><ele>41.0</ele><time>2026-04-27T10:34:49.015Z</time></trkpt><trkpt lat="45.26367" lon="10.7294314"><ele>41.0</ele><time>2026-04-27T10:34:51.016Z</time></trkpt><trkpt lat="45.263765" lon="10.7294082"><ele>41.0</ele><time>2026-04-27T10:34:53.016Z</time></trkpt><trkpt lat="45.2638621" lon="10.7293807"><ele>41.0</ele><time>2026-04-27T10:34:55.016Z</time></trkpt><trkpt lat="45.2639623" lon="10.7293575"><ele>41.0</ele><time>2026-04-27T10:34:57.016Z</time></trkpt><trkpt lat="45.2640584" lon="10.7293377"><ele>41.0</ele><time>2026-04-27T10:34:59.015Z</time></trkpt><trkpt lat="45.2641535" lon="10.729319"><ele>41.599999999999994</ele><time>2026-04-27T10:35:01.016Z</time></trkpt><trkpt lat="45.2642455" lon="10.729301"><ele>42.2</ele><time>2026-04-27T10:35:03.015Z</time></trkpt><trkpt lat="45.2643371" lon="10.7292739"><ele>42.8</ele><time>2026-04-27T10:35:05.016Z</time></trkpt><trkpt lat="45.2644258" lon="10.7292497"><ele>43.400000000000006</ele><time>2026-04-27T10:35:07.015Z</time></trkpt><trkpt lat="45.2645113" lon="10.7292316"><ele>44.0</ele><time>2026-04-27T10:35:09.015Z</time></trkpt><trkpt lat="45.2646048" lon="10.7292107"><ele>44.0</ele><time>2026-04-27T10:35:11.016Z</time></trkpt><trkpt lat="45.2646994" lon="10.7291899"><ele>44.0</ele><time>2026-04-27T10:35:13.016Z</time></trkpt><trkpt lat="45.2647943" lon="10.7291683"><ele>44.0</ele><time>2026-04-27T10:35:15.015Z</time></trkpt><trkpt lat="45.2648865" lon="10.7291474"><ele>44.0</ele><time>2026-04-27T10:35:17.015Z</time></trkpt><trkpt lat="45.2649785" lon="10.7291314"><ele>44.0</ele><time>2026-04-27T10:35:19.016Z</time></trkpt><trkpt lat="45.2650732" lon="10.7291136"><ele>44.0</ele><time>2026-04-27T10:35:21.015Z</time></trkpt><trkpt lat="45.265162" lon="10.7290871"><ele>44.0</ele><time>2026-04-27T10:35:23.016Z</time></trkpt><trkpt lat="45.2652486" lon="10.7290686"><ele>44.0</ele><time>2026-04-27T10:35:25.015Z</time></trkpt><trkpt lat="45.2653409" lon="10.7290467"><ele>44.0</ele><time>2026-04-27T10:35:27.015Z</time></trkpt><trkpt lat="45.2654397" lon="10.7290236"><ele>44.0</ele><time>2026-04-27T10:35:29.015Z</time></trkpt><trkpt lat="45.26554" lon="10.729"><ele>43.400000000000006</ele><time>2026-04-27T10:35:31.016Z</time></trkpt><trkpt lat="45.26564" lon="10.7289786"><ele>42.8</ele><time>2026-04-27T10:35:33.015Z</time></trkpt><trkpt lat="45.2657376" lon="10.7289546"><ele>42.2</ele><time>2026-04-27T10:35:35.015Z</time></trkpt><trkpt lat="45.2658349" lon="10.7289353"><ele>41.599999999999994</ele><time>2026-04-27T10:35:37.015Z</time></trkpt><trkpt lat="45.2659276" lon="10.7289154"><ele>41.0</ele><time>2026-04-27T10:35:39.016Z</time></trkpt><trkpt lat="45.2660261" lon="10.7288929"><ele>41.0</ele><time>2026-04-27T10:35:41.015Z</time></trkpt><trkpt lat="45.2661248" lon="10.7288628"><ele>41.0</ele><time>2026-04-27T10:35:43.015Z</time></trkpt><trkpt lat="45.2662216" lon="10.7288357"><ele>41.0</ele><time>2026-04-27T10:35:45.015Z</time></trkpt><trkpt lat="45.2663207" lon="10.7288144"><ele>41.0</ele><time>2026-04-27T10:35:47.015Z</time></trkpt><trkpt lat="45.2664226" lon="10.7287908"><ele>41.0</ele><time>2026-04-27T10:35:49.016Z</time></trkpt><trkpt lat="45.2665303" lon="10.7287711"><ele>40.599999999999994</ele><time>2026-04-27T10:35:51.016Z</time></trkpt><trkpt lat="45.2666383" lon="10.7287516"><ele>40.199999999999996</ele><time>2026-04-27T10:35:53.015Z</time></trkpt><trkpt lat="45.2667414" lon="10.7287281"><ele>39.8</ele><time>2026-04-27T10:35:55.016Z</time></trkpt><trkpt lat="45.2668419" lon="10.72871"><ele>39.4</ele><time>2026-04-27T10:35:57.015Z</time></trkpt><trkpt lat="45.2669407" lon="10.72869"><ele>39.0</ele><time>2026-04-27T10:35:59.015Z</time></trkpt><trkpt lat="45.2670386" lon="10.7286651"><ele>39.0</ele><time>2026-04-27T10:36:01.016Z</time></trkpt><trkpt lat="45.267137" lon="10.7286497"><ele>39.0</ele><time>2026-04-27T10:36:03.015Z</time></trkpt><trkpt lat="45.2672368" lon="10.7286368"><ele>39.0</ele><time>2026-04-27T10:36:05.015Z</time></trkpt><trkpt lat="45.2673329" lon="10.7286285"><ele>39.0</ele><time>2026-04-27T10:36:07.015Z</time></trkpt><trkpt lat="45.2674152" lon="10.728609"><ele>39.0</ele><time>2026-04-27T10:36:09.016Z</time></trkpt><trkpt lat="45.2674898" lon="10.7286039"><ele>39.166666666666664</ele><time>2026-04-27T10:36:11.016Z</time></trkpt><trkpt lat="45.267561" lon="10.7285832"><ele>39.333333333333336</ele><time>2026-04-27T10:36:13.016Z</time></trkpt><trkpt lat="45.2676321" lon="10.7285658"><ele>39.5</ele><time>2026-04-27T10:36:15.016Z</time></trkpt><trkpt lat="45.2677027" lon="10.7285485"><ele>39.66666666666667</ele><time>2026-04-27T10:36:17.015Z</time></trkpt><trkpt lat="45.2677859" lon="10.7285191"><ele>39.833333333333336</ele><time>2026-04-27T10:36:19.015Z</time></trkpt><trkpt lat="45.2678841" lon="10.7284847"><ele>40.0</ele><time>2026-04-27T10:36:21.015Z</time></trkpt><trkpt lat="45.2679995" lon="10.7284468"><ele>40.0</ele><time>2026-04-27T10:36:23.016Z</time></trkpt><trkpt lat="45.2681171" lon="10.7284262"><ele>40.0</ele><time>2026-04-27T10:36:25.015Z</time></trkpt><trkpt lat="45.2682283" lon="10.7283955"><ele>40.0</ele><time>2026-04-27T10:36:27.016Z</time></trkpt><trkpt lat="45.2683306" lon="10.7283604"><ele>40.0</ele><time>2026-04-27T10:36:29.016Z</time></trkpt><trkpt lat="45.2684344" lon="10.7283386"><ele>40.0</ele><time>2026-04-27T10:36:31.015Z</time></trkpt><trkpt lat="45.2685263" lon="10.7283295"><ele>40.0</ele><time>2026-04-27T10:36:33.015Z</time></trkpt><trkpt lat="45.2686142" lon="10.7283118"><ele>40.0</ele><time>2026-04-27T10:36:35.015Z</time></trkpt><trkpt lat="45.2686965" lon="10.7282925"><ele>40.0</ele><time>2026-04-27T10:36:37.015Z</time></trkpt><trkpt lat="45.2687796" lon="10.7282747"><ele>40.0</ele><time>2026-04-27T10:36:39.016Z</time></trkpt><trkpt lat="45.268871" lon="10.7282465"><ele>40.0</ele><time>2026-04-27T10:36:41.016Z</time></trkpt><trkpt lat="45.2689724" lon="10.7282227"><ele>40.2</ele><time>2026-04-27T10:36:43.016Z</time></trkpt><trkpt lat="45.2690777" lon="10.7282062"><ele>40.4</ele><time>2026-04-27T10:36:45.015Z</time></trkpt><trkpt lat="45.2691834" lon="10.7281893"><ele>40.599999999999994</ele><time>2026-04-27T10:36:47.015Z</time></trkpt><trkpt lat="45.269282" lon="10.7281759"><ele>40.8</ele><time>2026-04-27T10:36:49.016Z</time></trkpt><trkpt lat="45.2693764" lon="10.7281603"><ele>41.0</ele><time>2026-04-27T10:36:51.016Z</time></trkpt><trkpt lat="45.2694638" lon="10.728142"><ele>41.0</ele><time>2026-04-27T10:36:53.015Z</time></trkpt><trkpt lat="45.2695437" lon="10.728135"><ele>41.0</ele><time>2026-04-27T10:36:55.016Z</time></trkpt><trkpt lat="45.2696272" lon="10.7281334"><ele>41.0</ele><time>2026-04-27T10:36:57.015Z</time></trkpt><trkpt lat="45.2697113" lon="10.7281381"><ele>41.0</ele><time>2026-04-27T10:36:59.016Z</time></trkpt><trkpt lat="45.2697984" lon="10.7281357"><ele>41.0</ele><time>2026-04-27T10:37:01.016Z</time></trkpt><trkpt lat="45.2699794" lon="10.728104"><ele>41.599999999999994</ele><time>2026-04-27T10:37:05.015Z</time></trkpt><trkpt lat="45.2700704" lon="10.7281054"><ele>42.2</ele><time>2026-04-27T10:37:07.016Z</time></trkpt><trkpt lat="45.2701624" lon="10.7281117"><ele>42.8</ele><time>2026-04-27T10:37:09.016Z</time></trkpt><trkpt lat="45.2702602" lon="10.7281212"><ele>43.400000000000006</ele><time>2026-04-27T10:37:11.015Z</time></trkpt><trkpt lat="45.2703644" lon="10.7281343"><ele>44.0</ele><time>2026-04-27T10:37:13.016Z</time></trkpt><trkpt lat="45.2704587" lon="10.7281615"><ele>44.0</ele><time>2026-04-27T10:37:15.015Z</time></trkpt><trkpt lat="45.2705591" lon="10.7281645"><ele>44.0</ele><time>2026-04-27T10:37:17.015Z</time></trkpt><trkpt lat="45.2706617" lon="10.7281722"><ele>44.0</ele><time>2026-04-27T10:37:19.016Z</time></trkpt><trkpt lat="45.2707618" lon="10.7281866"><ele>44.0</ele><time>2026-04-27T10:37:21.015Z</time></trkpt><trkpt lat="45.2708589" lon="10.7281969"><ele>44.0</ele><time>2026-04-27T10:37:23.016Z</time></trkpt><trkpt lat="45.2709575" lon="10.728213"><ele>44.2</ele><time>2026-04-27T10:37:25.016Z</time></trkpt><trkpt lat="45.2710558" lon="10.728232"><ele>44.400000000000006</ele><time>2026-04-27T10:37:27.015Z</time></trkpt><trkpt lat="45.2711555" lon="10.7282578"><ele>44.6</ele><time>2026-04-27T10:37:29.016Z</time></trkpt><trkpt lat="45.2712547" lon="10.7282884"><ele>44.8</ele><time>2026-04-27T10:37:31.016Z</time></trkpt><trkpt lat="45.2713516" lon="10.7283141"><ele>45.0</ele><time>2026-04-27T10:37:33.015Z</time></trkpt><trkpt lat="45.2714472" lon="10.7283374"><ele>45.0</ele><time>2026-04-27T10:37:35.015Z</time></trkpt><trkpt lat="45.2715376" lon="10.7283541"><ele>45.0</ele><time>2026-04-27T10:37:37.016Z</time></trkpt><trkpt lat="45.2716349" lon="10.7283641"><ele>45.0</ele><time>2026-04-27T10:37:39.016Z</time></trkpt><trkpt lat="45.2717328" lon="10.7284026"><ele>45.0</ele><time>2026-04-27T10:37:41.016Z</time></trkpt><trkpt lat="45.2718201" lon="10.7284455"><ele>45.0</ele><time>2026-04-27T10:37:43.015Z</time></trkpt><trkpt lat="45.2719103" lon="10.7284932"><ele>45.0</ele><time>2026-04-27T10:37:45.015Z</time></trkpt><trkpt lat="45.2720021" lon="10.7285329"><ele>45.0</ele><time>2026-04-27T10:37:47.016Z</time></trkpt><trkpt lat="45.2721004" lon="10.7285693"><ele>45.0</ele><time>2026-04-27T10:37:49.016Z</time></trkpt><trkpt lat="45.2721965" lon="10.7286138"><ele>45.0</ele><time>2026-04-27T10:37:51.016Z</time></trkpt><trkpt lat="45.2722898" lon="10.7286597"><ele>45.0</ele><time>2026-04-27T10:37:53.016Z</time></trkpt><trkpt lat="45.272379" lon="10.7287038"><ele>44.4</ele><time>2026-04-27T10:37:55.016Z</time></trkpt><trkpt lat="45.2724666" lon="10.7287541"><ele>43.8</ele><time>2026-04-27T10:37:57.016Z</time></trkpt><trkpt lat="45.272555" lon="10.7287906"><ele>43.2</ele><time>2026-04-27T10:37:59.015Z</time></trkpt><trkpt lat="45.2726419" lon="10.7288266"><ele>42.6</ele><time>2026-04-27T10:38:01.015Z</time></trkpt><trkpt lat="45.2727264" lon="10.7288575"><ele>42.0</ele><time>2026-04-27T10:38:03.015Z</time></trkpt><trkpt lat="45.2728106" lon="10.728894"><ele>42.0</ele><time>2026-04-27T10:38:05.016Z</time></trkpt><trkpt lat="45.272893" lon="10.7289333"><ele>42.0</ele><time>2026-04-27T10:38:07.016Z</time></trkpt><trkpt lat="45.2729705" lon="10.7289815"><ele>42.0</ele><time>2026-04-27T10:38:09.016Z</time></trkpt><trkpt lat="45.2730411" lon="10.7290182"><ele>42.0</ele><time>2026-04-27T10:38:11.015Z</time></trkpt><trkpt lat="45.2731135" lon="10.7290537"><ele>42.0</ele><time>2026-04-27T10:38:13.015Z</time></trkpt><trkpt lat="45.2731808" lon="10.729088"><ele>42.0</ele><time>2026-04-27T10:38:15.015Z</time></trkpt><trkpt lat="45.2732449" lon="10.7291219"><ele>42.0</ele><time>2026-04-27T10:38:17.015Z</time></trkpt><trkpt lat="45.2733094" lon="10.7291493"><ele>42.0</ele><time>2026-04-27T10:38:19.016Z</time></trkpt><trkpt lat="45.2733798" lon="10.7291825"><ele>42.0</ele><time>2026-04-27T10:38:21.016Z</time></trkpt><trkpt lat="45.2734495" lon="10.7292213"><ele>42.0</ele><time>2026-04-27T10:38:23.015Z</time></trkpt><trkpt lat="45.2735223" lon="10.7292545"><ele>42.0</ele><time>2026-04-27T10:38:25.015Z</time></trkpt><trkpt lat="45.2735898" lon="10.7292836"><ele>42.0</ele><time>2026-04-27T10:38:27.015Z</time></trkpt><trkpt lat="45.2736653" lon="10.7293097"><ele>42.0</ele><time>2026-04-27T10:38:29.016Z</time></trkpt><trkpt lat="45.2737476" lon="10.7293454"><ele>42.0</ele><time>2026-04-27T10:38:31.015Z</time></trkpt><trkpt lat="45.2738292" lon="10.7293831"><ele>42.0</ele><time>2026-04-27T10:38:33.016Z</time></trkpt><trkpt lat="45.273907" lon="10.7294256"><ele>42.0</ele><time>2026-04-27T10:38:35.015Z</time></trkpt><trkpt lat="45.2739842" lon="10.7294732"><ele>42.0</ele><time>2026-04-27T10:38:37.016Z</time></trkpt><trkpt lat="45.2740698" lon="10.7295182"><ele>42.0</ele><time>2026-04-27T10:38:39.015Z</time></trkpt><trkpt lat="45.274157" lon="10.7295582"><ele>42.0</ele><time>2026-04-27T10:38:41.014Z</time></trkpt><trkpt lat="45.2742438" lon="10.7296026"><ele>42.0</ele><time>2026-04-27T10:38:43.015Z</time></trkpt><trkpt lat="45.2743306" lon="10.7296487"><ele>42.0</ele><time>2026-04-27T10:38:45.014Z</time></trkpt><trkpt lat="45.2744222" lon="10.729695"><ele>42.0</ele><time>2026-04-27T10:38:47.014Z</time></trkpt><trkpt lat="45.274513" lon="10.7297366"><ele>42.0</ele><time>2026-04-27T10:38:49.015Z</time></trkpt><trkpt lat="45.2746076" lon="10.7297725"><ele>42.0</ele><time>2026-04-27T10:38:51.014Z</time></trkpt><trkpt lat="45.274697" lon="10.7298142"><ele>41.75</ele><time>2026-04-27T10:38:53.014Z</time></trkpt><trkpt lat="45.2747857" lon="10.7298552"><ele>41.5</ele><time>2026-04-27T10:38:55.014Z</time></trkpt><trkpt lat="45.2748788" lon="10.7298876"><ele>41.25</ele><time>2026-04-27T10:38:57.014Z</time></trkpt><trkpt lat="45.2749709" lon="10.7299238"><ele>41.0</ele><time>2026-04-27T10:38:59.015Z</time></trkpt><trkpt lat="45.2751404" lon="10.7300046"><ele>41.0</ele><time>2026-04-27T10:39:03.015Z</time></trkpt><trkpt lat="45.2752624" lon="10.7300683"><ele>41.0</ele><time>2026-04-27T10:39:06.015Z</time></trkpt><trkpt lat="45.2753497" lon="10.730092"><ele>41.0</ele><time>2026-04-27T10:39:08.014Z</time></trkpt><trkpt lat="45.2754824" lon="10.7301346"><ele>41.0</ele><time>2026-04-27T10:39:11.014Z</time></trkpt><trkpt lat="45.2755787" lon="10.7301594"><ele>41.0</ele><time>2026-04-27T10:39:13.014Z</time></trkpt><trkpt lat="45.2756864" lon="10.7301864"><ele>41.0</ele><time>2026-04-27T10:39:15.014Z</time></trkpt><trkpt lat="45.275782" lon="10.7302313"><ele>41.0</ele><time>2026-04-27T10:39:17.014Z</time></trkpt><trkpt lat="45.2758822" lon="10.7302651"><ele>41.0</ele><time>2026-04-27T10:39:19.015Z</time></trkpt><trkpt lat="45.2759775" lon="10.7302868"><ele>41.0</ele><time>2026-04-27T10:39:21.014Z</time></trkpt><trkpt lat="45.2760857" lon="10.7303061"><ele>41.0</ele><time>2026-04-27T10:39:23.015Z</time></trkpt><trkpt lat="45.2761955" lon="10.7303317"><ele>41.0</ele><time>2026-04-27T10:39:25.014Z</time></trkpt><trkpt lat="45.2763016" lon="10.7303548"><ele>41.0</ele><time>2026-04-27T10:39:27.015Z</time></trkpt><trkpt lat="45.2764053" lon="10.7303824"><ele>41.0</ele><time>2026-04-27T10:39:29.014Z</time></trkpt><trkpt lat="45.2765041" lon="10.7304102"><ele>41.0</ele><time>2026-04-27T10:39:31.015Z</time></trkpt><trkpt lat="45.2766078" lon="10.7304429"><ele>41.0</ele><time>2026-04-27T10:39:33.014Z</time></trkpt><trkpt lat="45.2767072" lon="10.7304592"><ele>41.0</ele><time>2026-04-27T10:39:35.014Z</time></trkpt><trkpt lat="45.2768072" lon="10.7304764"><ele>41.0</ele><time>2026-04-27T10:39:37.015Z</time></trkpt><trkpt lat="45.2769085" lon="10.7304942"><ele>41.0</ele><time>2026-04-27T10:39:39.015Z</time></trkpt><trkpt lat="45.2770095" lon="10.7305052"><ele>41.0</ele><time>2026-04-27T10:39:41.015Z</time></trkpt><trkpt lat="45.2771149" lon="10.7305196"><ele>41.0</ele><time>2026-04-27T10:39:43.014Z</time></trkpt><trkpt lat="45.2772263" lon="10.7305244"><ele>41.0</ele><time>2026-04-27T10:39:45.015Z</time></trkpt><trkpt lat="45.2773273" lon="10.7305364"><ele>41.0</ele><time>2026-04-27T10:39:47.014Z</time></trkpt><trkpt lat="45.2774344" lon="10.7305369"><ele>41.0</ele><time>2026-04-27T10:39:49.014Z</time></trkpt><trkpt lat="45.2775416" lon="10.7305379"><ele>41.0</ele><time>2026-04-27T10:39:51.015Z</time></trkpt><trkpt lat="45.2776415" lon="10.7305392"><ele>41.0</ele><time>2026-04-27T10:39:53.015Z</time></trkpt><trkpt lat="45.2777419" lon="10.7305432"><ele>41.0</ele><time>2026-04-27T10:39:55.014Z</time></trkpt><trkpt lat="45.2778519" lon="10.7305574"><ele>41.0</ele><time>2026-04-27T10:39:57.015Z</time></trkpt><trkpt lat="45.2779504" lon="10.7305671"><ele>41.0</ele><time>2026-04-27T10:39:59.015Z</time></trkpt><trkpt lat="45.2780463" lon="10.7305627"><ele>41.0</ele><time>2026-04-27T10:40:01.014Z</time></trkpt><trkpt lat="45.2781466" lon="10.7305501"><ele>40.8</ele><time>2026-04-27T10:40:03.014Z</time></trkpt><trkpt lat="45.278254" lon="10.73054"><ele>40.599999999999994</ele><time>2026-04-27T10:40:05.014Z</time></trkpt><trkpt lat="45.2783616" lon="10.7305382"><ele>40.4</ele><time>2026-04-27T10:40:07.014Z</time></trkpt><trkpt lat="45.2784712" lon="10.7305281"><ele>40.2</ele><time>2026-04-27T10:40:09.014Z</time></trkpt><trkpt lat="45.27858" lon="10.7305225"><ele>40.0</ele><time>2026-04-27T10:40:11.014Z</time></trkpt><trkpt lat="45.2786849" lon="10.7305149"><ele>40.0</ele><time>2026-04-27T10:40:13.014Z</time></trkpt><trkpt lat="45.2787908" lon="10.7305122"><ele>40.0</ele><time>2026-04-27T10:40:15.015Z</time></trkpt><trkpt lat="45.2788904" lon="10.7305199"><ele>40.0</ele><time>2026-04-27T10:40:17.015Z</time></trkpt><trkpt lat="45.278987" lon="10.7305137"><ele>40.0</ele><time>2026-04-27T10:40:19.015Z</time></trkpt><trkpt lat="45.2790872" lon="10.7304994"><ele>40.0</ele><time>2026-04-27T10:40:21.015Z</time></trkpt><trkpt lat="45.2791897" lon="10.730476"><ele>40.8</ele><time>2026-04-27T10:40:23.015Z</time></trkpt><trkpt lat="45.2792942" lon="10.7304562"><ele>41.6</ele><time>2026-04-27T10:40:25.014Z</time></trkpt><trkpt lat="45.2794033" lon="10.7304361"><ele>42.400000000000006</ele><time>2026-04-27T10:40:27.014Z</time></trkpt><trkpt lat="45.2795089" lon="10.7304117"><ele>43.2</ele><time>2026-04-27T10:40:29.015Z</time></trkpt><trkpt lat="45.2796147" lon="10.7303811"><ele>44.0</ele><time>2026-04-27T10:40:31.014Z</time></trkpt><trkpt lat="45.2797211" lon="10.7303608"><ele>44.2</ele><time>2026-04-27T10:40:33.015Z</time></trkpt><trkpt lat="45.2798266" lon="10.730329"><ele>44.400000000000006</ele><time>2026-04-27T10:40:35.014Z</time></trkpt><trkpt lat="45.2799311" lon="10.730308"><ele>44.6</ele><time>2026-04-27T10:40:37.015Z</time></trkpt><trkpt lat="45.2800431" lon="10.7302997"><ele>44.8</ele><time>2026-04-27T10:40:39.015Z</time></trkpt><trkpt lat="45.2801424" lon="10.73029"><ele>45.0</ele><time>2026-04-27T10:40:41.015Z</time></trkpt><trkpt lat="45.2802391" lon="10.7302685"><ele>45.0</ele><time>2026-04-27T10:40:43.014Z</time></trkpt><trkpt lat="45.2803394" lon="10.7302485"><ele>45.0</ele><time>2026-04-27T10:40:45.014Z</time></trkpt><trkpt lat="45.2804479" lon="10.7302287"><ele>45.0</ele><time>2026-04-27T10:40:47.014Z</time></trkpt><trkpt lat="45.2805472" lon="10.7301985"><ele>45.0</ele><time>2026-04-27T10:40:49.014Z</time></trkpt><trkpt lat="45.2806492" lon="10.7301654"><ele>45.0</ele><time>2026-04-27T10:40:51.015Z</time></trkpt><trkpt lat="45.2807528" lon="10.7301424"><ele>44.6</ele><time>2026-04-27T10:40:53.014Z</time></trkpt><trkpt lat="45.280848" lon="10.7301063"><ele>44.2</ele><time>2026-04-27T10:40:55.015Z</time></trkpt><trkpt lat="45.2809391" lon="10.7300763"><ele>43.8</ele><time>2026-04-27T10:40:57.015Z</time></trkpt><trkpt lat="45.281046" lon="10.7300473"><ele>43.4</ele><time>2026-04-27T10:40:59.014Z</time></trkpt><trkpt lat="45.2811406" lon="10.7299971"><ele>43.0</ele><time>2026-04-27T10:41:01.015Z</time></trkpt><trkpt lat="45.281234" lon="10.7299467"><ele>44.5</ele><time>2026-04-27T10:41:03.015Z</time></trkpt><trkpt lat="45.2814366" lon="10.7298823"><ele>46.0</ele><time>2026-04-27T10:41:07.015Z</time></trkpt><trkpt lat="45.2816786" lon="10.7298244"><ele>46.0</ele><time>2026-04-27T10:41:12.015Z</time></trkpt><trkpt lat="45.2817765" lon="10.7298104"><ele>46.0</ele><time>2026-04-27T10:41:14.015Z</time></trkpt><trkpt lat="45.2818749" lon="10.7297871"><ele>46.0</ele><time>2026-04-27T10:41:16.015Z</time></trkpt><trkpt lat="45.2819791" lon="10.7297756"><ele>46.0</ele><time>2026-04-27T10:41:18.014Z</time></trkpt><trkpt lat="45.2820827" lon="10.7297563"><ele>46.0</ele><time>2026-04-27T10:41:20.015Z</time></trkpt><trkpt lat="45.2821688" lon="10.7297382"><ele>46.0</ele><time>2026-04-27T10:41:22.014Z</time></trkpt><trkpt lat="45.2822526" lon="10.7297251"><ele>46.0</ele><time>2026-04-27T10:41:24.015Z</time></trkpt><trkpt lat="45.2823396" lon="10.7297175"><ele>46.0</ele><time>2026-04-27T10:41:26.015Z</time></trkpt><trkpt lat="45.2824188" lon="10.7297001"><ele>46.0</ele><time>2026-04-27T10:41:28.014Z</time></trkpt><trkpt lat="45.2824912" lon="10.7296872"><ele>46.0</ele><time>2026-04-27T10:41:30.015Z</time></trkpt><trkpt lat="45.2825534" lon="10.7296652"><ele>46.0</ele><time>2026-04-27T10:41:32.014Z</time></trkpt><trkpt lat="45.2826386" lon="10.7296228"><ele>46.0</ele><time>2026-04-27T10:41:35.015Z</time></trkpt><trkpt lat="45.2827138" lon="10.7295953"><ele>46.0</ele><time>2026-04-27T10:41:37.015Z</time></trkpt><trkpt lat="45.2828026" lon="10.7295608"><ele>46.0</ele><time>2026-04-27T10:41:39.014Z</time></trkpt><trkpt lat="45.2829024" lon="10.7295208"><ele>46.0</ele><time>2026-04-27T10:41:41.014Z</time></trkpt><trkpt lat="45.2830156" lon="10.7294856"><ele>46.0</ele><time>2026-04-27T10:41:43.014Z</time></trkpt><trkpt lat="45.2831208" lon="10.7294482"><ele>45.833333333333336</ele><time>2026-04-27T10:41:45.014Z</time></trkpt><trkpt lat="45.2831841" lon="10.7294275"><ele>45.66666666666667</ele><time>2026-04-27T10:41:46.014Z</time></trkpt><trkpt lat="45.2832493" lon="10.7294078"><ele>45.5</ele><time>2026-04-27T10:41:47.014Z</time></trkpt><trkpt lat="45.2833158" lon="10.7294141"><ele>45.333333333333336</ele><time>2026-04-27T10:41:48.015Z</time></trkpt><trkpt lat="45.2834273" lon="10.7293852"><ele>45.166666666666664</ele><time>2026-04-27T10:41:50.015Z</time></trkpt><trkpt lat="45.2835338" lon="10.7293448"><ele>45.0</ele><time>2026-04-27T10:41:52.014Z</time></trkpt><trkpt lat="45.2836369" lon="10.7293119"><ele>44.8</ele><time>2026-04-27T10:41:54.015Z</time></trkpt><trkpt lat="45.2837494" lon="10.7292973"><ele>44.6</ele><time>2026-04-27T10:41:56.014Z</time></trkpt><trkpt lat="45.2838503" lon="10.7292862"><ele>44.400000000000006</ele><time>2026-04-27T10:41:58.015Z</time></trkpt><trkpt lat="45.2839594" lon="10.7292662"><ele>44.2</ele><time>2026-04-27T10:42:00.014Z</time></trkpt><trkpt lat="45.2840658" lon="10.7292398"><ele>44.0</ele><time>2026-04-27T10:42:02.015Z</time></trkpt><trkpt lat="45.2841655" lon="10.7291987"><ele>44.0</ele><time>2026-04-27T10:42:04.015Z</time></trkpt><trkpt lat="45.2842678" lon="10.7291673"><ele>44.0</ele><time>2026-04-27T10:42:06.014Z</time></trkpt><trkpt lat="45.2843637" lon="10.7291436"><ele>44.0</ele><time>2026-04-27T10:42:08.014Z</time></trkpt><trkpt lat="45.2844632" lon="10.7291258"><ele>44.0</ele><time>2026-04-27T10:42:10.015Z</time></trkpt><trkpt lat="45.2845569" lon="10.7291056"><ele>44.0</ele><time>2026-04-27T10:42:12.015Z</time></trkpt><trkpt lat="45.2846503" lon="10.7290877"><ele>44.0</ele><time>2026-04-27T10:42:14.014Z</time></trkpt><trkpt lat="45.2847487" lon="10.7290648"><ele>44.0</ele><time>2026-04-27T10:42:16.014Z</time></trkpt><trkpt lat="45.284853" lon="10.7290367"><ele>44.0</ele><time>2026-04-27T10:42:18.014Z</time></trkpt><trkpt lat="45.2849611" lon="10.7290105"><ele>44.0</ele><time>2026-04-27T10:42:20.014Z</time></trkpt><trkpt lat="45.2850736" lon="10.7289825"><ele>44.0</ele><time>2026-04-27T10:42:22.014Z</time></trkpt><trkpt lat="45.2851832" lon="10.7289638"><ele>43.800000000000004</ele><time>2026-04-27T10:42:24.015Z</time></trkpt><trkpt lat="45.2852853" lon="10.7289278"><ele>43.6</ele><time>2026-04-27T10:42:26.015Z</time></trkpt><trkpt lat="45.2853871" lon="10.7288938"><ele>43.4</ele><time>2026-04-27T10:42:28.015Z</time></trkpt><trkpt lat="45.285486" lon="10.7288565"><ele>43.2</ele><time>2026-04-27T10:42:30.015Z</time></trkpt><trkpt lat="45.2855852" lon="10.7288298"><ele>43.0</ele><time>2026-04-27T10:42:32.015Z</time></trkpt><trkpt lat="45.285688" lon="10.7288001"><ele>42.8</ele><time>2026-04-27T10:42:34.015Z</time></trkpt><trkpt lat="45.2857929" lon="10.7287703"><ele>42.599999999999994</ele><time>2026-04-27T10:42:36.015Z</time></trkpt><trkpt lat="45.2858974" lon="10.7287389"><ele>42.400000000000006</ele><time>2026-04-27T10:42:38.014Z</time></trkpt><trkpt lat="45.2859966" lon="10.7287088"><ele>42.2</ele><time>2026-04-27T10:42:40.014Z</time></trkpt><trkpt lat="45.2860983" lon="10.728685"><ele>42.0</ele><time>2026-04-27T10:42:42.014Z</time></trkpt><trkpt lat="45.2862056" lon="10.7286537"><ele>42.0</ele><time>2026-04-27T10:42:44.014Z</time></trkpt><trkpt lat="45.2863168" lon="10.7286231"><ele>42.0</ele><time>2026-04-27T10:42:46.014Z</time></trkpt><trkpt lat="45.2864227" lon="10.7286007"><ele>42.0</ele><time>2026-04-27T10:42:48.014Z</time></trkpt><trkpt lat="45.2865286" lon="10.728571"><ele>42.0</ele><time>2026-04-27T10:42:50.014Z</time></trkpt><trkpt lat="45.2866332" lon="10.7285473"><ele>42.0</ele><time>2026-04-27T10:42:52.015Z</time></trkpt><trkpt lat="45.2867413" lon="10.7285097"><ele>42.75</ele><time>2026-04-27T10:42:54.015Z</time></trkpt><trkpt lat="45.2868534" lon="10.728481"><ele>43.5</ele><time>2026-04-27T10:42:56.015Z</time></trkpt><trkpt lat="45.2869691" lon="10.7284568"><ele>44.25</ele><time>2026-04-27T10:42:58.015Z</time></trkpt><trkpt lat="45.2870817" lon="10.7284405"><ele>45.0</ele><time>2026-04-27T10:43:00.014Z</time></trkpt><trkpt lat="45.2871918" lon="10.7284212"><ele>44.75</ele><time>2026-04-27T10:43:02.015Z</time></trkpt><trkpt lat="45.2873075" lon="10.7283984"><ele>44.5</ele><time>2026-04-27T10:43:04.014Z</time></trkpt><trkpt lat="45.28742" lon="10.7283612"><ele>44.25</ele><time>2026-04-27T10:43:06.014Z</time></trkpt><trkpt lat="45.2875298" lon="10.7283273"><ele>44.0</ele><time>2026-04-27T10:43:08.015Z</time></trkpt><trkpt lat="45.2876427" lon="10.728306"><ele>44.0</ele><time>2026-04-27T10:43:10.015Z</time></trkpt><trkpt lat="45.2877593" lon="10.7282738"><ele>44.0</ele><time>2026-04-27T10:43:12.014Z</time></trkpt><trkpt lat="45.2878767" lon="10.7282309"><ele>44.0</ele><time>2026-04-27T10:43:14.014Z</time></trkpt><trkpt lat="45.2879382" lon="10.7282068"><ele>44.0</ele><time>2026-04-27T10:43:15.015Z</time></trkpt><trkpt lat="45.2880614" lon="10.7281642"><ele>44.0</ele><time>2026-04-27T10:43:17.014Z</time></trkpt><trkpt lat="45.2881782" lon="10.7281343"><ele>44.6</ele><time>2026-04-27T10:43:19.015Z</time></trkpt><trkpt lat="45.2882944" lon="10.7281059"><ele>45.2</ele><time>2026-04-27T10:43:21.014Z</time></trkpt><trkpt lat="45.2884065" lon="10.728075"><ele>45.800000000000004</ele><time>2026-04-27T10:43:23.015Z</time></trkpt><trkpt lat="45.2885305" lon="10.728045"><ele>46.400000000000006</ele><time>2026-04-27T10:43:25.015Z</time></trkpt><trkpt lat="45.2885943" lon="10.7280257"><ele>47.0</ele><time>2026-04-27T10:43:26.014Z</time></trkpt><trkpt lat="45.2887108" lon="10.7280018"><ele>47.0</ele><time>2026-04-27T10:43:28.015Z</time></trkpt><trkpt lat="45.2888281" lon="10.7279723"><ele>47.0</ele><time>2026-04-27T10:43:30.015Z</time></trkpt><trkpt lat="45.2888926" lon="10.7279554"><ele>47.0</ele><time>2026-04-27T10:43:31.015Z</time></trkpt><trkpt lat="45.2890086" lon="10.727919"><ele>47.0</ele><time>2026-04-27T10:43:33.015Z</time></trkpt><trkpt lat="45.289122" lon="10.7278926"><ele>47.0</ele><time>2026-04-27T10:43:35.014Z</time></trkpt><trkpt lat="45.2892298" lon="10.7278725"><ele>47.25</ele><time>2026-04-27T10:43:37.015Z</time></trkpt><trkpt lat="45.2893405" lon="10.727827"><ele>47.5</ele><time>2026-04-27T10:43:39.014Z</time></trkpt><trkpt lat="45.2894487" lon="10.7277968"><ele>47.75</ele><time>2026-04-27T10:43:41.015Z</time></trkpt><trkpt lat="45.2895578" lon="10.7277606"><ele>48.0</ele><time>2026-04-27T10:43:43.015Z</time></trkpt><trkpt lat="45.2896718" lon="10.7277124"><ele>48.2</ele><time>2026-04-27T10:43:45.015Z</time></trkpt><trkpt lat="45.2897737" lon="10.7277044"><ele>48.4</ele><time>2026-04-27T10:43:47.015Z</time></trkpt><trkpt lat="45.2898823" lon="10.727661"><ele>48.6</ele><time>2026-04-27T10:43:49.015Z</time></trkpt><trkpt lat="45.2899493" lon="10.7276428"><ele>48.800000000000004</ele><time>2026-04-27T10:43:50.015Z</time></trkpt><trkpt lat="45.2900125" lon="10.7276313"><ele>49.0</ele><time>2026-04-27T10:43:51.014Z</time></trkpt><trkpt lat="45.290139" lon="10.727609"><ele>49.0</ele><time>2026-04-27T10:43:53.015Z</time></trkpt><trkpt lat="45.2902427" lon="10.7275822"><ele>49.0</ele><time>2026-04-27T10:43:55.015Z</time></trkpt><trkpt lat="45.2903547" lon="10.727544"><ele>49.0</ele><time>2026-04-27T10:43:57.015Z</time></trkpt><trkpt lat="45.2904708" lon="10.7275166"><ele>49.0</ele><time>2026-04-27T10:43:59.015Z</time></trkpt><trkpt lat="45.290582" lon="10.7274781"><ele>49.0</ele><time>2026-04-27T10:44:01.015Z</time></trkpt><trkpt lat="45.2906946" lon="10.7274415"><ele>49.0</ele><time>2026-04-27T10:44:03.015Z</time></trkpt><trkpt lat="45.2907584" lon="10.7274402"><ele>49.0</ele><time>2026-04-27T10:44:04.014Z</time></trkpt><trkpt lat="45.2908734" lon="10.727418"><ele>49.0</ele><time>2026-04-27T10:44:06.015Z</time></trkpt><trkpt lat="45.2909853" lon="10.7273519"><ele>49.0</ele><time>2026-04-27T10:44:08.014Z</time></trkpt><trkpt lat="45.2910925" lon="10.7273272"><ele>49.0</ele><time>2026-04-27T10:44:10.014Z</time></trkpt><trkpt lat="45.2911887" lon="10.7273064"><ele>49.0</ele><time>2026-04-27T10:44:12.015Z</time></trkpt><trkpt lat="45.2912821" lon="10.7272802"><ele>49.0</ele><time>2026-04-27T10:44:14.014Z</time></trkpt><trkpt lat="45.2913858" lon="10.7272454"><ele>49.0</ele><time>2026-04-27T10:44:16.015Z</time></trkpt><trkpt lat="45.2914748" lon="10.7272106"><ele>49.0</ele><time>2026-04-27T10:44:18.014Z</time></trkpt><trkpt lat="45.2915665" lon="10.7271746"><ele>48.400000000000006</ele><time>2026-04-27T10:44:20.015Z</time></trkpt><trkpt lat="45.2916738" lon="10.7271234"><ele>47.8</ele><time>2026-04-27T10:44:22.015Z</time></trkpt><trkpt lat="45.2917814" lon="10.727079"><ele>47.2</ele><time>2026-04-27T10:44:24.015Z</time></trkpt><trkpt lat="45.2918854" lon="10.7270445"><ele>46.599999999999994</ele><time>2026-04-27T10:44:26.014Z</time></trkpt><trkpt lat="45.2919931" lon="10.7269946"><ele>46.0</ele><time>2026-04-27T10:44:28.014Z</time></trkpt><trkpt lat="45.2920973" lon="10.7269455"><ele>45.4</ele><time>2026-04-27T10:44:30.014Z</time></trkpt><trkpt lat="45.2921981" lon="10.7268925"><ele>44.8</ele><time>2026-04-27T10:44:32.015Z</time></trkpt><trkpt lat="45.2922965" lon="10.7268418"><ele>44.199999999999996</ele><time>2026-04-27T10:44:34.014Z</time></trkpt><trkpt lat="45.2923928" lon="10.7267968"><ele>43.599999999999994</ele><time>2026-04-27T10:44:36.015Z</time></trkpt><trkpt lat="45.2924863" lon="10.7267546"><ele>43.0</ele><time>2026-04-27T10:44:38.015Z</time></trkpt><trkpt lat="45.2925682" lon="10.7266841"><ele>42.8</ele><time>2026-04-27T10:44:41.015Z</time></trkpt><trkpt lat="45.2926657" lon="10.7266258"><ele>42.599999999999994</ele><time>2026-04-27T10:44:43.014Z</time></trkpt><trkpt lat="45.2927617" lon="10.726563"><ele>42.400000000000006</ele><time>2026-04-27T10:44:45.015Z</time></trkpt><trkpt lat="45.2928525" lon="10.7264953"><ele>42.2</ele><time>2026-04-27T10:44:47.015Z</time></trkpt><trkpt lat="45.292952" lon="10.7264247"><ele>42.0</ele><time>2026-04-27T10:44:49.015Z</time></trkpt><trkpt lat="45.2930551" lon="10.7263518"><ele>42.0</ele><time>2026-04-27T10:44:51.015Z</time></trkpt><trkpt lat="45.2931492" lon="10.7262821"><ele>42.0</ele><time>2026-04-27T10:44:53.014Z</time></trkpt><trkpt lat="45.2932348" lon="10.7262179"><ele>42.0</ele><time>2026-04-27T10:44:55.014Z</time></trkpt><trkpt lat="45.2933236" lon="10.7261568"><ele>42.0</ele><time>2026-04-27T10:44:57.014Z</time></trkpt><trkpt lat="45.2934077" lon="10.7260959"><ele>42.0</ele><time>2026-04-27T10:44:59.014Z</time></trkpt><trkpt lat="45.2934891" lon="10.7260287"><ele>42.0</ele><time>2026-04-27T10:45:01.015Z</time></trkpt><trkpt lat="45.293571" lon="10.7259593"><ele>42.0</ele><time>2026-04-27T10:45:03.015Z</time></trkpt><trkpt lat="45.2936431" lon="10.7258938"><ele>42.0</ele><time>2026-04-27T10:45:05.014Z</time></trkpt><trkpt lat="45.2937207" lon="10.7258326"><ele>42.0</ele><time>2026-04-27T10:45:07.015Z</time></trkpt><trkpt lat="45.2938008" lon="10.7257641"><ele>42.0</ele><time>2026-04-27T10:45:09.013Z</time></trkpt><trkpt lat="45.2938894" lon="10.7256882"><ele>42.2</ele><time>2026-04-27T10:45:11.013Z</time></trkpt><trkpt lat="45.2939782" lon="10.7256017"><ele>42.400000000000006</ele><time>2026-04-27T10:45:13.013Z</time></trkpt><trkpt lat="45.2940662" lon="10.7255195"><ele>42.599999999999994</ele><time>2026-04-27T10:45:15.013Z</time></trkpt><trkpt lat="45.2941594" lon="10.7254405"><ele>42.8</ele><time>2026-04-27T10:45:17.013Z</time></trkpt><trkpt lat="45.2942446" lon="10.7253618"><ele>43.0</ele><time>2026-04-27T10:45:19.014Z</time></trkpt><trkpt lat="45.2943245" lon="10.7252843"><ele>43.4</ele><time>2026-04-27T10:45:21.014Z</time></trkpt><trkpt lat="45.2944044" lon="10.7252158"><ele>43.8</ele><time>2026-04-27T10:45:23.013Z</time></trkpt><trkpt lat="45.2944816" lon="10.7251278"><ele>44.2</ele><time>2026-04-27T10:45:25.014Z</time></trkpt><trkpt lat="45.2945526" lon="10.7250358"><ele>44.6</ele><time>2026-04-27T10:45:27.013Z</time></trkpt><trkpt lat="45.2946205" lon="10.7249427"><ele>45.0</ele><time>2026-04-27T10:45:29.013Z</time></trkpt><trkpt lat="45.2947047" lon="10.724847"><ele>44.8</ele><time>2026-04-27T10:45:31.014Z</time></trkpt><trkpt lat="45.2947901" lon="10.7247581"><ele>44.6</ele><time>2026-04-27T10:45:33.013Z</time></trkpt><trkpt lat="45.294866" lon="10.7246635"><ele>44.400000000000006</ele><time>2026-04-27T10:45:35.013Z</time></trkpt><trkpt lat="45.2949474" lon="10.724579"><ele>44.2</ele><time>2026-04-27T10:45:37.013Z</time></trkpt><trkpt lat="45.2950235" lon="10.7244956"><ele>44.0</ele><time>2026-04-27T10:45:39.014Z</time></trkpt><trkpt lat="45.2951095" lon="10.7244084"><ele>43.75</ele><time>2026-04-27T10:45:41.013Z</time></trkpt><trkpt lat="45.295207" lon="10.7243103"><ele>43.5</ele><time>2026-04-27T10:45:43.013Z</time></trkpt><trkpt lat="45.2953023" lon="10.7242184"><ele>43.25</ele><time>2026-04-27T10:45:45.013Z</time></trkpt><trkpt lat="45.2953994" lon="10.7241298"><ele>43.0</ele><time>2026-04-27T10:45:47.014Z</time></trkpt><trkpt lat="45.2954854" lon="10.7240401"><ele>43.0</ele><time>2026-04-27T10:45:49.013Z</time></trkpt><trkpt lat="45.2955667" lon="10.723945"><ele>43.0</ele><time>2026-04-27T10:45:51.014Z</time></trkpt><trkpt lat="45.2956468" lon="10.7238568"><ele>43.0</ele><time>2026-04-27T10:45:53.014Z</time></trkpt><trkpt lat="45.2957252" lon="10.7237634"><ele>43.0</ele><time>2026-04-27T10:45:55.013Z</time></trkpt><trkpt lat="45.2958018" lon="10.7236675"><ele>43.0</ele><time>2026-04-27T10:45:57.014Z</time></trkpt><trkpt lat="45.2958819" lon="10.7235755"><ele>42.8</ele><time>2026-04-27T10:45:59.014Z</time></trkpt><trkpt lat="45.2959629" lon="10.7234865"><ele>42.599999999999994</ele><time>2026-04-27T10:46:01.013Z</time></trkpt><trkpt lat="45.2960466" lon="10.7233972"><ele>42.400000000000006</ele><time>2026-04-27T10:46:03.014Z</time></trkpt><trkpt lat="45.2961264" lon="10.723307"><ele>42.2</ele><time>2026-04-27T10:46:05.014Z</time></trkpt><trkpt lat="45.2962099" lon="10.7232236"><ele>42.0</ele><time>2026-04-27T10:46:07.014Z</time></trkpt><trkpt lat="45.2962917" lon="10.7231351"><ele>42.0</ele><time>2026-04-27T10:46:09.013Z</time></trkpt><trkpt lat="45.2963733" lon="10.7230333"><ele>42.0</ele><time>2026-04-27T10:46:11.013Z</time></trkpt><trkpt lat="45.2964629" lon="10.722939"><ele>42.0</ele><time>2026-04-27T10:46:13.013Z</time></trkpt><trkpt lat="45.2965497" lon="10.7228293"><ele>42.0</ele><time>2026-04-27T10:46:15.013Z</time></trkpt><trkpt lat="45.2966399" lon="10.7227397"><ele>42.0</ele><time>2026-04-27T10:46:17.013Z</time></trkpt><trkpt lat="45.2966906" lon="10.7226823"><ele>42.75</ele><time>2026-04-27T10:46:18.013Z</time></trkpt><trkpt lat="45.2967827" lon="10.7225927"><ele>43.5</ele><time>2026-04-27T10:46:20.013Z</time></trkpt><trkpt lat="45.2968702" lon="10.7224905"><ele>44.25</ele><time>2026-04-27T10:46:22.014Z</time></trkpt><trkpt lat="45.2969582" lon="10.7223871"><ele>45.0</ele><time>2026-04-27T10:46:24.013Z</time></trkpt><trkpt lat="45.2970511" lon="10.7222863"><ele>45.0</ele><time>2026-04-27T10:46:26.014Z</time></trkpt><trkpt lat="45.2971417" lon="10.722179"><ele>45.0</ele><time>2026-04-27T10:46:28.013Z</time></trkpt><trkpt lat="45.2972304" lon="10.7220774"><ele>45.0</ele><time>2026-04-27T10:46:30.013Z</time></trkpt><trkpt lat="45.2973196" lon="10.7219807"><ele>45.0</ele><time>2026-04-27T10:46:32.013Z</time></trkpt><trkpt lat="45.2974131" lon="10.7218922"><ele>44.8</ele><time>2026-04-27T10:46:34.013Z</time></trkpt><trkpt lat="45.297505" lon="10.7218094"><ele>44.6</ele><time>2026-04-27T10:46:36.013Z</time></trkpt><trkpt lat="45.2975914" lon="10.7217353"><ele>44.400000000000006</ele><time>2026-04-27T10:46:38.014Z</time></trkpt><trkpt lat="45.2976732" lon="10.7216367"><ele>44.2</ele><time>2026-04-27T10:46:40.013Z</time></trkpt><trkpt lat="45.2977695" lon="10.7215391"><ele>44.0</ele><time>2026-04-27T10:46:42.014Z</time></trkpt><trkpt lat="45.297857" lon="10.7214562"><ele>44.0</ele><time>2026-04-27T10:46:44.013Z</time></trkpt><trkpt lat="45.2979443" lon="10.7213696"><ele>44.0</ele><time>2026-04-27T10:46:46.014Z</time></trkpt><trkpt lat="45.2980312" lon="10.72129"><ele>44.0</ele><time>2026-04-27T10:46:48.014Z</time></trkpt><trkpt lat="45.2981191" lon="10.7211843"><ele>44.0</ele><time>2026-04-27T10:46:50.013Z</time></trkpt><trkpt lat="45.2982107" lon="10.7210788"><ele>44.0</ele><time>2026-04-27T10:46:52.014Z</time></trkpt><trkpt lat="45.2982644" lon="10.7210166"><ele>44.0</ele><time>2026-04-27T10:46:53.013Z</time></trkpt><trkpt lat="45.298309" lon="10.7209484"><ele>44.0</ele><time>2026-04-27T10:46:54.014Z</time></trkpt><trkpt lat="45.2983585" lon="10.7208872"><ele>44.0</ele><time>2026-04-27T10:46:55.013Z</time></trkpt><trkpt lat="45.2984592" lon="10.7207862"><ele>44.0</ele><time>2026-04-27T10:46:57.013Z</time></trkpt><trkpt lat="45.2985562" lon="10.7206757"><ele>44.0</ele><time>2026-04-27T10:46:59.014Z</time></trkpt><trkpt lat="45.2986484" lon="10.7205686"><ele>44.0</ele><time>2026-04-27T10:47:01.013Z</time></trkpt><trkpt lat="45.298736" lon="10.7204548"><ele>44.0</ele><time>2026-04-27T10:47:03.013Z</time></trkpt><trkpt lat="45.29878" lon="10.7203896"><ele>44.0</ele><time>2026-04-27T10:47:04.014Z</time></trkpt><trkpt lat="45.2988716" lon="10.7202585"><ele>44.0</ele><time>2026-04-27T10:47:06.013Z</time></trkpt><trkpt lat="45.2989663" lon="10.7201503"><ele>44.0</ele><time>2026-04-27T10:47:08.013Z</time></trkpt><trkpt lat="45.2990646" lon="10.7200432"><ele>44.75</ele><time>2026-04-27T10:47:10.013Z</time></trkpt><trkpt lat="45.2991617" lon="10.7199427"><ele>45.5</ele><time>2026-04-27T10:47:12.014Z</time></trkpt><trkpt lat="45.2992579" lon="10.7198323"><ele>46.25</ele><time>2026-04-27T10:47:14.014Z</time></trkpt><trkpt lat="45.2993456" lon="10.7197159"><ele>47.0</ele><time>2026-04-27T10:47:16.013Z</time></trkpt><trkpt lat="45.2994197" lon="10.7195894"><ele>47.0</ele><time>2026-04-27T10:47:18.014Z</time></trkpt><trkpt lat="45.2995067" lon="10.7194751"><ele>47.0</ele><time>2026-04-27T10:47:20.014Z</time></trkpt><trkpt lat="45.2995932" lon="10.719366"><ele>47.0</ele><time>2026-04-27T10:47:22.014Z</time></trkpt><trkpt lat="45.2996806" lon="10.7192492"><ele>47.0</ele><time>2026-04-27T10:47:24.013Z</time></trkpt><trkpt lat="45.2997666" lon="10.7191409"><ele>46.6</ele><time>2026-04-27T10:47:26.014Z</time></trkpt><trkpt lat="45.2998534" lon="10.7190339"><ele>46.2</ele><time>2026-04-27T10:47:28.014Z</time></trkpt><trkpt lat="45.2999307" lon="10.7189237"><ele>45.8</ele><time>2026-04-27T10:47:30.014Z</time></trkpt><trkpt lat="45.3000095" lon="10.7188187"><ele>45.4</ele><time>2026-04-27T10:47:32.014Z</time></trkpt><trkpt lat="45.3000951" lon="10.7187111"><ele>45.0</ele><time>2026-04-27T10:47:34.014Z</time></trkpt><trkpt lat="45.3001839" lon="10.718604"><ele>44.8</ele><time>2026-04-27T10:47:36.014Z</time></trkpt><trkpt lat="45.3002761" lon="10.7185068"><ele>44.6</ele><time>2026-04-27T10:47:38.014Z</time></trkpt><trkpt lat="45.3003562" lon="10.7184101"><ele>44.400000000000006</ele><time>2026-04-27T10:47:40.013Z</time></trkpt><trkpt lat="45.3004316" lon="10.7183227"><ele>44.2</ele><time>2026-04-27T10:47:42.014Z</time></trkpt><trkpt lat="45.3004997" lon="10.7182336"><ele>44.0</ele><time>2026-04-27T10:47:44.014Z</time></trkpt><trkpt lat="45.3005619" lon="10.7181299"><ele>44.0</ele><time>2026-04-27T10:47:46.013Z</time></trkpt><trkpt lat="45.3006333" lon="10.7180246"><ele>44.0</ele><time>2026-04-27T10:47:48.013Z</time></trkpt><trkpt lat="45.3006965" lon="10.717904"><ele>44.0</ele><time>2026-04-27T10:47:50.014Z</time></trkpt><trkpt lat="45.3007696" lon="10.7177851"><ele>44.0</ele><time>2026-04-27T10:47:52.013Z</time></trkpt><trkpt lat="45.3008435" lon="10.7176643"><ele>44.0</ele><time>2026-04-27T10:47:54.014Z</time></trkpt><trkpt lat="45.3009187" lon="10.7175483"><ele>44.0</ele><time>2026-04-27T10:47:56.014Z</time></trkpt><trkpt lat="45.3009996" lon="10.7174262"><ele>44.0</ele><time>2026-04-27T10:47:58.013Z</time></trkpt><trkpt lat="45.3010831" lon="10.7172912"><ele>44.0</ele><time>2026-04-27T10:48:00.013Z</time></trkpt><trkpt lat="45.3011654" lon="10.7171619"><ele>44.0</ele><time>2026-04-27T10:48:02.014Z</time></trkpt><trkpt lat="45.3012505" lon="10.717039"><ele>44.0</ele><time>2026-04-27T10:48:04.014Z</time></trkpt><trkpt lat="45.3012929" lon="10.7169643"><ele>44.0</ele><time>2026-04-27T10:48:05.013Z</time></trkpt><trkpt lat="45.3013344" lon="10.7168888"><ele>44.0</ele><time>2026-04-27T10:48:06.014Z</time></trkpt><trkpt lat="45.301377" lon="10.7168169"><ele>44.0</ele><time>2026-04-27T10:48:07.014Z</time></trkpt><trkpt lat="45.3014203" lon="10.7167512"><ele>44.0</ele><time>2026-04-27T10:48:08.014Z</time></trkpt><trkpt lat="45.3015033" lon="10.7166213"><ele>44.0</ele><time>2026-04-27T10:48:10.013Z</time></trkpt><trkpt lat="45.3015797" lon="10.7164982"><ele>44.0</ele><time>2026-04-27T10:48:12.014Z</time></trkpt><trkpt lat="45.301655" lon="10.7163633"><ele>44.0</ele><time>2026-04-27T10:48:14.013Z</time></trkpt><trkpt lat="45.301715" lon="10.7162117"><ele>44.0</ele><time>2026-04-27T10:48:16.014Z</time></trkpt><trkpt lat="45.30175" lon="10.7161367"><ele>44.0</ele><time>2026-04-27T10:48:17.014Z</time></trkpt><trkpt lat="45.3018117" lon="10.716015"><ele>44.0</ele><time>2026-04-27T10:48:19.013Z</time></trkpt><trkpt lat="45.3018833" lon="10.7158867"><ele>44.0</ele><time>2026-04-27T10:48:21.014Z</time></trkpt><trkpt lat="45.301955" lon="10.7157483"><ele>44.0</ele><time>2026-04-27T10:48:23.014Z</time></trkpt><trkpt lat="45.3020167" lon="10.7156"><ele>44.0</ele><time>2026-04-27T10:48:25.014Z</time></trkpt><trkpt lat="45.3020783" lon="10.7154617"><ele>44.0</ele><time>2026-04-27T10:48:27.014Z</time></trkpt><trkpt lat="45.3021267" lon="10.7153217"><ele>44.0</ele><time>2026-04-27T10:48:29.013Z</time></trkpt><trkpt lat="45.3021767" lon="10.7151817"><ele>44.0</ele><time>2026-04-27T10:48:31.013Z</time></trkpt><trkpt lat="45.302235" lon="10.7150467"><ele>44.0</ele><time>2026-04-27T10:48:33.014Z</time></trkpt><trkpt lat="45.3022983" lon="10.714905"><ele>44.0</ele><time>2026-04-27T10:48:35.013Z</time></trkpt><trkpt lat="45.3023583" lon="10.71478"><ele>44.0</ele><time>2026-04-27T10:48:37.013Z</time></trkpt><trkpt lat="45.302415" lon="10.71466"><ele>44.0</ele><time>2026-04-27T10:48:39.014Z</time></trkpt><trkpt lat="45.3024717" lon="10.714535"><ele>44.0</ele><time>2026-04-27T10:48:41.014Z</time></trkpt><trkpt lat="45.3025317" lon="10.7144167"><ele>44.0</ele><time>2026-04-27T10:48:43.014Z</time></trkpt><trkpt lat="45.30258" lon="10.7142883"><ele>44.0</ele><time>2026-04-27T10:48:45.013Z</time></trkpt><trkpt lat="45.3026383" lon="10.7141633"><ele>44.0</ele><time>2026-04-27T10:48:47.014Z</time></trkpt><trkpt lat="45.302695" lon="10.71404"><ele>43.6</ele><time>2026-04-27T10:48:49.014Z</time></trkpt><trkpt lat="45.3027417" lon="10.71391"><ele>43.2</ele><time>2026-04-27T10:48:51.013Z</time></trkpt><trkpt lat="45.3027917" lon="10.7137767"><ele>42.800000000000004</ele><time>2026-04-27T10:48:53.014Z</time></trkpt><trkpt lat="45.30284" lon="10.7136433"><ele>42.400000000000006</ele><time>2026-04-27T10:48:55.014Z</time></trkpt><trkpt lat="45.3028883" lon="10.71351"><ele>42.0</ele><time>2026-04-27T10:48:57.014Z</time></trkpt><trkpt lat="45.30293" lon="10.71339"><ele>42.0</ele><time>2026-04-27T10:48:59.013Z</time></trkpt><trkpt lat="45.3029733" lon="10.713265"><ele>42.0</ele><time>2026-04-27T10:49:01.014Z</time></trkpt><trkpt lat="45.3030233" lon="10.7131517"><ele>42.0</ele><time>2026-04-27T10:49:03.014Z</time></trkpt><trkpt lat="45.3030517" lon="10.7130517"><ele>42.0</ele><time>2026-04-27T10:49:05.013Z</time></trkpt><trkpt lat="45.3030833" lon="10.71295"><ele>42.0</ele><time>2026-04-27T10:49:07.013Z</time></trkpt><trkpt lat="45.3031167" lon="10.7128467"><ele>42.0</ele><time>2026-04-27T10:49:09.014Z</time></trkpt><trkpt lat="45.3031483" lon="10.7127433"><ele>42.333333333333336</ele><time>2026-04-27T10:49:11.013Z</time></trkpt><trkpt lat="45.3031817" lon="10.7126533"><ele>42.666666666666664</ele><time>2026-04-27T10:49:13.014Z</time></trkpt><trkpt lat="45.3032167" lon="10.7125467"><ele>43.0</ele><time>2026-04-27T10:49:16.013Z</time></trkpt><trkpt lat="45.30324" lon="10.7124583"><ele>43.33333333333333</ele><time>2026-04-27T10:49:18.014Z</time></trkpt><trkpt lat="45.30327" lon="10.7123783"><ele>43.666666666666664</ele><time>2026-04-27T10:49:20.014Z</time></trkpt><trkpt lat="45.3032983" lon="10.7122633"><ele>44.0</ele><time>2026-04-27T10:49:23.014Z</time></trkpt><trkpt lat="45.3033133" lon="10.7121483"><ele>44.0</ele><time>2026-04-27T10:49:26.014Z</time></trkpt><trkpt lat="45.3033233" lon="10.7120583"><ele>44.0</ele><time>2026-04-27T10:49:31.014Z</time></trkpt><trkpt lat="45.30333" lon="10.71195"><ele>44.0</ele><time>2026-04-27T10:50:02.013Z</time></trkpt><trkpt lat="45.3033383" lon="10.7118583"><ele>44.0</ele><time>2026-04-27T10:50:07.013Z</time></trkpt><trkpt lat="45.3033983" lon="10.71177"><ele>44.0</ele><time>2026-04-27T10:51:22.012Z</time></trkpt><trkpt lat="45.303405" lon="10.71166"><ele>44.0</ele><time>2026-04-27T10:51:25.013Z</time></trkpt><trkpt lat="45.3034183" lon="10.71157"><ele>44.0</ele><time>2026-04-27T10:51:27.012Z</time></trkpt><trkpt lat="45.303445" lon="10.7114467"><ele>44.0</ele><time>2026-04-27T10:51:30.013Z</time></trkpt><trkpt lat="45.30346" lon="10.7113567"><ele>44.0</ele><time>2026-04-27T10:51:32.013Z</time></trkpt><trkpt lat="45.30348" lon="10.7112683"><ele>44.0</ele><time>2026-04-27T10:51:34.012Z</time></trkpt><trkpt lat="45.3034967" lon="10.711175"><ele>44.0</ele><time>2026-04-27T10:51:36.013Z</time></trkpt><trkpt lat="45.3035183" lon="10.7110733"><ele>44.0</ele><time>2026-04-27T10:51:38.012Z</time></trkpt><trkpt lat="45.3035417" lon="10.71097"><ele>44.0</ele><time>2026-04-27T10:51:40.013Z</time></trkpt><trkpt lat="45.30356" lon="10.7108583"><ele>44.0</ele><time>2026-04-27T10:51:42.012Z</time></trkpt><trkpt lat="45.3035767" lon="10.7107367"><ele>44.0</ele><time>2026-04-27T10:51:44.012Z</time></trkpt><trkpt lat="45.3035833" lon="10.7106117"><ele>44.0</ele><time>2026-04-27T10:51:46.013Z</time></trkpt><trkpt lat="45.3035967" lon="10.7104933"><ele>44.0</ele><time>2026-04-27T10:51:48.012Z</time></trkpt><trkpt lat="45.3036083" lon="10.7103167"><ele>44.0</ele><time>2026-04-27T10:51:51.012Z</time></trkpt><trkpt lat="45.3036283" lon="10.7101967"><ele>44.0</ele><time>2026-04-27T10:51:53.012Z</time></trkpt><trkpt lat="45.30364" lon="10.7100767"><ele>43.83333333333333</ele><time>2026-04-27T10:51:55.013Z</time></trkpt><trkpt lat="45.3036533" lon="10.709955"><ele>43.666666666666664</ele><time>2026-04-27T10:51:57.012Z</time></trkpt><trkpt lat="45.3036633" lon="10.709845"><ele>43.5</ele><time>2026-04-27T10:51:59.013Z</time></trkpt><trkpt lat="45.3036817" lon="10.7097333"><ele>43.333333333333336</ele><time>2026-04-27T10:52:01.013Z</time></trkpt><trkpt lat="45.3037017" lon="10.7096017"><ele>43.16666666666667</ele><time>2026-04-27T10:52:03.012Z</time></trkpt><trkpt lat="45.30371" lon="10.709465"><ele>43.0</ele><time>2026-04-27T10:52:05.013Z</time></trkpt><trkpt lat="45.3037183" lon="10.7093433"><ele>43.0</ele><time>2026-04-27T10:52:07.012Z</time></trkpt><trkpt lat="45.30373" lon="10.7092333"><ele>43.0</ele><time>2026-04-27T10:52:09.013Z</time></trkpt><trkpt lat="45.3037483" lon="10.70912"><ele>43.0</ele><time>2026-04-27T10:52:11.012Z</time></trkpt><trkpt lat="45.3037583" lon="10.7089883"><ele>43.0</ele><time>2026-04-27T10:52:13.013Z</time></trkpt><trkpt lat="45.3038033" lon="10.70888"><ele>43.0</ele><time>2026-04-27T10:52:16.012Z</time></trkpt><trkpt lat="45.3038117" lon="10.70878"><ele>43.0</ele><time>2026-04-27T10:52:18.012Z</time></trkpt><trkpt lat="45.3038167" lon="10.7086633"><ele>43.333333333333336</ele><time>2026-04-27T10:52:20.012Z</time></trkpt><trkpt lat="45.3038167" lon="10.708555"><ele>43.66666666666667</ele><time>2026-04-27T10:52:22.013Z</time></trkpt><trkpt lat="45.303815" lon="10.708465"><ele>44.0</ele><time>2026-04-27T10:52:24.013Z</time></trkpt><trkpt lat="45.3038017" lon="10.7083433"><ele>44.333333333333336</ele><time>2026-04-27T10:52:27.013Z</time></trkpt><trkpt lat="45.3038233" lon="10.7082233"><ele>44.666666666666664</ele><time>2026-04-27T10:52:31.012Z</time></trkpt><trkpt lat="45.303825" lon="10.7081317"><ele>45.0</ele><time>2026-04-27T10:52:33.012Z</time></trkpt><trkpt lat="45.3038083" lon="10.70803"><ele>45.0</ele><time>2026-04-27T10:52:35.012Z</time></trkpt><trkpt lat="45.3037883" lon="10.7079133"><ele>45.0</ele><time>2026-04-27T10:52:37.012Z</time></trkpt><trkpt lat="45.3037733" lon="10.7077583"><ele>45.0</ele><time>2026-04-27T10:52:39.013Z</time></trkpt><trkpt lat="45.30376" lon="10.70759"><ele>45.0</ele><time>2026-04-27T10:52:41.013Z</time></trkpt><trkpt lat="45.3037617" lon="10.7074867"><ele>45.0</ele><time>2026-04-27T10:52:42.012Z</time></trkpt><trkpt lat="45.3037667" lon="10.7073833"><ele>44.6</ele><time>2026-04-27T10:52:43.012Z</time></trkpt><trkpt lat="45.3037617" lon="10.7072867"><ele>44.2</ele><time>2026-04-27T10:52:44.012Z</time></trkpt><trkpt lat="45.3037633" lon="10.7071933"><ele>43.8</ele><time>2026-04-27T10:52:45.013Z</time></trkpt><trkpt lat="45.3037483" lon="10.707015"><ele>43.4</ele><time>2026-04-27T10:52:47.013Z</time></trkpt><trkpt lat="45.3037367" lon="10.7068567"><ele>43.0</ele><time>2026-04-27T10:52:49.012Z</time></trkpt><trkpt lat="45.303725" lon="10.7067"><ele>42.8</ele><time>2026-04-27T10:52:51.013Z</time></trkpt><trkpt lat="45.3037217" lon="10.7065433"><ele>42.599999999999994</ele><time>2026-04-27T10:52:53.012Z</time></trkpt><trkpt lat="45.30372" lon="10.7064017"><ele>42.400000000000006</ele><time>2026-04-27T10:52:55.013Z</time></trkpt><trkpt lat="45.3037133" lon="10.7062683"><ele>42.2</ele><time>2026-04-27T10:52:57.013Z</time></trkpt><trkpt lat="45.3037017" lon="10.70612"><ele>42.0</ele><time>2026-04-27T10:52:59.012Z</time></trkpt><trkpt lat="45.3036933" lon="10.7059833"><ele>42.0</ele><time>2026-04-27T10:53:01.013Z</time></trkpt><trkpt lat="45.3036767" lon="10.7058383"><ele>42.0</ele><time>2026-04-27T10:53:03.012Z</time></trkpt><trkpt lat="45.3036617" lon="10.7056883"><ele>42.0</ele><time>2026-04-27T10:53:05.012Z</time></trkpt><trkpt lat="45.3036633" lon="10.7055417"><ele>42.0</ele><time>2026-04-27T10:53:07.012Z</time></trkpt><trkpt lat="45.3036583" lon="10.705395"><ele>42.0</ele><time>2026-04-27T10:53:09.013Z</time></trkpt><trkpt lat="45.3036667" lon="10.705245"><ele>42.400000000000006</ele><time>2026-04-27T10:53:11.013Z</time></trkpt><trkpt lat="45.3036783" lon="10.7050867"><ele>42.800000000000004</ele><time>2026-04-27T10:53:13.012Z</time></trkpt><trkpt lat="45.303695" lon="10.7049517"><ele>43.2</ele><time>2026-04-27T10:53:15.013Z</time></trkpt><trkpt lat="45.303715" lon="10.7048183"><ele>43.6</ele><time>2026-04-27T10:53:17.013Z</time></trkpt><trkpt lat="45.3037383" lon="10.7046767"><ele>44.0</ele><time>2026-04-27T10:53:19.012Z</time></trkpt><trkpt lat="45.3037617" lon="10.7045367"><ele>44.0</ele><time>2026-04-27T10:53:21.013Z</time></trkpt><trkpt lat="45.3037917" lon="10.704405"><ele>44.0</ele><time>2026-04-27T10:53:23.012Z</time></trkpt><trkpt lat="45.3038217" lon="10.70427"><ele>44.0</ele><time>2026-04-27T10:53:25.013Z</time></trkpt><trkpt lat="45.3038683" lon="10.7040517"><ele>44.0</ele><time>2026-04-27T10:53:28.013Z</time></trkpt><trkpt lat="45.3039183" lon="10.70393"><ele>43.800000000000004</ele><time>2026-04-27T10:53:30.013Z</time></trkpt><trkpt lat="45.3039667" lon="10.7038"><ele>43.6</ele><time>2026-04-27T10:53:32.013Z</time></trkpt><trkpt lat="45.3040133" lon="10.7036733"><ele>43.4</ele><time>2026-04-27T10:53:34.012Z</time></trkpt><trkpt lat="45.3040717" lon="10.7035433"><ele>43.2</ele><time>2026-04-27T10:53:36.013Z</time></trkpt><trkpt lat="45.3041267" lon="10.7034283"><ele>43.0</ele><time>2026-04-27T10:53:38.012Z</time></trkpt><trkpt lat="45.3041983" lon="10.703315"><ele>43.0</ele><time>2026-04-27T10:53:40.012Z</time></trkpt><trkpt lat="45.3042667" lon="10.7031983"><ele>43.0</ele><time>2026-04-27T10:53:42.012Z</time></trkpt><trkpt lat="45.3043367" lon="10.7030767"><ele>43.0</ele><time>2026-04-27T10:53:44.012Z</time></trkpt><trkpt lat="45.3044017" lon="10.702985"><ele>43.0</ele><time>2026-04-27T10:53:46.012Z</time></trkpt><trkpt lat="45.304475" lon="10.70288"><ele>43.0</ele><time>2026-04-27T10:53:48.012Z</time></trkpt><trkpt lat="45.3045417" lon="10.7027667"><ele>43.2</ele><time>2026-04-27T10:53:50.013Z</time></trkpt><trkpt lat="45.3046083" lon="10.7026583"><ele>43.4</ele><time>2026-04-27T10:53:52.013Z</time></trkpt><trkpt lat="45.30466" lon="10.7025433"><ele>43.6</ele><time>2026-04-27T10:53:54.012Z</time></trkpt><trkpt lat="45.3047117" lon="10.7024317"><ele>43.800000000000004</ele><time>2026-04-27T10:53:56.012Z</time></trkpt><trkpt lat="45.3047717" lon="10.7023217"><ele>44.0</ele><time>2026-04-27T10:53:58.012Z</time></trkpt><trkpt lat="45.3048333" lon="10.702215"><ele>44.0</ele><time>2026-04-27T10:54:00.013Z</time></trkpt><trkpt lat="45.3048917" lon="10.7021067"><ele>44.0</ele><time>2026-04-27T10:54:02.012Z</time></trkpt><trkpt lat="45.3049483" lon="10.7020033"><ele>44.0</ele><time>2026-04-27T10:54:04.013Z</time></trkpt><trkpt lat="45.3049983" lon="10.7019"><ele>44.0</ele><time>2026-04-27T10:54:06.013Z</time></trkpt><trkpt lat="45.3050483" lon="10.70178"><ele>44.0</ele><time>2026-04-27T10:54:08.013Z</time></trkpt><trkpt lat="45.3050967" lon="10.701685"><ele>43.83333333333333</ele><time>2026-04-27T10:54:10.012Z</time></trkpt><trkpt lat="45.305145" lon="10.7015883"><ele>43.666666666666664</ele><time>2026-04-27T10:54:12.012Z</time></trkpt><trkpt lat="45.3052067" lon="10.7014833"><ele>43.5</ele><time>2026-04-27T10:54:14.013Z</time></trkpt><trkpt lat="45.3052717" lon="10.7014017"><ele>43.333333333333336</ele><time>2026-04-27T10:54:16.013Z</time></trkpt><trkpt lat="45.3053333" lon="10.7013483"><ele>43.16666666666667</ele><time>2026-04-27T10:54:19.012Z</time></trkpt><trkpt lat="45.305285" lon="10.7014267"><ele>43.0</ele><time>2026-04-27T10:54:24.012Z</time></trkpt><trkpt lat="45.3052333" lon="10.7015033"><ele>43.0</ele><time>2026-04-27T10:54:27.012Z</time></trkpt><trkpt lat="45.3052833" lon="10.7014033"><ele>43.0</ele><time>2026-04-27T10:55:08.012Z</time></trkpt><trkpt lat="45.30536" lon="10.7013267"><ele>43.0</ele><time>2026-04-27T10:55:11.013Z</time></trkpt><trkpt lat="45.305425" lon="10.70126"><ele>43.0</ele><time>2026-04-27T10:55:13.012Z</time></trkpt><trkpt lat="45.3054983" lon="10.7012033"><ele>43.0</ele><time>2026-04-27T10:55:15.013Z</time></trkpt><trkpt lat="45.30556" lon="10.7011433"><ele>43.0</ele><time>2026-04-27T10:55:17.013Z</time></trkpt><trkpt lat="45.3056367" lon="10.7010817"><ele>43.16666666666667</ele><time>2026-04-27T10:55:20.012Z</time></trkpt><trkpt lat="45.3057267" lon="10.70103"><ele>43.333333333333336</ele><time>2026-04-27T10:55:23.013Z</time></trkpt><trkpt lat="45.30579" lon="10.701005"><ele>43.5</ele><time>2026-04-27T10:55:25.012Z</time></trkpt><trkpt lat="45.3058583" lon="10.7009717"><ele>43.666666666666664</ele><time>2026-04-27T10:55:27.013Z</time></trkpt><trkpt lat="45.3059367" lon="10.7009517"><ele>43.83333333333333</ele><time>2026-04-27T10:55:29.012Z</time></trkpt><trkpt lat="45.30601" lon="10.700915"><ele>44.0</ele><time>2026-04-27T10:55:31.012Z</time></trkpt><trkpt lat="45.30622" lon="10.7009217"><ele>44.0</ele><time>2026-04-27T10:55:36.012Z</time></trkpt><trkpt lat="45.30631" lon="10.70093"><ele>44.0</ele><time>2026-04-27T10:55:38.013Z</time></trkpt><trkpt lat="45.3064" lon="10.700915"><ele>44.0</ele><time>2026-04-27T10:55:40.013Z</time></trkpt><trkpt lat="45.3065" lon="10.700915"><ele>44.0</ele><time>2026-04-27T10:55:42.013Z</time></trkpt><trkpt lat="45.3065917" lon="10.7009067"><ele>44.0</ele><time>2026-04-27T10:55:44.013Z</time></trkpt><trkpt lat="45.3066767" lon="10.7009067"><ele>44.33333333333333</ele><time>2026-04-27T10:55:46.012Z</time></trkpt><trkpt lat="45.3067717" lon="10.7009133"><ele>44.666666666666664</ele><time>2026-04-27T10:55:48.013Z</time></trkpt><trkpt lat="45.30685" lon="10.70091"><ele>45.0</ele><time>2026-04-27T10:55:50.013Z</time></trkpt><trkpt lat="45.306935" lon="10.7009117"><ele>45.333333333333336</ele><time>2026-04-27T10:55:52.013Z</time></trkpt><trkpt lat="45.3070283" lon="10.7009083"><ele>45.66666666666667</ele><time>2026-04-27T10:55:54.012Z</time></trkpt><trkpt lat="45.307115" lon="10.70091"><ele>46.0</ele><time>2026-04-27T10:55:56.011Z</time></trkpt><trkpt lat="45.3071983" lon="10.700925"><ele>46.0</ele><time>2026-04-27T10:55:58.011Z</time></trkpt><trkpt lat="45.30729" lon="10.7009333"><ele>46.0</ele><time>2026-04-27T10:56:00.011Z</time></trkpt><trkpt lat="45.3073767" lon="10.7009517"><ele>46.0</ele><time>2026-04-27T10:56:02.012Z</time></trkpt><trkpt lat="45.307475" lon="10.7009733"><ele>46.0</ele><time>2026-04-27T10:56:04.012Z</time></trkpt><trkpt lat="45.307565" lon="10.7009983"><ele>46.0</ele><time>2026-04-27T10:56:06.011Z</time></trkpt><trkpt lat="45.3076517" lon="10.7010317"><ele>46.0</ele><time>2026-04-27T10:56:08.012Z</time></trkpt><trkpt lat="45.3077417" lon="10.701045"><ele>46.0</ele><time>2026-04-27T10:56:10.012Z</time></trkpt><trkpt lat="45.3078367" lon="10.7010833"><ele>46.0</ele><time>2026-04-27T10:56:12.012Z</time></trkpt><trkpt lat="45.3079183" lon="10.7011267"><ele>46.0</ele><time>2026-04-27T10:56:14.011Z</time></trkpt><trkpt lat="45.3080033" lon="10.70117"><ele>46.0</ele><time>2026-04-27T10:56:16.011Z</time></trkpt><trkpt lat="45.308085" lon="10.7011983"><ele>46.0</ele><time>2026-04-27T10:56:18.011Z</time></trkpt><trkpt lat="45.30817" lon="10.701235"><ele>46.0</ele><time>2026-04-27T10:56:20.012Z</time></trkpt><trkpt lat="45.3082533" lon="10.7012783"><ele>46.0</ele><time>2026-04-27T10:56:22.012Z</time></trkpt><trkpt lat="45.3083283" lon="10.7012983"><ele>46.0</ele><time>2026-04-27T10:56:24.011Z</time></trkpt><trkpt lat="45.308405" lon="10.7013467"><ele>46.0</ele><time>2026-04-27T10:56:26.012Z</time></trkpt><trkpt lat="45.308485" lon="10.7014017"><ele>46.0</ele><time>2026-04-27T10:56:28.012Z</time></trkpt><trkpt lat="45.308565" lon="10.701455"><ele>46.0</ele><time>2026-04-27T10:56:30.012Z</time></trkpt><trkpt lat="45.3086467" lon="10.7015"><ele>46.0</ele><time>2026-04-27T10:56:32.011Z</time></trkpt><trkpt lat="45.3087383" lon="10.70154"><ele>46.0</ele><time>2026-04-27T10:56:34.012Z</time></trkpt><trkpt lat="45.30883" lon="10.7015883"><ele>46.0</ele><time>2026-04-27T10:56:36.011Z</time></trkpt><trkpt lat="45.3089067" lon="10.7016367"><ele>46.0</ele><time>2026-04-27T10:56:38.012Z</time></trkpt><trkpt lat="45.30898" lon="10.7016783"><ele>46.0</ele><time>2026-04-27T10:56:40.012Z</time></trkpt><trkpt lat="45.3090583" lon="10.7016983"><ele>46.16666666666667</ele><time>2026-04-27T10:56:42.011Z</time></trkpt><trkpt lat="45.3091483" lon="10.701735"><ele>46.333333333333336</ele><time>2026-04-27T10:56:44.012Z</time></trkpt><trkpt lat="45.309235" lon="10.701775"><ele>46.5</ele><time>2026-04-27T10:56:46.011Z</time></trkpt><trkpt lat="45.3093133" lon="10.7018017"><ele>46.666666666666664</ele><time>2026-04-27T10:56:48.011Z</time></trkpt><trkpt lat="45.30939" lon="10.7018317"><ele>46.83333333333333</ele><time>2026-04-27T10:56:50.012Z</time></trkpt><trkpt lat="45.309465" lon="10.70187"><ele>47.0</ele><time>2026-04-27T10:56:52.011Z</time></trkpt><trkpt lat="45.30954" lon="10.7019017"><ele>46.83333333333333</ele><time>2026-04-27T10:56:54.012Z</time></trkpt><trkpt lat="45.3096133" lon="10.7019483"><ele>46.666666666666664</ele><time>2026-04-27T10:56:56.011Z</time></trkpt><trkpt lat="45.3096917" lon="10.7019733"><ele>46.5</ele><time>2026-04-27T10:56:58.011Z</time></trkpt><trkpt lat="45.3097683" lon="10.70201"><ele>46.333333333333336</ele><time>2026-04-27T10:57:00.011Z</time></trkpt><trkpt lat="45.3098383" lon="10.7020283"><ele>46.16666666666667</ele><time>2026-04-27T10:57:02.011Z</time></trkpt><trkpt lat="45.3099117" lon="10.7020583"><ele>46.0</ele><time>2026-04-27T10:57:04.012Z</time></trkpt><trkpt lat="45.3099933" lon="10.70208"><ele>46.0</ele><time>2026-04-27T10:57:06.011Z</time></trkpt><trkpt lat="45.3100683" lon="10.702095"><ele>46.0</ele><time>2026-04-27T10:57:08.011Z</time></trkpt><trkpt lat="45.31014" lon="10.7021033"><ele>46.0</ele><time>2026-04-27T10:57:10.012Z</time></trkpt><trkpt lat="45.31021" lon="10.702125"><ele>46.0</ele><time>2026-04-27T10:57:12.011Z</time></trkpt><trkpt lat="45.3102783" lon="10.7021483"><ele>46.0</ele><time>2026-04-27T10:57:14.011Z</time></trkpt><trkpt lat="45.31035" lon="10.702165"><ele>46.0</ele><time>2026-04-27T10:57:16.012Z</time></trkpt><trkpt lat="45.3104333" lon="10.7021983"><ele>46.0</ele><time>2026-04-27T10:57:19.012Z</time></trkpt><trkpt lat="45.310505" lon="10.70223"><ele>46.142857142857146</ele><time>2026-04-27T10:57:22.012Z</time></trkpt><trkpt lat="45.3105767" lon="10.7022367"><ele>46.285714285714285</ele><time>2026-04-27T10:58:31.011Z</time></trkpt><trkpt lat="45.31064" lon="10.7022917"><ele>46.42857142857143</ele><time>2026-04-27T10:58:35.011Z</time></trkpt><trkpt lat="45.3107" lon="10.70235"><ele>46.57142857142857</ele><time>2026-04-27T10:58:39.012Z</time></trkpt><trkpt lat="45.310765" lon="10.7024017"><ele>46.71428571428571</ele><time>2026-04-27T10:58:43.012Z</time></trkpt><trkpt lat="45.3108283" lon="10.7024833"><ele>46.857142857142854</ele><time>2026-04-27T10:58:46.012Z</time></trkpt><trkpt lat="45.310885" lon="10.70254"><ele>47.0</ele><time>2026-04-27T10:58:48.012Z</time></trkpt><trkpt lat="45.31095" lon="10.7025967"><ele>47.0</ele><time>2026-04-27T10:58:50.012Z</time></trkpt><trkpt lat="45.3110267" lon="10.7026583"><ele>47.0</ele><time>2026-04-27T10:58:52.011Z</time></trkpt><trkpt lat="45.3110867" lon="10.7027067"><ele>47.0</ele><time>2026-04-27T10:58:54.012Z</time></trkpt><trkpt lat="45.3111517" lon="10.7027583"><ele>47.0</ele><time>2026-04-27T10:58:56.011Z</time></trkpt><trkpt lat="45.3112183" lon="10.7028167"><ele>47.0</ele><time>2026-04-27T10:58:58.012Z</time></trkpt><trkpt lat="45.311295" lon="10.702865"><ele>47.0</ele><time>2026-04-27T10:59:00.012Z</time></trkpt><trkpt lat="45.3113767" lon="10.7029033"><ele>46.666666666666664</ele><time>2026-04-27T10:59:02.012Z</time></trkpt><trkpt lat="45.3114567" lon="10.70295"><ele>46.33333333333333</ele><time>2026-04-27T10:59:04.011Z</time></trkpt><trkpt lat="45.3115233" lon="10.7030133"><ele>46.0</ele><time>2026-04-27T10:59:06.011Z</time></trkpt><trkpt lat="45.311595" lon="10.70308"><ele>45.666666666666664</ele><time>2026-04-27T10:59:08.011Z</time></trkpt><trkpt lat="45.31167" lon="10.7031283"><ele>45.333333333333336</ele><time>2026-04-27T10:59:10.012Z</time></trkpt><trkpt lat="45.311735" lon="10.703185"><ele>45.0</ele><time>2026-04-27T10:59:12.011Z</time></trkpt><trkpt lat="45.3118117" lon="10.7032267"><ele>45.0</ele><time>2026-04-27T10:59:14.011Z</time></trkpt><trkpt lat="45.3118867" lon="10.7032867"><ele>45.0</ele><time>2026-04-27T10:59:16.011Z</time></trkpt><trkpt lat="45.3119617" lon="10.703325"><ele>45.0</ele><time>2026-04-27T10:59:18.012Z</time></trkpt><trkpt lat="45.31204" lon="10.703385"><ele>45.0</ele><time>2026-04-27T10:59:20.011Z</time></trkpt><trkpt lat="45.3121167" lon="10.70345"><ele>45.0</ele><time>2026-04-27T10:59:22.011Z</time></trkpt><trkpt lat="45.3121883" lon="10.70351"><ele>45.0</ele><time>2026-04-27T10:59:24.012Z</time></trkpt><trkpt lat="45.3122617" lon="10.7035733"><ele>45.166666666666664</ele><time>2026-04-27T10:59:26.011Z</time></trkpt><trkpt lat="45.3123433" lon="10.7036333"><ele>45.333333333333336</ele><time>2026-04-27T10:59:28.011Z</time></trkpt><trkpt lat="45.3124217" lon="10.7036883"><ele>45.5</ele><time>2026-04-27T10:59:30.011Z</time></trkpt><trkpt lat="45.3124883" lon="10.7037483"><ele>45.66666666666667</ele><time>2026-04-27T10:59:32.012Z</time></trkpt><trkpt lat="45.3125783" lon="10.70381"><ele>45.833333333333336</ele><time>2026-04-27T10:59:34.012Z</time></trkpt><trkpt lat="45.3126517" lon="10.7038667"><ele>46.0</ele><time>2026-04-27T10:59:36.011Z</time></trkpt><trkpt lat="45.3127317" lon="10.7039333"><ele>46.0</ele><time>2026-04-27T10:59:38.011Z</time></trkpt><trkpt lat="45.3128183" lon="10.7039917"><ele>46.0</ele><time>2026-04-27T10:59:40.012Z</time></trkpt><trkpt lat="45.3129033" lon="10.7040483"><ele>46.0</ele><time>2026-04-27T10:59:42.012Z</time></trkpt><trkpt lat="45.3129817" lon="10.70411"><ele>46.0</ele><time>2026-04-27T10:59:44.011Z</time></trkpt><trkpt lat="45.3130633" lon="10.7041683"><ele>46.0</ele><time>2026-04-27T10:59:46.012Z</time></trkpt><trkpt lat="45.3131433" lon="10.7042467"><ele>46.199999999999996</ele><time>2026-04-27T10:59:48.011Z</time></trkpt><trkpt lat="45.3132317" lon="10.7043167"><ele>46.4</ele><time>2026-04-27T10:59:50.012Z</time></trkpt><trkpt lat="45.3133117" lon="10.704395"><ele>46.6</ele><time>2026-04-27T10:59:52.011Z</time></trkpt><trkpt lat="45.313385" lon="10.7044583"><ele>46.8</ele><time>2026-04-27T10:59:54.011Z</time></trkpt><trkpt lat="45.3134717" lon="10.7045283"><ele>47.0</ele><time>2026-04-27T10:59:56.011Z</time></trkpt><trkpt lat="45.3135567" lon="10.7045783"><ele>46.666666666666664</ele><time>2026-04-27T10:59:58.012Z</time></trkpt><trkpt lat="45.3136417" lon="10.7046367"><ele>46.33333333333333</ele><time>2026-04-27T11:00:00.012Z</time></trkpt><trkpt lat="45.3137267" lon="10.7047"><ele>46.0</ele><time>2026-04-27T11:00:02.012Z</time></trkpt><trkpt lat="45.3137883" lon="10.7047517"><ele>45.666666666666664</ele><time>2026-04-27T11:00:04.012Z</time></trkpt><trkpt lat="45.3138617" lon="10.7047967"><ele>45.333333333333336</ele><time>2026-04-27T11:00:06.011Z</time></trkpt><trkpt lat="45.313945" lon="10.704875"><ele>45.0</ele><time>2026-04-27T11:00:08.012Z</time></trkpt><trkpt lat="45.3140333" lon="10.704945"><ele>45.0</ele><time>2026-04-27T11:00:10.011Z</time></trkpt><trkpt lat="45.3141117" lon="10.7049933"><ele>45.0</ele><time>2026-04-27T11:00:12.011Z</time></trkpt><trkpt lat="45.31419" lon="10.7050467"><ele>45.0</ele><time>2026-04-27T11:00:14.011Z</time></trkpt><trkpt lat="45.31427" lon="10.7051083"><ele>45.0</ele><time>2026-04-27T11:00:16.011Z</time></trkpt><trkpt lat="45.31436" lon="10.70517"><ele>45.0</ele><time>2026-04-27T11:00:18.012Z</time></trkpt><trkpt lat="45.31444" lon="10.705235"><ele>45.2</ele><time>2026-04-27T11:00:20.012Z</time></trkpt><trkpt lat="45.3145183" lon="10.7053067"><ele>45.4</ele><time>2026-04-27T11:00:22.011Z</time></trkpt><trkpt lat="45.3145967" lon="10.7053567"><ele>45.599999999999994</ele><time>2026-04-27T11:00:24.01Z</time></trkpt><trkpt lat="45.3146817" lon="10.7054267"><ele>45.8</ele><time>2026-04-27T11:00:26.01Z</time></trkpt><trkpt lat="45.314765" lon="10.705485"><ele>46.0</ele><time>2026-04-27T11:00:28.01Z</time></trkpt><trkpt lat="45.3148483" lon="10.7055533"><ele>46.0</ele><time>2026-04-27T11:00:30.011Z</time></trkpt><trkpt lat="45.314925" lon="10.7056233"><ele>46.0</ele><time>2026-04-27T11:00:32.01Z</time></trkpt><trkpt lat="45.3150067" lon="10.7056867"><ele>46.0</ele><time>2026-04-27T11:00:34.011Z</time></trkpt><trkpt lat="45.3150883" lon="10.7057533"><ele>46.0</ele><time>2026-04-27T11:00:36.01Z</time></trkpt><trkpt lat="45.31517" lon="10.7058133"><ele>46.0</ele><time>2026-04-27T11:00:38.011Z</time></trkpt><trkpt lat="45.3152483" lon="10.7058683"><ele>46.0</ele><time>2026-04-27T11:00:40.011Z</time></trkpt><trkpt lat="45.3153317" lon="10.70593"><ele>46.0</ele><time>2026-04-27T11:00:42.011Z</time></trkpt><trkpt lat="45.3154117" lon="10.7059983"><ele>46.0</ele><time>2026-04-27T11:00:44.01Z</time></trkpt><trkpt lat="45.315495" lon="10.7060517"><ele>46.0</ele><time>2026-04-27T11:00:46.01Z</time></trkpt><trkpt lat="45.3155783" lon="10.7061033"><ele>46.0</ele><time>2026-04-27T11:00:48.011Z</time></trkpt><trkpt lat="45.31566" lon="10.7061717"><ele>46.4</ele><time>2026-04-27T11:00:50.01Z</time></trkpt><trkpt lat="45.3157433" lon="10.7062417"><ele>46.8</ele><time>2026-04-27T11:00:52.01Z</time></trkpt><trkpt lat="45.3158233" lon="10.70633"><ele>47.199999999999996</ele><time>2026-04-27T11:00:54.011Z</time></trkpt><trkpt lat="45.31591" lon="10.7063983"><ele>47.599999999999994</ele><time>2026-04-27T11:00:56.01Z</time></trkpt><trkpt lat="45.3159933" lon="10.7064667"><ele>48.0</ele><time>2026-04-27T11:00:58.011Z</time></trkpt><trkpt lat="45.3160733" lon="10.7065183"><ele>48.0</ele><time>2026-04-27T11:01:00.01Z</time></trkpt><trkpt lat="45.3161533" lon="10.706575"><ele>48.0</ele><time>2026-04-27T11:01:02.011Z</time></trkpt><trkpt lat="45.3162383" lon="10.706645"><ele>48.0</ele><time>2026-04-27T11:01:04.011Z</time></trkpt><trkpt lat="45.3163217" lon="10.7067117"><ele>48.0</ele><time>2026-04-27T11:01:06.011Z</time></trkpt><trkpt lat="45.3163933" lon="10.7067817"><ele>48.0</ele><time>2026-04-27T11:01:08.01Z</time></trkpt><trkpt lat="45.3164783" lon="10.7068417"><ele>47.833333333333336</ele><time>2026-04-27T11:01:10.01Z</time></trkpt><trkpt lat="45.316555" lon="10.706905"><ele>47.666666666666664</ele><time>2026-04-27T11:01:12.011Z</time></trkpt><trkpt lat="45.3166333" lon="10.7069617"><ele>47.5</ele><time>2026-04-27T11:01:14.01Z</time></trkpt><trkpt lat="45.3167133" lon="10.7070167"><ele>47.33333333333333</ele><time>2026-04-27T11:01:16.01Z</time></trkpt><trkpt lat="45.3167867" lon="10.7070817"><ele>47.166666666666664</ele><time>2026-04-27T11:01:18.01Z</time></trkpt><trkpt lat="45.3168667" lon="10.707155"><ele>47.0</ele><time>2026-04-27T11:01:20.01Z</time></trkpt><trkpt lat="45.31695" lon="10.7072117"><ele>47.0</ele><time>2026-04-27T11:01:22.01Z</time></trkpt><trkpt lat="45.3170267" lon="10.70726"><ele>47.0</ele><time>2026-04-27T11:01:24.01Z</time></trkpt><trkpt lat="45.3170983" lon="10.707325"><ele>47.0</ele><time>2026-04-27T11:01:26.01Z</time></trkpt><trkpt lat="45.31717" lon="10.7073867"><ele>47.0</ele><time>2026-04-27T11:01:28.011Z</time></trkpt><trkpt lat="45.31725" lon="10.7074417"><ele>47.0</ele><time>2026-04-27T11:01:30.01Z</time></trkpt><trkpt lat="45.317325" lon="10.707495"><ele>47.0</ele><time>2026-04-27T11:01:32.011Z</time></trkpt><trkpt lat="45.317405" lon="10.7075467"><ele>47.0</ele><time>2026-04-27T11:01:34.011Z</time></trkpt><trkpt lat="45.3174767" lon="10.7076067"><ele>47.0</ele><time>2026-04-27T11:01:36.01Z</time></trkpt><trkpt lat="45.3175517" lon="10.707665"><ele>47.0</ele><time>2026-04-27T11:01:38.011Z</time></trkpt><trkpt lat="45.3176267" lon="10.7077317"><ele>47.0</ele><time>2026-04-27T11:01:40.011Z</time></trkpt><trkpt lat="45.3177017" lon="10.7077933"><ele>47.0</ele><time>2026-04-27T11:01:42.01Z</time></trkpt><trkpt lat="45.3177767" lon="10.7078483"><ele>47.0</ele><time>2026-04-27T11:01:44.01Z</time></trkpt><trkpt lat="45.3178517" lon="10.7079033"><ele>47.0</ele><time>2026-04-27T11:01:46.011Z</time></trkpt><trkpt lat="45.317925" lon="10.7079633"><ele>47.0</ele><time>2026-04-27T11:01:48.01Z</time></trkpt><trkpt lat="45.3180017" lon="10.70802"><ele>47.0</ele><time>2026-04-27T11:01:50.01Z</time></trkpt><trkpt lat="45.3180817" lon="10.70808"><ele>47.0</ele><time>2026-04-27T11:01:52.011Z</time></trkpt><trkpt lat="45.31817" lon="10.708145"><ele>47.0</ele><time>2026-04-27T11:01:54.011Z</time></trkpt><trkpt lat="45.3182533" lon="10.7082033"><ele>47.0</ele><time>2026-04-27T11:01:56.01Z</time></trkpt><trkpt lat="45.3183383" lon="10.708265"><ele>47.0</ele><time>2026-04-27T11:01:58.011Z</time></trkpt><trkpt lat="45.3184183" lon="10.708335"><ele>47.0</ele><time>2026-04-27T11:02:00.011Z</time></trkpt><trkpt lat="45.3184933" lon="10.7083967"><ele>47.0</ele><time>2026-04-27T11:02:02.01Z</time></trkpt><trkpt lat="45.31857" lon="10.7084517"><ele>47.0</ele><time>2026-04-27T11:02:04.011Z</time></trkpt><trkpt lat="45.3186533" lon="10.7085117"><ele>47.0</ele><time>2026-04-27T11:02:06.01Z</time></trkpt><trkpt lat="45.3187267" lon="10.7085683"><ele>47.0</ele><time>2026-04-27T11:02:08.01Z</time></trkpt><trkpt lat="45.3188117" lon="10.7086267"><ele>47.0</ele><time>2026-04-27T11:02:10.01Z</time></trkpt><trkpt lat="45.3188933" lon="10.7086817"><ele>47.0</ele><time>2026-04-27T11:02:12.011Z</time></trkpt><trkpt lat="45.3189717" lon="10.70875"><ele>47.0</ele><time>2026-04-27T11:02:14.011Z</time></trkpt><trkpt lat="45.31905" lon="10.708815"><ele>46.8</ele><time>2026-04-27T11:02:16.01Z</time></trkpt><trkpt lat="45.319125" lon="10.7088767"><ele>46.6</ele><time>2026-04-27T11:02:18.01Z</time></trkpt><trkpt lat="45.319205" lon="10.70893"><ele>46.4</ele><time>2026-04-27T11:02:20.01Z</time></trkpt><trkpt lat="45.3192833" lon="10.7089983"><ele>46.199999999999996</ele><time>2026-04-27T11:02:22.01Z</time></trkpt><trkpt lat="45.31936" lon="10.7090783"><ele>46.0</ele><time>2026-04-27T11:02:24.01Z</time></trkpt><trkpt lat="45.3194483" lon="10.7091367"><ele>46.0</ele><time>2026-04-27T11:02:26.011Z</time></trkpt><trkpt lat="45.3195267" lon="10.7092017"><ele>46.0</ele><time>2026-04-27T11:02:28.01Z</time></trkpt><trkpt lat="45.3195983" lon="10.70927"><ele>46.0</ele><time>2026-04-27T11:02:30.011Z</time></trkpt><trkpt lat="45.3196733" lon="10.709345"><ele>46.0</ele><time>2026-04-27T11:02:32.011Z</time></trkpt><trkpt lat="45.3197383" lon="10.70941"><ele>46.0</ele><time>2026-04-27T11:02:34.01Z</time></trkpt><trkpt lat="45.3198067" lon="10.7094833"><ele>46.0</ele><time>2026-04-27T11:02:36.01Z</time></trkpt><trkpt lat="45.3198783" lon="10.7095517"><ele>46.333333333333336</ele><time>2026-04-27T11:02:38.01Z</time></trkpt><trkpt lat="45.31995" lon="10.7096283"><ele>46.66666666666667</ele><time>2026-04-27T11:02:40.01Z</time></trkpt><trkpt lat="45.3200183" lon="10.709705"><ele>47.0</ele><time>2026-04-27T11:02:42.01Z</time></trkpt><trkpt lat="45.3200867" lon="10.7097833"><ele>47.333333333333336</ele><time>2026-04-27T11:02:44.01Z</time></trkpt><trkpt lat="45.3201533" lon="10.7098567"><ele>47.666666666666664</ele><time>2026-04-27T11:02:46.011Z</time></trkpt><trkpt lat="45.320215" lon="10.709945"><ele>48.0</ele><time>2026-04-27T11:02:48.011Z</time></trkpt><trkpt lat="45.3202817" lon="10.7100283"><ele>48.0</ele><time>2026-04-27T11:02:50.01Z</time></trkpt><trkpt lat="45.3203483" lon="10.7101217"><ele>48.0</ele><time>2026-04-27T11:02:52.01Z</time></trkpt><trkpt lat="45.3204117" lon="10.7102133"><ele>48.0</ele><time>2026-04-27T11:02:54.01Z</time></trkpt><trkpt lat="45.32047" lon="10.7102983"><ele>48.0</ele><time>2026-04-27T11:02:56.01Z</time></trkpt><trkpt lat="45.3205333" lon="10.7103883"><ele>48.0</ele><time>2026-04-27T11:02:58.011Z</time></trkpt><trkpt lat="45.3205917" lon="10.710475"><ele>48.0</ele><time>2026-04-27T11:03:00.01Z</time></trkpt><trkpt lat="45.3206483" lon="10.7105683"><ele>47.833333333333336</ele><time>2026-04-27T11:03:02.011Z</time></trkpt><trkpt lat="45.3207033" lon="10.710655"><ele>47.666666666666664</ele><time>2026-04-27T11:03:04.011Z</time></trkpt><trkpt lat="45.3207617" lon="10.7107433"><ele>47.5</ele><time>2026-04-27T11:03:06.011Z</time></trkpt><trkpt lat="45.32082" lon="10.7108367"><ele>47.33333333333333</ele><time>2026-04-27T11:03:08.01Z</time></trkpt><trkpt lat="45.320875" lon="10.7109217"><ele>47.166666666666664</ele><time>2026-04-27T11:03:10.01Z</time></trkpt><trkpt lat="45.3209267" lon="10.7110117"><ele>47.0</ele><time>2026-04-27T11:03:12.011Z</time></trkpt><trkpt lat="45.3209783" lon="10.7111017"><ele>47.0</ele><time>2026-04-27T11:03:14.011Z</time></trkpt><trkpt lat="45.3210417" lon="10.7111883"><ele>47.0</ele><time>2026-04-27T11:03:16.011Z</time></trkpt><trkpt lat="45.3210917" lon="10.71128"><ele>47.0</ele><time>2026-04-27T11:03:18.011Z</time></trkpt><trkpt lat="45.3211533" lon="10.7113683"><ele>47.0</ele><time>2026-04-27T11:03:20.01Z</time></trkpt><trkpt lat="45.321215" lon="10.7114533"><ele>47.0</ele><time>2026-04-27T11:03:22.011Z</time></trkpt><trkpt lat="45.3212767" lon="10.7115383"><ele>47.0</ele><time>2026-04-27T11:03:24.011Z</time></trkpt><trkpt lat="45.3213317" lon="10.711625"><ele>47.0</ele><time>2026-04-27T11:03:26.01Z</time></trkpt><trkpt lat="45.3213917" lon="10.7117067"><ele>47.0</ele><time>2026-04-27T11:03:28.011Z</time></trkpt><trkpt lat="45.3214517" lon="10.7117867"><ele>47.0</ele><time>2026-04-27T11:03:30.01Z</time></trkpt><trkpt lat="45.32151" lon="10.71186"><ele>47.0</ele><time>2026-04-27T11:03:32.011Z</time></trkpt><trkpt lat="45.3215617" lon="10.711935"><ele>47.0</ele><time>2026-04-27T11:03:34.011Z</time></trkpt><trkpt lat="45.321625" lon="10.7120033"><ele>47.0</ele><time>2026-04-27T11:03:36.01Z</time></trkpt><trkpt lat="45.3216883" lon="10.7120767"><ele>46.83333333333333</ele><time>2026-04-27T11:03:38.01Z</time></trkpt><trkpt lat="45.3217533" lon="10.71215"><ele>46.666666666666664</ele><time>2026-04-27T11:03:40.01Z</time></trkpt><trkpt lat="45.3218167" lon="10.7122183"><ele>46.5</ele><time>2026-04-27T11:03:42.01Z</time></trkpt><trkpt lat="45.3218817" lon="10.7122867"><ele>46.333333333333336</ele><time>2026-04-27T11:03:44.011Z</time></trkpt><trkpt lat="45.321945" lon="10.7123583"><ele>46.16666666666667</ele><time>2026-04-27T11:03:46.01Z</time></trkpt><trkpt lat="45.3220017" lon="10.7124217"><ele>46.0</ele><time>2026-04-27T11:03:48.01Z</time></trkpt><trkpt lat="45.3220683" lon="10.7124867"><ele>46.0</ele><time>2026-04-27T11:03:50.011Z</time></trkpt><trkpt lat="45.32214" lon="10.7125533"><ele>46.0</ele><time>2026-04-27T11:03:52.011Z</time></trkpt><trkpt lat="45.3222067" lon="10.71262"><ele>46.0</ele><time>2026-04-27T11:03:54.011Z</time></trkpt><trkpt lat="45.3222733" lon="10.7126833"><ele>46.0</ele><time>2026-04-27T11:03:56.011Z</time></trkpt><trkpt lat="45.3223383" lon="10.7127483"><ele>46.0</ele><time>2026-04-27T11:03:58.011Z</time></trkpt><trkpt lat="45.3224083" lon="10.71282"><ele>46.0</ele><time>2026-04-27T11:04:00.01Z</time></trkpt><trkpt lat="45.3224767" lon="10.7128917"><ele>46.16666666666667</ele><time>2026-04-27T11:04:02.011Z</time></trkpt><trkpt lat="45.3225483" lon="10.71295"><ele>46.333333333333336</ele><time>2026-04-27T11:04:04.01Z</time></trkpt><trkpt lat="45.3226217" lon="10.7130133"><ele>46.5</ele><time>2026-04-27T11:04:06.011Z</time></trkpt><trkpt lat="45.3226983" lon="10.7130683"><ele>46.666666666666664</ele><time>2026-04-27T11:04:08.011Z</time></trkpt><trkpt lat="45.322775" lon="10.7131283"><ele>46.83333333333333</ele><time>2026-04-27T11:04:10.011Z</time></trkpt><trkpt lat="45.3228567" lon="10.713185"><ele>47.0</ele><time>2026-04-27T11:04:12.01Z</time></trkpt><trkpt lat="45.3229367" lon="10.7132417"><ele>47.0</ele><time>2026-04-27T11:04:14.01Z</time></trkpt><trkpt lat="45.323015" lon="10.7133"><ele>47.0</ele><time>2026-04-27T11:04:16.011Z</time></trkpt><trkpt lat="45.3230933" lon="10.7133517"><ele>47.0</ele><time>2026-04-27T11:04:18.01Z</time></trkpt><trkpt lat="45.3231767" lon="10.7134017"><ele>47.0</ele><time>2026-04-27T11:04:20.011Z</time></trkpt><trkpt lat="45.3232583" lon="10.7134533"><ele>47.0</ele><time>2026-04-27T11:04:22.01Z</time></trkpt><trkpt lat="45.32333" lon="10.7135"><ele>47.0</ele><time>2026-04-27T11:04:24.01Z</time></trkpt><trkpt lat="45.323415" lon="10.7135483"><ele>47.33333333333333</ele><time>2026-04-27T11:04:26.01Z</time></trkpt><trkpt lat="45.3234917" lon="10.7135917"><ele>47.666666666666664</ele><time>2026-04-27T11:04:28.011Z</time></trkpt><trkpt lat="45.3235767" lon="10.7136233"><ele>48.0</ele><time>2026-04-27T11:04:30.01Z</time></trkpt><trkpt lat="45.323655" lon="10.7136683"><ele>48.33333333333333</ele><time>2026-04-27T11:04:32.011Z</time></trkpt><trkpt lat="45.3237283" lon="10.7137133"><ele>48.666666666666664</ele><time>2026-04-27T11:04:34.011Z</time></trkpt><trkpt lat="45.323795" lon="10.71376"><ele>49.0</ele><time>2026-04-27T11:04:36.011Z</time></trkpt><trkpt lat="45.3238733" lon="10.7137933"><ele>48.83333333333333</ele><time>2026-04-27T11:04:38.011Z</time></trkpt><trkpt lat="45.323955" lon="10.7138217"><ele>48.666666666666664</ele><time>2026-04-27T11:04:40.01Z</time></trkpt><trkpt lat="45.3240333" lon="10.713845"><ele>48.5</ele><time>2026-04-27T11:04:42.01Z</time></trkpt><trkpt lat="45.3241167" lon="10.7138833"><ele>48.33333333333333</ele><time>2026-04-27T11:04:44.01Z</time></trkpt><trkpt lat="45.3242017" lon="10.713905"><ele>48.166666666666664</ele><time>2026-04-27T11:04:46.011Z</time></trkpt><trkpt lat="45.3242833" lon="10.7139433"><ele>48.0</ele><time>2026-04-27T11:04:48.01Z</time></trkpt><trkpt lat="45.32437" lon="10.7139667"><ele>48.0</ele><time>2026-04-27T11:04:50.011Z</time></trkpt><trkpt lat="45.32446" lon="10.7139983"><ele>48.0</ele><time>2026-04-27T11:04:52.01Z</time></trkpt><trkpt lat="45.3245417" lon="10.7140217"><ele>48.0</ele><time>2026-04-27T11:04:54.01Z</time></trkpt><trkpt lat="45.3246217" lon="10.71405"><ele>48.0</ele><time>2026-04-27T11:04:56.011Z</time></trkpt><trkpt lat="45.3247" lon="10.7140683"><ele>48.0</ele><time>2026-04-27T11:04:58.01Z</time></trkpt><trkpt lat="45.3247833" lon="10.7140933"><ele>48.0</ele><time>2026-04-27T11:05:00.011Z</time></trkpt><trkpt lat="45.3248733" lon="10.71412"><ele>48.0</ele><time>2026-04-27T11:05:02.011Z</time></trkpt><trkpt lat="45.32496" lon="10.7141383"><ele>48.0</ele><time>2026-04-27T11:05:04.01Z</time></trkpt><trkpt lat="45.3250383" lon="10.7141567"><ele>48.0</ele><time>2026-04-27T11:05:06.011Z</time></trkpt><trkpt lat="45.3251233" lon="10.7141767"><ele>48.0</ele><time>2026-04-27T11:05:08.011Z</time></trkpt><trkpt lat="45.3252083" lon="10.7142133"><ele>48.0</ele><time>2026-04-27T11:05:10.01Z</time></trkpt><trkpt lat="45.3252917" lon="10.7142383"><ele>48.0</ele><time>2026-04-27T11:05:12.01Z</time></trkpt><trkpt lat="45.32537" lon="10.71426"><ele>48.0</ele><time>2026-04-27T11:05:14.01Z</time></trkpt><trkpt lat="45.325445" lon="10.714285"><ele>48.0</ele><time>2026-04-27T11:05:16.01Z</time></trkpt><trkpt lat="45.32553" lon="10.7143067"><ele>48.0</ele><time>2026-04-27T11:05:18.01Z</time></trkpt><trkpt lat="45.3256167" lon="10.7143267"><ele>48.0</ele><time>2026-04-27T11:05:20.011Z</time></trkpt><trkpt lat="45.3256983" lon="10.7143483"><ele>48.0</ele><time>2026-04-27T11:05:22.01Z</time></trkpt><trkpt lat="45.3257867" lon="10.7143633"><ele>48.0</ele><time>2026-04-27T11:05:24.011Z</time></trkpt><trkpt lat="45.3258767" lon="10.714395"><ele>48.166666666666664</ele><time>2026-04-27T11:05:26.01Z</time></trkpt><trkpt lat="45.3259583" lon="10.7144283"><ele>48.33333333333333</ele><time>2026-04-27T11:05:28.01Z</time></trkpt><trkpt lat="45.3260417" lon="10.71445"><ele>48.5</ele><time>2026-04-27T11:05:30.011Z</time></trkpt><trkpt lat="45.32612" lon="10.7144717"><ele>48.666666666666664</ele><time>2026-04-27T11:05:32.01Z</time></trkpt><trkpt lat="45.3262083" lon="10.7144983"><ele>48.83333333333333</ele><time>2026-04-27T11:05:34.011Z</time></trkpt><trkpt lat="45.3262917" lon="10.71453"><ele>49.0</ele><time>2026-04-27T11:05:36.011Z</time></trkpt><trkpt lat="45.326375" lon="10.714545"><ele>48.83333333333333</ele><time>2026-04-27T11:05:38.01Z</time></trkpt><trkpt lat="45.32646" lon="10.7145717"><ele>48.666666666666664</ele><time>2026-04-27T11:05:40.011Z</time></trkpt><trkpt lat="45.32655" lon="10.7145983"><ele>48.5</ele><time>2026-04-27T11:05:42.011Z</time></trkpt><trkpt lat="45.3266283" lon="10.7146233"><ele>48.33333333333333</ele><time>2026-04-27T11:05:44.01Z</time></trkpt><trkpt lat="45.3267133" lon="10.71465"><ele>48.166666666666664</ele><time>2026-04-27T11:05:46.011Z</time></trkpt><trkpt lat="45.3267967" lon="10.7146683"><ele>48.0</ele><time>2026-04-27T11:05:48.011Z</time></trkpt><trkpt lat="45.3268917" lon="10.714685"><ele>48.0</ele><time>2026-04-27T11:05:50.01Z</time></trkpt><trkpt lat="45.3269783" lon="10.7147217"><ele>48.0</ele><time>2026-04-27T11:05:52.01Z</time></trkpt><trkpt lat="45.3270567" lon="10.714755"><ele>48.0</ele><time>2026-04-27T11:05:54.01Z</time></trkpt><trkpt lat="45.327135" lon="10.7147833"><ele>48.0</ele><time>2026-04-27T11:05:56.01Z</time></trkpt><trkpt lat="45.32722" lon="10.7147967"><ele>48.0</ele><time>2026-04-27T11:05:58.011Z</time></trkpt><trkpt lat="45.3273067" lon="10.7148167"><ele>48.0</ele><time>2026-04-27T11:06:00.011Z</time></trkpt><trkpt lat="45.3273883" lon="10.714835"><ele>47.666666666666664</ele><time>2026-04-27T11:06:02.01Z</time></trkpt><trkpt lat="45.3274717" lon="10.7148567"><ele>47.333333333333336</ele><time>2026-04-27T11:06:04.01Z</time></trkpt><trkpt lat="45.3275583" lon="10.7148867"><ele>47.0</ele><time>2026-04-27T11:06:06.011Z</time></trkpt><trkpt lat="45.3276417" lon="10.714915"><ele>46.66666666666667</ele><time>2026-04-27T11:06:08.011Z</time></trkpt><trkpt lat="45.3277333" lon="10.7149383"><ele>46.333333333333336</ele><time>2026-04-27T11:06:10.01Z</time></trkpt><trkpt lat="45.32782" lon="10.7149633"><ele>46.0</ele><time>2026-04-27T11:06:12.011Z</time></trkpt><trkpt lat="45.3279117" lon="10.7149883"><ele>46.0</ele><time>2026-04-27T11:06:14.01Z</time></trkpt><trkpt lat="45.328" lon="10.7150083"><ele>46.0</ele><time>2026-04-27T11:06:16.01Z</time></trkpt><trkpt lat="45.3280817" lon="10.7150333"><ele>46.0</ele><time>2026-04-27T11:06:18.011Z</time></trkpt><trkpt lat="45.3281717" lon="10.71506"><ele>46.0</ele><time>2026-04-27T11:06:20.01Z</time></trkpt><trkpt lat="45.3282533" lon="10.71509"><ele>46.0</ele><time>2026-04-27T11:06:22.01Z</time></trkpt><trkpt lat="45.32834" lon="10.7151167"><ele>46.0</ele><time>2026-04-27T11:06:24.01Z</time></trkpt><trkpt lat="45.3284283" lon="10.7151333"><ele>46.0</ele><time>2026-04-27T11:06:26.01Z</time></trkpt><trkpt lat="45.328515" lon="10.715155"><ele>46.0</ele><time>2026-04-27T11:06:28.011Z</time></trkpt><trkpt lat="45.3286033" lon="10.7151917"><ele>46.0</ele><time>2026-04-27T11:06:30.011Z</time></trkpt><trkpt lat="45.3286933" lon="10.71522"><ele>46.0</ele><time>2026-04-27T11:06:32.01Z</time></trkpt><trkpt lat="45.3287883" lon="10.71524"><ele>46.0</ele><time>2026-04-27T11:06:34.01Z</time></trkpt><trkpt lat="45.3290117" lon="10.7153083"><ele>47.16666666666667</ele><time>2026-04-27T11:06:39.011Z</time></trkpt><trkpt lat="45.3290617" lon="10.7154"><ele>48.333333333333336</ele><time>2026-04-27T11:06:41.01Z</time></trkpt><trkpt lat="45.3290667" lon="10.7155183"><ele>49.5</ele><time>2026-04-27T11:06:43.01Z</time></trkpt><trkpt lat="45.3290833" lon="10.7156233"><ele>50.66666666666667</ele><time>2026-04-27T11:06:45.011Z</time></trkpt><trkpt lat="45.3291017" lon="10.715715"><ele>51.833333333333336</ele><time>2026-04-27T11:06:47.011Z</time></trkpt><trkpt lat="45.3291233" lon="10.7158083"><ele>53.0</ele><time>2026-04-27T11:06:49.01Z</time></trkpt><trkpt lat="45.3291817" lon="10.7159"><ele>53.00000000000001</ele><time>2026-04-27T11:06:52.011Z</time></trkpt><trkpt lat="45.329255" lon="10.71595"><ele>53.0</ele><time>2026-04-27T11:06:55.011Z</time></trkpt><trkpt lat="45.3291967" lon="10.715885"><ele>53.0</ele><time>2026-04-27T11:11:04.009Z</time></trkpt><trkpt lat="45.3291483" lon="10.7157833"><ele>53.0</ele><time>2026-04-27T11:11:07.009Z</time></trkpt><trkpt lat="45.3291067" lon="10.7156517"><ele>53.00000000000001</ele><time>2026-04-27T11:11:10.009Z</time></trkpt><trkpt lat="45.32908" lon="10.7155567"><ele>53.0</ele><time>2026-04-27T11:11:12.009Z</time></trkpt><trkpt lat="45.3290617" lon="10.7154517"><ele>53.0</ele><time>2026-04-27T11:11:16.01Z</time></trkpt><trkpt lat="45.3290633" lon="10.71536"><ele>53.0</ele><time>2026-04-27T11:11:19.01Z</time></trkpt><trkpt lat="45.32913" lon="10.7153483"><ele>53.0</ele><time>2026-04-27T11:11:22.009Z</time></trkpt><trkpt lat="45.3291917" lon="10.7153717"><ele>53.0</ele><time>2026-04-27T11:11:24.01Z</time></trkpt><trkpt lat="45.329255" lon="10.7153867"><ele>53.0</ele><time>2026-04-27T11:11:26.009Z</time></trkpt><trkpt lat="45.329345" lon="10.7154117"><ele>53.0</ele><time>2026-04-27T11:11:29.01Z</time></trkpt><trkpt lat="45.3294283" lon="10.715445"><ele>53.0</ele><time>2026-04-27T11:11:32.009Z</time></trkpt><trkpt lat="45.32952" lon="10.71547"><ele>53.0</ele><time>2026-04-27T11:11:35.01Z</time></trkpt><trkpt lat="45.3295817" lon="10.715495"><ele>53.0</ele><time>2026-04-27T11:11:37.01Z</time></trkpt><trkpt lat="45.3296767" lon="10.7155167"><ele>53.0</ele><time>2026-04-27T11:11:40.01Z</time></trkpt><trkpt lat="45.329745" lon="10.71553"><ele>53.0</ele><time>2026-04-27T11:11:42.01Z</time></trkpt><trkpt lat="45.3298117" lon="10.7155367"><ele>53.0</ele><time>2026-04-27T11:11:44.01Z</time></trkpt><trkpt lat="45.3298817" lon="10.71556"><ele>53.0</ele><time>2026-04-27T11:11:46.009Z</time></trkpt><trkpt lat="45.3299583" lon="10.7155767"><ele>53.0</ele><time>2026-04-27T11:11:48.009Z</time></trkpt><trkpt lat="45.3300333" lon="10.715595"><ele>52.833333333333336</ele><time>2026-04-27T11:11:50.01Z</time></trkpt><trkpt lat="45.3301067" lon="10.7156217"><ele>52.66666666666667</ele><time>2026-04-27T11:11:52.01Z</time></trkpt><trkpt lat="45.33018" lon="10.715645"><ele>52.5</ele><time>2026-04-27T11:11:54.009Z</time></trkpt><trkpt lat="45.3302617" lon="10.7156667"><ele>52.33333333333333</ele><time>2026-04-27T11:11:56.009Z</time></trkpt><trkpt lat="45.330335" lon="10.7156767"><ele>52.166666666666664</ele><time>2026-04-27T11:11:58.01Z</time></trkpt><trkpt lat="45.3304133" lon="10.715695"><ele>52.0</ele><time>2026-04-27T11:12:00.01Z</time></trkpt><trkpt lat="45.3305117" lon="10.7157117"><ele>51.83333333333333</ele><time>2026-04-27T11:12:03.009Z</time></trkpt><trkpt lat="45.3305783" lon="10.7157217"><ele>51.666666666666664</ele><time>2026-04-27T11:12:05.01Z</time></trkpt><trkpt lat="45.330655" lon="10.7157367"><ele>51.5</ele><time>2026-04-27T11:12:07.01Z</time></trkpt><trkpt lat="45.3307267" lon="10.7157533"><ele>51.33333333333333</ele><time>2026-04-27T11:12:09.009Z</time></trkpt><trkpt lat="45.330805" lon="10.71577"><ele>51.166666666666664</ele><time>2026-04-27T11:12:11.009Z</time></trkpt><trkpt lat="45.3308833" lon="10.7157833"><ele>51.0</ele><time>2026-04-27T11:12:13.01Z</time></trkpt><trkpt lat="45.3309633" lon="10.71579"><ele>51.0</ele><time>2026-04-27T11:12:15.009Z</time></trkpt><trkpt lat="45.3310483" lon="10.7157967"><ele>51.0</ele><time>2026-04-27T11:12:17.01Z</time></trkpt><trkpt lat="45.3311267" lon="10.7158017"><ele>51.0</ele><time>2026-04-27T11:12:19.009Z</time></trkpt><trkpt lat="45.3312167" lon="10.7158067"><ele>51.0</ele><time>2026-04-27T11:12:21.009Z</time></trkpt><trkpt lat="45.3313" lon="10.71581"><ele>51.0</ele><time>2026-04-27T11:12:23.009Z</time></trkpt><trkpt lat="45.331385" lon="10.715815"><ele>51.0</ele><time>2026-04-27T11:12:25.009Z</time></trkpt><trkpt lat="45.3314767" lon="10.7158217"><ele>51.0</ele><time>2026-04-27T11:12:27.009Z</time></trkpt><trkpt lat="45.3315583" lon="10.7158167"><ele>51.0</ele><time>2026-04-27T11:12:29.01Z</time></trkpt><trkpt lat="45.3316533" lon="10.7158267"><ele>51.0</ele><time>2026-04-27T11:12:31.01Z</time></trkpt><trkpt lat="45.3317483" lon="10.7158217"><ele>51.0</ele><time>2026-04-27T11:12:33.01Z</time></trkpt><trkpt lat="45.331835" lon="10.71582"><ele>51.0</ele><time>2026-04-27T11:12:35.009Z</time></trkpt><trkpt lat="45.33193" lon="10.7158167"><ele>51.0</ele><time>2026-04-27T11:12:37.009Z</time></trkpt><trkpt lat="45.3320283" lon="10.7158133"><ele>51.0</ele><time>2026-04-27T11:12:39.009Z</time></trkpt><trkpt lat="45.3321133" lon="10.7157967"><ele>51.0</ele><time>2026-04-27T11:12:41.01Z</time></trkpt><trkpt lat="45.3322067" lon="10.7157867"><ele>51.0</ele><time>2026-04-27T11:12:43.01Z</time></trkpt><trkpt lat="45.3323017" lon="10.71577"><ele>51.0</ele><time>2026-04-27T11:12:45.01Z</time></trkpt><trkpt lat="45.33241" lon="10.71575"><ele>51.599999999999994</ele><time>2026-04-27T11:12:47.01Z</time></trkpt><trkpt lat="45.3325133" lon="10.7157283"><ele>52.2</ele><time>2026-04-27T11:12:49.01Z</time></trkpt><trkpt lat="45.3326083" lon="10.7157017"><ele>52.800000000000004</ele><time>2026-04-27T11:12:51.01Z</time></trkpt><trkpt lat="45.3327033" lon="10.715685"><ele>53.400000000000006</ele><time>2026-04-27T11:12:53.01Z</time></trkpt><trkpt lat="45.3328083" lon="10.715665"><ele>54.0</ele><time>2026-04-27T11:12:55.01Z</time></trkpt><trkpt lat="45.3329017" lon="10.71564"><ele>54.0</ele><time>2026-04-27T11:12:57.009Z</time></trkpt><trkpt lat="45.3330017" lon="10.7156083"><ele>54.0</ele><time>2026-04-27T11:12:59.01Z</time></trkpt><trkpt lat="45.3331083" lon="10.71558"><ele>54.0</ele><time>2026-04-27T11:13:01.01Z</time></trkpt><trkpt lat="45.333205" lon="10.7155417"><ele>54.0</ele><time>2026-04-27T11:13:03.009Z</time></trkpt><trkpt lat="45.3334617" lon="10.71545"><ele>53.800000000000004</ele><time>2026-04-27T11:13:08.01Z</time></trkpt><trkpt lat="45.3335683" lon="10.7154267"><ele>53.60000000000001</ele><time>2026-04-27T11:13:10.01Z</time></trkpt><trkpt lat="45.3336667" lon="10.7153817"><ele>53.4</ele><time>2026-04-27T11:13:12.01Z</time></trkpt><trkpt lat="45.3337633" lon="10.715325"><ele>53.2</ele><time>2026-04-27T11:13:14.01Z</time></trkpt><trkpt lat="45.333865" lon="10.7152767"><ele>53.0</ele><time>2026-04-27T11:13:16.01Z</time></trkpt><trkpt lat="45.3339783" lon="10.7152317"><ele>53.0</ele><time>2026-04-27T11:13:18.009Z</time></trkpt><trkpt lat="45.3340733" lon="10.7151867"><ele>53.0</ele><time>2026-04-27T11:13:20.01Z</time></trkpt><trkpt lat="45.3341883" lon="10.7151283"><ele>53.0</ele><time>2026-04-27T11:13:22.009Z</time></trkpt><trkpt lat="45.3342467" lon="10.71509"><ele>53.0</ele><time>2026-04-27T11:13:23.01Z</time></trkpt><trkpt lat="45.3343067" lon="10.7150517"><ele>53.0</ele><time>2026-04-27T11:13:24.01Z</time></trkpt><trkpt lat="45.3344233" lon="10.7149833"><ele>53.0</ele><time>2026-04-27T11:13:26.01Z</time></trkpt><trkpt lat="45.3344883" lon="10.7149517"><ele>53.0</ele><time>2026-04-27T11:13:27.009Z</time></trkpt><trkpt lat="45.33455" lon="10.7149117"><ele>53.0</ele><time>2026-04-27T11:13:28.01Z</time></trkpt><trkpt lat="45.334615" lon="10.7148767"><ele>53.0</ele><time>2026-04-27T11:13:29.01Z</time></trkpt><trkpt lat="45.3346783" lon="10.714855"><ele>53.0</ele><time>2026-04-27T11:13:30.009Z</time></trkpt><trkpt lat="45.3347433" lon="10.7148167"><ele>53.0</ele><time>2026-04-27T11:13:31.01Z</time></trkpt><trkpt lat="45.334805" lon="10.7147767"><ele>53.0</ele><time>2026-04-27T11:13:32.01Z</time></trkpt><trkpt lat="45.3348633" lon="10.7147383"><ele>53.599999999999994</ele><time>2026-04-27T11:13:33.009Z</time></trkpt><trkpt lat="45.3349783" lon="10.71467"><ele>54.199999999999996</ele><time>2026-04-27T11:13:35.009Z</time></trkpt><trkpt lat="45.3350817" lon="10.71461"><ele>54.8</ele><time>2026-04-27T11:13:37.01Z</time></trkpt><trkpt lat="45.3351767" lon="10.714565"><ele>55.4</ele><time>2026-04-27T11:13:39.01Z</time></trkpt><trkpt lat="45.335275" lon="10.7145033"><ele>56.0</ele><time>2026-04-27T11:13:41.009Z</time></trkpt><trkpt lat="45.33537" lon="10.7144417"><ele>56.25</ele><time>2026-04-27T11:13:43.009Z</time></trkpt><trkpt lat="45.3354883" lon="10.714375"><ele>56.5</ele><time>2026-04-27T11:13:45.01Z</time></trkpt><trkpt lat="45.3355983" lon="10.7143133"><ele>56.75</ele><time>2026-04-27T11:13:47.009Z</time></trkpt><trkpt lat="45.335705" lon="10.7142467"><ele>57.0</ele><time>2026-04-27T11:13:49.01Z</time></trkpt><trkpt lat="45.33581" lon="10.7141883"><ele>57.0</ele><time>2026-04-27T11:13:51.01Z</time></trkpt><trkpt lat="45.33591" lon="10.714135"><ele>57.0</ele><time>2026-04-27T11:13:53.01Z</time></trkpt><trkpt lat="45.3360067" lon="10.7140817"><ele>57.0</ele><time>2026-04-27T11:13:55.009Z</time></trkpt><trkpt lat="45.3361017" lon="10.7140283"><ele>57.0</ele><time>2026-04-27T11:13:57.009Z</time></trkpt><trkpt lat="45.3361967" lon="10.7139783"><ele>57.0</ele><time>2026-04-27T11:13:59.01Z</time></trkpt><trkpt lat="45.3362933" lon="10.713925"><ele>57.0</ele><time>2026-04-27T11:14:01.01Z</time></trkpt><trkpt lat="45.3363833" lon="10.71387"><ele>57.0</ele><time>2026-04-27T11:14:03.009Z</time></trkpt><trkpt lat="45.336475" lon="10.713805"><ele>57.0</ele><time>2026-04-27T11:14:05.01Z</time></trkpt><trkpt lat="45.3365633" lon="10.7137367"><ele>57.0</ele><time>2026-04-27T11:14:07.01Z</time></trkpt><trkpt lat="45.3366517" lon="10.71369"><ele>57.0</ele><time>2026-04-27T11:14:09.009Z</time></trkpt><trkpt lat="45.3367517" lon="10.71364"><ele>57.400000000000006</ele><time>2026-04-27T11:14:11.009Z</time></trkpt><trkpt lat="45.3368433" lon="10.7135833"><ele>57.800000000000004</ele><time>2026-04-27T11:14:13.01Z</time></trkpt><trkpt lat="45.3369333" lon="10.713515"><ele>58.2</ele><time>2026-04-27T11:14:15.009Z</time></trkpt><trkpt lat="45.3370117" lon="10.7134567"><ele>58.6</ele><time>2026-04-27T11:14:17.01Z</time></trkpt><trkpt lat="45.337095" lon="10.7134117"><ele>59.0</ele><time>2026-04-27T11:14:19.01Z</time></trkpt><trkpt lat="45.3371767" lon="10.71336"><ele>58.00000000000001</ele><time>2026-04-27T11:14:21.01Z</time></trkpt><trkpt lat="45.3372583" lon="10.7133083"><ele>57.0</ele><time>2026-04-27T11:14:23.009Z</time></trkpt><trkpt lat="45.3373433" lon="10.7132633"><ele>56.0</ele><time>2026-04-27T11:14:25.009Z</time></trkpt><trkpt lat="45.3374283" lon="10.713215"><ele>55.0</ele><time>2026-04-27T11:14:27.009Z</time></trkpt><trkpt lat="45.3375083" lon="10.7131717"><ele>54.00000000000001</ele><time>2026-04-27T11:14:29.009Z</time></trkpt><trkpt lat="45.3375917" lon="10.713125"><ele>53.0</ele><time>2026-04-27T11:14:31.009Z</time></trkpt><trkpt lat="45.3376683" lon="10.7130783"><ele>53.0</ele><time>2026-04-27T11:14:33.01Z</time></trkpt><trkpt lat="45.337745" lon="10.7130317"><ele>53.0</ele><time>2026-04-27T11:14:35.009Z</time></trkpt><trkpt lat="45.3378317" lon="10.7129867"><ele>53.0</ele><time>2026-04-27T11:14:37.009Z</time></trkpt><trkpt lat="45.3379233" lon="10.7129333"><ele>53.0</ele><time>2026-04-27T11:14:39.009Z</time></trkpt><trkpt lat="45.3380133" lon="10.7128717"><ele>53.0</ele><time>2026-04-27T11:14:41.009Z</time></trkpt><trkpt lat="45.3381067" lon="10.7128167"><ele>53.0</ele><time>2026-04-27T11:14:43.009Z</time></trkpt><trkpt lat="45.3382017" lon="10.7127733"><ele>53.0</ele><time>2026-04-27T11:14:45.009Z</time></trkpt><trkpt lat="45.33829" lon="10.7127267"><ele>53.0</ele><time>2026-04-27T11:14:47.01Z</time></trkpt><trkpt lat="45.3383783" lon="10.7126733"><ele>53.0</ele><time>2026-04-27T11:14:49.01Z</time></trkpt><trkpt lat="45.338465" lon="10.7126117"><ele>53.0</ele><time>2026-04-27T11:14:51.009Z</time></trkpt><trkpt lat="45.3385567" lon="10.7125617"><ele>52.599999999999994</ele><time>2026-04-27T11:14:53.01Z</time></trkpt><trkpt lat="45.33864" lon="10.712505"><ele>52.199999999999996</ele><time>2026-04-27T11:14:55.009Z</time></trkpt><trkpt lat="45.3387383" lon="10.7124467"><ele>51.8</ele><time>2026-04-27T11:14:57.009Z</time></trkpt><trkpt lat="45.3388333" lon="10.7123883"><ele>51.4</ele><time>2026-04-27T11:14:59.01Z</time></trkpt><trkpt lat="45.33894" lon="10.7123317"><ele>51.0</ele><time>2026-04-27T11:15:01.009Z</time></trkpt><trkpt lat="45.3390333" lon="10.7122667"><ele>50.8</ele><time>2026-04-27T11:15:03.009Z</time></trkpt><trkpt lat="45.3391283" lon="10.7122083"><ele>50.599999999999994</ele><time>2026-04-27T11:15:05.009Z</time></trkpt><trkpt lat="45.3392083" lon="10.7121483"><ele>50.4</ele><time>2026-04-27T11:15:07.009Z</time></trkpt><trkpt lat="45.33931" lon="10.7120983"><ele>50.2</ele><time>2026-04-27T11:15:09.009Z</time></trkpt><trkpt lat="45.3394033" lon="10.7120383"><ele>50.0</ele><time>2026-04-27T11:15:11.01Z</time></trkpt><trkpt lat="45.3394983" lon="10.7119767"><ele>50.0</ele><time>2026-04-27T11:15:13.01Z</time></trkpt><trkpt lat="45.33959" lon="10.7119167"><ele>50.0</ele><time>2026-04-27T11:15:15.009Z</time></trkpt><trkpt lat="45.3396833" lon="10.7118667"><ele>50.0</ele><time>2026-04-27T11:15:17.009Z</time></trkpt><trkpt lat="45.3397783" lon="10.7118083"><ele>50.0</ele><time>2026-04-27T11:15:19.01Z</time></trkpt><trkpt lat="45.33987" lon="10.7117517"><ele>50.0</ele><time>2026-04-27T11:15:21.01Z</time></trkpt><trkpt lat="45.3399583" lon="10.7116983"><ele>50.0</ele><time>2026-04-27T11:15:23.01Z</time></trkpt><trkpt lat="45.3400517" lon="10.711645"><ele>50.0</ele><time>2026-04-27T11:15:25.009Z</time></trkpt><trkpt lat="45.34015" lon="10.7115967"><ele>50.0</ele><time>2026-04-27T11:15:27.01Z</time></trkpt><trkpt lat="45.3402433" lon="10.711545"><ele>50.0</ele><time>2026-04-27T11:15:29.009Z</time></trkpt><trkpt lat="45.3403317" lon="10.7114967"><ele>50.0</ele><time>2026-04-27T11:15:31.009Z</time></trkpt><trkpt lat="45.3404217" lon="10.7114467"><ele>50.0</ele><time>2026-04-27T11:15:33.009Z</time></trkpt><trkpt lat="45.34051" lon="10.7113867"><ele>50.0</ele><time>2026-04-27T11:15:35.01Z</time></trkpt><trkpt lat="45.3406" lon="10.7113333"><ele>50.0</ele><time>2026-04-27T11:15:37.01Z</time></trkpt><trkpt lat="45.34069" lon="10.711285"><ele>50.0</ele><time>2026-04-27T11:15:39.009Z</time></trkpt><trkpt lat="45.34077" lon="10.71123"><ele>50.0</ele><time>2026-04-27T11:15:41.009Z</time></trkpt><trkpt lat="45.340865" lon="10.7111683"><ele>50.16666666666667</ele><time>2026-04-27T11:15:43.009Z</time></trkpt><trkpt lat="45.34096" lon="10.71111"><ele>50.333333333333336</ele><time>2026-04-27T11:15:45.01Z</time></trkpt><trkpt lat="45.3410467" lon="10.7110633"><ele>50.5</ele><time>2026-04-27T11:15:47.01Z</time></trkpt><trkpt lat="45.3411217" lon="10.711005"><ele>50.66666666666667</ele><time>2026-04-27T11:15:49.01Z</time></trkpt><trkpt lat="45.3411983" lon="10.7109567"><ele>50.833333333333336</ele><time>2026-04-27T11:15:51.01Z</time></trkpt><trkpt lat="45.3412767" lon="10.7109183"><ele>51.0</ele><time>2026-04-27T11:15:53.009Z</time></trkpt><trkpt lat="45.3413517" lon="10.7108767"><ele>50.833333333333336</ele><time>2026-04-27T11:15:55.009Z</time></trkpt><trkpt lat="45.341415" lon="10.71083"><ele>50.66666666666667</ele><time>2026-04-27T11:15:57.009Z</time></trkpt><trkpt lat="45.3414783" lon="10.7107933"><ele>50.5</ele><time>2026-04-27T11:15:59.009Z</time></trkpt><trkpt lat="45.3415483" lon="10.7107583"><ele>50.333333333333336</ele><time>2026-04-27T11:16:01.009Z</time></trkpt><trkpt lat="45.3416283" lon="10.7107317"><ele>50.16666666666667</ele><time>2026-04-27T11:16:03.01Z</time></trkpt><trkpt lat="45.341715" lon="10.710695"><ele>50.0</ele><time>2026-04-27T11:16:05.01Z</time></trkpt><trkpt lat="45.3418" lon="10.7106533"><ele>50.00000000000001</ele><time>2026-04-27T11:16:07.009Z</time></trkpt><trkpt lat="45.3418867" lon="10.7106267"><ele>50.0</ele><time>2026-04-27T11:16:09.009Z</time></trkpt><trkpt lat="45.3419733" lon="10.7105933"><ele>50.0</ele><time>2026-04-27T11:16:11.01Z</time></trkpt><trkpt lat="45.3420533" lon="10.710555"><ele>50.0</ele><time>2026-04-27T11:16:13.009Z</time></trkpt><trkpt lat="45.3421317" lon="10.7105183"><ele>50.00000000000001</ele><time>2026-04-27T11:16:15.009Z</time></trkpt><trkpt lat="45.3422233" lon="10.7104933"><ele>50.0</ele><time>2026-04-27T11:16:17.009Z</time></trkpt><trkpt lat="45.34232" lon="10.71046"><ele>50.0</ele><time>2026-04-27T11:16:19.009Z</time></trkpt><trkpt lat="45.3424117" lon="10.7104283"><ele>50.0</ele><time>2026-04-27T11:16:21.009Z</time></trkpt><trkpt lat="45.3425117" lon="10.710395"><ele>50.0</ele><time>2026-04-27T11:16:23.009Z</time></trkpt><trkpt lat="45.342605" lon="10.7103717"><ele>50.0</ele><time>2026-04-27T11:16:25.01Z</time></trkpt><trkpt lat="45.3427033" lon="10.7103533"><ele>50.0</ele><time>2026-04-27T11:16:27.01Z</time></trkpt><trkpt lat="45.3427967" lon="10.7103217"><ele>50.0</ele><time>2026-04-27T11:16:29.009Z</time></trkpt><trkpt lat="45.3428917" lon="10.71031"><ele>50.0</ele><time>2026-04-27T11:16:31.009Z</time></trkpt><trkpt lat="45.3429883" lon="10.71029"><ele>50.0</ele><time>2026-04-27T11:16:33.01Z</time></trkpt><trkpt lat="45.34308" lon="10.7102733"><ele>50.0</ele><time>2026-04-27T11:16:35.01Z</time></trkpt><trkpt lat="45.3431667" lon="10.7102433"><ele>50.0</ele><time>2026-04-27T11:16:37.009Z</time></trkpt><trkpt lat="45.3432667" lon="10.7102283"><ele>50.2</ele><time>2026-04-27T11:16:39.01Z</time></trkpt><trkpt lat="45.3433617" lon="10.71021"><ele>50.4</ele><time>2026-04-27T11:16:41.009Z</time></trkpt><trkpt lat="45.3434683" lon="10.7101883"><ele>50.599999999999994</ele><time>2026-04-27T11:16:43.01Z</time></trkpt><trkpt lat="45.3435583" lon="10.71018"><ele>50.8</ele><time>2026-04-27T11:16:45.009Z</time></trkpt><trkpt lat="45.343655" lon="10.7101633"><ele>51.0</ele><time>2026-04-27T11:16:47.01Z</time></trkpt><trkpt lat="45.3437517" lon="10.7101633"><ele>51.0</ele><time>2026-04-27T11:16:49.01Z</time></trkpt><trkpt lat="45.3438517" lon="10.710145"><ele>51.0</ele><time>2026-04-27T11:16:51.009Z</time></trkpt><trkpt lat="45.34395" lon="10.7101267"><ele>51.0</ele><time>2026-04-27T11:16:53.009Z</time></trkpt><trkpt lat="45.3440383" lon="10.7101317"><ele>51.0</ele><time>2026-04-27T11:16:55.01Z</time></trkpt><trkpt lat="45.34413" lon="10.71013"><ele>51.0</ele><time>2026-04-27T11:16:57.01Z</time></trkpt><trkpt lat="45.3442167" lon="10.71013"><ele>51.0</ele><time>2026-04-27T11:16:59.01Z</time></trkpt><trkpt lat="45.3443" lon="10.7101383"><ele>51.0</ele><time>2026-04-27T11:17:01.01Z</time></trkpt><trkpt lat="45.3443883" lon="10.7101483"><ele>51.0</ele><time>2026-04-27T11:17:03.009Z</time></trkpt><trkpt lat="45.3444733" lon="10.7101483"><ele>51.0</ele><time>2026-04-27T11:17:05.009Z</time></trkpt><trkpt lat="45.3445533" lon="10.71016"><ele>51.0</ele><time>2026-04-27T11:17:07.01Z</time></trkpt><trkpt lat="45.3446367" lon="10.7101583"><ele>51.0</ele><time>2026-04-27T11:17:09.01Z</time></trkpt><trkpt lat="45.34472" lon="10.7101583"><ele>51.0</ele><time>2026-04-27T11:17:11.01Z</time></trkpt><trkpt lat="45.3448033" lon="10.710175"><ele>51.0</ele><time>2026-04-27T11:17:13.009Z</time></trkpt><trkpt lat="45.3448933" lon="10.7101817"><ele>51.0</ele><time>2026-04-27T11:17:15.01Z</time></trkpt><trkpt lat="45.3449717" lon="10.71018"><ele>51.0</ele><time>2026-04-27T11:17:17.01Z</time></trkpt><trkpt lat="45.3450417" lon="10.7101967"><ele>51.0</ele><time>2026-04-27T11:17:19.009Z</time></trkpt><trkpt lat="45.3451167" lon="10.710205"><ele>51.0</ele><time>2026-04-27T11:17:21.01Z</time></trkpt><trkpt lat="45.34519" lon="10.7102183"><ele>51.0</ele><time>2026-04-27T11:17:23.009Z</time></trkpt><trkpt lat="45.3452617" lon="10.71023"><ele>51.0</ele><time>2026-04-27T11:17:25.01Z</time></trkpt><trkpt lat="45.3453367" lon="10.7102483"><ele>51.0</ele><time>2026-04-27T11:17:27.01Z</time></trkpt><trkpt lat="45.3454183" lon="10.7102767"><ele>51.0</ele><time>2026-04-27T11:17:29.009Z</time></trkpt><trkpt lat="45.3455033" lon="10.7102833"><ele>51.0</ele><time>2026-04-27T11:17:31.009Z</time></trkpt><trkpt lat="45.3455967" lon="10.7103033"><ele>51.0</ele><time>2026-04-27T11:17:33.009Z</time></trkpt><trkpt lat="45.3456867" lon="10.71032"><ele>51.166666666666664</ele><time>2026-04-27T11:17:35.01Z</time></trkpt><trkpt lat="45.3457717" lon="10.7103467"><ele>51.33333333333333</ele><time>2026-04-27T11:17:37.01Z</time></trkpt><trkpt lat="45.3458583" lon="10.71037"><ele>51.5</ele><time>2026-04-27T11:17:39.009Z</time></trkpt><trkpt lat="45.3459483" lon="10.710405"><ele>51.666666666666664</ele><time>2026-04-27T11:17:41.009Z</time></trkpt><trkpt lat="45.3460317" lon="10.7104333"><ele>51.83333333333333</ele><time>2026-04-27T11:17:43.01Z</time></trkpt><trkpt lat="45.3461217" lon="10.7104633"><ele>52.0</ele><time>2026-04-27T11:17:45.009Z</time></trkpt><trkpt lat="45.3462133" lon="10.7104917"><ele>52.0</ele><time>2026-04-27T11:17:47.01Z</time></trkpt><trkpt lat="45.3463083" lon="10.71052"><ele>52.0</ele><time>2026-04-27T11:17:49.009Z</time></trkpt><trkpt lat="45.346405" lon="10.7105517"><ele>52.0</ele><time>2026-04-27T11:17:51.01Z</time></trkpt><trkpt lat="45.3464933" lon="10.7105833"><ele>52.0</ele><time>2026-04-27T11:17:53.009Z</time></trkpt><trkpt lat="45.3465833" lon="10.7106183"><ele>52.0</ele><time>2026-04-27T11:17:55.009Z</time></trkpt><trkpt lat="45.3466717" lon="10.7106633"><ele>51.8</ele><time>2026-04-27T11:17:57.01Z</time></trkpt><trkpt lat="45.346765" lon="10.7107083"><ele>51.6</ele><time>2026-04-27T11:17:59.01Z</time></trkpt><trkpt lat="45.346855" lon="10.71075"><ele>51.4</ele><time>2026-04-27T11:18:01.01Z</time></trkpt><trkpt lat="45.3469483" lon="10.7108017"><ele>51.199999999999996</ele><time>2026-04-27T11:18:03.01Z</time></trkpt><trkpt lat="45.3470433" lon="10.7108383"><ele>51.0</ele><time>2026-04-27T11:18:05.009Z</time></trkpt><trkpt lat="45.347135" lon="10.7108933"><ele>51.199999999999996</ele><time>2026-04-27T11:18:07.01Z</time></trkpt><trkpt lat="45.3472217" lon="10.7109383"><ele>51.4</ele><time>2026-04-27T11:18:09.009Z</time></trkpt><trkpt lat="45.3473067" lon="10.7109917"><ele>51.6</ele><time>2026-04-27T11:18:11.009Z</time></trkpt><trkpt lat="45.3473967" lon="10.71105"><ele>51.8</ele><time>2026-04-27T11:18:13.009Z</time></trkpt><trkpt lat="45.34749" lon="10.7111067"><ele>52.0</ele><time>2026-04-27T11:18:15.01Z</time></trkpt><trkpt lat="45.3475783" lon="10.71117"><ele>52.2</ele><time>2026-04-27T11:18:17.009Z</time></trkpt><trkpt lat="45.3476633" lon="10.7112283"><ele>52.400000000000006</ele><time>2026-04-27T11:18:19.009Z</time></trkpt><trkpt lat="45.3477467" lon="10.7112917"><ele>52.599999999999994</ele><time>2026-04-27T11:18:21.009Z</time></trkpt><trkpt lat="45.3478283" lon="10.71136"><ele>52.8</ele><time>2026-04-27T11:18:23.01Z</time></trkpt><trkpt lat="45.34791" lon="10.7114167"><ele>53.0</ele><time>2026-04-27T11:18:25.01Z</time></trkpt><trkpt lat="45.347975" lon="10.7114967"><ele>53.0</ele><time>2026-04-27T11:18:27.01Z</time></trkpt><trkpt lat="45.34805" lon="10.7115867"><ele>53.0</ele><time>2026-04-27T11:18:29.01Z</time></trkpt><trkpt lat="45.3481267" lon="10.7116667"><ele>53.0</ele><time>2026-04-27T11:18:31.009Z</time></trkpt><trkpt lat="45.3482" lon="10.7117483"><ele>53.0</ele><time>2026-04-27T11:18:33.009Z</time></trkpt><trkpt lat="45.3482733" lon="10.7118317"><ele>53.0</ele><time>2026-04-27T11:18:35.01Z</time></trkpt><trkpt lat="45.3483467" lon="10.71192"><ele>53.0</ele><time>2026-04-27T11:18:37.009Z</time></trkpt><trkpt lat="45.3484217" lon="10.7120167"><ele>53.0</ele><time>2026-04-27T11:18:39.01Z</time></trkpt><trkpt lat="45.348495" lon="10.7121167"><ele>53.0</ele><time>2026-04-27T11:18:41.009Z</time></trkpt><trkpt lat="45.348565" lon="10.7122267"><ele>53.0</ele><time>2026-04-27T11:18:43.009Z</time></trkpt><trkpt lat="45.3486317" lon="10.7123383"><ele>53.0</ele><time>2026-04-27T11:18:45.009Z</time></trkpt><trkpt lat="45.3487033" lon="10.7124417"><ele>53.0</ele><time>2026-04-27T11:18:47.009Z</time></trkpt><trkpt lat="45.348765" lon="10.7125467"><ele>53.0</ele><time>2026-04-27T11:18:49.009Z</time></trkpt><trkpt lat="45.348825" lon="10.7126633"><ele>53.0</ele><time>2026-04-27T11:18:51.009Z</time></trkpt><trkpt lat="45.34888" lon="10.7127767"><ele>53.0</ele><time>2026-04-27T11:18:53.009Z</time></trkpt><trkpt lat="45.348935" lon="10.7129017"><ele>53.0</ele><time>2026-04-27T11:18:55.01Z</time></trkpt><trkpt lat="45.3489867" lon="10.7130167"><ele>53.0</ele><time>2026-04-27T11:18:57.009Z</time></trkpt><trkpt lat="45.3490417" lon="10.71314"><ele>53.0</ele><time>2026-04-27T11:18:59.008Z</time></trkpt><trkpt lat="45.3491033" lon="10.7132583"><ele>53.0</ele><time>2026-04-27T11:19:01.008Z</time></trkpt><trkpt lat="45.349155" lon="10.7133833"><ele>53.0</ele><time>2026-04-27T11:19:03.009Z</time></trkpt><trkpt lat="45.34921" lon="10.7135117"><ele>53.0</ele><time>2026-04-27T11:19:05.009Z</time></trkpt><trkpt lat="45.3492633" lon="10.7136183"><ele>52.5</ele><time>2026-04-27T11:19:07.008Z</time></trkpt><trkpt lat="45.3493617" lon="10.7138417"><ele>52.0</ele><time>2026-04-27T11:19:11.009Z</time></trkpt><trkpt lat="45.349435" lon="10.7139933"><ele>51.5</ele><time>2026-04-27T11:19:14.008Z</time></trkpt><trkpt lat="45.3494867" lon="10.714105"><ele>51.0</ele><time>2026-04-27T11:19:16.009Z</time></trkpt><trkpt lat="45.3495283" lon="10.7142167"><ele>51.0</ele><time>2026-04-27T11:19:18.009Z</time></trkpt><trkpt lat="45.3495733" lon="10.7143133"><ele>51.0</ele><time>2026-04-27T11:19:20.008Z</time></trkpt><trkpt lat="45.3496117" lon="10.714415"><ele>51.0</ele><time>2026-04-27T11:19:22.008Z</time></trkpt><trkpt lat="45.3496417" lon="10.7145083"><ele>51.0</ele><time>2026-04-27T11:19:24.008Z</time></trkpt><trkpt lat="45.349695" lon="10.7146083"><ele>51.0</ele><time>2026-04-27T11:19:27.008Z</time></trkpt><trkpt lat="45.3497383" lon="10.7146883"><ele>51.0</ele><time>2026-04-27T11:19:32.008Z</time></trkpt><trkpt lat="45.349785" lon="10.7147717"><ele>51.142857142857146</ele><time>2026-04-27T11:19:59.008Z</time></trkpt><trkpt lat="45.3498317" lon="10.714875"><ele>51.28571428571429</ele><time>2026-04-27T11:20:02.009Z</time></trkpt><trkpt lat="45.3498583" lon="10.7149583"><ele>51.42857142857143</ele><time>2026-04-27T11:20:04.008Z</time></trkpt><trkpt lat="45.3498983" lon="10.7150467"><ele>51.57142857142857</ele><time>2026-04-27T11:20:06.008Z</time></trkpt><trkpt lat="45.349925" lon="10.7151333"><ele>51.714285714285715</ele><time>2026-04-27T11:20:08.009Z</time></trkpt><trkpt lat="45.3499617" lon="10.7152167"><ele>51.857142857142854</ele><time>2026-04-27T11:20:10.009Z</time></trkpt><trkpt lat="45.3500033" lon="10.7152983"><ele>52.0</ele><time>2026-04-27T11:20:12.009Z</time></trkpt><trkpt lat="45.3500317" lon="10.7153967"><ele>52.166666666666664</ele><time>2026-04-27T11:20:14.008Z</time></trkpt><trkpt lat="45.3500517" lon="10.7155067"><ele>52.33333333333333</ele><time>2026-04-27T11:20:16.009Z</time></trkpt><trkpt lat="45.3500867" lon="10.7156183"><ele>52.5</ele><time>2026-04-27T11:20:18.008Z</time></trkpt><trkpt lat="45.350115" lon="10.7157233"><ele>52.66666666666667</ele><time>2026-04-27T11:20:20.009Z</time></trkpt><trkpt lat="45.35014" lon="10.715825"><ele>52.833333333333336</ele><time>2026-04-27T11:20:22.008Z</time></trkpt><trkpt lat="45.3501667" lon="10.715915"><ele>53.0</ele><time>2026-04-27T11:20:24.009Z</time></trkpt><trkpt lat="45.3501967" lon="10.7160117"><ele>53.142857142857146</ele><time>2026-04-27T11:20:26.009Z</time></trkpt><trkpt lat="45.3502167" lon="10.7160983"><ele>53.285714285714285</ele><time>2026-04-27T11:20:28.009Z</time></trkpt><trkpt lat="45.3502383" lon="10.7162"><ele>53.42857142857143</ele><time>2026-04-27T11:20:30.008Z</time></trkpt><trkpt lat="45.3502617" lon="10.716285"><ele>53.57142857142857</ele><time>2026-04-27T11:20:32.008Z</time></trkpt><trkpt lat="45.350285" lon="10.7163733"><ele>53.71428571428571</ele><time>2026-04-27T11:20:35.009Z</time></trkpt><trkpt lat="45.35031" lon="10.7164583"><ele>53.857142857142854</ele><time>2026-04-27T11:20:55.009Z</time></trkpt><trkpt lat="45.3503517" lon="10.7165617"><ele>54.0</ele><time>2026-04-27T11:20:58.008Z</time></trkpt><trkpt lat="45.3503917" lon="10.7166617"><ele>54.0</ele><time>2026-04-27T11:21:01.009Z</time></trkpt><trkpt lat="45.3504183" lon="10.716755"><ele>54.0</ele><time>2026-04-27T11:21:04.008Z</time></trkpt><trkpt lat="45.3504417" lon="10.7168967"><ele>54.0</ele><time>2026-04-27T11:21:09.008Z</time></trkpt><trkpt lat="45.350455" lon="10.7170267"><ele>54.0</ele><time>2026-04-27T11:21:12.009Z</time></trkpt><trkpt lat="45.35047" lon="10.71712"><ele>54.0</ele><time>2026-04-27T11:21:14.009Z</time></trkpt><trkpt lat="45.3504917" lon="10.7172267"><ele>54.0</ele><time>2026-04-27T11:21:16.008Z</time></trkpt><trkpt lat="45.3505083" lon="10.7173317"><ele>53.833333333333336</ele><time>2026-04-27T11:21:18.008Z</time></trkpt><trkpt lat="45.3505283" lon="10.717445"><ele>53.66666666666667</ele><time>2026-04-27T11:21:20.008Z</time></trkpt><trkpt lat="45.35055" lon="10.7175617"><ele>53.5</ele><time>2026-04-27T11:21:22.008Z</time></trkpt><trkpt lat="45.3505683" lon="10.71768"><ele>53.333333333333336</ele><time>2026-04-27T11:21:24.009Z</time></trkpt><trkpt lat="45.3505833" lon="10.717795"><ele>53.16666666666667</ele><time>2026-04-27T11:21:26.009Z</time></trkpt><trkpt lat="45.3506017" lon="10.7179117"><ele>53.0</ele><time>2026-04-27T11:21:28.008Z</time></trkpt><trkpt lat="45.3506217" lon="10.7180233"><ele>53.00000000000001</ele><time>2026-04-27T11:21:30.008Z</time></trkpt><trkpt lat="45.35065" lon="10.7181383"><ele>53.0</ele><time>2026-04-27T11:21:32.009Z</time></trkpt><trkpt lat="45.3506683" lon="10.7182517"><ele>53.0</ele><time>2026-04-27T11:21:34.009Z</time></trkpt><trkpt lat="45.3506917" lon="10.7183667"><ele>53.0</ele><time>2026-04-27T11:21:36.008Z</time></trkpt><trkpt lat="45.3507217" lon="10.71848"><ele>53.00000000000001</ele><time>2026-04-27T11:21:38.008Z</time></trkpt><trkpt lat="45.3507633" lon="10.7185917"><ele>53.0</ele><time>2026-04-27T11:21:40.008Z</time></trkpt><trkpt lat="45.350785" lon="10.718705"><ele>53.00000000000001</ele><time>2026-04-27T11:21:42.008Z</time></trkpt><trkpt lat="45.3508167" lon="10.718835"><ele>53.0</ele><time>2026-04-27T11:21:44.008Z</time></trkpt><trkpt lat="45.3508483" lon="10.7189433"><ele>53.0</ele><time>2026-04-27T11:21:46.008Z</time></trkpt><trkpt lat="45.3508817" lon="10.7190533"><ele>53.0</ele><time>2026-04-27T11:21:48.008Z</time></trkpt><trkpt lat="45.3509133" lon="10.719155"><ele>53.00000000000001</ele><time>2026-04-27T11:21:50.009Z</time></trkpt><trkpt lat="45.3509433" lon="10.7192767"><ele>53.0</ele><time>2026-04-27T11:21:52.009Z</time></trkpt><trkpt lat="45.35097" lon="10.7194033"><ele>53.50000000000001</ele><time>2026-04-27T11:21:54.009Z</time></trkpt><trkpt lat="45.3510117" lon="10.71952"><ele>54.0</ele><time>2026-04-27T11:21:56.009Z</time></trkpt><trkpt lat="45.3510433" lon="10.7196317"><ele>54.5</ele><time>2026-04-27T11:21:58.009Z</time></trkpt><trkpt lat="45.3510667" lon="10.719765"><ele>55.0</ele><time>2026-04-27T11:22:00.008Z</time></trkpt><trkpt lat="45.3510933" lon="10.7198833"><ele>55.50000000000001</ele><time>2026-04-27T11:22:02.008Z</time></trkpt><trkpt lat="45.3511217" lon="10.719995"><ele>56.0</ele><time>2026-04-27T11:22:04.008Z</time></trkpt><trkpt lat="45.3511433" lon="10.7201133"><ele>56.00000000000001</ele><time>2026-04-27T11:22:06.009Z</time></trkpt><trkpt lat="45.3511717" lon="10.7202283"><ele>56.0</ele><time>2026-04-27T11:22:08.009Z</time></trkpt><trkpt lat="45.351195" lon="10.7203517"><ele>56.0</ele><time>2026-04-27T11:22:10.008Z</time></trkpt><trkpt lat="45.3512233" lon="10.7204733"><ele>56.0</ele><time>2026-04-27T11:22:12.008Z</time></trkpt><trkpt lat="45.3512533" lon="10.72059"><ele>56.00000000000001</ele><time>2026-04-27T11:22:14.008Z</time></trkpt><trkpt lat="45.35129" lon="10.7207133"><ele>56.0</ele><time>2026-04-27T11:22:16.008Z</time></trkpt><trkpt lat="45.351315" lon="10.72083"><ele>55.0</ele><time>2026-04-27T11:22:18.008Z</time></trkpt><trkpt lat="45.3513533" lon="10.720955"><ele>53.99999999999999</ele><time>2026-04-27T11:22:20.008Z</time></trkpt><trkpt lat="45.3513883" lon="10.7210883"><ele>53.0</ele><time>2026-04-27T11:22:22.009Z</time></trkpt><trkpt lat="45.3514117" lon="10.7212067"><ele>52.0</ele><time>2026-04-27T11:22:24.009Z</time></trkpt><trkpt lat="45.3514633" lon="10.72132"><ele>51.0</ele><time>2026-04-27T11:22:26.008Z</time></trkpt><trkpt lat="45.3515017" lon="10.7214333"><ele>51.0</ele><time>2026-04-27T11:22:28.009Z</time></trkpt><trkpt lat="45.3515317" lon="10.721555"><ele>51.0</ele><time>2026-04-27T11:22:30.008Z</time></trkpt><trkpt lat="45.3515633" lon="10.72168"><ele>51.0</ele><time>2026-04-27T11:22:32.009Z</time></trkpt><trkpt lat="45.3515967" lon="10.7218"><ele>51.0</ele><time>2026-04-27T11:22:34.008Z</time></trkpt><trkpt lat="45.3516317" lon="10.721915"><ele>51.0</ele><time>2026-04-27T11:22:36.009Z</time></trkpt><trkpt lat="45.3516733" lon="10.7220417"><ele>51.599999999999994</ele><time>2026-04-27T11:22:38.008Z</time></trkpt><trkpt lat="45.3517067" lon="10.72216"><ele>52.2</ele><time>2026-04-27T11:22:40.008Z</time></trkpt><trkpt lat="45.3517433" lon="10.7222867"><ele>52.800000000000004</ele><time>2026-04-27T11:22:42.009Z</time></trkpt><trkpt lat="45.3517817" lon="10.7224217"><ele>53.400000000000006</ele><time>2026-04-27T11:22:44.009Z</time></trkpt><trkpt lat="45.3518183" lon="10.7225367"><ele>54.0</ele><time>2026-04-27T11:22:46.009Z</time></trkpt><trkpt lat="45.3518517" lon="10.7226517"><ele>55.2</ele><time>2026-04-27T11:22:48.008Z</time></trkpt><trkpt lat="45.3518883" lon="10.72278"><ele>56.400000000000006</ele><time>2026-04-27T11:22:50.008Z</time></trkpt><trkpt lat="45.35192" lon="10.722905"><ele>57.6</ele><time>2026-04-27T11:22:52.008Z</time></trkpt><trkpt lat="45.3519517" lon="10.7230267"><ele>58.8</ele><time>2026-04-27T11:22:54.009Z</time></trkpt><trkpt lat="45.3519683" lon="10.7231433"><ele>60.0</ele><time>2026-04-27T11:22:56.009Z</time></trkpt><trkpt lat="45.351935" lon="10.723285"><ele>60.0</ele><time>2026-04-27T11:22:58.008Z</time></trkpt><trkpt lat="45.3518833" lon="10.7233933"><ele>60.0</ele><time>2026-04-27T11:23:00.009Z</time></trkpt><trkpt lat="45.3518133" lon="10.7234683"><ele>60.0</ele><time>2026-04-27T11:23:03.009Z</time></trkpt><trkpt lat="45.3517633" lon="10.72354"><ele>60.0</ele><time>2026-04-27T11:23:06.008Z</time></trkpt><trkpt lat="45.3517183" lon="10.7236267"><ele>60.0</ele><time>2026-04-27T11:23:09.009Z</time></trkpt><trkpt lat="45.3517333" lon="10.723745"><ele>60.0</ele><time>2026-04-27T11:23:12.008Z</time></trkpt><trkpt lat="45.3517633" lon="10.723825"><ele>61.333333333333336</ele><time>2026-04-27T11:23:14.008Z</time></trkpt><trkpt lat="45.3518067" lon="10.7239317"><ele>62.66666666666667</ele><time>2026-04-27T11:23:17.008Z</time></trkpt><trkpt lat="45.3518483" lon="10.7240017"><ele>64.0</ele><time>2026-04-27T11:23:19.009Z</time></trkpt><trkpt lat="45.35191" lon="10.7240933"><ele>65.33333333333334</ele><time>2026-04-27T11:23:22.009Z</time></trkpt><trkpt lat="45.3519483" lon="10.7242017"><ele>66.66666666666667</ele><time>2026-04-27T11:23:25.009Z</time></trkpt><trkpt lat="45.3519917" lon="10.7243083"><ele>68.0</ele><time>2026-04-27T11:23:28.008Z</time></trkpt><trkpt lat="45.3520217" lon="10.7243917"><ele>69.14285714285714</ele><time>2026-04-27T11:23:30.008Z</time></trkpt><trkpt lat="45.3520583" lon="10.724475"><ele>70.28571428571428</ele><time>2026-04-27T11:23:32.008Z</time></trkpt><trkpt lat="45.352105" lon="10.724585"><ele>71.42857142857142</ele><time>2026-04-27T11:23:35.009Z</time></trkpt><trkpt lat="45.3521367" lon="10.7246683"><ele>72.57142857142857</ele><time>2026-04-27T11:23:37.008Z</time></trkpt><trkpt lat="45.3521717" lon="10.724745"><ele>73.71428571428572</ele><time>2026-04-27T11:23:39.009Z</time></trkpt><trkpt lat="45.3522117" lon="10.724835"><ele>74.85714285714285</ele><time>2026-04-27T11:23:41.008Z</time></trkpt><trkpt lat="45.3522433" lon="10.7249133"><ele>76.0</ele><time>2026-04-27T11:23:43.009Z</time></trkpt><trkpt lat="45.35227" lon="10.7250067"><ele>74.14285714285714</ele><time>2026-04-27T11:23:45.008Z</time></trkpt><trkpt lat="45.3523017" lon="10.7250867"><ele>72.28571428571429</ele><time>2026-04-27T11:23:47.008Z</time></trkpt><trkpt lat="45.3523417" lon="10.72517"><ele>70.42857142857143</ele><time>2026-04-27T11:23:49.009Z</time></trkpt><trkpt lat="45.3523867" lon="10.7252533"><ele>68.57142857142857</ele><time>2026-04-27T11:23:51.009Z</time></trkpt><trkpt lat="45.3524267" lon="10.72535"><ele>66.71428571428572</ele><time>2026-04-27T11:23:53.009Z</time></trkpt><trkpt lat="45.352465" lon="10.7254383"><ele>64.85714285714286</ele><time>2026-04-27T11:23:55.009Z</time></trkpt><trkpt lat="45.3525067" lon="10.7255317"><ele>63.0</ele><time>2026-04-27T11:23:57.009Z</time></trkpt><trkpt lat="45.3525417" lon="10.7256217"><ele>63.0</ele><time>2026-04-27T11:23:59.009Z</time></trkpt><trkpt lat="45.35257" lon="10.7257183"><ele>63.0</ele><time>2026-04-27T11:24:01.008Z</time></trkpt><trkpt lat="45.3525867" lon="10.7258317"><ele>63.0</ele><time>2026-04-27T11:24:03.009Z</time></trkpt><trkpt lat="45.3526167" lon="10.7259283"><ele>63.0</ele><time>2026-04-27T11:24:05.009Z</time></trkpt><trkpt lat="45.3526517" lon="10.7260367"><ele>63.0</ele><time>2026-04-27T11:24:07.008Z</time></trkpt><trkpt lat="45.352695" lon="10.7261233"><ele>63.0</ele><time>2026-04-27T11:24:09.009Z</time></trkpt><trkpt lat="45.3527367" lon="10.7262167"><ele>63.5</ele><time>2026-04-27T11:24:11.008Z</time></trkpt><trkpt lat="45.352785" lon="10.7263067"><ele>64.0</ele><time>2026-04-27T11:24:13.008Z</time></trkpt><trkpt lat="45.35283" lon="10.7264017"><ele>64.5</ele><time>2026-04-27T11:24:15.009Z</time></trkpt><trkpt lat="45.352865" lon="10.7265"><ele>65.0</ele><time>2026-04-27T11:24:17.008Z</time></trkpt><trkpt lat="45.3529033" lon="10.726605"><ele>65.5</ele><time>2026-04-27T11:24:19.009Z</time></trkpt><trkpt lat="45.3529267" lon="10.7267033"><ele>66.0</ele><time>2026-04-27T11:24:21.009Z</time></trkpt><trkpt lat="45.3529633" lon="10.726805"><ele>66.0</ele><time>2026-04-27T11:24:23.008Z</time></trkpt><trkpt lat="45.353" lon="10.72688"><ele>66.0</ele><time>2026-04-27T11:24:25.009Z</time></trkpt><trkpt lat="45.3530617" lon="10.7269667"><ele>66.0</ele><time>2026-04-27T11:24:28.009Z</time></trkpt><trkpt lat="45.35313" lon="10.7269083"><ele>66.0</ele><time>2026-04-27T11:24:32.008Z</time></trkpt><trkpt lat="45.353175" lon="10.7267867"><ele>66.0</ele><time>2026-04-27T11:24:35.009Z</time></trkpt><trkpt lat="45.3532117" lon="10.72671"><ele>66.0</ele><time>2026-04-27T11:24:37.008Z</time></trkpt><trkpt lat="45.3532433" lon="10.7266317"><ele>65.14285714285714</ele><time>2026-04-27T11:24:39.009Z</time></trkpt><trkpt lat="45.3532717" lon="10.7265383"><ele>64.28571428571429</ele><time>2026-04-27T11:24:41.009Z</time></trkpt><trkpt lat="45.3533" lon="10.726455"><ele>63.42857142857143</ele><time>2026-04-27T11:24:43.008Z</time></trkpt><trkpt lat="45.3533533" lon="10.7263383"><ele>62.57142857142857</ele><time>2026-04-27T11:24:46.008Z</time></trkpt><trkpt lat="45.3533867" lon="10.7262567"><ele>61.71428571428571</ele><time>2026-04-27T11:24:48.008Z</time></trkpt><trkpt lat="45.3534167" lon="10.72616"><ele>60.85714285714286</ele><time>2026-04-27T11:24:50.008Z</time></trkpt><trkpt lat="45.3534467" lon="10.7260767"><ele>60.0</ele><time>2026-04-27T11:24:52.009Z</time></trkpt><trkpt lat="45.353485" lon="10.7259517"><ele>59.833333333333336</ele><time>2026-04-27T11:24:55.009Z</time></trkpt><trkpt lat="45.3535183" lon="10.725865"><ele>59.66666666666667</ele><time>2026-04-27T11:24:57.008Z</time></trkpt><trkpt lat="45.3535467" lon="10.72578"><ele>59.5</ele><time>2026-04-27T11:24:59.009Z</time></trkpt><trkpt lat="45.3536017" lon="10.7256883"><ele>59.333333333333336</ele><time>2026-04-27T11:25:02.008Z</time></trkpt><trkpt lat="45.3536367" lon="10.725565"><ele>59.16666666666667</ele><time>2026-04-27T11:25:05.009Z</time></trkpt><trkpt lat="45.3536883" lon="10.7254817"><ele>59.0</ele><time>2026-04-27T11:25:08.009Z</time></trkpt><trkpt lat="45.3537283" lon="10.7253883"><ele>59.0</ele><time>2026-04-27T11:25:12.008Z</time></trkpt><trkpt lat="45.3537483" lon="10.7253033"><ele>59.0</ele><time>2026-04-27T11:25:15.008Z</time></trkpt><trkpt lat="45.35376" lon="10.72521"><ele>59.0</ele><time>2026-04-27T11:25:18.008Z</time></trkpt><trkpt lat="45.3537667" lon="10.7251067"><ele>59.0</ele><time>2026-04-27T11:25:21.009Z</time></trkpt><trkpt lat="45.3537333" lon="10.7250217"><ele>59.0</ele><time>2026-04-27T11:25:26.009Z</time></trkpt><trkpt lat="45.3536767" lon="10.7249467"><ele>59.0</ele><time>2026-04-27T11:25:49.008Z</time></trkpt><trkpt lat="45.3536217" lon="10.7248917"><ele>59.0</ele><time>2026-04-27T11:25:53.008Z</time></trkpt><trkpt lat="45.3535617" lon="10.7247667"><ele>59.0</ele><time>2026-04-27T11:26:03.007Z</time></trkpt><trkpt lat="45.3535367" lon="10.7246733"><ele>59.00000000000001</ele><time>2026-04-27T11:26:09.009Z</time></trkpt><trkpt lat="45.3535417" lon="10.7245683"><ele>59.00000000000001</ele><time>2026-04-27T11:26:16.009Z</time></trkpt><trkpt lat="45.3535867" lon="10.7244383"><ele>59.0</ele><time>2026-04-27T11:26:28.008Z</time></trkpt><trkpt lat="45.35362" lon="10.72426"><ele>59.0</ele><time>2026-04-27T11:27:15.008Z</time></trkpt><trkpt lat="45.353625" lon="10.7241533"><ele>58.50000000000001</ele><time>2026-04-27T11:27:19.008Z</time></trkpt><trkpt lat="45.3536617" lon="10.7240367"><ele>58.0</ele><time>2026-04-27T11:27:26.008Z</time></trkpt><trkpt lat="45.3536333" lon="10.7239483"><ele>57.5</ele><time>2026-04-27T11:27:33.008Z</time></trkpt><trkpt lat="45.3535883" lon="10.7238817"><ele>57.0</ele><time>2026-04-27T11:27:40.008Z</time></trkpt><trkpt lat="45.353515" lon="10.7238267"><ele>56.50000000000001</ele><time>2026-04-27T11:27:51.009Z</time></trkpt><trkpt lat="45.3534383" lon="10.723765"><ele>56.0</ele><time>2026-04-27T11:27:54.009Z</time></trkpt><trkpt lat="45.35341" lon="10.72365"><ele>56.0</ele><time>2026-04-27T11:27:57.008Z</time></trkpt><trkpt lat="45.3533383" lon="10.7236183"><ele>56.0</ele><time>2026-04-27T11:28:01.009Z</time></trkpt><trkpt lat="45.353275" lon="10.7236833"><ele>56.0</ele><time>2026-04-27T11:28:04.009Z</time></trkpt><trkpt lat="45.3531983" lon="10.72368"><ele>56.0</ele><time>2026-04-27T11:28:07.008Z</time></trkpt><trkpt lat="45.353145" lon="10.723615"><ele>56.0</ele><time>2026-04-27T11:28:10.008Z</time></trkpt><trkpt lat="45.35309" lon="10.7235567"><ele>56.0</ele><time>2026-04-27T11:28:13.008Z</time></trkpt><trkpt lat="45.3530233" lon="10.7235033"><ele>56.0</ele><time>2026-04-27T11:28:16.007Z</time></trkpt><trkpt lat="45.3529683" lon="10.7234217"><ele>55.66666666666667</ele><time>2026-04-27T11:28:19.008Z</time></trkpt><trkpt lat="45.3529033" lon="10.7233267"><ele>55.333333333333336</ele><time>2026-04-27T11:28:22.008Z</time></trkpt><trkpt lat="45.35285" lon="10.7232517"><ele>55.0</ele><time>2026-04-27T11:28:25.008Z</time></trkpt><trkpt lat="45.3527917" lon="10.7231583"><ele>54.66666666666667</ele><time>2026-04-27T11:28:28.007Z</time></trkpt><trkpt lat="45.3527133" lon="10.72309"><ele>54.333333333333336</ele><time>2026-04-27T11:28:31.008Z</time></trkpt><trkpt lat="45.352665" lon="10.7229783"><ele>54.0</ele><time>2026-04-27T11:28:34.007Z</time></trkpt><trkpt lat="45.3526233" lon="10.7228717"><ele>54.0</ele><time>2026-04-27T11:28:37.007Z</time></trkpt><trkpt lat="45.3525867" lon="10.72278"><ele>54.0</ele><time>2026-04-27T11:28:40.008Z</time></trkpt><trkpt lat="45.352555" lon="10.7226783"><ele>54.0</ele><time>2026-04-27T11:28:43.007Z</time></trkpt><trkpt lat="45.3525233" lon="10.72259"><ele>54.0</ele><time>2026-04-27T11:28:45.007Z</time></trkpt><trkpt lat="45.3525" lon="10.7224667"><ele>54.0</ele><time>2026-04-27T11:28:48.008Z</time></trkpt><trkpt lat="45.3524633" lon="10.7223533"><ele>54.0</ele><time>2026-04-27T11:28:51.008Z</time></trkpt><trkpt lat="45.35243" lon="10.722235"><ele>54.0</ele><time>2026-04-27T11:28:54.008Z</time></trkpt><trkpt lat="45.3524083" lon="10.7221483"><ele>54.0</ele><time>2026-04-27T11:28:56.007Z</time></trkpt><trkpt lat="45.3523817" lon="10.7220333"><ele>54.0</ele><time>2026-04-27T11:28:59.007Z</time></trkpt><trkpt lat="45.3523667" lon="10.72194"><ele>54.0</ele><time>2026-04-27T11:29:01.008Z</time></trkpt><trkpt lat="45.3523283" lon="10.7218167"><ele>54.0</ele><time>2026-04-27T11:29:04.008Z</time></trkpt><trkpt lat="45.3522983" lon="10.7217"><ele>54.0</ele><time>2026-04-27T11:29:07.007Z</time></trkpt><trkpt lat="45.35226" lon="10.7215767"><ele>56.0</ele><time>2026-04-27T11:29:10.007Z</time></trkpt><trkpt lat="45.35224" lon="10.7214867"><ele>56.0</ele><time>2026-04-27T11:29:12.008Z</time></trkpt><trkpt lat="45.3522117" lon="10.721405"><ele>56.0</ele><time>2026-04-27T11:29:14.007Z</time></trkpt><trkpt lat="45.35218" lon="10.7212967"><ele>51.0</ele><time>2026-04-27T11:29:17.008Z</time></trkpt><trkpt lat="45.3521583" lon="10.7211467"><ele>51.0</ele><time>2026-04-27T11:29:21.008Z</time></trkpt><trkpt lat="45.3521617" lon="10.7210433"><ele>55.0</ele><time>2026-04-27T11:29:24.008Z</time></trkpt></trkseg><trkseg><trkpt lat="45.34852" lon="10.712145"><ele>53.0</ele><time>2026-04-27T12:52:16.021Z</time></trkpt><trkpt lat="45.3484567" lon="10.7120617"><ele>53.0</ele><time>2026-04-27T12:52:18.02Z</time></trkpt><trkpt lat="45.3484017" lon="10.7120033"><ele>53.0</ele><time>2026-04-27T12:52:20.021Z</time></trkpt><trkpt lat="45.3483483" lon="10.7119333"><ele>53.0</ele><time>2026-04-27T12:52:22.02Z</time></trkpt><trkpt lat="45.3482967" lon="10.7118633"><ele>53.0</ele><time>2026-04-27T12:52:24.021Z</time></trkpt><trkpt lat="45.3482467" lon="10.7118"><ele>53.0</ele><time>2026-04-27T12:52:26.02Z</time></trkpt><trkpt lat="45.3481883" lon="10.7117283"><ele>53.0</ele><time>2026-04-27T12:52:28.02Z</time></trkpt><trkpt lat="45.3481333" lon="10.7116583"><ele>53.00000000000001</ele><time>2026-04-27T12:52:30.02Z</time></trkpt><trkpt lat="45.3480717" lon="10.7115883"><ele>53.0</ele><time>2026-04-27T12:52:32.02Z</time></trkpt><trkpt lat="45.3480167" lon="10.7115167"><ele>53.0</ele><time>2026-04-27T12:52:34.02Z</time></trkpt><trkpt lat="45.3479517" lon="10.7114667"><ele>53.0</ele><time>2026-04-27T12:52:36.02Z</time></trkpt><trkpt lat="45.3478833" lon="10.7114183"><ele>53.00000000000001</ele><time>2026-04-27T12:52:38.021Z</time></trkpt><trkpt lat="45.3478183" lon="10.7113683"><ele>53.0</ele><time>2026-04-27T12:52:40.021Z</time></trkpt><trkpt lat="45.3477517" lon="10.7113183"><ele>53.00000000000001</ele><time>2026-04-27T12:52:42.021Z</time></trkpt><trkpt lat="45.3476833" lon="10.71126"><ele>53.0</ele><time>2026-04-27T12:52:44.02Z</time></trkpt><trkpt lat="45.3476083" lon="10.7112"><ele>53.0</ele><time>2026-04-27T12:52:46.021Z</time></trkpt><trkpt lat="45.3475367" lon="10.7111367"><ele>53.0</ele><time>2026-04-27T12:52:48.02Z</time></trkpt><trkpt lat="45.3474633" lon="10.7110833"><ele>53.00000000000001</ele><time>2026-04-27T12:52:50.02Z</time></trkpt><trkpt lat="45.3473917" lon="10.7110367"><ele>53.0</ele><time>2026-04-27T12:52:52.021Z</time></trkpt><trkpt lat="45.347315" lon="10.710995"><ele>52.833333333333336</ele><time>2026-04-27T12:52:54.02Z</time></trkpt><trkpt lat="45.34724" lon="10.7109483"><ele>52.66666666666667</ele><time>2026-04-27T12:52:56.02Z</time></trkpt><trkpt lat="45.3471583" lon="10.7109083"><ele>52.5</ele><time>2026-04-27T12:52:58.021Z</time></trkpt><trkpt lat="45.347075" lon="10.7108717"><ele>52.33333333333333</ele><time>2026-04-27T12:53:00.021Z</time></trkpt><trkpt lat="45.3469983" lon="10.7108417"><ele>52.166666666666664</ele><time>2026-04-27T12:53:02.02Z</time></trkpt><trkpt lat="45.3469233" lon="10.7108067"><ele>52.0</ele><time>2026-04-27T12:53:04.021Z</time></trkpt><trkpt lat="45.34685" lon="10.7107667"><ele>51.83333333333333</ele><time>2026-04-27T12:53:06.02Z</time></trkpt><trkpt lat="45.3467783" lon="10.7107417"><ele>51.666666666666664</ele><time>2026-04-27T12:53:08.021Z</time></trkpt><trkpt lat="45.3467033" lon="10.7107167"><ele>51.5</ele><time>2026-04-27T12:53:10.02Z</time></trkpt><trkpt lat="45.3466233" lon="10.7106917"><ele>51.33333333333333</ele><time>2026-04-27T12:53:12.021Z</time></trkpt><trkpt lat="45.3465483" lon="10.7106533"><ele>51.166666666666664</ele><time>2026-04-27T12:53:14.021Z</time></trkpt><trkpt lat="45.3464817" lon="10.710615"><ele>51.0</ele><time>2026-04-27T12:53:16.02Z</time></trkpt><trkpt lat="45.34641" lon="10.71058"><ele>51.166666666666664</ele><time>2026-04-27T12:53:18.02Z</time></trkpt><trkpt lat="45.3463367" lon="10.71055"><ele>51.33333333333333</ele><time>2026-04-27T12:53:20.021Z</time></trkpt><trkpt lat="45.3462633" lon="10.7105217"><ele>51.5</ele><time>2026-04-27T12:53:22.021Z</time></trkpt><trkpt lat="45.34619" lon="10.710495"><ele>51.666666666666664</ele><time>2026-04-27T12:53:24.02Z</time></trkpt><trkpt lat="45.3461183" lon="10.71047"><ele>51.83333333333333</ele><time>2026-04-27T12:53:26.02Z</time></trkpt><trkpt lat="45.3460383" lon="10.7104433"><ele>52.0</ele><time>2026-04-27T12:53:28.021Z</time></trkpt><trkpt lat="45.345955" lon="10.7104217"><ele>51.99999999999999</ele><time>2026-04-27T12:53:30.021Z</time></trkpt><trkpt lat="45.345875" lon="10.710395"><ele>52.0</ele><time>2026-04-27T12:53:32.021Z</time></trkpt><trkpt lat="45.3457967" lon="10.71037"><ele>52.0</ele><time>2026-04-27T12:53:34.021Z</time></trkpt><trkpt lat="45.345715" lon="10.7103483"><ele>52.0</ele><time>2026-04-27T12:53:36.02Z</time></trkpt><trkpt lat="45.345635" lon="10.7103283"><ele>51.99999999999999</ele><time>2026-04-27T12:53:38.02Z</time></trkpt><trkpt lat="45.3455533" lon="10.7103167"><ele>52.0</ele><time>2026-04-27T12:53:40.02Z</time></trkpt><trkpt lat="45.34547" lon="10.7102983"><ele>51.8</ele><time>2026-04-27T12:53:42.021Z</time></trkpt><trkpt lat="45.3453817" lon="10.7102883"><ele>51.6</ele><time>2026-04-27T12:53:44.02Z</time></trkpt><trkpt lat="45.3453017" lon="10.710275"><ele>51.4</ele><time>2026-04-27T12:53:46.021Z</time></trkpt><trkpt lat="45.3452167" lon="10.710265"><ele>51.199999999999996</ele><time>2026-04-27T12:53:48.02Z</time></trkpt><trkpt lat="45.345125" lon="10.7102483"><ele>51.0</ele><time>2026-04-27T12:53:50.02Z</time></trkpt><trkpt lat="45.3450183" lon="10.7102167"><ele>51.0</ele><time>2026-04-27T12:53:52.02Z</time></trkpt><trkpt lat="45.34491" lon="10.7102017"><ele>51.0</ele><time>2026-04-27T12:53:54.02Z</time></trkpt><trkpt lat="45.3448017" lon="10.7101767"><ele>51.0</ele><time>2026-04-27T12:53:56.021Z</time></trkpt><trkpt lat="45.344695" lon="10.710165"><ele>51.0</ele><time>2026-04-27T12:53:58.02Z</time></trkpt><trkpt lat="45.344595" lon="10.71016"><ele>51.0</ele><time>2026-04-27T12:54:00.02Z</time></trkpt><trkpt lat="45.3445067" lon="10.71016"><ele>50.833333333333336</ele><time>2026-04-27T12:54:02.021Z</time></trkpt><trkpt lat="45.344425" lon="10.71016"><ele>50.66666666666667</ele><time>2026-04-27T12:54:04.021Z</time></trkpt><trkpt lat="45.344345" lon="10.7101617"><ele>50.5</ele><time>2026-04-27T12:54:06.02Z</time></trkpt><trkpt lat="45.344265" lon="10.7101633"><ele>50.333333333333336</ele><time>2026-04-27T12:54:08.02Z</time></trkpt><trkpt lat="45.344185" lon="10.7101567"><ele>50.16666666666667</ele><time>2026-04-27T12:54:10.02Z</time></trkpt><trkpt lat="45.34411" lon="10.7101617"><ele>50.0</ele><time>2026-04-27T12:54:12.02Z</time></trkpt><trkpt lat="45.3440317" lon="10.7101617"><ele>50.00000000000001</ele><time>2026-04-27T12:54:14.02Z</time></trkpt><trkpt lat="45.3439533" lon="10.7101633"><ele>50.0</ele><time>2026-04-27T12:54:16.02Z</time></trkpt><trkpt lat="45.3438733" lon="10.7101667"><ele>50.0</ele><time>2026-04-27T12:54:18.02Z</time></trkpt><trkpt lat="45.3438" lon="10.710165"><ele>50.0</ele><time>2026-04-27T12:54:20.02Z</time></trkpt><trkpt lat="45.3437283" lon="10.7101533"><ele>50.00000000000001</ele><time>2026-04-27T12:54:22.021Z</time></trkpt><trkpt lat="45.34364" lon="10.7101683"><ele>50.0</ele><time>2026-04-27T12:54:24.021Z</time></trkpt><trkpt lat="45.3435483" lon="10.710195"><ele>50.16666666666667</ele><time>2026-04-27T12:54:26.021Z</time></trkpt><trkpt lat="45.34346" lon="10.71021"><ele>50.333333333333336</ele><time>2026-04-27T12:54:28.021Z</time></trkpt><trkpt lat="45.3433833" lon="10.7102"><ele>50.5</ele><time>2026-04-27T12:54:30.021Z</time></trkpt><trkpt lat="45.3432983" lon="10.7102267"><ele>50.66666666666667</ele><time>2026-04-27T12:54:32.021Z</time></trkpt><trkpt lat="45.34322" lon="10.7102417"><ele>50.833333333333336</ele><time>2026-04-27T12:54:34.02Z</time></trkpt><trkpt lat="45.343145" lon="10.710255"><ele>51.0</ele><time>2026-04-27T12:54:36.021Z</time></trkpt><trkpt lat="45.34307" lon="10.7102567"><ele>50.833333333333336</ele><time>2026-04-27T12:54:38.021Z</time></trkpt><trkpt lat="45.3429933" lon="10.7102733"><ele>50.66666666666667</ele><time>2026-04-27T12:54:40.021Z</time></trkpt><trkpt lat="45.34291" lon="10.7103017"><ele>50.5</ele><time>2026-04-27T12:54:42.021Z</time></trkpt><trkpt lat="45.3428283" lon="10.7103267"><ele>50.333333333333336</ele><time>2026-04-27T12:54:44.02Z</time></trkpt><trkpt lat="45.34275" lon="10.7103433"><ele>50.16666666666667</ele><time>2026-04-27T12:54:46.02Z</time></trkpt><trkpt lat="45.3426683" lon="10.71037"><ele>50.0</ele><time>2026-04-27T12:54:48.021Z</time></trkpt><trkpt lat="45.3425933" lon="10.7103983"><ele>50.00000000000001</ele><time>2026-04-27T12:54:50.02Z</time></trkpt><trkpt lat="45.3425217" lon="10.7104183"><ele>50.0</ele><time>2026-04-27T12:54:52.02Z</time></trkpt><trkpt lat="45.3424483" lon="10.7104367"><ele>50.0</ele><time>2026-04-27T12:54:54.021Z</time></trkpt><trkpt lat="45.342375" lon="10.7104567"><ele>50.0</ele><time>2026-04-27T12:54:56.021Z</time></trkpt><trkpt lat="45.3423083" lon="10.7104767"><ele>50.0</ele><time>2026-04-27T12:54:58.02Z</time></trkpt><trkpt lat="45.3422383" lon="10.7104983"><ele>50.00000000000001</ele><time>2026-04-27T12:55:00.02Z</time></trkpt><trkpt lat="45.342165" lon="10.710525"><ele>50.0</ele><time>2026-04-27T12:55:02.02Z</time></trkpt><trkpt lat="45.34209" lon="10.7105517"><ele>50.00000000000001</ele><time>2026-04-27T12:55:04.02Z</time></trkpt><trkpt lat="45.3420167" lon="10.710585"><ele>50.0</ele><time>2026-04-27T12:55:06.021Z</time></trkpt><trkpt lat="45.3419417" lon="10.71062"><ele>50.0</ele><time>2026-04-27T12:55:08.02Z</time></trkpt><trkpt lat="45.3418733" lon="10.71065"><ele>50.0</ele><time>2026-04-27T12:55:10.02Z</time></trkpt><trkpt lat="45.3418033" lon="10.7106767"><ele>50.0</ele><time>2026-04-27T12:55:12.02Z</time></trkpt><trkpt lat="45.3417367" lon="10.7107033"><ele>50.00000000000001</ele><time>2026-04-27T12:55:14.02Z</time></trkpt><trkpt lat="45.3416667" lon="10.71074"><ele>50.0</ele><time>2026-04-27T12:55:16.021Z</time></trkpt><trkpt lat="45.3415933" lon="10.7107733"><ele>50.00000000000001</ele><time>2026-04-27T12:55:18.02Z</time></trkpt><trkpt lat="45.3415217" lon="10.7108033"><ele>50.0</ele><time>2026-04-27T12:55:20.02Z</time></trkpt><trkpt lat="45.341455" lon="10.7108317"><ele>50.0</ele><time>2026-04-27T12:55:22.021Z</time></trkpt><trkpt lat="45.3413817" lon="10.7108667"><ele>50.0</ele><time>2026-04-27T12:55:24.02Z</time></trkpt><trkpt lat="45.3413117" lon="10.7109"><ele>50.0</ele><time>2026-04-27T12:55:26.021Z</time></trkpt><trkpt lat="45.3412417" lon="10.7109317"><ele>50.00000000000001</ele><time>2026-04-27T12:55:28.021Z</time></trkpt><trkpt lat="45.3411717" lon="10.71097"><ele>50.0</ele><time>2026-04-27T12:55:30.02Z</time></trkpt><trkpt lat="45.3411033" lon="10.711005"><ele>49.85714285714286</ele><time>2026-04-27T12:55:32.021Z</time></trkpt><trkpt lat="45.3410317" lon="10.7110467"><ele>49.714285714285715</ele><time>2026-04-27T12:55:34.021Z</time></trkpt><trkpt lat="45.3409633" lon="10.7110883"><ele>49.57142857142857</ele><time>2026-04-27T12:55:36.021Z</time></trkpt><trkpt lat="45.340895" lon="10.7111267"><ele>49.42857142857143</ele><time>2026-04-27T12:55:38.02Z</time></trkpt><trkpt lat="45.3408267" lon="10.7111683"><ele>49.285714285714285</ele><time>2026-04-27T12:55:40.021Z</time></trkpt><trkpt lat="45.3407583" lon="10.7112083"><ele>49.142857142857146</ele><time>2026-04-27T12:55:42.021Z</time></trkpt><trkpt lat="45.34069" lon="10.7112483"><ele>49.0</ele><time>2026-04-27T12:55:44.02Z</time></trkpt><trkpt lat="45.34062" lon="10.71129"><ele>49.166666666666664</ele><time>2026-04-27T12:55:46.021Z</time></trkpt><trkpt lat="45.340525" lon="10.7113483"><ele>49.33333333333333</ele><time>2026-04-27T12:55:49.021Z</time></trkpt><trkpt lat="45.3404617" lon="10.7113783"><ele>49.5</ele><time>2026-04-27T12:55:51.02Z</time></trkpt><trkpt lat="45.3404033" lon="10.711415"><ele>49.66666666666667</ele><time>2026-04-27T12:55:53.021Z</time></trkpt><trkpt lat="45.3403217" lon="10.7114733"><ele>49.833333333333336</ele><time>2026-04-27T12:55:56.019Z</time></trkpt><trkpt lat="45.3402583" lon="10.7115117"><ele>50.0</ele><time>2026-04-27T12:55:58.02Z</time></trkpt><trkpt lat="45.3401917" lon="10.7115517"><ele>50.00000000000001</ele><time>2026-04-27T12:56:00.019Z</time></trkpt><trkpt lat="45.340125" lon="10.7115883"><ele>50.0</ele><time>2026-04-27T12:56:02.019Z</time></trkpt><trkpt lat="45.340055" lon="10.7116283"><ele>50.0</ele><time>2026-04-27T12:56:04.019Z</time></trkpt><trkpt lat="45.3399883" lon="10.7116683"><ele>50.0</ele><time>2026-04-27T12:56:06.019Z</time></trkpt><trkpt lat="45.3399183" lon="10.71171"><ele>50.00000000000001</ele><time>2026-04-27T12:56:08.019Z</time></trkpt><trkpt lat="45.3398483" lon="10.7117517"><ele>50.0</ele><time>2026-04-27T12:56:10.019Z</time></trkpt><trkpt lat="45.3397783" lon="10.711805"><ele>50.00000000000001</ele><time>2026-04-27T12:56:12.02Z</time></trkpt><trkpt lat="45.33972" lon="10.7118517"><ele>50.0</ele><time>2026-04-27T12:56:14.019Z</time></trkpt><trkpt lat="45.3396567" lon="10.71189"><ele>50.0</ele><time>2026-04-27T12:56:17.019Z</time></trkpt><trkpt lat="45.339585" lon="10.7119333"><ele>50.0</ele><time>2026-04-27T12:56:20.02Z</time></trkpt><trkpt lat="45.33951" lon="10.71198"><ele>50.00000000000001</ele><time>2026-04-27T12:56:23.019Z</time></trkpt><trkpt lat="45.33943" lon="10.71203"><ele>50.0</ele><time>2026-04-27T12:56:26.02Z</time></trkpt><trkpt lat="45.33934" lon="10.71207"><ele>50.00000000000001</ele><time>2026-04-27T12:56:29.019Z</time></trkpt><trkpt lat="45.33928" lon="10.7121117"><ele>50.0</ele><time>2026-04-27T12:56:31.02Z</time></trkpt><trkpt lat="45.33922" lon="10.7121517"><ele>50.0</ele><time>2026-04-27T12:56:33.019Z</time></trkpt><trkpt lat="45.3391533" lon="10.71219"><ele>50.0</ele><time>2026-04-27T12:56:35.02Z</time></trkpt><trkpt lat="45.33909" lon="10.7122333"><ele>50.0</ele><time>2026-04-27T12:56:37.02Z</time></trkpt><trkpt lat="45.3390267" lon="10.7122717"><ele>50.00000000000001</ele><time>2026-04-27T12:56:39.02Z</time></trkpt><trkpt lat="45.3389617" lon="10.7123067"><ele>50.0</ele><time>2026-04-27T12:56:41.02Z</time></trkpt><trkpt lat="45.338895" lon="10.7123433"><ele>50.142857142857146</ele><time>2026-04-27T12:56:43.019Z</time></trkpt><trkpt lat="45.33883" lon="10.7123817"><ele>50.285714285714285</ele><time>2026-04-27T12:56:45.019Z</time></trkpt><trkpt lat="45.3387667" lon="10.7124167"><ele>50.42857142857143</ele><time>2026-04-27T12:56:47.02Z</time></trkpt><trkpt lat="45.3387" lon="10.7124533"><ele>50.57142857142857</ele><time>2026-04-27T12:56:49.019Z</time></trkpt><trkpt lat="45.33863" lon="10.7124817"><ele>50.714285714285715</ele><time>2026-04-27T12:56:51.019Z</time></trkpt><trkpt lat="45.338555" lon="10.7125267"><ele>50.85714285714286</ele><time>2026-04-27T12:56:53.02Z</time></trkpt><trkpt lat="45.338485" lon="10.712575"><ele>51.0</ele><time>2026-04-27T12:56:55.019Z</time></trkpt><trkpt lat="45.338415" lon="10.7126183"><ele>51.0</ele><time>2026-04-27T12:56:57.019Z</time></trkpt><trkpt lat="45.338345" lon="10.7126483"><ele>51.0</ele><time>2026-04-27T12:56:59.019Z</time></trkpt><trkpt lat="45.3382683" lon="10.712705"><ele>51.0</ele><time>2026-04-27T12:57:01.019Z</time></trkpt><trkpt lat="45.3381933" lon="10.71275"><ele>51.0</ele><time>2026-04-27T12:57:03.02Z</time></trkpt><trkpt lat="45.3381183" lon="10.7127983"><ele>51.0</ele><time>2026-04-27T12:57:05.02Z</time></trkpt><trkpt lat="45.3380417" lon="10.7128417"><ele>51.0</ele><time>2026-04-27T12:57:07.02Z</time></trkpt><trkpt lat="45.3379683" lon="10.71289"><ele>51.333333333333336</ele><time>2026-04-27T12:57:09.019Z</time></trkpt><trkpt lat="45.3378967" lon="10.7129317"><ele>51.66666666666667</ele><time>2026-04-27T12:57:11.02Z</time></trkpt><trkpt lat="45.3378217" lon="10.7129633"><ele>52.0</ele><time>2026-04-27T12:57:13.02Z</time></trkpt><trkpt lat="45.3377467" lon="10.713005"><ele>52.333333333333336</ele><time>2026-04-27T12:57:15.019Z</time></trkpt><trkpt lat="45.33767" lon="10.7130467"><ele>52.66666666666667</ele><time>2026-04-27T12:57:17.019Z</time></trkpt><trkpt lat="45.337595" lon="10.7130883"><ele>53.0</ele><time>2026-04-27T12:57:19.02Z</time></trkpt><trkpt lat="45.3375217" lon="10.7131283"><ele>53.00000000000001</ele><time>2026-04-27T12:57:21.02Z</time></trkpt><trkpt lat="45.3374533" lon="10.7131683"><ele>53.0</ele><time>2026-04-27T12:57:23.019Z</time></trkpt><trkpt lat="45.3373867" lon="10.7132133"><ele>53.0</ele><time>2026-04-27T12:57:25.02Z</time></trkpt><trkpt lat="45.33732" lon="10.7132617"><ele>53.0</ele><time>2026-04-27T12:57:27.019Z</time></trkpt><trkpt lat="45.3372467" lon="10.7133067"><ele>53.00000000000001</ele><time>2026-04-27T12:57:29.02Z</time></trkpt><trkpt lat="45.3371733" lon="10.713355"><ele>53.0</ele><time>2026-04-27T12:57:31.019Z</time></trkpt><trkpt lat="45.3371033" lon="10.7134033"><ele>53.333333333333336</ele><time>2026-04-27T12:57:33.02Z</time></trkpt><trkpt lat="45.3370333" lon="10.713445"><ele>53.66666666666667</ele><time>2026-04-27T12:57:35.019Z</time></trkpt><trkpt lat="45.336965" lon="10.71349"><ele>54.0</ele><time>2026-04-27T12:57:37.019Z</time></trkpt><trkpt lat="45.3368917" lon="10.7135367"><ele>54.33333333333333</ele><time>2026-04-27T12:57:39.02Z</time></trkpt><trkpt lat="45.33682" lon="10.7135833"><ele>54.666666666666664</ele><time>2026-04-27T12:57:41.019Z</time></trkpt><trkpt lat="45.33675" lon="10.7136183"><ele>55.0</ele><time>2026-04-27T12:57:43.02Z</time></trkpt><trkpt lat="45.3366867" lon="10.7136583"><ele>55.28571428571428</ele><time>2026-04-27T12:57:45.019Z</time></trkpt><trkpt lat="45.3366167" lon="10.7136967"><ele>55.57142857142857</ele><time>2026-04-27T12:57:47.02Z</time></trkpt><trkpt lat="45.3365517" lon="10.713735"><ele>55.857142857142854</ele><time>2026-04-27T12:57:49.02Z</time></trkpt><trkpt lat="45.3364867" lon="10.7137783"><ele>56.14285714285714</ele><time>2026-04-27T12:57:51.02Z</time></trkpt><trkpt lat="45.3364233" lon="10.7138183"><ele>56.42857142857142</ele><time>2026-04-27T12:57:53.02Z</time></trkpt><trkpt lat="45.3363583" lon="10.7138583"><ele>56.71428571428571</ele><time>2026-04-27T12:57:55.02Z</time></trkpt><trkpt lat="45.3362933" lon="10.7138917"><ele>57.0</ele><time>2026-04-27T12:57:57.019Z</time></trkpt><trkpt lat="45.3362233" lon="10.7139367"><ele>57.0</ele><time>2026-04-27T12:57:59.019Z</time></trkpt><trkpt lat="45.3361517" lon="10.7139767"><ele>57.0</ele><time>2026-04-27T12:58:01.019Z</time></trkpt><trkpt lat="45.3360817" lon="10.7140233"><ele>57.0</ele><time>2026-04-27T12:58:03.02Z</time></trkpt><trkpt lat="45.3360117" lon="10.7140617"><ele>57.0</ele><time>2026-04-27T12:58:05.019Z</time></trkpt><trkpt lat="45.3359433" lon="10.714105"><ele>57.0</ele><time>2026-04-27T12:58:07.02Z</time></trkpt><trkpt lat="45.3358733" lon="10.7141517"><ele>57.0</ele><time>2026-04-27T12:58:09.019Z</time></trkpt><trkpt lat="45.3358083" lon="10.7141917"><ele>57.0</ele><time>2026-04-27T12:58:11.02Z</time></trkpt><trkpt lat="45.3357417" lon="10.7142233"><ele>57.0</ele><time>2026-04-27T12:58:13.019Z</time></trkpt><trkpt lat="45.3356717" lon="10.714255"><ele>57.0</ele><time>2026-04-27T12:58:15.02Z</time></trkpt><trkpt lat="45.3356" lon="10.7142967"><ele>57.0</ele><time>2026-04-27T12:58:17.02Z</time></trkpt><trkpt lat="45.3355283" lon="10.7143433"><ele>57.0</ele><time>2026-04-27T12:58:19.019Z</time></trkpt><trkpt lat="45.3354567" lon="10.71439"><ele>57.0</ele><time>2026-04-27T12:58:21.02Z</time></trkpt><trkpt lat="45.3353867" lon="10.714435"><ele>56.833333333333336</ele><time>2026-04-27T12:58:23.02Z</time></trkpt><trkpt lat="45.3353233" lon="10.7144717"><ele>56.66666666666667</ele><time>2026-04-27T12:58:25.02Z</time></trkpt><trkpt lat="45.3352583" lon="10.71451"><ele>56.5</ele><time>2026-04-27T12:58:27.02Z</time></trkpt><trkpt lat="45.3351917" lon="10.71455"><ele>56.333333333333336</ele><time>2026-04-27T12:58:29.019Z</time></trkpt><trkpt lat="45.3351217" lon="10.7145833"><ele>56.16666666666667</ele><time>2026-04-27T12:58:31.02Z</time></trkpt><trkpt lat="45.3350433" lon="10.714625"><ele>56.0</ele><time>2026-04-27T12:58:33.019Z</time></trkpt><trkpt lat="45.3349417" lon="10.7146917"><ele>56.0</ele><time>2026-04-27T12:58:35.02Z</time></trkpt><trkpt lat="45.3348367" lon="10.7147617"><ele>55.99999999999999</ele><time>2026-04-27T12:58:37.02Z</time></trkpt><trkpt lat="45.3347317" lon="10.7148183"><ele>55.99999999999999</ele><time>2026-04-27T12:58:39.019Z</time></trkpt><trkpt lat="45.3346367" lon="10.7148867"><ele>56.0</ele><time>2026-04-27T12:58:41.02Z</time></trkpt><trkpt lat="45.33455" lon="10.7149433"><ele>56.0</ele><time>2026-04-27T12:58:43.02Z</time></trkpt><trkpt lat="45.3344683" lon="10.7149933"><ele>55.50000000000001</ele><time>2026-04-27T12:58:45.02Z</time></trkpt><trkpt lat="45.3343933" lon="10.7150317"><ele>55.0</ele><time>2026-04-27T12:58:47.019Z</time></trkpt><trkpt lat="45.33432" lon="10.715065"><ele>54.5</ele><time>2026-04-27T12:58:49.02Z</time></trkpt><trkpt lat="45.3342517" lon="10.7151"><ele>54.0</ele><time>2026-04-27T12:58:51.019Z</time></trkpt><trkpt lat="45.3341817" lon="10.7151367"><ele>53.50000000000001</ele><time>2026-04-27T12:58:53.02Z</time></trkpt><trkpt lat="45.33411" lon="10.7151883"><ele>53.0</ele><time>2026-04-27T12:58:55.02Z</time></trkpt><trkpt lat="45.3340233" lon="10.71523"><ele>53.599999999999994</ele><time>2026-04-27T12:58:57.02Z</time></trkpt><trkpt lat="45.333935" lon="10.71527"><ele>54.199999999999996</ele><time>2026-04-27T12:58:59.019Z</time></trkpt><trkpt lat="45.3338567" lon="10.7153183"><ele>54.8</ele><time>2026-04-27T12:59:01.019Z</time></trkpt><trkpt lat="45.33377" lon="10.7153583"><ele>55.4</ele><time>2026-04-27T12:59:03.02Z</time></trkpt><trkpt lat="45.3336783" lon="10.7153917"><ele>56.0</ele><time>2026-04-27T12:59:05.02Z</time></trkpt><trkpt lat="45.3335817" lon="10.7154233"><ele>56.0</ele><time>2026-04-27T12:59:07.019Z</time></trkpt><trkpt lat="45.3334883" lon="10.7154583"><ele>55.99999999999999</ele><time>2026-04-27T12:59:09.02Z</time></trkpt><trkpt lat="45.33341" lon="10.7154833"><ele>55.99999999999999</ele><time>2026-04-27T12:59:11.02Z</time></trkpt><trkpt lat="45.3333183" lon="10.7155117"><ele>56.0</ele><time>2026-04-27T12:59:13.019Z</time></trkpt><trkpt lat="45.3332183" lon="10.715535"><ele>56.0</ele><time>2026-04-27T12:59:15.02Z</time></trkpt><trkpt lat="45.3331183" lon="10.7155617"><ele>55.599999999999994</ele><time>2026-04-27T12:59:17.02Z</time></trkpt><trkpt lat="45.3330233" lon="10.7155933"><ele>55.199999999999996</ele><time>2026-04-27T12:59:19.019Z</time></trkpt><trkpt lat="45.332935" lon="10.7156183"><ele>54.800000000000004</ele><time>2026-04-27T12:59:21.02Z</time></trkpt><trkpt lat="45.3328483" lon="10.7156467"><ele>54.400000000000006</ele><time>2026-04-27T12:59:23.019Z</time></trkpt><trkpt lat="45.3327517" lon="10.71567"><ele>54.0</ele><time>2026-04-27T12:59:25.019Z</time></trkpt><trkpt lat="45.3326717" lon="10.7156867"><ele>54.0</ele><time>2026-04-27T12:59:27.02Z</time></trkpt><trkpt lat="45.3325583" lon="10.715705"><ele>54.00000000000001</ele><time>2026-04-27T12:59:29.02Z</time></trkpt><trkpt lat="45.3324617" lon="10.71573"><ele>54.00000000000001</ele><time>2026-04-27T12:59:31.019Z</time></trkpt><trkpt lat="45.3323733" lon="10.715745"><ele>54.0</ele><time>2026-04-27T12:59:33.019Z</time></trkpt><trkpt lat="45.332285" lon="10.7157617"><ele>54.0</ele><time>2026-04-27T12:59:35.02Z</time></trkpt><trkpt lat="45.3322017" lon="10.7157717"><ele>53.5</ele><time>2026-04-27T12:59:37.019Z</time></trkpt><trkpt lat="45.33212" lon="10.7157883"><ele>53.0</ele><time>2026-04-27T12:59:39.02Z</time></trkpt><trkpt lat="45.3320367" lon="10.7157933"><ele>52.5</ele><time>2026-04-27T12:59:41.019Z</time></trkpt><trkpt lat="45.3319483" lon="10.7158033"><ele>52.0</ele><time>2026-04-27T12:59:43.019Z</time></trkpt><trkpt lat="45.3318617" lon="10.7158167"><ele>51.5</ele><time>2026-04-27T12:59:45.02Z</time></trkpt><trkpt lat="45.3317733" lon="10.7158217"><ele>51.0</ele><time>2026-04-27T12:59:47.02Z</time></trkpt><trkpt lat="45.331685" lon="10.715825"><ele>51.0</ele><time>2026-04-27T12:59:49.02Z</time></trkpt><trkpt lat="45.3315983" lon="10.71583"><ele>51.0</ele><time>2026-04-27T12:59:51.02Z</time></trkpt><trkpt lat="45.3315133" lon="10.71583"><ele>51.0</ele><time>2026-04-27T12:59:53.019Z</time></trkpt><trkpt lat="45.3314317" lon="10.7158283"><ele>51.0</ele><time>2026-04-27T12:59:55.02Z</time></trkpt><trkpt lat="45.3313467" lon="10.71582"><ele>51.0</ele><time>2026-04-27T12:59:57.019Z</time></trkpt><trkpt lat="45.3312567" lon="10.7158083"><ele>51.0</ele><time>2026-04-27T12:59:59.018Z</time></trkpt><trkpt lat="45.3311767" lon="10.715795"><ele>51.0</ele><time>2026-04-27T13:00:01.018Z</time></trkpt><trkpt lat="45.3310917" lon="10.7157867"><ele>51.0</ele><time>2026-04-27T13:00:03.018Z</time></trkpt><trkpt lat="45.3310117" lon="10.7157733"><ele>51.0</ele><time>2026-04-27T13:00:05.019Z</time></trkpt><trkpt lat="45.3309317" lon="10.7157633"><ele>51.0</ele><time>2026-04-27T13:00:07.019Z</time></trkpt><trkpt lat="45.3308517" lon="10.71575"><ele>51.0</ele><time>2026-04-27T13:00:09.018Z</time></trkpt><trkpt lat="45.33077" lon="10.7157417"><ele>51.0</ele><time>2026-04-27T13:00:11.018Z</time></trkpt><trkpt lat="45.330695" lon="10.7157233"><ele>51.0</ele><time>2026-04-27T13:00:13.018Z</time></trkpt><trkpt lat="45.3306183" lon="10.71571"><ele>51.0</ele><time>2026-04-27T13:00:15.018Z</time></trkpt><trkpt lat="45.33054" lon="10.7157"><ele>51.0</ele><time>2026-04-27T13:00:17.019Z</time></trkpt><trkpt lat="45.33047" lon="10.71568"><ele>51.0</ele><time>2026-04-27T13:00:19.018Z</time></trkpt><trkpt lat="45.3303867" lon="10.715665"><ele>51.0</ele><time>2026-04-27T13:00:21.018Z</time></trkpt><trkpt lat="45.3301533" lon="10.7156083"><ele>51.199999999999996</ele><time>2026-04-27T13:00:26.018Z</time></trkpt><trkpt lat="45.3300617" lon="10.7155733"><ele>51.4</ele><time>2026-04-27T13:00:28.018Z</time></trkpt><trkpt lat="45.3299717" lon="10.7155483"><ele>51.6</ele><time>2026-04-27T13:00:30.019Z</time></trkpt><trkpt lat="45.32988" lon="10.7155267"><ele>51.8</ele><time>2026-04-27T13:00:32.019Z</time></trkpt><trkpt lat="45.3297883" lon="10.7155083"><ele>52.0</ele><time>2026-04-27T13:00:34.018Z</time></trkpt><trkpt lat="45.329705" lon="10.7154867"><ele>52.166666666666664</ele><time>2026-04-27T13:00:36.018Z</time></trkpt><trkpt lat="45.3296267" lon="10.715465"><ele>52.33333333333333</ele><time>2026-04-27T13:00:38.019Z</time></trkpt><trkpt lat="45.3295483" lon="10.71545"><ele>52.5</ele><time>2026-04-27T13:00:40.019Z</time></trkpt><trkpt lat="45.3294767" lon="10.71542"><ele>52.66666666666667</ele><time>2026-04-27T13:00:42.019Z</time></trkpt><trkpt lat="45.329405" lon="10.7154"><ele>52.833333333333336</ele><time>2026-04-27T13:00:44.019Z</time></trkpt><trkpt lat="45.3293267" lon="10.7153767"><ele>53.0</ele><time>2026-04-27T13:00:46.019Z</time></trkpt><trkpt lat="45.329245" lon="10.7153633"><ele>53.00000000000001</ele><time>2026-04-27T13:00:48.018Z</time></trkpt><trkpt lat="45.3291533" lon="10.71534"><ele>53.0</ele><time>2026-04-27T13:00:50.018Z</time></trkpt><trkpt lat="45.329065" lon="10.7153167"><ele>53.0</ele><time>2026-04-27T13:00:52.019Z</time></trkpt><trkpt lat="45.328985" lon="10.715275"><ele>53.0</ele><time>2026-04-27T13:00:54.018Z</time></trkpt><trkpt lat="45.3289083" lon="10.715235"><ele>53.00000000000001</ele><time>2026-04-27T13:00:56.018Z</time></trkpt><trkpt lat="45.32882" lon="10.71522"><ele>53.0</ele><time>2026-04-27T13:00:58.019Z</time></trkpt><trkpt lat="45.3287283" lon="10.7151967"><ele>51.833333333333336</ele><time>2026-04-27T13:01:00.019Z</time></trkpt><trkpt lat="45.3286433" lon="10.715175"><ele>50.66666666666667</ele><time>2026-04-27T13:01:02.018Z</time></trkpt><trkpt lat="45.32856" lon="10.7151517"><ele>49.5</ele><time>2026-04-27T13:01:04.019Z</time></trkpt><trkpt lat="45.3284733" lon="10.7151317"><ele>48.333333333333336</ele><time>2026-04-27T13:01:06.019Z</time></trkpt><trkpt lat="45.3283867" lon="10.7151117"><ele>47.16666666666667</ele><time>2026-04-27T13:01:08.019Z</time></trkpt><trkpt lat="45.3283017" lon="10.7150883"><ele>46.0</ele><time>2026-04-27T13:01:10.018Z</time></trkpt><trkpt lat="45.3282233" lon="10.7150567"><ele>46.0</ele><time>2026-04-27T13:01:12.018Z</time></trkpt><trkpt lat="45.3281433" lon="10.7150383"><ele>46.0</ele><time>2026-04-27T13:01:14.018Z</time></trkpt><trkpt lat="45.32807" lon="10.7150083"><ele>46.0</ele><time>2026-04-27T13:01:16.018Z</time></trkpt><trkpt lat="45.3279967" lon="10.7149867"><ele>46.0</ele><time>2026-04-27T13:01:18.018Z</time></trkpt><trkpt lat="45.3279233" lon="10.7149683"><ele>46.0</ele><time>2026-04-27T13:01:20.019Z</time></trkpt><trkpt lat="45.3278483" lon="10.71495"><ele>46.0</ele><time>2026-04-27T13:01:22.018Z</time></trkpt><trkpt lat="45.3277717" lon="10.714925"><ele>46.0</ele><time>2026-04-27T13:01:24.018Z</time></trkpt><trkpt lat="45.3276933" lon="10.7149067"><ele>46.0</ele><time>2026-04-27T13:01:26.018Z</time></trkpt><trkpt lat="45.3276183" lon="10.714885"><ele>46.0</ele><time>2026-04-27T13:01:28.019Z</time></trkpt><trkpt lat="45.3275417" lon="10.7148533"><ele>46.0</ele><time>2026-04-27T13:01:30.018Z</time></trkpt><trkpt lat="45.3274617" lon="10.7148367"><ele>46.0</ele><time>2026-04-27T13:01:32.018Z</time></trkpt><trkpt lat="45.32738" lon="10.7148183"><ele>46.0</ele><time>2026-04-27T13:01:34.018Z</time></trkpt><trkpt lat="45.3273033" lon="10.7147883"><ele>46.333333333333336</ele><time>2026-04-27T13:01:36.019Z</time></trkpt><trkpt lat="45.327225" lon="10.71476"><ele>46.66666666666667</ele><time>2026-04-27T13:01:38.019Z</time></trkpt><trkpt lat="45.3271483" lon="10.71473"><ele>47.0</ele><time>2026-04-27T13:01:40.018Z</time></trkpt><trkpt lat="45.32706" lon="10.7147117"><ele>47.333333333333336</ele><time>2026-04-27T13:01:42.018Z</time></trkpt><trkpt lat="45.32698" lon="10.7146867"><ele>47.666666666666664</ele><time>2026-04-27T13:01:44.019Z</time></trkpt><trkpt lat="45.3269" lon="10.7146633"><ele>48.0</ele><time>2026-04-27T13:01:46.018Z</time></trkpt><trkpt lat="45.3268217" lon="10.7146417"><ele>48.0</ele><time>2026-04-27T13:01:48.019Z</time></trkpt><trkpt lat="45.32674" lon="10.7146267"><ele>48.0</ele><time>2026-04-27T13:01:50.018Z</time></trkpt><trkpt lat="45.3266583" lon="10.7145983"><ele>48.0</ele><time>2026-04-27T13:01:52.019Z</time></trkpt><trkpt lat="45.3265833" lon="10.7145633"><ele>48.0</ele><time>2026-04-27T13:01:54.018Z</time></trkpt><trkpt lat="45.3265067" lon="10.7145383"><ele>48.0</ele><time>2026-04-27T13:01:56.018Z</time></trkpt><trkpt lat="45.3264233" lon="10.7145233"><ele>48.0</ele><time>2026-04-27T13:01:58.018Z</time></trkpt><trkpt lat="45.326345" lon="10.714495"><ele>48.166666666666664</ele><time>2026-04-27T13:02:00.019Z</time></trkpt><trkpt lat="45.326265" lon="10.71448"><ele>48.33333333333333</ele><time>2026-04-27T13:02:02.019Z</time></trkpt><trkpt lat="45.32619" lon="10.7144567"><ele>48.5</ele><time>2026-04-27T13:02:04.019Z</time></trkpt><trkpt lat="45.326105" lon="10.7144333"><ele>48.666666666666664</ele><time>2026-04-27T13:02:06.018Z</time></trkpt><trkpt lat="45.326025" lon="10.7144083"><ele>48.83333333333333</ele><time>2026-04-27T13:02:08.019Z</time></trkpt><trkpt lat="45.3259467" lon="10.7143833"><ele>49.0</ele><time>2026-04-27T13:02:10.018Z</time></trkpt><trkpt lat="45.3258683" lon="10.7143667"><ele>48.99999999999999</ele><time>2026-04-27T13:02:12.019Z</time></trkpt><trkpt lat="45.3257867" lon="10.714345"><ele>49.0</ele><time>2026-04-27T13:02:14.019Z</time></trkpt><trkpt lat="45.3257083" lon="10.7143283"><ele>49.0</ele><time>2026-04-27T13:02:16.018Z</time></trkpt><trkpt lat="45.325635" lon="10.7143"><ele>49.0</ele><time>2026-04-27T13:02:18.018Z</time></trkpt><trkpt lat="45.325565" lon="10.7142783"><ele>48.99999999999999</ele><time>2026-04-27T13:02:20.018Z</time></trkpt><trkpt lat="45.3254767" lon="10.7142567"><ele>49.0</ele><time>2026-04-27T13:02:22.018Z</time></trkpt><trkpt lat="45.3253917" lon="10.71423"><ele>48.83333333333333</ele><time>2026-04-27T13:02:24.018Z</time></trkpt><trkpt lat="45.325305" lon="10.7142167"><ele>48.666666666666664</ele><time>2026-04-27T13:02:26.018Z</time></trkpt><trkpt lat="45.3252217" lon="10.7141933"><ele>48.5</ele><time>2026-04-27T13:02:28.019Z</time></trkpt><trkpt lat="45.3251383" lon="10.71417"><ele>48.33333333333333</ele><time>2026-04-27T13:02:30.018Z</time></trkpt><trkpt lat="45.3250567" lon="10.7141517"><ele>48.166666666666664</ele><time>2026-04-27T13:02:32.018Z</time></trkpt><trkpt lat="45.3249783" lon="10.7141283"><ele>48.0</ele><time>2026-04-27T13:02:34.018Z</time></trkpt><trkpt lat="45.3248967" lon="10.7141133"><ele>48.0</ele><time>2026-04-27T13:02:36.018Z</time></trkpt><trkpt lat="45.32482" lon="10.7140983"><ele>48.0</ele><time>2026-04-27T13:02:38.018Z</time></trkpt><trkpt lat="45.32474" lon="10.7140717"><ele>48.0</ele><time>2026-04-27T13:02:40.019Z</time></trkpt><trkpt lat="45.324665" lon="10.7140417"><ele>48.0</ele><time>2026-04-27T13:02:42.019Z</time></trkpt><trkpt lat="45.3245817" lon="10.7140267"><ele>48.0</ele><time>2026-04-27T13:02:44.019Z</time></trkpt><trkpt lat="45.3244933" lon="10.7140017"><ele>48.0</ele><time>2026-04-27T13:02:46.018Z</time></trkpt><trkpt lat="45.3244133" lon="10.7139767"><ele>48.0</ele><time>2026-04-27T13:02:48.019Z</time></trkpt><trkpt lat="45.324325" lon="10.7139533"><ele>48.0</ele><time>2026-04-27T13:02:50.019Z</time></trkpt><trkpt lat="45.3242483" lon="10.7139217"><ele>48.0</ele><time>2026-04-27T13:02:52.018Z</time></trkpt><trkpt lat="45.32417" lon="10.7138967"><ele>48.0</ele><time>2026-04-27T13:02:54.019Z</time></trkpt><trkpt lat="45.32409" lon="10.7138767"><ele>48.0</ele><time>2026-04-27T13:02:56.019Z</time></trkpt><trkpt lat="45.3240133" lon="10.7138567"><ele>48.0</ele><time>2026-04-27T13:02:58.019Z</time></trkpt><trkpt lat="45.3239433" lon="10.71382"><ele>48.0</ele><time>2026-04-27T13:03:00.018Z</time></trkpt><trkpt lat="45.323875" lon="10.7137783"><ele>48.0</ele><time>2026-04-27T13:03:02.018Z</time></trkpt><trkpt lat="45.3237917" lon="10.7137433"><ele>48.0</ele><time>2026-04-27T13:03:04.018Z</time></trkpt><trkpt lat="45.32372" lon="10.7136883"><ele>48.0</ele><time>2026-04-27T13:03:06.018Z</time></trkpt><trkpt lat="45.32364" lon="10.71365"><ele>48.0</ele><time>2026-04-27T13:03:08.019Z</time></trkpt><trkpt lat="45.3235717" lon="10.7136017"><ele>48.0</ele><time>2026-04-27T13:03:10.018Z</time></trkpt><trkpt lat="45.3234933" lon="10.7135583"><ele>48.0</ele><time>2026-04-27T13:03:12.019Z</time></trkpt><trkpt lat="45.32341" lon="10.71352"><ele>48.0</ele><time>2026-04-27T13:03:14.018Z</time></trkpt><trkpt lat="45.3233217" lon="10.713475"><ele>48.0</ele><time>2026-04-27T13:03:16.019Z</time></trkpt><trkpt lat="45.3232417" lon="10.7134267"><ele>48.0</ele><time>2026-04-27T13:03:18.018Z</time></trkpt><trkpt lat="45.32316" lon="10.7133717"><ele>48.0</ele><time>2026-04-27T13:03:20.019Z</time></trkpt><trkpt lat="45.3230867" lon="10.71332"><ele>48.0</ele><time>2026-04-27T13:03:22.019Z</time></trkpt><trkpt lat="45.3230133" lon="10.713265"><ele>47.833333333333336</ele><time>2026-04-27T13:03:24.018Z</time></trkpt><trkpt lat="45.3229333" lon="10.713205"><ele>47.666666666666664</ele><time>2026-04-27T13:03:26.019Z</time></trkpt><trkpt lat="45.32286" lon="10.7131517"><ele>47.5</ele><time>2026-04-27T13:03:28.019Z</time></trkpt><trkpt lat="45.3227883" lon="10.7131017"><ele>47.33333333333333</ele><time>2026-04-27T13:03:30.018Z</time></trkpt><trkpt lat="45.3227183" lon="10.7130517"><ele>47.166666666666664</ele><time>2026-04-27T13:03:32.018Z</time></trkpt><trkpt lat="45.3226483" lon="10.712995"><ele>47.0</ele><time>2026-04-27T13:03:34.019Z</time></trkpt><trkpt lat="45.3225383" lon="10.7129067"><ele>47.0</ele><time>2026-04-27T13:03:37.019Z</time></trkpt><trkpt lat="45.3224717" lon="10.7128267"><ele>47.0</ele><time>2026-04-27T13:03:39.018Z</time></trkpt><trkpt lat="45.3223967" lon="10.7127533"><ele>47.0</ele><time>2026-04-27T13:03:41.018Z</time></trkpt><trkpt lat="45.322325" lon="10.712685"><ele>47.0</ele><time>2026-04-27T13:03:43.019Z</time></trkpt><trkpt lat="45.3222617" lon="10.7126017"><ele>47.0</ele><time>2026-04-27T13:03:45.018Z</time></trkpt><trkpt lat="45.3221883" lon="10.71253"><ele>47.0</ele><time>2026-04-27T13:03:47.019Z</time></trkpt><trkpt lat="45.3221133" lon="10.712465"><ele>46.83333333333333</ele><time>2026-04-27T13:03:49.019Z</time></trkpt><trkpt lat="45.3220417" lon="10.7124033"><ele>46.666666666666664</ele><time>2026-04-27T13:03:51.019Z</time></trkpt><trkpt lat="45.3219767" lon="10.7123417"><ele>46.5</ele><time>2026-04-27T13:03:53.018Z</time></trkpt><trkpt lat="45.3219167" lon="10.7122717"><ele>46.333333333333336</ele><time>2026-04-27T13:03:55.019Z</time></trkpt><trkpt lat="45.3218517" lon="10.7121917"><ele>46.16666666666667</ele><time>2026-04-27T13:03:57.018Z</time></trkpt><trkpt lat="45.321785" lon="10.71212"><ele>46.0</ele><time>2026-04-27T13:03:59.018Z</time></trkpt><trkpt lat="45.3217167" lon="10.7120517"><ele>46.0</ele><time>2026-04-27T13:04:01.019Z</time></trkpt><trkpt lat="45.3216517" lon="10.711985"><ele>46.0</ele><time>2026-04-27T13:04:03.019Z</time></trkpt><trkpt lat="45.3215883" lon="10.71191"><ele>46.0</ele><time>2026-04-27T13:04:05.018Z</time></trkpt><trkpt lat="45.321525" lon="10.71184"><ele>46.0</ele><time>2026-04-27T13:04:07.018Z</time></trkpt><trkpt lat="45.321465" lon="10.7117683"><ele>46.0</ele><time>2026-04-27T13:04:09.018Z</time></trkpt><trkpt lat="45.3214067" lon="10.7116933"><ele>46.0</ele><time>2026-04-27T13:04:11.017Z</time></trkpt><trkpt lat="45.3213467" lon="10.7116133"><ele>46.199999999999996</ele><time>2026-04-27T13:04:13.018Z</time></trkpt><trkpt lat="45.32129" lon="10.7115417"><ele>46.4</ele><time>2026-04-27T13:04:15.018Z</time></trkpt><trkpt lat="45.3212317" lon="10.71146"><ele>46.6</ele><time>2026-04-27T13:04:17.017Z</time></trkpt><trkpt lat="45.3211767" lon="10.711375"><ele>46.8</ele><time>2026-04-27T13:04:19.017Z</time></trkpt><trkpt lat="45.3210783" lon="10.71121"><ele>47.0</ele><time>2026-04-27T13:04:23.018Z</time></trkpt><trkpt lat="45.3209583" lon="10.71104"><ele>47.0</ele><time>2026-04-27T13:04:27.018Z</time></trkpt><trkpt lat="45.3209" lon="10.710955"><ele>47.0</ele><time>2026-04-27T13:04:29.018Z</time></trkpt><trkpt lat="45.3208467" lon="10.7108667"><ele>47.0</ele><time>2026-04-27T13:04:31.018Z</time></trkpt><trkpt lat="45.3207933" lon="10.7107733"><ele>47.0</ele><time>2026-04-27T13:04:33.017Z</time></trkpt><trkpt lat="45.3207117" lon="10.7106367"><ele>47.0</ele><time>2026-04-27T13:04:36.017Z</time></trkpt><trkpt lat="45.3206583" lon="10.710555"><ele>47.0</ele><time>2026-04-27T13:04:38.017Z</time></trkpt><trkpt lat="45.3206017" lon="10.7104717"><ele>47.0</ele><time>2026-04-27T13:04:40.018Z</time></trkpt><trkpt lat="45.320545" lon="10.7103817"><ele>47.0</ele><time>2026-04-27T13:04:42.018Z</time></trkpt><trkpt lat="45.320495" lon="10.7102833"><ele>47.0</ele><time>2026-04-27T13:04:44.018Z</time></trkpt><trkpt lat="45.3204433" lon="10.7101933"><ele>47.0</ele><time>2026-04-27T13:04:46.017Z</time></trkpt><trkpt lat="45.3203867" lon="10.710115"><ele>47.0</ele><time>2026-04-27T13:04:48.017Z</time></trkpt><trkpt lat="45.3203217" lon="10.7100417"><ele>47.166666666666664</ele><time>2026-04-27T13:04:50.017Z</time></trkpt><trkpt lat="45.3202583" lon="10.7099717"><ele>47.33333333333333</ele><time>2026-04-27T13:04:52.017Z</time></trkpt><trkpt lat="45.3202017" lon="10.7098833"><ele>47.5</ele><time>2026-04-27T13:04:54.017Z</time></trkpt><trkpt lat="45.3201383" lon="10.7098067"><ele>47.666666666666664</ele><time>2026-04-27T13:04:56.017Z</time></trkpt><trkpt lat="45.320075" lon="10.70973"><ele>47.833333333333336</ele><time>2026-04-27T13:04:58.017Z</time></trkpt><trkpt lat="45.3200183" lon="10.7096583"><ele>48.0</ele><time>2026-04-27T13:05:00.017Z</time></trkpt><trkpt lat="45.31995" lon="10.7095933"><ele>48.0</ele><time>2026-04-27T13:05:02.017Z</time></trkpt><trkpt lat="45.3198783" lon="10.7095233"><ele>48.0</ele><time>2026-04-27T13:05:04.017Z</time></trkpt><trkpt lat="45.319815" lon="10.70945"><ele>48.0</ele><time>2026-04-27T13:05:06.017Z</time></trkpt><trkpt lat="45.319745" lon="10.709385"><ele>48.0</ele><time>2026-04-27T13:05:08.018Z</time></trkpt><trkpt lat="45.319685" lon="10.7093083"><ele>48.0</ele><time>2026-04-27T13:05:10.017Z</time></trkpt><trkpt lat="45.31962" lon="10.7092433"><ele>48.0</ele><time>2026-04-27T13:05:12.018Z</time></trkpt><trkpt lat="45.3195567" lon="10.7091817"><ele>47.666666666666664</ele><time>2026-04-27T13:05:14.018Z</time></trkpt><trkpt lat="45.319495" lon="10.709115"><ele>47.333333333333336</ele><time>2026-04-27T13:05:16.018Z</time></trkpt><trkpt lat="45.3194233" lon="10.7090583"><ele>47.0</ele><time>2026-04-27T13:05:18.018Z</time></trkpt><trkpt lat="45.31935" lon="10.7089983"><ele>46.66666666666667</ele><time>2026-04-27T13:05:20.017Z</time></trkpt><trkpt lat="45.3192783" lon="10.7089483"><ele>46.333333333333336</ele><time>2026-04-27T13:05:22.017Z</time></trkpt><trkpt lat="45.3192117" lon="10.7088867"><ele>46.0</ele><time>2026-04-27T13:05:24.017Z</time></trkpt><trkpt lat="45.3191483" lon="10.7088283"><ele>46.0</ele><time>2026-04-27T13:05:26.018Z</time></trkpt><trkpt lat="45.3190733" lon="10.708765"><ele>46.0</ele><time>2026-04-27T13:05:28.018Z</time></trkpt><trkpt lat="45.3189917" lon="10.7087117"><ele>46.0</ele><time>2026-04-27T13:05:30.018Z</time></trkpt><trkpt lat="45.318915" lon="10.7086667"><ele>46.0</ele><time>2026-04-27T13:05:32.017Z</time></trkpt><trkpt lat="45.3188417" lon="10.7086133"><ele>46.0</ele><time>2026-04-27T13:05:34.018Z</time></trkpt><trkpt lat="45.3187683" lon="10.7085583"><ele>46.0</ele><time>2026-04-27T13:05:36.017Z</time></trkpt><trkpt lat="45.318695" lon="10.708505"><ele>46.16666666666667</ele><time>2026-04-27T13:05:38.017Z</time></trkpt><trkpt lat="45.31862" lon="10.7084467"><ele>46.333333333333336</ele><time>2026-04-27T13:05:40.018Z</time></trkpt><trkpt lat="45.3185483" lon="10.7083883"><ele>46.5</ele><time>2026-04-27T13:05:42.017Z</time></trkpt><trkpt lat="45.3184783" lon="10.70832"><ele>46.666666666666664</ele><time>2026-04-27T13:05:44.017Z</time></trkpt><trkpt lat="45.31841" lon="10.70826"><ele>46.83333333333333</ele><time>2026-04-27T13:05:46.018Z</time></trkpt><trkpt lat="45.3183367" lon="10.7082083"><ele>47.0</ele><time>2026-04-27T13:05:48.017Z</time></trkpt><trkpt lat="45.3182667" lon="10.7081467"><ele>47.0</ele><time>2026-04-27T13:05:50.017Z</time></trkpt><trkpt lat="45.3181967" lon="10.7081"><ele>47.0</ele><time>2026-04-27T13:05:52.018Z</time></trkpt><trkpt lat="45.318125" lon="10.7080467"><ele>47.0</ele><time>2026-04-27T13:05:54.017Z</time></trkpt><trkpt lat="45.3180567" lon="10.7079967"><ele>47.0</ele><time>2026-04-27T13:05:56.018Z</time></trkpt><trkpt lat="45.3179933" lon="10.707945"><ele>47.0</ele><time>2026-04-27T13:05:58.017Z</time></trkpt><trkpt lat="45.3179267" lon="10.7079"><ele>47.0</ele><time>2026-04-27T13:06:00.017Z</time></trkpt><trkpt lat="45.3178617" lon="10.707845"><ele>47.0</ele><time>2026-04-27T13:06:02.017Z</time></trkpt><trkpt lat="45.3177917" lon="10.7077917"><ele>47.0</ele><time>2026-04-27T13:06:04.017Z</time></trkpt><trkpt lat="45.31769" lon="10.7077067"><ele>47.0</ele><time>2026-04-27T13:06:07.018Z</time></trkpt><trkpt lat="45.3176167" lon="10.7076633"><ele>47.0</ele><time>2026-04-27T13:06:09.018Z</time></trkpt><trkpt lat="45.317545" lon="10.7076167"><ele>47.0</ele><time>2026-04-27T13:06:11.018Z</time></trkpt><trkpt lat="45.3174817" lon="10.7075683"><ele>47.0</ele><time>2026-04-27T13:06:13.018Z</time></trkpt><trkpt lat="45.3174067" lon="10.70751"><ele>47.0</ele><time>2026-04-27T13:06:15.017Z</time></trkpt><trkpt lat="45.31734" lon="10.7074567"><ele>47.0</ele><time>2026-04-27T13:06:17.017Z</time></trkpt><trkpt lat="45.31727" lon="10.7074133"><ele>47.0</ele><time>2026-04-27T13:06:19.017Z</time></trkpt><trkpt lat="45.3172017" lon="10.7073617"><ele>47.0</ele><time>2026-04-27T13:06:21.017Z</time></trkpt><trkpt lat="45.3171383" lon="10.70731"><ele>47.0</ele><time>2026-04-27T13:06:23.018Z</time></trkpt><trkpt lat="45.3170767" lon="10.70726"><ele>47.0</ele><time>2026-04-27T13:06:25.018Z</time></trkpt><trkpt lat="45.31702" lon="10.7072067"><ele>47.0</ele><time>2026-04-27T13:06:27.017Z</time></trkpt><trkpt lat="45.3169583" lon="10.7071567"><ele>47.0</ele><time>2026-04-27T13:06:29.018Z</time></trkpt><trkpt lat="45.3169017" lon="10.7071117"><ele>47.0</ele><time>2026-04-27T13:06:31.018Z</time></trkpt><trkpt lat="45.3168367" lon="10.7070567"><ele>47.0</ele><time>2026-04-27T13:06:33.017Z</time></trkpt><trkpt lat="45.3167683" lon="10.70701"><ele>47.0</ele><time>2026-04-27T13:06:35.017Z</time></trkpt><trkpt lat="45.3167033" lon="10.70696"><ele>47.0</ele><time>2026-04-27T13:06:37.018Z</time></trkpt><trkpt lat="45.3166383" lon="10.7069117"><ele>47.0</ele><time>2026-04-27T13:06:39.018Z</time></trkpt><trkpt lat="45.3165717" lon="10.7068617"><ele>47.0</ele><time>2026-04-27T13:06:41.018Z</time></trkpt><trkpt lat="45.3165033" lon="10.7068133"><ele>46.857142857142854</ele><time>2026-04-27T13:06:43.017Z</time></trkpt><trkpt lat="45.316445" lon="10.7067667"><ele>46.71428571428571</ele><time>2026-04-27T13:06:45.018Z</time></trkpt><trkpt lat="45.3163783" lon="10.7067217"><ele>46.57142857142857</ele><time>2026-04-27T13:06:47.018Z</time></trkpt><trkpt lat="45.3163167" lon="10.7066867"><ele>46.42857142857143</ele><time>2026-04-27T13:06:49.017Z</time></trkpt><trkpt lat="45.316255" lon="10.70664"><ele>46.285714285714285</ele><time>2026-04-27T13:06:51.018Z</time></trkpt><trkpt lat="45.316185" lon="10.7065983"><ele>46.142857142857146</ele><time>2026-04-27T13:06:53.017Z</time></trkpt><trkpt lat="45.3161233" lon="10.70655"><ele>46.0</ele><time>2026-04-27T13:06:55.017Z</time></trkpt><trkpt lat="45.3160583" lon="10.7065"><ele>46.333333333333336</ele><time>2026-04-27T13:06:57.018Z</time></trkpt><trkpt lat="45.3159917" lon="10.70644"><ele>46.66666666666667</ele><time>2026-04-27T13:06:59.018Z</time></trkpt><trkpt lat="45.31593" lon="10.7063917"><ele>47.0</ele><time>2026-04-27T13:07:01.018Z</time></trkpt><trkpt lat="45.3158583" lon="10.7063417"><ele>47.333333333333336</ele><time>2026-04-27T13:07:03.017Z</time></trkpt><trkpt lat="45.3158083" lon="10.7062867"><ele>47.666666666666664</ele><time>2026-04-27T13:07:05.018Z</time></trkpt><trkpt lat="45.3157517" lon="10.7062267"><ele>48.0</ele><time>2026-04-27T13:07:11.017Z</time></trkpt><trkpt lat="45.3156683" lon="10.706175"><ele>47.99999999999999</ele><time>2026-04-27T13:07:14.017Z</time></trkpt><trkpt lat="45.31561" lon="10.7061317"><ele>48.0</ele><time>2026-04-27T13:07:16.018Z</time></trkpt><trkpt lat="45.3155517" lon="10.7060917"><ele>48.0</ele><time>2026-04-27T13:07:18.017Z</time></trkpt><trkpt lat="45.315495" lon="10.7060483"><ele>48.0</ele><time>2026-04-27T13:07:20.018Z</time></trkpt><trkpt lat="45.31543" lon="10.70601"><ele>48.0</ele><time>2026-04-27T13:07:22.018Z</time></trkpt><trkpt lat="45.3153633" lon="10.7059617"><ele>47.99999999999999</ele><time>2026-04-27T13:07:24.017Z</time></trkpt><trkpt lat="45.3152983" lon="10.7059083"><ele>48.0</ele><time>2026-04-27T13:07:26.017Z</time></trkpt><trkpt lat="45.3152367" lon="10.705855"><ele>47.666666666666664</ele><time>2026-04-27T13:07:28.018Z</time></trkpt><trkpt lat="45.3151717" lon="10.7058"><ele>47.333333333333336</ele><time>2026-04-27T13:07:30.017Z</time></trkpt><trkpt lat="45.31511" lon="10.7057367"><ele>47.0</ele><time>2026-04-27T13:07:32.017Z</time></trkpt><trkpt lat="45.31504" lon="10.7056833"><ele>46.66666666666667</ele><time>2026-04-27T13:07:34.018Z</time></trkpt><trkpt lat="45.31497" lon="10.705625"><ele>46.333333333333336</ele><time>2026-04-27T13:07:36.017Z</time></trkpt><trkpt lat="45.31489" lon="10.7055833"><ele>46.0</ele><time>2026-04-27T13:07:38.018Z</time></trkpt><trkpt lat="45.314815" lon="10.7055267"><ele>46.0</ele><time>2026-04-27T13:07:40.018Z</time></trkpt><trkpt lat="45.31474" lon="10.7054717"><ele>46.0</ele><time>2026-04-27T13:07:42.018Z</time></trkpt><trkpt lat="45.3146583" lon="10.705405"><ele>46.0</ele><time>2026-04-27T13:07:44.018Z</time></trkpt><trkpt lat="45.31459" lon="10.7053567"><ele>46.0</ele><time>2026-04-27T13:07:46.017Z</time></trkpt><trkpt lat="45.3145217" lon="10.7052933"><ele>46.0</ele><time>2026-04-27T13:07:48.017Z</time></trkpt><trkpt lat="45.3144517" lon="10.7052417"><ele>46.0</ele><time>2026-04-27T13:07:50.017Z</time></trkpt><trkpt lat="45.314375" lon="10.7051933"><ele>45.833333333333336</ele><time>2026-04-27T13:07:52.017Z</time></trkpt><trkpt lat="45.314305" lon="10.70514"><ele>45.66666666666667</ele><time>2026-04-27T13:07:54.018Z</time></trkpt><trkpt lat="45.3142367" lon="10.705075"><ele>45.5</ele><time>2026-04-27T13:07:56.017Z</time></trkpt><trkpt lat="45.3141667" lon="10.7050083"><ele>45.333333333333336</ele><time>2026-04-27T13:07:58.018Z</time></trkpt><trkpt lat="45.3141" lon="10.7049533"><ele>45.166666666666664</ele><time>2026-04-27T13:08:00.018Z</time></trkpt><trkpt lat="45.3140317" lon="10.704905"><ele>45.0</ele><time>2026-04-27T13:08:02.018Z</time></trkpt><trkpt lat="45.3139617" lon="10.7048567"><ele>45.0</ele><time>2026-04-27T13:08:04.018Z</time></trkpt><trkpt lat="45.3138883" lon="10.7048117"><ele>45.0</ele><time>2026-04-27T13:08:06.017Z</time></trkpt><trkpt lat="45.3138167" lon="10.70476"><ele>45.0</ele><time>2026-04-27T13:08:08.018Z</time></trkpt><trkpt lat="45.3137517" lon="10.7047083"><ele>45.0</ele><time>2026-04-27T13:08:10.018Z</time></trkpt><trkpt lat="45.313675" lon="10.7046483"><ele>45.0</ele><time>2026-04-27T13:08:12.018Z</time></trkpt><trkpt lat="45.3135933" lon="10.704585"><ele>45.0</ele><time>2026-04-27T13:08:14.017Z</time></trkpt><trkpt lat="45.3135333" lon="10.7045333"><ele>45.0</ele><time>2026-04-27T13:08:16.018Z</time></trkpt><trkpt lat="45.3134467" lon="10.7044683"><ele>45.0</ele><time>2026-04-27T13:08:18.018Z</time></trkpt><trkpt lat="45.3133633" lon="10.7044067"><ele>45.0</ele><time>2026-04-27T13:08:20.018Z</time></trkpt><trkpt lat="45.3132883" lon="10.704345"><ele>45.0</ele><time>2026-04-27T13:08:22.017Z</time></trkpt><trkpt lat="45.3132133" lon="10.7042717"><ele>45.0</ele><time>2026-04-27T13:08:24.018Z</time></trkpt><trkpt lat="45.3131067" lon="10.7041917"><ele>45.166666666666664</ele><time>2026-04-27T13:08:27.016Z</time></trkpt><trkpt lat="45.3130217" lon="10.7041417"><ele>45.333333333333336</ele><time>2026-04-27T13:08:29.017Z</time></trkpt><trkpt lat="45.3129383" lon="10.704075"><ele>45.5</ele><time>2026-04-27T13:08:31.016Z</time></trkpt><trkpt lat="45.3128717" lon="10.7040067"><ele>45.66666666666667</ele><time>2026-04-27T13:08:33.016Z</time></trkpt><trkpt lat="45.312795" lon="10.7039483"><ele>45.833333333333336</ele><time>2026-04-27T13:08:35.016Z</time></trkpt><trkpt lat="45.3127267" lon="10.7038717"><ele>46.0</ele><time>2026-04-27T13:08:37.017Z</time></trkpt><trkpt lat="45.3126617" lon="10.7038233"><ele>46.0</ele><time>2026-04-27T13:08:39.017Z</time></trkpt><trkpt lat="45.3125917" lon="10.7037817"><ele>46.0</ele><time>2026-04-27T13:08:41.016Z</time></trkpt><trkpt lat="45.31252" lon="10.7037283"><ele>46.0</ele><time>2026-04-27T13:08:43.016Z</time></trkpt><trkpt lat="45.31245" lon="10.7036733"><ele>46.0</ele><time>2026-04-27T13:08:45.016Z</time></trkpt><trkpt lat="45.3123533" lon="10.7036133"><ele>46.0</ele><time>2026-04-27T13:08:47.017Z</time></trkpt><trkpt lat="45.312275" lon="10.703565"><ele>46.0</ele><time>2026-04-27T13:08:49.017Z</time></trkpt><trkpt lat="45.3122083" lon="10.7035133"><ele>45.85714285714286</ele><time>2026-04-27T13:08:51.017Z</time></trkpt><trkpt lat="45.3121517" lon="10.703465"><ele>45.71428571428571</ele><time>2026-04-27T13:08:53.016Z</time></trkpt><trkpt lat="45.312095" lon="10.7034183"><ele>45.57142857142857</ele><time>2026-04-27T13:08:55.016Z</time></trkpt><trkpt lat="45.3120283" lon="10.7033667"><ele>45.42857142857143</ele><time>2026-04-27T13:08:57.016Z</time></trkpt><trkpt lat="45.31196" lon="10.7033233"><ele>45.28571428571429</ele><time>2026-04-27T13:08:59.016Z</time></trkpt><trkpt lat="45.311895" lon="10.7032867"><ele>45.14285714285714</ele><time>2026-04-27T13:09:01.016Z</time></trkpt><trkpt lat="45.31184" lon="10.70324"><ele>45.0</ele><time>2026-04-27T13:09:03.016Z</time></trkpt><trkpt lat="45.3117833" lon="10.7031933"><ele>45.0</ele><time>2026-04-27T13:09:05.017Z</time></trkpt><trkpt lat="45.3117117" lon="10.7031517"><ele>45.0</ele><time>2026-04-27T13:09:07.016Z</time></trkpt><trkpt lat="45.3116317" lon="10.703095"><ele>45.0</ele><time>2026-04-27T13:09:09.016Z</time></trkpt><trkpt lat="45.3115533" lon="10.7030267"><ele>45.0</ele><time>2026-04-27T13:09:11.017Z</time></trkpt><trkpt lat="45.3114767" lon="10.702975"><ele>45.0</ele><time>2026-04-27T13:09:13.016Z</time></trkpt><trkpt lat="45.3114067" lon="10.7029233"><ele>45.0</ele><time>2026-04-27T13:09:15.017Z</time></trkpt><trkpt lat="45.31133" lon="10.7028717"><ele>45.166666666666664</ele><time>2026-04-27T13:09:17.016Z</time></trkpt><trkpt lat="45.311255" lon="10.7028167"><ele>45.333333333333336</ele><time>2026-04-27T13:09:19.016Z</time></trkpt><trkpt lat="45.3111767" lon="10.7027617"><ele>45.5</ele><time>2026-04-27T13:09:21.017Z</time></trkpt><trkpt lat="45.3111" lon="10.7027083"><ele>45.66666666666667</ele><time>2026-04-27T13:09:23.016Z</time></trkpt><trkpt lat="45.31102" lon="10.7026583"><ele>45.833333333333336</ele><time>2026-04-27T13:09:25.016Z</time></trkpt><trkpt lat="45.310945" lon="10.7025917"><ele>46.0</ele><time>2026-04-27T13:09:27.017Z</time></trkpt><trkpt lat="45.3108833" lon="10.7025417"><ele>46.142857142857146</ele><time>2026-04-27T13:09:29.016Z</time></trkpt><trkpt lat="45.3108317" lon="10.7024817"><ele>46.285714285714285</ele><time>2026-04-27T13:09:31.017Z</time></trkpt><trkpt lat="45.31078" lon="10.7024233"><ele>46.42857142857143</ele><time>2026-04-27T13:09:33.017Z</time></trkpt><trkpt lat="45.310695" lon="10.7023667"><ele>46.57142857142857</ele><time>2026-04-27T13:09:36.016Z</time></trkpt><trkpt lat="45.3106433" lon="10.70231"><ele>46.71428571428571</ele><time>2026-04-27T13:09:38.017Z</time></trkpt><trkpt lat="45.3106517" lon="10.70221"><ele>46.857142857142854</ele><time>2026-04-27T13:09:41.017Z</time></trkpt><trkpt lat="45.31066" lon="10.7021183"><ele>47.0</ele><time>2026-04-27T13:09:44.016Z</time></trkpt><trkpt lat="45.3106917" lon="10.7020383"><ele>47.0</ele><time>2026-04-27T13:09:47.016Z</time></trkpt><trkpt lat="45.3107267" lon="10.7019533"><ele>47.0</ele><time>2026-04-27T13:09:50.016Z</time></trkpt><trkpt lat="45.3107633" lon="10.7018383"><ele>47.0</ele><time>2026-04-27T13:09:53.017Z</time></trkpt><trkpt lat="45.31083" lon="10.7018383"><ele>47.0</ele><time>2026-04-27T13:09:57.016Z</time></trkpt><trkpt lat="45.3109017" lon="10.7018683"><ele>47.0</ele><time>2026-04-27T13:10:00.016Z</time></trkpt><trkpt lat="45.310975" lon="10.701845"><ele>47.0</ele><time>2026-04-27T13:10:04.016Z</time></trkpt><trkpt lat="45.3110317" lon="10.70177"><ele>47.0</ele><time>2026-04-27T13:10:07.016Z</time></trkpt><trkpt lat="45.3110683" lon="10.7016917"><ele>47.0</ele><time>2026-04-27T13:10:16.016Z</time></trkpt></trkseg><trkseg><trkpt lat="45.3082717" lon="10.7012083"><ele>46.0</ele><time>2026-04-27T13:54:36.442Z</time></trkpt><trkpt lat="45.3078833" lon="10.70112"><ele>46.0</ele><time>2026-04-27T13:54:46.017Z</time></trkpt><trkpt lat="45.307775" lon="10.701075"><ele>46.0</ele><time>2026-04-27T13:54:48.016Z</time></trkpt><trkpt lat="45.30769" lon="10.7010533"><ele>46.0</ele><time>2026-04-27T13:54:50.017Z</time></trkpt><trkpt lat="45.3076" lon="10.70103"><ele>46.0</ele><time>2026-04-27T13:54:52.016Z</time></trkpt><trkpt lat="45.307505" lon="10.7010117"><ele>46.0</ele><time>2026-04-27T13:54:54.016Z</time></trkpt><trkpt lat="45.3074167" lon="10.700995"><ele>46.0</ele><time>2026-04-27T13:54:56.017Z</time></trkpt><trkpt lat="45.3073317" lon="10.7009967"><ele>46.0</ele><time>2026-04-27T13:54:58.016Z</time></trkpt><trkpt lat="45.3072467" lon="10.701005"><ele>46.0</ele><time>2026-04-27T13:55:00.017Z</time></trkpt><trkpt lat="45.3071517" lon="10.7010033"><ele>46.0</ele><time>2026-04-27T13:55:02.016Z</time></trkpt><trkpt lat="45.3070567" lon="10.7009933"><ele>46.0</ele><time>2026-04-27T13:55:04.016Z</time></trkpt><trkpt lat="45.3069583" lon="10.7009783"><ele>46.0</ele><time>2026-04-27T13:55:06.017Z</time></trkpt><trkpt lat="45.3068617" lon="10.7009667"><ele>46.0</ele><time>2026-04-27T13:55:08.016Z</time></trkpt><trkpt lat="45.3067667" lon="10.70095"><ele>46.0</ele><time>2026-04-27T13:55:10.016Z</time></trkpt><trkpt lat="45.3066667" lon="10.7009183"><ele>46.0</ele><time>2026-04-27T13:55:12.017Z</time></trkpt><trkpt lat="45.3065617" lon="10.7009"><ele>46.0</ele><time>2026-04-27T13:55:14.016Z</time></trkpt><trkpt lat="45.3064667" lon="10.700895"><ele>46.0</ele><time>2026-04-27T13:55:16.017Z</time></trkpt><trkpt lat="45.3063767" lon="10.7008883"><ele>46.0</ele><time>2026-04-27T13:55:18.016Z</time></trkpt><trkpt lat="45.3062933" lon="10.70088"><ele>45.599999999999994</ele><time>2026-04-27T13:55:20.016Z</time></trkpt><trkpt lat="45.30621" lon="10.7008733"><ele>45.2</ele><time>2026-04-27T13:55:22.016Z</time></trkpt><trkpt lat="45.306115" lon="10.700875"><ele>44.8</ele><time>2026-04-27T13:55:24.016Z</time></trkpt><trkpt lat="45.3060183" lon="10.70089"><ele>44.400000000000006</ele><time>2026-04-27T13:55:26.016Z</time></trkpt><trkpt lat="45.3059283" lon="10.7009167"><ele>44.0</ele><time>2026-04-27T13:55:28.016Z</time></trkpt><trkpt lat="45.30584" lon="10.700945"><ele>44.0</ele><time>2026-04-27T13:55:30.017Z</time></trkpt><trkpt lat="45.305755" lon="10.7009883"><ele>44.0</ele><time>2026-04-27T13:55:32.017Z</time></trkpt><trkpt lat="45.3056717" lon="10.7010333"><ele>44.0</ele><time>2026-04-27T13:55:34.017Z</time></trkpt><trkpt lat="45.305595" lon="10.7010783"><ele>44.0</ele><time>2026-04-27T13:55:36.016Z</time></trkpt><trkpt lat="45.3055067" lon="10.70114"><ele>44.0</ele><time>2026-04-27T13:55:38.017Z</time></trkpt><trkpt lat="45.3054217" lon="10.7012"><ele>43.800000000000004</ele><time>2026-04-27T13:55:40.017Z</time></trkpt><trkpt lat="45.30534" lon="10.7012833"><ele>43.6</ele><time>2026-04-27T13:55:42.017Z</time></trkpt><trkpt lat="45.305265" lon="10.7013767"><ele>43.4</ele><time>2026-04-27T13:55:44.017Z</time></trkpt><trkpt lat="45.3052" lon="10.70148"><ele>43.2</ele><time>2026-04-27T13:55:46.016Z</time></trkpt><trkpt lat="45.305145" lon="10.7015667"><ele>43.0</ele><time>2026-04-27T13:55:48.016Z</time></trkpt><trkpt lat="45.3050833" lon="10.7016667"><ele>43.0</ele><time>2026-04-27T13:55:50.017Z</time></trkpt><trkpt lat="45.3050217" lon="10.70177"><ele>43.0</ele><time>2026-04-27T13:55:52.017Z</time></trkpt><trkpt lat="45.3049667" lon="10.7018833"><ele>43.0</ele><time>2026-04-27T13:55:54.016Z</time></trkpt><trkpt lat="45.3049217" lon="10.7020017"><ele>43.0</ele><time>2026-04-27T13:55:56.017Z</time></trkpt><trkpt lat="45.3048683" lon="10.7021083"><ele>43.0</ele><time>2026-04-27T13:55:58.016Z</time></trkpt><trkpt lat="45.30481" lon="10.70221"><ele>43.2</ele><time>2026-04-27T13:56:00.017Z</time></trkpt><trkpt lat="45.3047583" lon="10.7023183"><ele>43.4</ele><time>2026-04-27T13:56:02.017Z</time></trkpt><trkpt lat="45.3047067" lon="10.7024283"><ele>43.6</ele><time>2026-04-27T13:56:04.017Z</time></trkpt><trkpt lat="45.3046533" lon="10.70254"><ele>43.800000000000004</ele><time>2026-04-27T13:56:06.016Z</time></trkpt><trkpt lat="45.3045967" lon="10.702645"><ele>44.0</ele><time>2026-04-27T13:56:08.017Z</time></trkpt><trkpt lat="45.3045317" lon="10.702745"><ele>43.800000000000004</ele><time>2026-04-27T13:56:10.017Z</time></trkpt><trkpt lat="45.3044617" lon="10.7028433"><ele>43.6</ele><time>2026-04-27T13:56:12.017Z</time></trkpt><trkpt lat="45.3043983" lon="10.7029417"><ele>43.4</ele><time>2026-04-27T13:56:14.016Z</time></trkpt><trkpt lat="45.3043317" lon="10.7030367"><ele>43.2</ele><time>2026-04-27T13:56:16.016Z</time></trkpt><trkpt lat="45.3042633" lon="10.7031333"><ele>43.0</ele><time>2026-04-27T13:56:18.016Z</time></trkpt><trkpt lat="45.3042" lon="10.7032283"><ele>43.0</ele><time>2026-04-27T13:56:20.017Z</time></trkpt><trkpt lat="45.30415" lon="10.7033317"><ele>43.0</ele><time>2026-04-27T13:56:22.016Z</time></trkpt><trkpt lat="45.3041" lon="10.7034383"><ele>43.0</ele><time>2026-04-27T13:56:24.017Z</time></trkpt><trkpt lat="45.304045" lon="10.7035417"><ele>43.0</ele><time>2026-04-27T13:56:26.017Z</time></trkpt><trkpt lat="45.3039967" lon="10.7036583"><ele>43.0</ele><time>2026-04-27T13:56:28.017Z</time></trkpt><trkpt lat="45.3039567" lon="10.7037733"><ele>43.2</ele><time>2026-04-27T13:56:30.016Z</time></trkpt><trkpt lat="45.3039117" lon="10.7038933"><ele>43.4</ele><time>2026-04-27T13:56:32.016Z</time></trkpt><trkpt lat="45.3038717" lon="10.7040217"><ele>43.6</ele><time>2026-04-27T13:56:34.015Z</time></trkpt><trkpt lat="45.30384" lon="10.70415"><ele>43.800000000000004</ele><time>2026-04-27T13:56:36.015Z</time></trkpt><trkpt lat="45.3038167" lon="10.7042767"><ele>44.0</ele><time>2026-04-27T13:56:38.015Z</time></trkpt><trkpt lat="45.3037883" lon="10.7044"><ele>44.0</ele><time>2026-04-27T13:56:40.015Z</time></trkpt><trkpt lat="45.3037683" lon="10.7045283"><ele>44.0</ele><time>2026-04-27T13:56:42.016Z</time></trkpt><trkpt lat="45.3037517" lon="10.7046517"><ele>44.0</ele><time>2026-04-27T13:56:44.015Z</time></trkpt><trkpt lat="45.3037317" lon="10.704775"><ele>44.0</ele><time>2026-04-27T13:56:46.016Z</time></trkpt><trkpt lat="45.3037117" lon="10.704895"><ele>44.0</ele><time>2026-04-27T13:56:48.016Z</time></trkpt><trkpt lat="45.3036883" lon="10.7050167"><ele>44.0</ele><time>2026-04-27T13:56:50.015Z</time></trkpt><trkpt lat="45.30367" lon="10.7051367"><ele>43.6</ele><time>2026-04-27T13:56:52.015Z</time></trkpt><trkpt lat="45.3036583" lon="10.705265"><ele>43.2</ele><time>2026-04-27T13:56:54.015Z</time></trkpt><trkpt lat="45.3036517" lon="10.7053933"><ele>42.800000000000004</ele><time>2026-04-27T13:56:56.016Z</time></trkpt><trkpt lat="45.30366" lon="10.7055267"><ele>42.400000000000006</ele><time>2026-04-27T13:56:58.016Z</time></trkpt><trkpt lat="45.303665" lon="10.7056667"><ele>42.0</ele><time>2026-04-27T13:57:00.016Z</time></trkpt><trkpt lat="45.303675" lon="10.7058033"><ele>42.0</ele><time>2026-04-27T13:57:02.015Z</time></trkpt><trkpt lat="45.303685" lon="10.7059333"><ele>42.0</ele><time>2026-04-27T13:57:04.016Z</time></trkpt><trkpt lat="45.303695" lon="10.7060633"><ele>42.0</ele><time>2026-04-27T13:57:06.015Z</time></trkpt><trkpt lat="45.303705" lon="10.706195"><ele>42.0</ele><time>2026-04-27T13:57:08.015Z</time></trkpt><trkpt lat="45.3037117" lon="10.7063283"><ele>42.0</ele><time>2026-04-27T13:57:10.015Z</time></trkpt><trkpt lat="45.3037083" lon="10.70646"><ele>42.0</ele><time>2026-04-27T13:57:12.016Z</time></trkpt><trkpt lat="45.3037117" lon="10.7065933"><ele>42.0</ele><time>2026-04-27T13:57:14.015Z</time></trkpt><trkpt lat="45.303725" lon="10.7067283"><ele>42.0</ele><time>2026-04-27T13:57:16.015Z</time></trkpt><trkpt lat="45.30374" lon="10.706865"><ele>42.0</ele><time>2026-04-27T13:57:18.016Z</time></trkpt><trkpt lat="45.3037367" lon="10.7069967"><ele>42.0</ele><time>2026-04-27T13:57:20.015Z</time></trkpt><trkpt lat="45.3037467" lon="10.707125"><ele>42.166666666666664</ele><time>2026-04-27T13:57:22.016Z</time></trkpt><trkpt lat="45.3037417" lon="10.707255"><ele>42.333333333333336</ele><time>2026-04-27T13:57:24.016Z</time></trkpt><trkpt lat="45.303745" lon="10.707385"><ele>42.5</ele><time>2026-04-27T13:57:26.015Z</time></trkpt><trkpt lat="45.30375" lon="10.7075067"><ele>42.66666666666667</ele><time>2026-04-27T13:57:28.015Z</time></trkpt><trkpt lat="45.3037617" lon="10.7076117"><ele>42.833333333333336</ele><time>2026-04-27T13:57:30.015Z</time></trkpt><trkpt lat="45.3037683" lon="10.7077017"><ele>43.0</ele><time>2026-04-27T13:57:32.015Z</time></trkpt><trkpt lat="45.3037733" lon="10.7078183"><ele>43.333333333333336</ele><time>2026-04-27T13:57:35.015Z</time></trkpt><trkpt lat="45.30377" lon="10.7079217"><ele>43.66666666666667</ele><time>2026-04-27T13:57:38.015Z</time></trkpt><trkpt lat="45.3037817" lon="10.7080383"><ele>44.0</ele><time>2026-04-27T13:57:42.016Z</time></trkpt><trkpt lat="45.3037733" lon="10.708145"><ele>44.333333333333336</ele><time>2026-04-27T13:57:46.016Z</time></trkpt><trkpt lat="45.3037567" lon="10.7082583"><ele>44.666666666666664</ele><time>2026-04-27T13:57:49.015Z</time></trkpt><trkpt lat="45.3037633" lon="10.7083833"><ele>45.0</ele><time>2026-04-27T13:57:52.015Z</time></trkpt><trkpt lat="45.30376" lon="10.708515"><ele>44.666666666666664</ele><time>2026-04-27T13:57:55.016Z</time></trkpt><trkpt lat="45.30375" lon="10.708645"><ele>44.333333333333336</ele><time>2026-04-27T13:57:58.015Z</time></trkpt><trkpt lat="45.3037433" lon="10.7087717"><ele>44.0</ele><time>2026-04-27T13:58:01.015Z</time></trkpt><trkpt lat="45.303725" lon="10.7088867"><ele>43.66666666666667</ele><time>2026-04-27T13:58:03.015Z</time></trkpt><trkpt lat="45.3037083" lon="10.7090133"><ele>43.333333333333336</ele><time>2026-04-27T13:58:05.015Z</time></trkpt><trkpt lat="45.3036933" lon="10.7091433"><ele>43.0</ele><time>2026-04-27T13:58:07.015Z</time></trkpt><trkpt lat="45.3036867" lon="10.7092767"><ele>43.0</ele><time>2026-04-27T13:58:09.016Z</time></trkpt><trkpt lat="45.3036733" lon="10.709405"><ele>43.0</ele><time>2026-04-27T13:58:11.015Z</time></trkpt><trkpt lat="45.3036667" lon="10.709545"><ele>43.0</ele><time>2026-04-27T13:58:13.016Z</time></trkpt><trkpt lat="45.3036617" lon="10.7096817"><ele>43.0</ele><time>2026-04-27T13:58:15.016Z</time></trkpt><trkpt lat="45.303655" lon="10.7098133"><ele>43.0</ele><time>2026-04-27T13:58:17.015Z</time></trkpt><trkpt lat="45.3036417" lon="10.7099883"><ele>43.0</ele><time>2026-04-27T13:58:19.015Z</time></trkpt><trkpt lat="45.3036267" lon="10.710155"><ele>43.0</ele><time>2026-04-27T13:58:21.015Z</time></trkpt><trkpt lat="45.30361" lon="10.7103283"><ele>43.0</ele><time>2026-04-27T13:58:23.015Z</time></trkpt><trkpt lat="45.3035883" lon="10.71049"><ele>43.0</ele><time>2026-04-27T13:58:25.015Z</time></trkpt><trkpt lat="45.303565" lon="10.71067"><ele>43.2</ele><time>2026-04-27T13:58:27.016Z</time></trkpt><trkpt lat="45.3035333" lon="10.7108267"><ele>43.4</ele><time>2026-04-27T13:58:29.015Z</time></trkpt><trkpt lat="45.3034983" lon="10.7109683"><ele>43.6</ele><time>2026-04-27T13:58:31.015Z</time></trkpt><trkpt lat="45.3034633" lon="10.7111033"><ele>43.800000000000004</ele><time>2026-04-27T13:58:33.015Z</time></trkpt><trkpt lat="45.30343" lon="10.7112233"><ele>44.0</ele><time>2026-04-27T13:58:35.016Z</time></trkpt><trkpt lat="45.3034083" lon="10.7113683"><ele>44.0</ele><time>2026-04-27T13:58:37.015Z</time></trkpt><trkpt lat="45.303385" lon="10.7115167"><ele>44.0</ele><time>2026-04-27T13:58:39.016Z</time></trkpt><trkpt lat="45.3033683" lon="10.711655"><ele>44.0</ele><time>2026-04-27T13:58:41.015Z</time></trkpt><trkpt lat="45.30334" lon="10.7118067"><ele>44.0</ele><time>2026-04-27T13:58:43.016Z</time></trkpt><trkpt lat="45.3033067" lon="10.71195"><ele>44.0</ele><time>2026-04-27T13:58:45.015Z</time></trkpt><trkpt lat="45.30328" lon="10.71208"><ele>44.0</ele><time>2026-04-27T13:58:47.015Z</time></trkpt><trkpt lat="45.3032567" lon="10.7122067"><ele>44.0</ele><time>2026-04-27T13:58:49.016Z</time></trkpt><trkpt lat="45.303215" lon="10.712345"><ele>44.0</ele><time>2026-04-27T13:58:51.015Z</time></trkpt><trkpt lat="45.303185" lon="10.7124833"><ele>44.0</ele><time>2026-04-27T13:58:53.015Z</time></trkpt><trkpt lat="45.3031467" lon="10.71262"><ele>44.0</ele><time>2026-04-27T13:58:55.016Z</time></trkpt><trkpt lat="45.3031033" lon="10.71275"><ele>43.6</ele><time>2026-04-27T13:58:57.016Z</time></trkpt><trkpt lat="45.303065" lon="10.7128783"><ele>43.2</ele><time>2026-04-27T13:58:59.015Z</time></trkpt><trkpt lat="45.3030283" lon="10.7130033"><ele>42.800000000000004</ele><time>2026-04-27T13:59:01.015Z</time></trkpt><trkpt lat="45.3029867" lon="10.7131267"><ele>42.400000000000006</ele><time>2026-04-27T13:59:03.016Z</time></trkpt><trkpt lat="45.3029383" lon="10.7132517"><ele>42.0</ele><time>2026-04-27T13:59:05.016Z</time></trkpt><trkpt lat="45.302895" lon="10.7133733"><ele>42.0</ele><time>2026-04-27T13:59:07.015Z</time></trkpt><trkpt lat="45.302855" lon="10.7135"><ele>42.0</ele><time>2026-04-27T13:59:09.015Z</time></trkpt><trkpt lat="45.3028167" lon="10.713615"><ele>42.0</ele><time>2026-04-27T13:59:11.015Z</time></trkpt><trkpt lat="45.302775" lon="10.7137233"><ele>42.0</ele><time>2026-04-27T13:59:13.016Z</time></trkpt><trkpt lat="45.302735" lon="10.7138433"><ele>42.0</ele><time>2026-04-27T13:59:15.015Z</time></trkpt><trkpt lat="45.3026983" lon="10.7139533"><ele>42.0</ele><time>2026-04-27T13:59:17.016Z</time></trkpt><trkpt lat="45.3026483" lon="10.714065"><ele>42.0</ele><time>2026-04-27T13:59:19.015Z</time></trkpt><trkpt lat="45.302585" lon="10.71419"><ele>42.0</ele><time>2026-04-27T13:59:21.015Z</time></trkpt><trkpt lat="45.3025317" lon="10.71431"><ele>42.0</ele><time>2026-04-27T13:59:23.016Z</time></trkpt><trkpt lat="45.30248" lon="10.7144333"><ele>42.0</ele><time>2026-04-27T13:59:25.015Z</time></trkpt><trkpt lat="45.3024217" lon="10.7145517"><ele>42.2</ele><time>2026-04-27T13:59:27.015Z</time></trkpt><trkpt lat="45.3023717" lon="10.7146667"><ele>42.400000000000006</ele><time>2026-04-27T13:59:29.015Z</time></trkpt><trkpt lat="45.3023183" lon="10.7147733"><ele>42.599999999999994</ele><time>2026-04-27T13:59:31.016Z</time></trkpt><trkpt lat="45.3022717" lon="10.7148817"><ele>42.8</ele><time>2026-04-27T13:59:33.016Z</time></trkpt><trkpt lat="45.3022117" lon="10.7150033"><ele>43.0</ele><time>2026-04-27T13:59:35.016Z</time></trkpt><trkpt lat="45.302165" lon="10.71511"><ele>43.0</ele><time>2026-04-27T13:59:37.015Z</time></trkpt><trkpt lat="45.3021133" lon="10.715215"><ele>43.0</ele><time>2026-04-27T13:59:39.015Z</time></trkpt><trkpt lat="45.302065" lon="10.7153133"><ele>43.0</ele><time>2026-04-27T13:59:41.015Z</time></trkpt><trkpt lat="45.30201" lon="10.71543"><ele>43.0</ele><time>2026-04-27T13:59:43.016Z</time></trkpt><trkpt lat="45.3019667" lon="10.7155433"><ele>43.0</ele><time>2026-04-27T13:59:45.015Z</time></trkpt><trkpt lat="45.3019083" lon="10.7156483"><ele>43.16666666666667</ele><time>2026-04-27T13:59:47.016Z</time></trkpt><trkpt lat="45.3018533" lon="10.7157517"><ele>43.333333333333336</ele><time>2026-04-27T13:59:49.016Z</time></trkpt><trkpt lat="45.3018083" lon="10.7158583"><ele>43.5</ele><time>2026-04-27T13:59:51.015Z</time></trkpt><trkpt lat="45.30176" lon="10.715965"><ele>43.666666666666664</ele><time>2026-04-27T13:59:53.015Z</time></trkpt><trkpt lat="45.3017217" lon="10.716075"><ele>43.83333333333333</ele><time>2026-04-27T13:59:55.016Z</time></trkpt><trkpt lat="45.3016733" lon="10.716185"><ele>44.0</ele><time>2026-04-27T13:59:57.015Z</time></trkpt><trkpt lat="45.301625" lon="10.71629"><ele>44.0</ele><time>2026-04-27T13:59:59.016Z</time></trkpt><trkpt lat="45.30156" lon="10.71639"><ele>44.0</ele><time>2026-04-27T14:00:01.016Z</time></trkpt><trkpt lat="45.3015017" lon="10.716475"><ele>44.0</ele><time>2026-04-27T14:00:03.015Z</time></trkpt><trkpt lat="45.3014483" lon="10.7165833"><ele>44.0</ele><time>2026-04-27T14:00:05.016Z</time></trkpt><trkpt lat="45.301395" lon="10.71669"><ele>44.0</ele><time>2026-04-27T14:00:07.016Z</time></trkpt><trkpt lat="45.301345" lon="10.716795"><ele>44.0</ele><time>2026-04-27T14:00:09.015Z</time></trkpt><trkpt lat="45.3012933" lon="10.7168967"><ele>44.0</ele><time>2026-04-27T14:00:11.016Z</time></trkpt><trkpt lat="45.3012417" lon="10.71699"><ele>44.0</ele><time>2026-04-27T14:00:13.016Z</time></trkpt><trkpt lat="45.3011783" lon="10.7170917"><ele>44.0</ele><time>2026-04-27T14:00:15.016Z</time></trkpt><trkpt lat="45.3011133" lon="10.717195"><ele>44.0</ele><time>2026-04-27T14:00:17.016Z</time></trkpt><trkpt lat="45.3010617" lon="10.7172783"><ele>44.0</ele><time>2026-04-27T14:00:19.016Z</time></trkpt><trkpt lat="45.3010167" lon="10.717355"><ele>44.0</ele><time>2026-04-27T14:00:21.015Z</time></trkpt><trkpt lat="45.3009683" lon="10.7174333"><ele>44.0</ele><time>2026-04-27T14:00:23.015Z</time></trkpt><trkpt lat="45.3009083" lon="10.71752"><ele>44.0</ele><time>2026-04-27T14:00:25.015Z</time></trkpt><trkpt lat="45.300835" lon="10.7176267"><ele>44.0</ele><time>2026-04-27T14:00:27.016Z</time></trkpt><trkpt lat="45.30076" lon="10.7177333"><ele>44.0</ele><time>2026-04-27T14:00:29.016Z</time></trkpt><trkpt lat="45.30069" lon="10.7178083"><ele>44.0</ele><time>2026-04-27T14:00:31.015Z</time></trkpt><trkpt lat="45.30062" lon="10.7179117"><ele>44.0</ele><time>2026-04-27T14:00:33.016Z</time></trkpt><trkpt lat="45.3005517" lon="10.7180117"><ele>44.0</ele><time>2026-04-27T14:00:35.016Z</time></trkpt><trkpt lat="45.3004767" lon="10.7180983"><ele>44.0</ele><time>2026-04-27T14:00:37.015Z</time></trkpt><trkpt lat="45.3003983" lon="10.7182017"><ele>44.0</ele><time>2026-04-27T14:00:39.016Z</time></trkpt><trkpt lat="45.3003183" lon="10.718305"><ele>44.0</ele><time>2026-04-27T14:00:41.015Z</time></trkpt><trkpt lat="45.300245" lon="10.71839"><ele>44.0</ele><time>2026-04-27T14:00:43.015Z</time></trkpt><trkpt lat="45.30015" lon="10.7185083"><ele>44.0</ele><time>2026-04-27T14:00:45.016Z</time></trkpt><trkpt lat="45.3000633" lon="10.7186367"><ele>44.0</ele><time>2026-04-27T14:00:47.016Z</time></trkpt><trkpt lat="45.3000183" lon="10.7187033"><ele>44.0</ele><time>2026-04-27T14:00:48.016Z</time></trkpt><trkpt lat="45.2999717" lon="10.7187733"><ele>44.0</ele><time>2026-04-27T14:00:49.015Z</time></trkpt><trkpt lat="45.2999283" lon="10.718845"><ele>44.0</ele><time>2026-04-27T14:00:50.015Z</time></trkpt><trkpt lat="45.2998583" lon="10.7189717"><ele>44.0</ele><time>2026-04-27T14:00:52.015Z</time></trkpt><trkpt lat="45.2997883" lon="10.7190633"><ele>44.0</ele><time>2026-04-27T14:00:54.015Z</time></trkpt><trkpt lat="45.2997283" lon="10.7191417"><ele>44.0</ele><time>2026-04-27T14:00:56.015Z</time></trkpt><trkpt lat="45.2996433" lon="10.719245"><ele>44.0</ele><time>2026-04-27T14:00:58.016Z</time></trkpt><trkpt lat="45.2995717" lon="10.7193467"><ele>44.0</ele><time>2026-04-27T14:01:00.015Z</time></trkpt><trkpt lat="45.2995017" lon="10.7194433"><ele>44.0</ele><time>2026-04-27T14:01:02.015Z</time></trkpt><trkpt lat="45.299435" lon="10.719535"><ele>44.0</ele><time>2026-04-27T14:01:04.016Z</time></trkpt><trkpt lat="45.2993567" lon="10.719625"><ele>44.0</ele><time>2026-04-27T14:01:06.015Z</time></trkpt><trkpt lat="45.299285" lon="10.7197183"><ele>43.800000000000004</ele><time>2026-04-27T14:01:08.015Z</time></trkpt><trkpt lat="45.2992033" lon="10.719805"><ele>43.6</ele><time>2026-04-27T14:01:10.016Z</time></trkpt><trkpt lat="45.2991183" lon="10.7198983"><ele>43.4</ele><time>2026-04-27T14:01:12.016Z</time></trkpt><trkpt lat="45.29903" lon="10.720005"><ele>43.2</ele><time>2026-04-27T14:01:14.016Z</time></trkpt><trkpt lat="45.29895" lon="10.72012"><ele>43.0</ele><time>2026-04-27T14:01:16.015Z</time></trkpt><trkpt lat="45.2988883" lon="10.72022"><ele>43.16666666666667</ele><time>2026-04-27T14:01:18.015Z</time></trkpt><trkpt lat="45.29883" lon="10.72031"><ele>43.333333333333336</ele><time>2026-04-27T14:01:20.015Z</time></trkpt><trkpt lat="45.2987683" lon="10.7203817"><ele>43.5</ele><time>2026-04-27T14:01:22.016Z</time></trkpt><trkpt lat="45.2987133" lon="10.7204317"><ele>43.666666666666664</ele><time>2026-04-27T14:01:24.016Z</time></trkpt><trkpt lat="45.2986483" lon="10.7204933"><ele>43.83333333333333</ele><time>2026-04-27T14:01:26.016Z</time></trkpt><trkpt lat="45.2985817" lon="10.7205567"><ele>44.0</ele><time>2026-04-27T14:01:28.015Z</time></trkpt><trkpt lat="45.2985133" lon="10.7206117"><ele>44.0</ele><time>2026-04-27T14:01:30.016Z</time></trkpt><trkpt lat="45.2984483" lon="10.720675"><ele>44.0</ele><time>2026-04-27T14:01:32.015Z</time></trkpt><trkpt lat="45.298385" lon="10.72075"><ele>44.0</ele><time>2026-04-27T14:01:34.016Z</time></trkpt><trkpt lat="45.2983183" lon="10.720845"><ele>44.0</ele><time>2026-04-27T14:01:36.016Z</time></trkpt><trkpt lat="45.298255" lon="10.7209183"><ele>44.0</ele><time>2026-04-27T14:01:38.015Z</time></trkpt><trkpt lat="45.2981967" lon="10.72098"><ele>44.0</ele><time>2026-04-27T14:01:40.016Z</time></trkpt><trkpt lat="45.2981467" lon="10.72105"><ele>44.0</ele><time>2026-04-27T14:01:42.016Z</time></trkpt><trkpt lat="45.2980867" lon="10.7211217"><ele>44.0</ele><time>2026-04-27T14:01:44.016Z</time></trkpt><trkpt lat="45.2980333" lon="10.7211833"><ele>44.0</ele><time>2026-04-27T14:01:46.016Z</time></trkpt><trkpt lat="45.2979717" lon="10.7212483"><ele>44.0</ele><time>2026-04-27T14:01:48.015Z</time></trkpt><trkpt lat="45.2979217" lon="10.7213167"><ele>44.0</ele><time>2026-04-27T14:01:50.015Z</time></trkpt><trkpt lat="45.29786" lon="10.7214033"><ele>44.0</ele><time>2026-04-27T14:01:52.015Z</time></trkpt><trkpt lat="45.2977867" lon="10.7214783"><ele>44.0</ele><time>2026-04-27T14:01:54.015Z</time></trkpt><trkpt lat="45.2977017" lon="10.7215617"><ele>44.0</ele><time>2026-04-27T14:01:56.016Z</time></trkpt><trkpt lat="45.2976167" lon="10.7216433"><ele>44.0</ele><time>2026-04-27T14:01:58.015Z</time></trkpt><trkpt lat="45.29753" lon="10.72173"><ele>44.0</ele><time>2026-04-27T14:02:00.015Z</time></trkpt><trkpt lat="45.2974417" lon="10.7218"><ele>44.0</ele><time>2026-04-27T14:02:02.015Z</time></trkpt><trkpt lat="45.2973633" lon="10.7218683"><ele>44.2</ele><time>2026-04-27T14:02:04.015Z</time></trkpt><trkpt lat="45.2972817" lon="10.7219433"><ele>44.400000000000006</ele><time>2026-04-27T14:02:06.015Z</time></trkpt><trkpt lat="45.297195" lon="10.722045"><ele>44.6</ele><time>2026-04-27T14:02:08.015Z</time></trkpt><trkpt lat="45.29711" lon="10.7221517"><ele>44.8</ele><time>2026-04-27T14:02:10.015Z</time></trkpt><trkpt lat="45.2970333" lon="10.72226"><ele>45.0</ele><time>2026-04-27T14:02:12.016Z</time></trkpt><trkpt lat="45.29695" lon="10.7223633"><ele>45.0</ele><time>2026-04-27T14:02:14.015Z</time></trkpt><trkpt lat="45.2968767" lon="10.7224667"><ele>45.0</ele><time>2026-04-27T14:02:16.015Z</time></trkpt><trkpt lat="45.2968017" lon="10.7225633"><ele>45.0</ele><time>2026-04-27T14:02:18.015Z</time></trkpt><trkpt lat="45.296725" lon="10.7226617"><ele>45.0</ele><time>2026-04-27T14:02:20.014Z</time></trkpt><trkpt lat="45.2966533" lon="10.7227483"><ele>45.0</ele><time>2026-04-27T14:02:22.015Z</time></trkpt><trkpt lat="45.2965617" lon="10.7228367"><ele>44.8</ele><time>2026-04-27T14:02:24.014Z</time></trkpt><trkpt lat="45.29648" lon="10.7229333"><ele>44.6</ele><time>2026-04-27T14:02:26.015Z</time></trkpt><trkpt lat="45.2963967" lon="10.7230183"><ele>44.400000000000006</ele><time>2026-04-27T14:02:28.015Z</time></trkpt><trkpt lat="45.2963133" lon="10.7231033"><ele>44.2</ele><time>2026-04-27T14:02:30.014Z</time></trkpt><trkpt lat="45.29624" lon="10.723185"><ele>44.0</ele><time>2026-04-27T14:02:32.015Z</time></trkpt><trkpt lat="45.2961633" lon="10.723275"><ele>43.800000000000004</ele><time>2026-04-27T14:02:34.015Z</time></trkpt><trkpt lat="45.296085" lon="10.7233633"><ele>43.6</ele><time>2026-04-27T14:02:36.015Z</time></trkpt><trkpt lat="45.2960067" lon="10.7234483"><ele>43.4</ele><time>2026-04-27T14:02:38.015Z</time></trkpt><trkpt lat="45.2959267" lon="10.72353"><ele>43.2</ele><time>2026-04-27T14:02:40.014Z</time></trkpt><trkpt lat="45.2958467" lon="10.7236117"><ele>43.0</ele><time>2026-04-27T14:02:42.015Z</time></trkpt><trkpt lat="45.2957767" lon="10.7236933"><ele>43.0</ele><time>2026-04-27T14:02:44.014Z</time></trkpt><trkpt lat="45.2956983" lon="10.7237617"><ele>43.0</ele><time>2026-04-27T14:02:46.014Z</time></trkpt><trkpt lat="45.29562" lon="10.7238367"><ele>43.0</ele><time>2026-04-27T14:02:48.014Z</time></trkpt><trkpt lat="45.2955133" lon="10.723945"><ele>43.0</ele><time>2026-04-27T14:02:51.014Z</time></trkpt><trkpt lat="45.29544" lon="10.72403"><ele>43.0</ele><time>2026-04-27T14:02:53.015Z</time></trkpt><trkpt lat="45.2953617" lon="10.7241133"><ele>43.0</ele><time>2026-04-27T14:02:55.015Z</time></trkpt><trkpt lat="45.2952867" lon="10.7242017"><ele>43.0</ele><time>2026-04-27T14:02:57.014Z</time></trkpt><trkpt lat="45.2952133" lon="10.7242883"><ele>43.0</ele><time>2026-04-27T14:02:59.014Z</time></trkpt><trkpt lat="45.2951433" lon="10.7243833"><ele>43.0</ele><time>2026-04-27T14:03:01.014Z</time></trkpt><trkpt lat="45.2950717" lon="10.724485"><ele>43.0</ele><time>2026-04-27T14:03:03.014Z</time></trkpt><trkpt lat="45.2949817" lon="10.7245767"><ele>43.2</ele><time>2026-04-27T14:03:05.014Z</time></trkpt><trkpt lat="45.294895" lon="10.7246583"><ele>43.4</ele><time>2026-04-27T14:03:07.014Z</time></trkpt><trkpt lat="45.2948167" lon="10.7247383"><ele>43.6</ele><time>2026-04-27T14:03:09.014Z</time></trkpt><trkpt lat="45.2947417" lon="10.7248183"><ele>43.800000000000004</ele><time>2026-04-27T14:03:11.015Z</time></trkpt><trkpt lat="45.2946717" lon="10.72491"><ele>44.0</ele><time>2026-04-27T14:03:13.015Z</time></trkpt><trkpt lat="45.2945983" lon="10.7249933"><ele>44.2</ele><time>2026-04-27T14:03:15.014Z</time></trkpt><trkpt lat="45.2945217" lon="10.7250717"><ele>44.400000000000006</ele><time>2026-04-27T14:03:17.014Z</time></trkpt><trkpt lat="45.2944567" lon="10.7251583"><ele>44.6</ele><time>2026-04-27T14:03:19.015Z</time></trkpt><trkpt lat="45.29438" lon="10.7252383"><ele>44.8</ele><time>2026-04-27T14:03:21.014Z</time></trkpt><trkpt lat="45.2943017" lon="10.7253117"><ele>45.0</ele><time>2026-04-27T14:03:23.015Z</time></trkpt><trkpt lat="45.29423" lon="10.7253817"><ele>44.6</ele><time>2026-04-27T14:03:25.015Z</time></trkpt><trkpt lat="45.294155" lon="10.7254583"><ele>44.2</ele><time>2026-04-27T14:03:27.015Z</time></trkpt><trkpt lat="45.2940667" lon="10.7255333"><ele>43.8</ele><time>2026-04-27T14:03:29.014Z</time></trkpt><trkpt lat="45.2939767" lon="10.725615"><ele>43.4</ele><time>2026-04-27T14:03:31.014Z</time></trkpt><trkpt lat="45.2938967" lon="10.72568"><ele>43.0</ele><time>2026-04-27T14:03:33.014Z</time></trkpt><trkpt lat="45.2938133" lon="10.7257483"><ele>42.8</ele><time>2026-04-27T14:03:35.015Z</time></trkpt><trkpt lat="45.293725" lon="10.7258183"><ele>42.599999999999994</ele><time>2026-04-27T14:03:37.015Z</time></trkpt><trkpt lat="45.2936467" lon="10.7258783"><ele>42.400000000000006</ele><time>2026-04-27T14:03:39.014Z</time></trkpt><trkpt lat="45.2935683" lon="10.7259333"><ele>42.2</ele><time>2026-04-27T14:03:41.015Z</time></trkpt><trkpt lat="45.2934883" lon="10.7260017"><ele>42.0</ele><time>2026-04-27T14:03:43.014Z</time></trkpt><trkpt lat="45.2934033" lon="10.7260683"><ele>42.0</ele><time>2026-04-27T14:03:45.014Z</time></trkpt><trkpt lat="45.2933217" lon="10.7261333"><ele>42.0</ele><time>2026-04-27T14:03:47.014Z</time></trkpt><trkpt lat="45.2932433" lon="10.7261967"><ele>42.0</ele><time>2026-04-27T14:03:49.014Z</time></trkpt><trkpt lat="45.2931633" lon="10.7262483"><ele>42.0</ele><time>2026-04-27T14:03:51.015Z</time></trkpt><trkpt lat="45.2930733" lon="10.726315"><ele>42.0</ele><time>2026-04-27T14:03:53.015Z</time></trkpt><trkpt lat="45.29299" lon="10.726405"><ele>42.0</ele><time>2026-04-27T14:03:55.014Z</time></trkpt><trkpt lat="45.2929" lon="10.7264617"><ele>42.0</ele><time>2026-04-27T14:03:57.015Z</time></trkpt><trkpt lat="45.292805" lon="10.726515"><ele>42.0</ele><time>2026-04-27T14:03:59.015Z</time></trkpt><trkpt lat="45.2927217" lon="10.7265667"><ele>42.0</ele><time>2026-04-27T14:04:01.015Z</time></trkpt><trkpt lat="45.2926283" lon="10.7266133"><ele>42.0</ele><time>2026-04-27T14:04:03.014Z</time></trkpt><trkpt lat="45.2925483" lon="10.7266567"><ele>42.0</ele><time>2026-04-27T14:04:05.014Z</time></trkpt><trkpt lat="45.292455" lon="10.726715"><ele>42.0</ele><time>2026-04-27T14:04:07.015Z</time></trkpt><trkpt lat="45.292365" lon="10.726755"><ele>42.0</ele><time>2026-04-27T14:04:09.015Z</time></trkpt><trkpt lat="45.2922917" lon="10.7267983"><ele>42.0</ele><time>2026-04-27T14:04:11.014Z</time></trkpt><trkpt lat="45.2922033" lon="10.7268433"><ele>42.0</ele><time>2026-04-27T14:04:13.015Z</time></trkpt><trkpt lat="45.2921133" lon="10.7269133"><ele>42.666666666666664</ele><time>2026-04-27T14:04:15.015Z</time></trkpt><trkpt lat="45.29203" lon="10.7269533"><ele>43.333333333333336</ele><time>2026-04-27T14:04:17.014Z</time></trkpt><trkpt lat="45.2919483" lon="10.7269917"><ele>44.0</ele><time>2026-04-27T14:04:19.014Z</time></trkpt><trkpt lat="45.2918667" lon="10.7270317"><ele>44.66666666666667</ele><time>2026-04-27T14:04:21.014Z</time></trkpt><trkpt lat="45.2917783" lon="10.7270667"><ele>45.333333333333336</ele><time>2026-04-27T14:04:23.014Z</time></trkpt><trkpt lat="45.2916917" lon="10.7270983"><ele>46.0</ele><time>2026-04-27T14:04:25.015Z</time></trkpt><trkpt lat="45.2916033" lon="10.7271333"><ele>46.0</ele><time>2026-04-27T14:04:27.014Z</time></trkpt><trkpt lat="45.2915217" lon="10.7271617"><ele>46.0</ele><time>2026-04-27T14:04:29.014Z</time></trkpt><trkpt lat="45.2914433" lon="10.727185"><ele>46.0</ele><time>2026-04-27T14:04:31.015Z</time></trkpt><trkpt lat="45.2913517" lon="10.7272283"><ele>46.0</ele><time>2026-04-27T14:04:33.014Z</time></trkpt><trkpt lat="45.29127" lon="10.7272633"><ele>46.0</ele><time>2026-04-27T14:04:35.014Z</time></trkpt><trkpt lat="45.2911817" lon="10.7272967"><ele>46.0</ele><time>2026-04-27T14:04:37.015Z</time></trkpt><trkpt lat="45.2911033" lon="10.7273117"><ele>46.5</ele><time>2026-04-27T14:04:39.015Z</time></trkpt><trkpt lat="45.291015" lon="10.7273267"><ele>47.0</ele><time>2026-04-27T14:04:41.015Z</time></trkpt><trkpt lat="45.2909267" lon="10.7273517"><ele>47.5</ele><time>2026-04-27T14:04:43.014Z</time></trkpt><trkpt lat="45.290845" lon="10.7273633"><ele>48.0</ele><time>2026-04-27T14:04:45.015Z</time></trkpt><trkpt lat="45.2907667" lon="10.72739"><ele>48.49999999999999</ele><time>2026-04-27T14:04:47.014Z</time></trkpt><trkpt lat="45.290685" lon="10.7274217"><ele>49.0</ele><time>2026-04-27T14:04:49.014Z</time></trkpt><trkpt lat="45.2906" lon="10.7274483"><ele>48.99999999999999</ele><time>2026-04-27T14:04:51.015Z</time></trkpt><trkpt lat="45.2905183" lon="10.72747"><ele>49.0</ele><time>2026-04-27T14:04:53.015Z</time></trkpt><trkpt lat="45.2904383" lon="10.7274833"><ele>49.0</ele><time>2026-04-27T14:04:55.015Z</time></trkpt><trkpt lat="45.29036" lon="10.727505"><ele>49.0</ele><time>2026-04-27T14:04:57.014Z</time></trkpt><trkpt lat="45.2902817" lon="10.7275183"><ele>48.99999999999999</ele><time>2026-04-27T14:04:59.014Z</time></trkpt><trkpt lat="45.2902067" lon="10.7275317"><ele>49.0</ele><time>2026-04-27T14:05:01.014Z</time></trkpt><trkpt lat="45.29012" lon="10.72756"><ele>48.99999999999999</ele><time>2026-04-27T14:05:03.014Z</time></trkpt><trkpt lat="45.2900383" lon="10.7275783"><ele>49.0</ele><time>2026-04-27T14:05:05.015Z</time></trkpt><trkpt lat="45.28996" lon="10.7275983"><ele>49.0</ele><time>2026-04-27T14:05:07.015Z</time></trkpt><trkpt lat="45.28988" lon="10.7276183"><ele>49.0</ele><time>2026-04-27T14:05:09.015Z</time></trkpt><trkpt lat="45.2898067" lon="10.7276383"><ele>48.99999999999999</ele><time>2026-04-27T14:05:11.014Z</time></trkpt><trkpt lat="45.2897217" lon="10.7276533"><ele>49.0</ele><time>2026-04-27T14:05:14.014Z</time></trkpt><trkpt lat="45.289635" lon="10.72769"><ele>48.83333333333333</ele><time>2026-04-27T14:05:17.015Z</time></trkpt><trkpt lat="45.2895467" lon="10.7277267"><ele>48.666666666666664</ele><time>2026-04-27T14:05:20.015Z</time></trkpt><trkpt lat="45.2894817" lon="10.7277517"><ele>48.5</ele><time>2026-04-27T14:05:22.015Z</time></trkpt><trkpt lat="45.2894017" lon="10.7277717"><ele>48.33333333333333</ele><time>2026-04-27T14:05:24.015Z</time></trkpt><trkpt lat="45.2893167" lon="10.7277883"><ele>48.166666666666664</ele><time>2026-04-27T14:05:26.015Z</time></trkpt><trkpt lat="45.2892383" lon="10.7278033"><ele>48.0</ele><time>2026-04-27T14:05:28.015Z</time></trkpt><trkpt lat="45.28916" lon="10.7278033"><ele>47.833333333333336</ele><time>2026-04-27T14:05:30.014Z</time></trkpt><trkpt lat="45.2890817" lon="10.7278283"><ele>47.666666666666664</ele><time>2026-04-27T14:05:32.015Z</time></trkpt><trkpt lat="45.2890033" lon="10.72785"><ele>47.5</ele><time>2026-04-27T14:05:34.014Z</time></trkpt><trkpt lat="45.288925" lon="10.7278817"><ele>47.33333333333333</ele><time>2026-04-27T14:05:36.014Z</time></trkpt><trkpt lat="45.2888417" lon="10.7279"><ele>47.166666666666664</ele><time>2026-04-27T14:05:38.014Z</time></trkpt><trkpt lat="45.2887617" lon="10.727925"><ele>47.0</ele><time>2026-04-27T14:05:40.015Z</time></trkpt><trkpt lat="45.2886833" lon="10.7279533"><ele>47.0</ele><time>2026-04-27T14:05:42.014Z</time></trkpt><trkpt lat="45.2886033" lon="10.7279733"><ele>47.0</ele><time>2026-04-27T14:05:44.015Z</time></trkpt><trkpt lat="45.28852" lon="10.7279933"><ele>47.0</ele><time>2026-04-27T14:05:46.015Z</time></trkpt><trkpt lat="45.2884417" lon="10.7280167"><ele>47.0</ele><time>2026-04-27T14:05:48.014Z</time></trkpt><trkpt lat="45.2883617" lon="10.7280483"><ele>47.0</ele><time>2026-04-27T14:05:50.014Z</time></trkpt><trkpt lat="45.2882817" lon="10.728065"><ele>47.0</ele><time>2026-04-27T14:05:52.015Z</time></trkpt><trkpt lat="45.2882" lon="10.72808"><ele>47.0</ele><time>2026-04-27T14:05:54.014Z</time></trkpt><trkpt lat="45.2881217" lon="10.728095"><ele>47.0</ele><time>2026-04-27T14:05:56.014Z</time></trkpt><trkpt lat="45.2880383" lon="10.72812"><ele>47.0</ele><time>2026-04-27T14:05:58.015Z</time></trkpt><trkpt lat="45.2879583" lon="10.7281433"><ele>47.0</ele><time>2026-04-27T14:06:00.015Z</time></trkpt><trkpt lat="45.2878817" lon="10.728165"><ele>47.0</ele><time>2026-04-27T14:06:02.014Z</time></trkpt><trkpt lat="45.2878017" lon="10.7281833"><ele>47.0</ele><time>2026-04-27T14:06:04.015Z</time></trkpt><trkpt lat="45.28772" lon="10.7282083"><ele>46.666666666666664</ele><time>2026-04-27T14:06:06.014Z</time></trkpt><trkpt lat="45.2876417" lon="10.7282267"><ele>46.33333333333333</ele><time>2026-04-27T14:06:08.014Z</time></trkpt><trkpt lat="45.2875583" lon="10.7282383"><ele>46.0</ele><time>2026-04-27T14:06:10.014Z</time></trkpt><trkpt lat="45.2874767" lon="10.7282567"><ele>45.666666666666664</ele><time>2026-04-27T14:06:12.014Z</time></trkpt><trkpt lat="45.287395" lon="10.7282717"><ele>45.333333333333336</ele><time>2026-04-27T14:06:14.014Z</time></trkpt><trkpt lat="45.2873133" lon="10.7282933"><ele>45.0</ele><time>2026-04-27T14:06:16.014Z</time></trkpt><trkpt lat="45.2872267" lon="10.7283283"><ele>45.0</ele><time>2026-04-27T14:06:18.015Z</time></trkpt><trkpt lat="45.2871433" lon="10.728355"><ele>45.0</ele><time>2026-04-27T14:06:20.014Z</time></trkpt><trkpt lat="45.2870617" lon="10.72838"><ele>45.0</ele><time>2026-04-27T14:06:22.014Z</time></trkpt><trkpt lat="45.2869817" lon="10.7284067"><ele>45.0</ele><time>2026-04-27T14:06:24.014Z</time></trkpt><trkpt lat="45.2869033" lon="10.728425"><ele>45.0</ele><time>2026-04-27T14:06:26.014Z</time></trkpt><trkpt lat="45.2868217" lon="10.72845"><ele>45.0</ele><time>2026-04-27T14:06:28.014Z</time></trkpt><trkpt lat="45.28674" lon="10.7284683"><ele>45.0</ele><time>2026-04-27T14:06:30.015Z</time></trkpt><trkpt lat="45.2866517" lon="10.72849"><ele>45.0</ele><time>2026-04-27T14:06:32.014Z</time></trkpt><trkpt lat="45.28657" lon="10.7285183"><ele>45.0</ele><time>2026-04-27T14:06:34.015Z</time></trkpt><trkpt lat="45.2864867" lon="10.728535"><ele>45.0</ele><time>2026-04-27T14:06:36.015Z</time></trkpt><trkpt lat="45.2864033" lon="10.7285417"><ele>45.0</ele><time>2026-04-27T14:06:38.014Z</time></trkpt><trkpt lat="45.286315" lon="10.728575"><ele>45.0</ele><time>2026-04-27T14:06:40.014Z</time></trkpt><trkpt lat="45.2862267" lon="10.7285917"><ele>44.4</ele><time>2026-04-27T14:06:42.014Z</time></trkpt><trkpt lat="45.286145" lon="10.72862"><ele>43.8</ele><time>2026-04-27T14:06:44.014Z</time></trkpt><trkpt lat="45.28606" lon="10.7286383"><ele>43.2</ele><time>2026-04-27T14:06:46.014Z</time></trkpt><trkpt lat="45.2859683" lon="10.7286633"><ele>42.6</ele><time>2026-04-27T14:06:48.014Z</time></trkpt><trkpt lat="45.2858817" lon="10.72868"><ele>42.0</ele><time>2026-04-27T14:06:50.015Z</time></trkpt><trkpt lat="45.2857133" lon="10.7287367"><ele>42.0</ele><time>2026-04-27T14:06:54.015Z</time></trkpt><trkpt lat="45.28563" lon="10.7287583"><ele>42.0</ele><time>2026-04-27T14:06:56.014Z</time></trkpt><trkpt lat="45.2855533" lon="10.7287817"><ele>42.0</ele><time>2026-04-27T14:06:58.015Z</time></trkpt><trkpt lat="45.2854817" lon="10.728805"><ele>42.0</ele><time>2026-04-27T14:07:00.014Z</time></trkpt><trkpt lat="45.2854067" lon="10.7288283"><ele>42.0</ele><time>2026-04-27T14:07:02.014Z</time></trkpt><trkpt lat="45.2853233" lon="10.728845"><ele>42.0</ele><time>2026-04-27T14:07:04.015Z</time></trkpt><trkpt lat="45.2852433" lon="10.72887"><ele>42.166666666666664</ele><time>2026-04-27T14:07:06.015Z</time></trkpt><trkpt lat="45.2851583" lon="10.7288967"><ele>42.333333333333336</ele><time>2026-04-27T14:07:08.015Z</time></trkpt><trkpt lat="45.28507" lon="10.7289233"><ele>42.5</ele><time>2026-04-27T14:07:10.015Z</time></trkpt><trkpt lat="45.2849867" lon="10.7289517"><ele>42.66666666666667</ele><time>2026-04-27T14:07:12.015Z</time></trkpt><trkpt lat="45.2849" lon="10.7289733"><ele>42.833333333333336</ele><time>2026-04-27T14:07:14.015Z</time></trkpt><trkpt lat="45.2848183" lon="10.7289867"><ele>43.0</ele><time>2026-04-27T14:07:16.014Z</time></trkpt><trkpt lat="45.2847367" lon="10.7290083"><ele>43.16666666666667</ele><time>2026-04-27T14:07:18.015Z</time></trkpt><trkpt lat="45.2846633" lon="10.7290233"><ele>43.333333333333336</ele><time>2026-04-27T14:07:20.015Z</time></trkpt><trkpt lat="45.2845817" lon="10.7290433"><ele>43.5</ele><time>2026-04-27T14:07:22.015Z</time></trkpt><trkpt lat="45.284495" lon="10.72906"><ele>43.666666666666664</ele><time>2026-04-27T14:07:24.014Z</time></trkpt><trkpt lat="45.284405" lon="10.7290833"><ele>43.83333333333333</ele><time>2026-04-27T14:07:26.014Z</time></trkpt><trkpt lat="45.2843183" lon="10.7291033"><ele>44.0</ele><time>2026-04-27T14:07:28.014Z</time></trkpt><trkpt lat="45.2842367" lon="10.72913"><ele>44.0</ele><time>2026-04-27T14:07:30.014Z</time></trkpt><trkpt lat="45.2841483" lon="10.7291567"><ele>44.0</ele><time>2026-04-27T14:07:32.014Z</time></trkpt><trkpt lat="45.2840733" lon="10.729175"><ele>44.0</ele><time>2026-04-27T14:07:34.014Z</time></trkpt><trkpt lat="45.2839883" lon="10.7292033"><ele>44.0</ele><time>2026-04-27T14:07:36.014Z</time></trkpt><trkpt lat="45.2839017" lon="10.7292267"><ele>44.0</ele><time>2026-04-27T14:07:38.014Z</time></trkpt><trkpt lat="45.2838167" lon="10.729245"><ele>44.0</ele><time>2026-04-27T14:07:40.013Z</time></trkpt><trkpt lat="45.2837333" lon="10.7292733"><ele>44.166666666666664</ele><time>2026-04-27T14:07:42.014Z</time></trkpt><trkpt lat="45.2836467" lon="10.729305"><ele>44.33333333333333</ele><time>2026-04-27T14:07:44.014Z</time></trkpt><trkpt lat="45.2835567" lon="10.72934"><ele>44.5</ele><time>2026-04-27T14:07:46.014Z</time></trkpt><trkpt lat="45.2834717" lon="10.7293633"><ele>44.666666666666664</ele><time>2026-04-27T14:07:48.014Z</time></trkpt><trkpt lat="45.2833883" lon="10.7293933"><ele>44.833333333333336</ele><time>2026-04-27T14:07:50.013Z</time></trkpt><trkpt lat="45.2832983" lon="10.7294283"><ele>45.0</ele><time>2026-04-27T14:07:52.014Z</time></trkpt><trkpt lat="45.2832183" lon="10.7294617"><ele>45.0</ele><time>2026-04-27T14:07:54.013Z</time></trkpt><trkpt lat="45.283125" lon="10.7294833"><ele>45.0</ele><time>2026-04-27T14:07:56.013Z</time></trkpt><trkpt lat="45.2830367" lon="10.7294983"><ele>45.0</ele><time>2026-04-27T14:07:58.013Z</time></trkpt><trkpt lat="45.2829567" lon="10.7295217"><ele>45.0</ele><time>2026-04-27T14:08:00.014Z</time></trkpt><trkpt lat="45.2828817" lon="10.7295483"><ele>45.0</ele><time>2026-04-27T14:08:02.014Z</time></trkpt><trkpt lat="45.2828117" lon="10.729575"><ele>45.0</ele><time>2026-04-27T14:08:04.013Z</time></trkpt><trkpt lat="45.28272" lon="10.7296017"><ele>45.166666666666664</ele><time>2026-04-27T14:08:07.014Z</time></trkpt><trkpt lat="45.28265" lon="10.7296317"><ele>45.333333333333336</ele><time>2026-04-27T14:08:10.014Z</time></trkpt><trkpt lat="45.2825717" lon="10.72966"><ele>45.5</ele><time>2026-04-27T14:08:20.014Z</time></trkpt><trkpt lat="45.282485" lon="10.7296817"><ele>45.66666666666667</ele><time>2026-04-27T14:08:23.013Z</time></trkpt><trkpt lat="45.2824117" lon="10.7296983"><ele>45.833333333333336</ele><time>2026-04-27T14:08:25.014Z</time></trkpt><trkpt lat="45.2823217" lon="10.72971"><ele>46.0</ele><time>2026-04-27T14:08:27.014Z</time></trkpt><trkpt lat="45.2822167" lon="10.7297383"><ele>46.0</ele><time>2026-04-27T14:08:29.013Z</time></trkpt><trkpt lat="45.2821017" lon="10.7297633"><ele>46.0</ele><time>2026-04-27T14:08:31.014Z</time></trkpt><trkpt lat="45.281985" lon="10.729795"><ele>46.0</ele><time>2026-04-27T14:08:33.013Z</time></trkpt><trkpt lat="45.28188" lon="10.7298233"><ele>46.0</ele><time>2026-04-27T14:08:35.013Z</time></trkpt><trkpt lat="45.2817683" lon="10.729845"><ele>46.0</ele><time>2026-04-27T14:08:37.013Z</time></trkpt><trkpt lat="45.28167" lon="10.7298683"><ele>46.0</ele><time>2026-04-27T14:08:39.014Z</time></trkpt><trkpt lat="45.2815733" lon="10.7298867"><ele>46.0</ele><time>2026-04-27T14:08:41.013Z</time></trkpt><trkpt lat="45.2814867" lon="10.7299017"><ele>46.0</ele><time>2026-04-27T14:08:43.014Z</time></trkpt><trkpt lat="45.2813967" lon="10.7299083"><ele>46.0</ele><time>2026-04-27T14:08:45.013Z</time></trkpt><trkpt lat="45.28129" lon="10.729945"><ele>45.4</ele><time>2026-04-27T14:08:47.014Z</time></trkpt><trkpt lat="45.2811817" lon="10.72996"><ele>44.8</ele><time>2026-04-27T14:08:49.014Z</time></trkpt><trkpt lat="45.2810583" lon="10.72999"><ele>44.199999999999996</ele><time>2026-04-27T14:08:51.013Z</time></trkpt><trkpt lat="45.2809983" lon="10.73002"><ele>43.599999999999994</ele><time>2026-04-27T14:08:52.013Z</time></trkpt><trkpt lat="45.2809033" lon="10.7300617"><ele>43.0</ele><time>2026-04-27T14:08:54.013Z</time></trkpt><trkpt lat="45.2808083" lon="10.730095"><ele>43.0</ele><time>2026-04-27T14:08:56.013Z</time></trkpt><trkpt lat="45.2807183" lon="10.7301233"><ele>43.0</ele><time>2026-04-27T14:08:58.013Z</time></trkpt><trkpt lat="45.2806333" lon="10.7301417"><ele>43.0</ele><time>2026-04-27T14:09:00.014Z</time></trkpt><trkpt lat="45.2805367" lon="10.730175"><ele>43.0</ele><time>2026-04-27T14:09:02.013Z</time></trkpt><trkpt lat="45.2804367" lon="10.7302"><ele>43.0</ele><time>2026-04-27T14:09:04.013Z</time></trkpt><trkpt lat="45.2803467" lon="10.7302183"><ele>43.333333333333336</ele><time>2026-04-27T14:09:06.014Z</time></trkpt><trkpt lat="45.2802633" lon="10.7302433"><ele>43.66666666666667</ele><time>2026-04-27T14:09:08.013Z</time></trkpt><trkpt lat="45.2801867" lon="10.7302567"><ele>44.0</ele><time>2026-04-27T14:09:10.013Z</time></trkpt><trkpt lat="45.2801117" lon="10.730275"><ele>44.333333333333336</ele><time>2026-04-27T14:09:12.014Z</time></trkpt><trkpt lat="45.28003" lon="10.730295"><ele>44.666666666666664</ele><time>2026-04-27T14:09:14.014Z</time></trkpt><trkpt lat="45.27995" lon="10.730315"><ele>45.0</ele><time>2026-04-27T14:09:16.013Z</time></trkpt><trkpt lat="45.2798667" lon="10.73034"><ele>45.0</ele><time>2026-04-27T14:09:18.014Z</time></trkpt><trkpt lat="45.2797683" lon="10.730355"><ele>45.0</ele><time>2026-04-27T14:09:20.014Z</time></trkpt><trkpt lat="45.27967" lon="10.730375"><ele>45.0</ele><time>2026-04-27T14:09:22.013Z</time></trkpt><trkpt lat="45.2795733" lon="10.7304033"><ele>45.0</ele><time>2026-04-27T14:09:24.014Z</time></trkpt><trkpt lat="45.27948" lon="10.7304267"><ele>45.0</ele><time>2026-04-27T14:09:26.013Z</time></trkpt><trkpt lat="45.27939" lon="10.730445"><ele>44.833333333333336</ele><time>2026-04-27T14:09:28.014Z</time></trkpt><trkpt lat="45.27931" lon="10.7304467"><ele>44.666666666666664</ele><time>2026-04-27T14:09:30.013Z</time></trkpt><trkpt lat="45.2792267" lon="10.7304483"><ele>44.5</ele><time>2026-04-27T14:09:32.014Z</time></trkpt><trkpt lat="45.2791433" lon="10.7304717"><ele>44.33333333333333</ele><time>2026-04-27T14:09:34.013Z</time></trkpt><trkpt lat="45.2790583" lon="10.7304817"><ele>44.166666666666664</ele><time>2026-04-27T14:09:36.013Z</time></trkpt><trkpt lat="45.2789717" lon="10.7304867"><ele>44.0</ele><time>2026-04-27T14:09:38.014Z</time></trkpt><trkpt lat="45.2788683" lon="10.730505"><ele>43.2</ele><time>2026-04-27T14:09:40.013Z</time></trkpt><trkpt lat="45.2787783" lon="10.73051"><ele>42.400000000000006</ele><time>2026-04-27T14:09:42.014Z</time></trkpt><trkpt lat="45.2786783" lon="10.7305133"><ele>41.6</ele><time>2026-04-27T14:09:44.013Z</time></trkpt><trkpt lat="45.27857" lon="10.7305233"><ele>40.8</ele><time>2026-04-27T14:09:46.013Z</time></trkpt><trkpt lat="45.2784783" lon="10.730515"><ele>40.0</ele><time>2026-04-27T14:09:48.014Z</time></trkpt><trkpt lat="45.2783767" lon="10.7305217"><ele>40.0</ele><time>2026-04-27T14:09:50.013Z</time></trkpt><trkpt lat="45.2782783" lon="10.7305283"><ele>40.0</ele><time>2026-04-27T14:09:52.013Z</time></trkpt><trkpt lat="45.278185" lon="10.73053"><ele>40.0</ele><time>2026-04-27T14:09:54.013Z</time></trkpt><trkpt lat="45.27809" lon="10.7305217"><ele>40.0</ele><time>2026-04-27T14:09:56.014Z</time></trkpt><trkpt lat="45.2779967" lon="10.730525"><ele>40.0</ele><time>2026-04-27T14:09:58.014Z</time></trkpt><trkpt lat="45.2779033" lon="10.73052"><ele>40.16666666666667</ele><time>2026-04-27T14:10:00.013Z</time></trkpt><trkpt lat="45.277815" lon="10.7305233"><ele>40.333333333333336</ele><time>2026-04-27T14:10:02.014Z</time></trkpt><trkpt lat="45.277725" lon="10.7305217"><ele>40.5</ele><time>2026-04-27T14:10:04.013Z</time></trkpt><trkpt lat="45.277645" lon="10.7305233"><ele>40.666666666666664</ele><time>2026-04-27T14:10:06.014Z</time></trkpt><trkpt lat="45.27755" lon="10.73052"><ele>40.83333333333333</ele><time>2026-04-27T14:10:08.013Z</time></trkpt><trkpt lat="45.27746" lon="10.73051"><ele>41.0</ele><time>2026-04-27T14:10:10.013Z</time></trkpt><trkpt lat="45.2773683" lon="10.7305033"><ele>41.0</ele><time>2026-04-27T14:10:12.013Z</time></trkpt><trkpt lat="45.2772833" lon="10.730495"><ele>41.0</ele><time>2026-04-27T14:10:14.013Z</time></trkpt><trkpt lat="45.2771983" lon="10.730485"><ele>41.0</ele><time>2026-04-27T14:10:16.013Z</time></trkpt><trkpt lat="45.2771" lon="10.7304733"><ele>41.0</ele><time>2026-04-27T14:10:18.013Z</time></trkpt><trkpt lat="45.2770083" lon="10.7304583"><ele>41.0</ele><time>2026-04-27T14:10:20.013Z</time></trkpt><trkpt lat="45.276915" lon="10.7304317"><ele>41.0</ele><time>2026-04-27T14:10:22.014Z</time></trkpt><trkpt lat="45.2768183" lon="10.7304217"><ele>41.0</ele><time>2026-04-27T14:10:24.014Z</time></trkpt><trkpt lat="45.2767433" lon="10.730405"><ele>41.0</ele><time>2026-04-27T14:10:26.013Z</time></trkpt><trkpt lat="45.276665" lon="10.7303783"><ele>41.0</ele><time>2026-04-27T14:10:28.013Z</time></trkpt><trkpt lat="45.276575" lon="10.7303583"><ele>41.0</ele><time>2026-04-27T14:10:30.014Z</time></trkpt><trkpt lat="45.2764867" lon="10.730325"><ele>41.0</ele><time>2026-04-27T14:10:32.013Z</time></trkpt><trkpt lat="45.2763817" lon="10.7303067"><ele>41.0</ele><time>2026-04-27T14:10:34.013Z</time></trkpt><trkpt lat="45.27628" lon="10.7302833"><ele>41.0</ele><time>2026-04-27T14:10:36.013Z</time></trkpt><trkpt lat="45.2761917" lon="10.73026"><ele>41.0</ele><time>2026-04-27T14:10:38.014Z</time></trkpt><trkpt lat="45.2761167" lon="10.730235"><ele>41.0</ele><time>2026-04-27T14:10:40.013Z</time></trkpt><trkpt lat="45.2760367" lon="10.7302083"><ele>41.0</ele><time>2026-04-27T14:10:42.014Z</time></trkpt><trkpt lat="45.2759317" lon="10.7301867"><ele>41.0</ele><time>2026-04-27T14:10:44.014Z</time></trkpt><trkpt lat="45.2758317" lon="10.7301717"><ele>41.0</ele><time>2026-04-27T14:10:46.014Z</time></trkpt><trkpt lat="45.2757317" lon="10.730155"><ele>41.0</ele><time>2026-04-27T14:10:48.013Z</time></trkpt><trkpt lat="45.2756367" lon="10.7301233"><ele>41.0</ele><time>2026-04-27T14:10:50.013Z</time></trkpt><trkpt lat="45.2755417" lon="10.73011"><ele>41.0</ele><time>2026-04-27T14:10:52.014Z</time></trkpt><trkpt lat="45.2754567" lon="10.73009"><ele>41.0</ele><time>2026-04-27T14:10:54.014Z</time></trkpt><trkpt lat="45.2753717" lon="10.7300617"><ele>41.0</ele><time>2026-04-27T14:10:56.014Z</time></trkpt><trkpt lat="45.275305" lon="10.73001"><ele>41.0</ele><time>2026-04-27T14:10:58.014Z</time></trkpt><trkpt lat="45.27521" lon="10.729985"><ele>41.0</ele><time>2026-04-27T14:11:00.013Z</time></trkpt><trkpt lat="45.27511" lon="10.7299567"><ele>41.0</ele><time>2026-04-27T14:11:02.014Z</time></trkpt><trkpt lat="45.2750083" lon="10.7299183"><ele>41.0</ele><time>2026-04-27T14:11:04.014Z</time></trkpt><trkpt lat="45.27491" lon="10.7298767"><ele>41.0</ele><time>2026-04-27T14:11:06.013Z</time></trkpt><trkpt lat="45.2748167" lon="10.72984"><ele>41.0</ele><time>2026-04-27T14:11:08.013Z</time></trkpt><trkpt lat="45.2747233" lon="10.729795"><ele>41.0</ele><time>2026-04-27T14:11:10.013Z</time></trkpt><trkpt lat="45.2746333" lon="10.72975"><ele>41.0</ele><time>2026-04-27T14:11:12.014Z</time></trkpt><trkpt lat="45.2745433" lon="10.7297083"><ele>41.199999999999996</ele><time>2026-04-27T14:11:14.014Z</time></trkpt><trkpt lat="45.27445" lon="10.729665"><ele>41.4</ele><time>2026-04-27T14:11:16.013Z</time></trkpt><trkpt lat="45.2743567" lon="10.7296283"><ele>41.6</ele><time>2026-04-27T14:11:18.013Z</time></trkpt><trkpt lat="45.27427" lon="10.7295833"><ele>41.8</ele><time>2026-04-27T14:11:20.013Z</time></trkpt><trkpt lat="45.2741833" lon="10.7295417"><ele>42.0</ele><time>2026-04-27T14:11:22.013Z</time></trkpt><trkpt lat="45.2740883" lon="10.72949"><ele>42.0</ele><time>2026-04-27T14:11:24.013Z</time></trkpt><trkpt lat="45.2739983" lon="10.7294433"><ele>42.0</ele><time>2026-04-27T14:11:26.014Z</time></trkpt><trkpt lat="45.2739067" lon="10.72939"><ele>42.0</ele><time>2026-04-27T14:11:28.013Z</time></trkpt><trkpt lat="45.273815" lon="10.729345"><ele>42.0</ele><time>2026-04-27T14:11:30.013Z</time></trkpt><trkpt lat="45.2737217" lon="10.729315"><ele>42.0</ele><time>2026-04-27T14:11:32.013Z</time></trkpt><trkpt lat="45.2736383" lon="10.7292767"><ele>42.0</ele><time>2026-04-27T14:11:34.013Z</time></trkpt><trkpt lat="45.2735583" lon="10.729225"><ele>42.0</ele><time>2026-04-27T14:11:36.013Z</time></trkpt><trkpt lat="45.2734783" lon="10.729185"><ele>42.0</ele><time>2026-04-27T14:11:38.013Z</time></trkpt><trkpt lat="45.2733933" lon="10.7291417"><ele>42.0</ele><time>2026-04-27T14:11:40.014Z</time></trkpt><trkpt lat="45.2733117" lon="10.7290933"><ele>42.0</ele><time>2026-04-27T14:11:42.014Z</time></trkpt><trkpt lat="45.2732183" lon="10.7290433"><ele>42.0</ele><time>2026-04-27T14:11:44.013Z</time></trkpt><trkpt lat="45.273125" lon="10.728995"><ele>42.0</ele><time>2026-04-27T14:11:46.013Z</time></trkpt><trkpt lat="45.27303" lon="10.7289333"><ele>42.0</ele><time>2026-04-27T14:11:48.013Z</time></trkpt><trkpt lat="45.2729333" lon="10.7288933"><ele>42.0</ele><time>2026-04-27T14:11:50.013Z</time></trkpt><trkpt lat="45.2728467" lon="10.728865"><ele>42.0</ele><time>2026-04-27T14:11:52.014Z</time></trkpt><trkpt lat="45.27277" lon="10.7288217"><ele>42.0</ele><time>2026-04-27T14:11:54.013Z</time></trkpt><trkpt lat="45.272685" lon="10.7287783"><ele>42.0</ele><time>2026-04-27T14:11:56.014Z</time></trkpt><trkpt lat="45.2725917" lon="10.7287333"><ele>42.0</ele><time>2026-04-27T14:11:58.013Z</time></trkpt><trkpt lat="45.2725017" lon="10.7286983"><ele>42.0</ele><time>2026-04-27T14:12:00.014Z</time></trkpt><trkpt lat="45.27242" lon="10.7286517"><ele>42.0</ele><time>2026-04-27T14:12:02.014Z</time></trkpt><trkpt lat="45.27233" lon="10.7286017"><ele>42.6</ele><time>2026-04-27T14:12:04.013Z</time></trkpt><trkpt lat="45.2722383" lon="10.7285683"><ele>43.2</ele><time>2026-04-27T14:12:06.012Z</time></trkpt><trkpt lat="45.2721433" lon="10.72854"><ele>43.8</ele><time>2026-04-27T14:12:08.012Z</time></trkpt><trkpt lat="45.272055" lon="10.7285033"><ele>44.4</ele><time>2026-04-27T14:12:10.013Z</time></trkpt><trkpt lat="45.2719667" lon="10.72845"><ele>45.0</ele><time>2026-04-27T14:12:12.013Z</time></trkpt><trkpt lat="45.27188" lon="10.7284083"><ele>45.0</ele><time>2026-04-27T14:12:14.013Z</time></trkpt><trkpt lat="45.2717833" lon="10.72838"><ele>45.0</ele><time>2026-04-27T14:12:16.013Z</time></trkpt><trkpt lat="45.2716883" lon="10.7283517"><ele>45.0</ele><time>2026-04-27T14:12:18.013Z</time></trkpt><trkpt lat="45.2715933" lon="10.728325"><ele>45.0</ele><time>2026-04-27T14:12:20.012Z</time></trkpt><trkpt lat="45.2714967" lon="10.7283017"><ele>45.0</ele><time>2026-04-27T14:12:22.013Z</time></trkpt><trkpt lat="45.2714" lon="10.7282767"><ele>45.166666666666664</ele><time>2026-04-27T14:12:24.012Z</time></trkpt><trkpt lat="45.27131" lon="10.72826"><ele>45.333333333333336</ele><time>2026-04-27T14:12:26.012Z</time></trkpt><trkpt lat="45.27122" lon="10.7282383"><ele>45.5</ele><time>2026-04-27T14:12:28.013Z</time></trkpt><trkpt lat="45.2711333" lon="10.7282317"><ele>45.66666666666667</ele><time>2026-04-27T14:12:30.012Z</time></trkpt><trkpt lat="45.27106" lon="10.72822"><ele>45.833333333333336</ele><time>2026-04-27T14:12:32.013Z</time></trkpt><trkpt lat="45.270975" lon="10.7282017"><ele>46.0</ele><time>2026-04-27T14:12:34.012Z</time></trkpt><trkpt lat="45.2708783" lon="10.72818"><ele>46.0</ele><time>2026-04-27T14:12:36.012Z</time></trkpt><trkpt lat="45.2707833" lon="10.72816"><ele>46.0</ele><time>2026-04-27T14:12:38.013Z</time></trkpt><trkpt lat="45.2706883" lon="10.7281467"><ele>46.0</ele><time>2026-04-27T14:12:40.013Z</time></trkpt><trkpt lat="45.2705917" lon="10.72813"><ele>46.0</ele><time>2026-04-27T14:12:42.012Z</time></trkpt><trkpt lat="45.2704967" lon="10.7281167"><ele>46.0</ele><time>2026-04-27T14:12:44.012Z</time></trkpt><trkpt lat="45.2704067" lon="10.72811"><ele>45.599999999999994</ele><time>2026-04-27T14:12:46.012Z</time></trkpt><trkpt lat="45.270325" lon="10.7281117"><ele>45.2</ele><time>2026-04-27T14:12:48.012Z</time></trkpt><trkpt lat="45.2702283" lon="10.7281033"><ele>44.8</ele><time>2026-04-27T14:12:50.013Z</time></trkpt><trkpt lat="45.2701367" lon="10.7280633"><ele>44.400000000000006</ele><time>2026-04-27T14:12:52.013Z</time></trkpt><trkpt lat="45.2700433" lon="10.72806"><ele>44.0</ele><time>2026-04-27T14:12:54.013Z</time></trkpt><trkpt lat="45.269945" lon="10.7280717"><ele>44.0</ele><time>2026-04-27T14:12:56.012Z</time></trkpt><trkpt lat="45.2698533" lon="10.7280733"><ele>44.0</ele><time>2026-04-27T14:12:58.012Z</time></trkpt><trkpt lat="45.26977" lon="10.7280733"><ele>44.0</ele><time>2026-04-27T14:13:00.012Z</time></trkpt><trkpt lat="45.2696683" lon="10.7280783"><ele>44.0</ele><time>2026-04-27T14:13:02.013Z</time></trkpt><trkpt lat="45.269565" lon="10.728095"><ele>44.0</ele><time>2026-04-27T14:13:04.012Z</time></trkpt><trkpt lat="45.2694683" lon="10.728105"><ele>43.400000000000006</ele><time>2026-04-27T14:13:06.013Z</time></trkpt><trkpt lat="45.2693683" lon="10.7281133"><ele>42.8</ele><time>2026-04-27T14:13:08.013Z</time></trkpt><trkpt lat="45.26927" lon="10.728125"><ele>42.2</ele><time>2026-04-27T14:13:10.012Z</time></trkpt><trkpt lat="45.2691683" lon="10.7281483"><ele>41.599999999999994</ele><time>2026-04-27T14:13:12.012Z</time></trkpt><trkpt lat="45.2690583" lon="10.7281767"><ele>41.0</ele><time>2026-04-27T14:13:14.012Z</time></trkpt><trkpt lat="45.268955" lon="10.7281933"><ele>40.8</ele><time>2026-04-27T14:13:16.012Z</time></trkpt><trkpt lat="45.26886" lon="10.72822"><ele>40.599999999999994</ele><time>2026-04-27T14:13:18.012Z</time></trkpt><trkpt lat="45.2687683" lon="10.7282267"><ele>40.4</ele><time>2026-04-27T14:13:20.013Z</time></trkpt><trkpt lat="45.2686783" lon="10.7282267"><ele>40.2</ele><time>2026-04-27T14:13:22.013Z</time></trkpt><trkpt lat="45.2685867" lon="10.7282367"><ele>40.0</ele><time>2026-04-27T14:13:24.013Z</time></trkpt><trkpt lat="45.2684917" lon="10.7282483"><ele>40.0</ele><time>2026-04-27T14:13:26.012Z</time></trkpt><trkpt lat="45.2683967" lon="10.7282683"><ele>40.0</ele><time>2026-04-27T14:13:28.013Z</time></trkpt><trkpt lat="45.2682817" lon="10.7283167"><ele>40.0</ele><time>2026-04-27T14:13:30.013Z</time></trkpt><trkpt lat="45.268175" lon="10.7283467"><ele>40.0</ele><time>2026-04-27T14:13:32.013Z</time></trkpt><trkpt lat="45.26807" lon="10.7283833"><ele>40.0</ele><time>2026-04-27T14:13:34.013Z</time></trkpt><trkpt lat="45.2679717" lon="10.7284183"><ele>40.66666666666667</ele><time>2026-04-27T14:13:36.012Z</time></trkpt><trkpt lat="45.2678767" lon="10.7284433"><ele>41.333333333333336</ele><time>2026-04-27T14:13:38.013Z</time></trkpt><trkpt lat="45.2678" lon="10.7284667"><ele>42.0</ele><time>2026-04-27T14:13:40.012Z</time></trkpt><trkpt lat="45.267725" lon="10.7284833"><ele>42.666666666666664</ele><time>2026-04-27T14:13:42.013Z</time></trkpt><trkpt lat="45.26764" lon="10.72848"><ele>43.33333333333333</ele><time>2026-04-27T14:13:44.012Z</time></trkpt><trkpt lat="45.26755" lon="10.7284967"><ele>44.0</ele><time>2026-04-27T14:13:46.012Z</time></trkpt><trkpt lat="45.267465" lon="10.7285233"><ele>44.0</ele><time>2026-04-27T14:13:48.013Z</time></trkpt><trkpt lat="45.2673667" lon="10.72854"><ele>44.0</ele><time>2026-04-27T14:13:50.012Z</time></trkpt><trkpt lat="45.2672517" lon="10.7285333"><ele>44.0</ele><time>2026-04-27T14:13:52.012Z</time></trkpt><trkpt lat="45.26714" lon="10.72855"><ele>44.0</ele><time>2026-04-27T14:13:54.013Z</time></trkpt><trkpt lat="45.267045" lon="10.72857"><ele>44.0</ele><time>2026-04-27T14:13:56.013Z</time></trkpt><trkpt lat="45.2669633" lon="10.7285933"><ele>43.166666666666664</ele><time>2026-04-27T14:13:58.012Z</time></trkpt><trkpt lat="45.26689" lon="10.7286233"><ele>42.33333333333333</ele><time>2026-04-27T14:14:00.012Z</time></trkpt><trkpt lat="45.2668067" lon="10.7286533"><ele>41.5</ele><time>2026-04-27T14:14:02.012Z</time></trkpt><trkpt lat="45.26671" lon="10.728675"><ele>40.666666666666664</ele><time>2026-04-27T14:14:04.012Z</time></trkpt><trkpt lat="45.2666267" lon="10.7287017"><ele>39.833333333333336</ele><time>2026-04-27T14:14:06.012Z</time></trkpt><trkpt lat="45.2665467" lon="10.7287217"><ele>39.0</ele><time>2026-04-27T14:14:08.012Z</time></trkpt><trkpt lat="45.2664617" lon="10.7287433"><ele>39.333333333333336</ele><time>2026-04-27T14:14:10.012Z</time></trkpt><trkpt lat="45.2663717" lon="10.7287633"><ele>39.666666666666664</ele><time>2026-04-27T14:14:12.013Z</time></trkpt><trkpt lat="45.2662867" lon="10.7287833"><ele>40.0</ele><time>2026-04-27T14:14:14.012Z</time></trkpt><trkpt lat="45.2662067" lon="10.7287983"><ele>40.33333333333333</ele><time>2026-04-27T14:14:16.013Z</time></trkpt><trkpt lat="45.26613" lon="10.7288167"><ele>40.666666666666664</ele><time>2026-04-27T14:14:18.012Z</time></trkpt><trkpt lat="45.2660483" lon="10.7288333"><ele>41.0</ele><time>2026-04-27T14:14:20.013Z</time></trkpt><trkpt lat="45.26597" lon="10.728845"><ele>41.0</ele><time>2026-04-27T14:14:22.012Z</time></trkpt><trkpt lat="45.26589" lon="10.7288617"><ele>41.0</ele><time>2026-04-27T14:14:24.013Z</time></trkpt><trkpt lat="45.2658133" lon="10.7288833"><ele>41.0</ele><time>2026-04-27T14:14:26.012Z</time></trkpt><trkpt lat="45.2657367" lon="10.7289033"><ele>41.0</ele><time>2026-04-27T14:14:28.013Z</time></trkpt><trkpt lat="45.265665" lon="10.7289167"><ele>41.0</ele><time>2026-04-27T14:14:30.012Z</time></trkpt><trkpt lat="45.2655917" lon="10.7289333"><ele>41.0</ele><time>2026-04-27T14:14:32.013Z</time></trkpt><trkpt lat="45.2655217" lon="10.7289517"><ele>41.5</ele><time>2026-04-27T14:14:34.013Z</time></trkpt><trkpt lat="45.2654483" lon="10.7289717"><ele>42.0</ele><time>2026-04-27T14:14:36.013Z</time></trkpt><trkpt lat="45.2653667" lon="10.72899"><ele>42.5</ele><time>2026-04-27T14:14:38.012Z</time></trkpt><trkpt lat="45.2652783" lon="10.7290167"><ele>43.0</ele><time>2026-04-27T14:14:40.012Z</time></trkpt><trkpt lat="45.26519" lon="10.7290483"><ele>43.5</ele><time>2026-04-27T14:14:42.013Z</time></trkpt><trkpt lat="45.265095" lon="10.7290717"><ele>44.0</ele><time>2026-04-27T14:14:44.013Z</time></trkpt><trkpt lat="45.2649983" lon="10.7290883"><ele>44.0</ele><time>2026-04-27T14:14:46.012Z</time></trkpt><trkpt lat="45.2649133" lon="10.7290983"><ele>44.0</ele><time>2026-04-27T14:14:48.012Z</time></trkpt><trkpt lat="45.2648217" lon="10.72912"><ele>44.0</ele><time>2026-04-27T14:14:50.012Z</time></trkpt><trkpt lat="45.2647333" lon="10.7291433"><ele>44.0</ele><time>2026-04-27T14:14:52.013Z</time></trkpt><trkpt lat="45.2646433" lon="10.7291583"><ele>44.0</ele><time>2026-04-27T14:14:54.012Z</time></trkpt><trkpt lat="45.2645533" lon="10.729185"><ele>44.0</ele><time>2026-04-27T14:14:56.013Z</time></trkpt><trkpt lat="45.264465" lon="10.7292067"><ele>44.0</ele><time>2026-04-27T14:14:58.013Z</time></trkpt><trkpt lat="45.2643667" lon="10.7292267"><ele>44.0</ele><time>2026-04-27T14:15:00.012Z</time></trkpt><trkpt lat="45.264275" lon="10.729245"><ele>44.0</ele><time>2026-04-27T14:15:02.012Z</time></trkpt><trkpt lat="45.2641817" lon="10.7292583"><ele>44.0</ele><time>2026-04-27T14:15:04.012Z</time></trkpt><trkpt lat="45.2640917" lon="10.72928"><ele>44.0</ele><time>2026-04-27T14:15:06.013Z</time></trkpt><trkpt lat="45.2640067" lon="10.7292933"><ele>44.0</ele><time>2026-04-27T14:15:08.012Z</time></trkpt><trkpt lat="45.263925" lon="10.7293083"><ele>44.0</ele><time>2026-04-27T14:15:10.013Z</time></trkpt><trkpt lat="45.2638317" lon="10.72934"><ele>44.0</ele><time>2026-04-27T14:15:12.013Z</time></trkpt><trkpt lat="45.263735" lon="10.7293733"><ele>44.0</ele><time>2026-04-27T14:15:14.013Z</time></trkpt><trkpt lat="45.26364" lon="10.729395"><ele>43.400000000000006</ele><time>2026-04-27T14:15:16.013Z</time></trkpt><trkpt lat="45.2635433" lon="10.7294183"><ele>42.8</ele><time>2026-04-27T14:15:18.013Z</time></trkpt><trkpt lat="45.263455" lon="10.72944"><ele>42.2</ele><time>2026-04-27T14:15:20.013Z</time></trkpt><trkpt lat="45.2633633" lon="10.729465"><ele>41.599999999999994</ele><time>2026-04-27T14:15:22.012Z</time></trkpt><trkpt lat="45.26327" lon="10.72948"><ele>41.0</ele><time>2026-04-27T14:15:24.013Z</time></trkpt><trkpt lat="45.2631783" lon="10.72951"><ele>40.8</ele><time>2026-04-27T14:15:26.013Z</time></trkpt><trkpt lat="45.26308" lon="10.7295233"><ele>40.599999999999994</ele><time>2026-04-27T14:15:28.012Z</time></trkpt><trkpt lat="45.2629917" lon="10.72954"><ele>40.4</ele><time>2026-04-27T14:15:30.012Z</time></trkpt><trkpt lat="45.262905" lon="10.72956"><ele>40.2</ele><time>2026-04-27T14:15:32.013Z</time></trkpt><trkpt lat="45.2628067" lon="10.7295817"><ele>40.0</ele><time>2026-04-27T14:15:34.012Z</time></trkpt><trkpt lat="45.2627067" lon="10.7296083"><ele>40.0</ele><time>2026-04-27T14:15:36.013Z</time></trkpt><trkpt lat="45.262615" lon="10.729635"><ele>40.0</ele><time>2026-04-27T14:15:38.012Z</time></trkpt><trkpt lat="45.2625283" lon="10.729645"><ele>40.0</ele><time>2026-04-27T14:15:40.012Z</time></trkpt><trkpt lat="45.2624333" lon="10.7296617"><ele>40.0</ele><time>2026-04-27T14:15:42.012Z</time></trkpt><trkpt lat="45.2623367" lon="10.7296833"><ele>40.0</ele><time>2026-04-27T14:15:44.012Z</time></trkpt><trkpt lat="45.2622467" lon="10.729705"><ele>39.8</ele><time>2026-04-27T14:15:46.013Z</time></trkpt><trkpt lat="45.2621567" lon="10.7297183"><ele>39.6</ele><time>2026-04-27T14:15:48.013Z</time></trkpt><trkpt lat="45.2620633" lon="10.7297233"><ele>39.4</ele><time>2026-04-27T14:15:50.012Z</time></trkpt><trkpt lat="45.2619633" lon="10.7297417"><ele>39.2</ele><time>2026-04-27T14:15:52.012Z</time></trkpt><trkpt lat="45.2618617" lon="10.7297633"><ele>39.0</ele><time>2026-04-27T14:15:54.012Z</time></trkpt><trkpt lat="45.2617683" lon="10.7297767"><ele>39.0</ele><time>2026-04-27T14:15:56.012Z</time></trkpt><trkpt lat="45.2616817" lon="10.7298017"><ele>39.0</ele><time>2026-04-27T14:15:58.012Z</time></trkpt><trkpt lat="45.2615967" lon="10.729815"><ele>39.0</ele><time>2026-04-27T14:16:00.013Z</time></trkpt><trkpt lat="45.2615083" lon="10.72985"><ele>39.0</ele><time>2026-04-27T14:16:02.012Z</time></trkpt><trkpt lat="45.2614117" lon="10.7298833"><ele>39.0</ele><time>2026-04-27T14:16:04.013Z</time></trkpt><trkpt lat="45.2613133" lon="10.7299117"><ele>39.2</ele><time>2026-04-27T14:16:06.012Z</time></trkpt><trkpt lat="45.261215" lon="10.72994"><ele>39.4</ele><time>2026-04-27T14:16:08.012Z</time></trkpt><trkpt lat="45.2611167" lon="10.7299583"><ele>39.6</ele><time>2026-04-27T14:16:10.012Z</time></trkpt><trkpt lat="45.2610167" lon="10.7299867"><ele>39.8</ele><time>2026-04-27T14:16:12.012Z</time></trkpt><trkpt lat="45.26092" lon="10.7300067"><ele>40.0</ele><time>2026-04-27T14:16:14.012Z</time></trkpt><trkpt lat="45.2608267" lon="10.7300283"><ele>40.0</ele><time>2026-04-27T14:16:16.012Z</time></trkpt><trkpt lat="45.2607317" lon="10.730045"><ele>40.0</ele><time>2026-04-27T14:16:18.012Z</time></trkpt><trkpt lat="45.2606383" lon="10.73006"><ele>40.0</ele><time>2026-04-27T14:16:20.013Z</time></trkpt><trkpt lat="45.2605367" lon="10.7300833"><ele>40.0</ele><time>2026-04-27T14:16:22.013Z</time></trkpt><trkpt lat="45.260435" lon="10.7301183"><ele>40.0</ele><time>2026-04-27T14:16:24.013Z</time></trkpt><trkpt lat="45.260335" lon="10.7301433"><ele>40.0</ele><time>2026-04-27T14:16:26.012Z</time></trkpt><trkpt lat="45.260245" lon="10.7301683"><ele>40.0</ele><time>2026-04-27T14:16:28.012Z</time></trkpt><trkpt lat="45.2601583" lon="10.73019"><ele>40.0</ele><time>2026-04-27T14:16:30.012Z</time></trkpt><trkpt lat="45.260065" lon="10.7301983"><ele>40.0</ele><time>2026-04-27T14:16:32.011Z</time></trkpt><trkpt lat="45.2599717" lon="10.73022"><ele>40.0</ele><time>2026-04-27T14:16:34.011Z</time></trkpt><trkpt lat="45.25989" lon="10.7302283"><ele>40.4</ele><time>2026-04-27T14:16:36.011Z</time></trkpt><trkpt lat="45.259805" lon="10.7302317"><ele>40.8</ele><time>2026-04-27T14:16:38.011Z</time></trkpt><trkpt lat="45.2597217" lon="10.7302317"><ele>41.2</ele><time>2026-04-27T14:16:40.012Z</time></trkpt><trkpt lat="45.259635" lon="10.7302533"><ele>41.6</ele><time>2026-04-27T14:16:42.011Z</time></trkpt><trkpt lat="45.25954" lon="10.7302867"><ele>42.0</ele><time>2026-04-27T14:16:44.011Z</time></trkpt><trkpt lat="45.25944" lon="10.73034"><ele>42.0</ele><time>2026-04-27T14:16:46.011Z</time></trkpt><trkpt lat="45.2593367" lon="10.7304067"><ele>42.0</ele><time>2026-04-27T14:16:48.011Z</time></trkpt><trkpt lat="45.2592383" lon="10.73048"><ele>42.0</ele><time>2026-04-27T14:16:50.011Z</time></trkpt><trkpt lat="45.25916" lon="10.73056"><ele>42.0</ele><time>2026-04-27T14:16:52.011Z</time></trkpt><trkpt lat="45.2590933" lon="10.73065"><ele>42.0</ele><time>2026-04-27T14:16:54.012Z</time></trkpt><trkpt lat="45.2590333" lon="10.7307533"><ele>42.0</ele><time>2026-04-27T14:16:56.012Z</time></trkpt><trkpt lat="45.2589783" lon="10.73085"><ele>42.0</ele><time>2026-04-27T14:16:58.011Z</time></trkpt><trkpt lat="45.2589217" lon="10.7309567"><ele>42.0</ele><time>2026-04-27T14:17:00.012Z</time></trkpt><trkpt lat="45.258875" lon="10.7310667"><ele>42.0</ele><time>2026-04-27T14:17:02.012Z</time></trkpt><trkpt lat="45.2588317" lon="10.73119"><ele>42.0</ele><time>2026-04-27T14:17:04.012Z</time></trkpt><trkpt lat="45.2587867" lon="10.7313317"><ele>41.8</ele><time>2026-04-27T14:17:06.012Z</time></trkpt><trkpt lat="45.25875" lon="10.731445"><ele>41.6</ele><time>2026-04-27T14:17:08.012Z</time></trkpt><trkpt lat="45.2586917" lon="10.73156"><ele>41.4</ele><time>2026-04-27T14:17:10.011Z</time></trkpt><trkpt lat="45.2586567" lon="10.7316567"><ele>41.199999999999996</ele><time>2026-04-27T14:17:12.011Z</time></trkpt><trkpt lat="45.2585883" lon="10.7317633"><ele>41.0</ele><time>2026-04-27T14:17:14.012Z</time></trkpt><trkpt lat="45.2585217" lon="10.7318917"><ele>41.0</ele><time>2026-04-27T14:17:16.012Z</time></trkpt><trkpt lat="45.25845" lon="10.732035"><ele>41.0</ele><time>2026-04-27T14:17:18.011Z</time></trkpt><trkpt lat="45.2584133" lon="10.732115"><ele>41.0</ele><time>2026-04-27T14:17:19.011Z</time></trkpt><trkpt lat="45.2583783" lon="10.732195"><ele>41.0</ele><time>2026-04-27T14:17:20.012Z</time></trkpt><trkpt lat="45.2583333" lon="10.7322667"><ele>41.0</ele><time>2026-04-27T14:17:21.012Z</time></trkpt><trkpt lat="45.2582633" lon="10.7324083"><ele>41.0</ele><time>2026-04-27T14:17:23.011Z</time></trkpt><trkpt lat="45.2581933" lon="10.7325317"><ele>41.0</ele><time>2026-04-27T14:17:25.012Z</time></trkpt><trkpt lat="45.2581333" lon="10.7326483"><ele>41.0</ele><time>2026-04-27T14:17:27.011Z</time></trkpt><trkpt lat="45.2580667" lon="10.7327467"><ele>41.0</ele><time>2026-04-27T14:17:29.011Z</time></trkpt><trkpt lat="45.2579917" lon="10.7328283"><ele>41.0</ele><time>2026-04-27T14:17:31.012Z</time></trkpt><trkpt lat="45.2579167" lon="10.7328917"><ele>41.0</ele><time>2026-04-27T14:17:33.011Z</time></trkpt><trkpt lat="45.2578383" lon="10.7329533"><ele>40.83333333333333</ele><time>2026-04-27T14:17:35.012Z</time></trkpt><trkpt lat="45.25776" lon="10.7330033"><ele>40.666666666666664</ele><time>2026-04-27T14:17:37.011Z</time></trkpt><trkpt lat="45.25768" lon="10.733045"><ele>40.5</ele><time>2026-04-27T14:17:39.011Z</time></trkpt><trkpt lat="45.2575967" lon="10.7330867"><ele>40.333333333333336</ele><time>2026-04-27T14:17:41.012Z</time></trkpt><trkpt lat="45.2575133" lon="10.7331167"><ele>40.16666666666667</ele><time>2026-04-27T14:17:43.012Z</time></trkpt><trkpt lat="45.25742" lon="10.7331283"><ele>40.0</ele><time>2026-04-27T14:17:45.012Z</time></trkpt><trkpt lat="45.2573333" lon="10.73316"><ele>40.0</ele><time>2026-04-27T14:17:47.012Z</time></trkpt><trkpt lat="45.2572467" lon="10.7331817"><ele>40.0</ele><time>2026-04-27T14:17:49.012Z</time></trkpt><trkpt lat="45.25716" lon="10.7332033"><ele>40.0</ele><time>2026-04-27T14:17:51.011Z</time></trkpt><trkpt lat="45.2570733" lon="10.7332183"><ele>40.0</ele><time>2026-04-27T14:17:53.012Z</time></trkpt><trkpt lat="45.2569817" lon="10.7332333"><ele>40.0</ele><time>2026-04-27T14:17:55.011Z</time></trkpt><trkpt lat="45.2568967" lon="10.7332333"><ele>40.0</ele><time>2026-04-27T14:17:57.011Z</time></trkpt><trkpt lat="45.25681" lon="10.7332383"><ele>40.0</ele><time>2026-04-27T14:17:59.012Z</time></trkpt><trkpt lat="45.2567267" lon="10.73323"><ele>40.0</ele><time>2026-04-27T14:18:01.011Z</time></trkpt><trkpt lat="45.2566317" lon="10.7332233"><ele>40.0</ele><time>2026-04-27T14:18:03.012Z</time></trkpt><trkpt lat="45.2565333" lon="10.7332083"><ele>40.0</ele><time>2026-04-27T14:18:05.011Z</time></trkpt><trkpt lat="45.2563833" lon="10.733175"><ele>40.0</ele><time>2026-04-27T14:18:08.012Z</time></trkpt><trkpt lat="45.2562917" lon="10.7331367"><ele>39.833333333333336</ele><time>2026-04-27T14:18:10.012Z</time></trkpt><trkpt lat="45.256195" lon="10.733095"><ele>39.66666666666667</ele><time>2026-04-27T14:18:12.011Z</time></trkpt><trkpt lat="45.2561117" lon="10.7330383"><ele>39.5</ele><time>2026-04-27T14:18:14.012Z</time></trkpt><trkpt lat="45.256035" lon="10.73299"><ele>39.333333333333336</ele><time>2026-04-27T14:18:16.012Z</time></trkpt><trkpt lat="45.25596" lon="10.7329583"><ele>39.166666666666664</ele><time>2026-04-27T14:18:18.012Z</time></trkpt><trkpt lat="45.2558967" lon="10.7329217"><ele>39.0</ele><time>2026-04-27T14:18:20.012Z</time></trkpt><trkpt lat="45.2558083" lon="10.7328883"><ele>39.0</ele><time>2026-04-27T14:18:22.012Z</time></trkpt><trkpt lat="45.255735" lon="10.7328583"><ele>39.0</ele><time>2026-04-27T14:18:24.012Z</time></trkpt><trkpt lat="45.2556517" lon="10.732825"><ele>39.0</ele><time>2026-04-27T14:18:26.012Z</time></trkpt><trkpt lat="45.255555" lon="10.73279"><ele>39.0</ele><time>2026-04-27T14:18:28.011Z</time></trkpt><trkpt lat="45.255465" lon="10.7327567"><ele>39.0</ele><time>2026-04-27T14:18:30.011Z</time></trkpt><trkpt lat="45.2553967" lon="10.73274"><ele>39.0</ele><time>2026-04-27T14:18:31.011Z</time></trkpt><trkpt lat="45.25529" lon="10.7327283"><ele>38.666666666666664</ele><time>2026-04-27T14:18:33.012Z</time></trkpt><trkpt lat="45.2551867" lon="10.7327383"><ele>38.333333333333336</ele><time>2026-04-27T14:18:35.011Z</time></trkpt><trkpt lat="45.255095" lon="10.732755"><ele>38.0</ele><time>2026-04-27T14:18:37.011Z</time></trkpt><trkpt lat="45.2550083" lon="10.73278"><ele>37.66666666666667</ele><time>2026-04-27T14:18:39.011Z</time></trkpt><trkpt lat="45.2549283" lon="10.7327883"><ele>37.333333333333336</ele><time>2026-04-27T14:18:41.012Z</time></trkpt><trkpt lat="45.25486" lon="10.7327917"><ele>37.0</ele><time>2026-04-27T14:18:43.012Z</time></trkpt><trkpt lat="45.2547917" lon="10.73279"><ele>36.66666666666667</ele><time>2026-04-27T14:18:45.011Z</time></trkpt><trkpt lat="45.254785" lon="10.73268"><ele>36.333333333333336</ele><time>2026-04-27T14:18:49.012Z</time></trkpt><trkpt lat="45.2547833" lon="10.7325517"><ele>36.0</ele><time>2026-04-27T14:18:52.011Z</time></trkpt><trkpt lat="45.254765" lon="10.7324433"><ele>35.666666666666664</ele><time>2026-04-27T14:18:54.011Z</time></trkpt><trkpt lat="45.254705" lon="10.7323417"><ele>35.33333333333333</ele><time>2026-04-27T14:18:56.011Z</time></trkpt><trkpt lat="45.254615" lon="10.7322683"><ele>35.0</ele><time>2026-04-27T14:18:58.012Z</time></trkpt><trkpt lat="45.2544933" lon="10.732265"><ele>35.0</ele><time>2026-04-27T14:19:00.011Z</time></trkpt><trkpt lat="45.2543817" lon="10.7322533"><ele>35.0</ele><time>2026-04-27T14:19:02.012Z</time></trkpt><trkpt lat="45.2542817" lon="10.7321933"><ele>35.0</ele><time>2026-04-27T14:19:04.012Z</time></trkpt><trkpt lat="45.2541883" lon="10.7321217"><ele>35.0</ele><time>2026-04-27T14:19:06.011Z</time></trkpt><trkpt lat="45.2540867" lon="10.7320633"><ele>35.0</ele><time>2026-04-27T14:19:08.012Z</time></trkpt><trkpt lat="45.253995" lon="10.732005"><ele>35.0</ele><time>2026-04-27T14:19:10.011Z</time></trkpt><trkpt lat="45.25391" lon="10.7319567"><ele>35.0</ele><time>2026-04-27T14:19:12.011Z</time></trkpt><trkpt lat="45.253825" lon="10.7319067"><ele>35.0</ele><time>2026-04-27T14:19:14.011Z</time></trkpt><trkpt lat="45.2537367" lon="10.731885"><ele>35.0</ele><time>2026-04-27T14:19:16.012Z</time></trkpt><trkpt lat="45.2536333" lon="10.7318767"><ele>35.0</ele><time>2026-04-27T14:19:18.011Z</time></trkpt><trkpt lat="45.2535183" lon="10.7318717"><ele>34.5</ele><time>2026-04-27T14:19:20.011Z</time></trkpt><trkpt lat="45.253395" lon="10.7318567"><ele>34.0</ele><time>2026-04-27T14:19:22.012Z</time></trkpt><trkpt lat="45.2532717" lon="10.73182"><ele>33.5</ele><time>2026-04-27T14:19:24.012Z</time></trkpt><trkpt lat="45.25316" lon="10.73176"><ele>33.0</ele><time>2026-04-27T14:19:26.011Z</time></trkpt><trkpt lat="45.25305" lon="10.7316967"><ele>33.0</ele><time>2026-04-27T14:19:28.011Z</time></trkpt><trkpt lat="45.2529467" lon="10.7316167"><ele>33.0</ele><time>2026-04-27T14:19:30.012Z</time></trkpt><trkpt lat="45.25284" lon="10.7315517"><ele>33.0</ele><time>2026-04-27T14:19:32.011Z</time></trkpt><trkpt lat="45.2527383" lon="10.731485"><ele>33.0</ele><time>2026-04-27T14:19:34.011Z</time></trkpt><trkpt lat="45.252645" lon="10.73142"><ele>33.0</ele><time>2026-04-27T14:19:36.011Z</time></trkpt><trkpt lat="45.2525533" lon="10.7313467"><ele>33.0</ele><time>2026-04-27T14:19:38.012Z</time></trkpt><trkpt lat="45.2524467" lon="10.73129"><ele>33.0</ele><time>2026-04-27T14:19:40.011Z</time></trkpt><trkpt lat="45.2523367" lon="10.731245"><ele>33.0</ele><time>2026-04-27T14:19:42.012Z</time></trkpt><trkpt lat="45.25224" lon="10.7311783"><ele>33.0</ele><time>2026-04-27T14:19:44.011Z</time></trkpt><trkpt lat="45.2521483" lon="10.7311117"><ele>33.0</ele><time>2026-04-27T14:19:46.012Z</time></trkpt><trkpt lat="45.25204" lon="10.7310617"><ele>33.0</ele><time>2026-04-27T14:19:48.011Z</time></trkpt><trkpt lat="45.2519267" lon="10.7310283"><ele>33.0</ele><time>2026-04-27T14:19:50.012Z</time></trkpt><trkpt lat="45.2518217" lon="10.7309833"><ele>33.0</ele><time>2026-04-27T14:19:52.011Z</time></trkpt><trkpt lat="45.251715" lon="10.730945"><ele>33.0</ele><time>2026-04-27T14:19:54.012Z</time></trkpt><trkpt lat="45.2516083" lon="10.73091"><ele>33.0</ele><time>2026-04-27T14:19:56.011Z</time></trkpt><trkpt lat="45.2515" lon="10.73088"><ele>33.0</ele><time>2026-04-27T14:19:58.011Z</time></trkpt><trkpt lat="45.2513917" lon="10.7308533"><ele>33.0</ele><time>2026-04-27T14:20:00.011Z</time></trkpt><trkpt lat="45.2512883" lon="10.73082"><ele>33.0</ele><time>2026-04-27T14:20:02.011Z</time></trkpt><trkpt lat="45.2511867" lon="10.7307917"><ele>33.0</ele><time>2026-04-27T14:20:04.011Z</time></trkpt><trkpt lat="45.25108" lon="10.7307667"><ele>33.0</ele><time>2026-04-27T14:20:06.012Z</time></trkpt><trkpt lat="45.250975" lon="10.7307483"><ele>33.0</ele><time>2026-04-27T14:20:08.012Z</time></trkpt><trkpt lat="45.2508717" lon="10.73072"><ele>33.0</ele><time>2026-04-27T14:20:10.012Z</time></trkpt><trkpt lat="45.2507767" lon="10.7306867"><ele>33.0</ele><time>2026-04-27T14:20:12.011Z</time></trkpt><trkpt lat="45.2506633" lon="10.73068"><ele>33.0</ele><time>2026-04-27T14:20:14.011Z</time></trkpt><trkpt lat="45.25056" lon="10.7306483"><ele>33.0</ele><time>2026-04-27T14:20:16.012Z</time></trkpt><trkpt lat="45.2504583" lon="10.7306233"><ele>33.0</ele><time>2026-04-27T14:20:18.012Z</time></trkpt><trkpt lat="45.2503533" lon="10.7306167"><ele>33.0</ele><time>2026-04-27T14:20:20.012Z</time></trkpt><trkpt lat="45.2502583" lon="10.73061"><ele>33.0</ele><time>2026-04-27T14:20:22.011Z</time></trkpt><trkpt lat="45.25016" lon="10.73063"><ele>33.0</ele><time>2026-04-27T14:20:24.011Z</time></trkpt><trkpt lat="45.2500633" lon="10.7306267"><ele>33.0</ele><time>2026-04-27T14:20:26.011Z</time></trkpt><trkpt lat="45.2499717" lon="10.73062"><ele>33.0</ele><time>2026-04-27T14:20:28.012Z</time></trkpt><trkpt lat="45.2498833" lon="10.7306183"><ele>33.0</ele><time>2026-04-27T14:20:30.011Z</time></trkpt><trkpt lat="45.2498033" lon="10.73062"><ele>33.0</ele><time>2026-04-27T14:20:32.012Z</time></trkpt><trkpt lat="45.2497233" lon="10.7306167"><ele>33.0</ele><time>2026-04-27T14:20:34.012Z</time></trkpt><trkpt lat="45.2496483" lon="10.7306067"><ele>33.0</ele><time>2026-04-27T14:20:36.011Z</time></trkpt><trkpt lat="45.249565" lon="10.730585"><ele>33.0</ele><time>2026-04-27T14:20:38.011Z</time></trkpt><trkpt lat="45.2494683" lon="10.7305567"><ele>33.0</ele><time>2026-04-27T14:20:40.011Z</time></trkpt><trkpt lat="45.2493617" lon="10.7305283"><ele>33.0</ele><time>2026-04-27T14:20:42.012Z</time></trkpt><trkpt lat="45.2492483" lon="10.7304983"><ele>33.0</ele><time>2026-04-27T14:20:44.012Z</time></trkpt><trkpt lat="45.2491333" lon="10.7304667"><ele>33.0</ele><time>2026-04-27T14:20:46.012Z</time></trkpt><trkpt lat="45.2490133" lon="10.73044"><ele>32.6</ele><time>2026-04-27T14:20:48.011Z</time></trkpt><trkpt lat="45.2488983" lon="10.7304033"><ele>32.199999999999996</ele><time>2026-04-27T14:20:50.012Z</time></trkpt><trkpt lat="45.248795" lon="10.730375"><ele>31.8</ele><time>2026-04-27T14:20:52.012Z</time></trkpt><trkpt lat="45.2486917" lon="10.73035"><ele>31.4</ele><time>2026-04-27T14:20:54.012Z</time></trkpt><trkpt lat="45.2485867" lon="10.7303417"><ele>31.0</ele><time>2026-04-27T14:20:56.011Z</time></trkpt><trkpt lat="45.24848" lon="10.7303333"><ele>31.0</ele><time>2026-04-27T14:20:58.012Z</time></trkpt><trkpt lat="45.24838" lon="10.7303217"><ele>31.0</ele><time>2026-04-27T14:21:00.011Z</time></trkpt><trkpt lat="45.24828" lon="10.7303083"><ele>31.0</ele><time>2026-04-27T14:21:02.01Z</time></trkpt><trkpt lat="45.248185" lon="10.7302967"><ele>31.0</ele><time>2026-04-27T14:21:04.011Z</time></trkpt><trkpt lat="45.24809" lon="10.73029"><ele>31.0</ele><time>2026-04-27T14:21:06.01Z</time></trkpt><trkpt lat="45.2479967" lon="10.7302733"><ele>31.200000000000003</ele><time>2026-04-27T14:21:08.01Z</time></trkpt><trkpt lat="45.2479033" lon="10.730255"><ele>31.400000000000002</ele><time>2026-04-27T14:21:10.01Z</time></trkpt><trkpt lat="45.2478067" lon="10.73024"><ele>31.6</ele><time>2026-04-27T14:21:12.01Z</time></trkpt><trkpt lat="45.2477117" lon="10.7302217"><ele>31.8</ele><time>2026-04-27T14:21:14.01Z</time></trkpt><trkpt lat="45.2476133" lon="10.7302067"><ele>32.0</ele><time>2026-04-27T14:21:16.011Z</time></trkpt><trkpt lat="45.24752" lon="10.73018"><ele>32.0</ele><time>2026-04-27T14:21:18.01Z</time></trkpt><trkpt lat="45.2474183" lon="10.7301667"><ele>32.0</ele><time>2026-04-27T14:21:20.01Z</time></trkpt><trkpt lat="45.2473283" lon="10.7301533"><ele>32.0</ele><time>2026-04-27T14:21:22.011Z</time></trkpt><trkpt lat="45.2472317" lon="10.7301433"><ele>32.0</ele><time>2026-04-27T14:21:24.01Z</time></trkpt><trkpt lat="45.2471317" lon="10.7301317"><ele>32.0</ele><time>2026-04-27T14:21:26.01Z</time></trkpt><trkpt lat="45.24703" lon="10.73012"><ele>31.8</ele><time>2026-04-27T14:21:28.01Z</time></trkpt><trkpt lat="45.2469283" lon="10.7301117"><ele>31.6</ele><time>2026-04-27T14:21:30.011Z</time></trkpt><trkpt lat="45.2468217" lon="10.7300867"><ele>31.400000000000002</ele><time>2026-04-27T14:21:32.01Z</time></trkpt><trkpt lat="45.246715" lon="10.7300633"><ele>31.200000000000003</ele><time>2026-04-27T14:21:34.011Z</time></trkpt><trkpt lat="45.2466083" lon="10.7300583"><ele>31.0</ele><time>2026-04-27T14:21:36.01Z</time></trkpt><trkpt lat="45.246505" lon="10.730055"><ele>31.200000000000003</ele><time>2026-04-27T14:21:38.01Z</time></trkpt><trkpt lat="45.2464017" lon="10.7300433"><ele>31.400000000000002</ele><time>2026-04-27T14:21:40.01Z</time></trkpt><trkpt lat="45.2463017" lon="10.7300317"><ele>31.6</ele><time>2026-04-27T14:21:42.011Z</time></trkpt><trkpt lat="45.2462067" lon="10.7300167"><ele>31.8</ele><time>2026-04-27T14:21:44.011Z</time></trkpt><trkpt lat="45.24612" lon="10.7300067"><ele>32.0</ele><time>2026-04-27T14:21:46.01Z</time></trkpt><trkpt lat="45.2460317" lon="10.7299917"><ele>31.999999999999996</ele><time>2026-04-27T14:21:48.011Z</time></trkpt><trkpt lat="45.24596" lon="10.7299667"><ele>32.0</ele><time>2026-04-27T14:21:50.011Z</time></trkpt><trkpt lat="45.245885" lon="10.7299417"><ele>32.0</ele><time>2026-04-27T14:21:52.011Z</time></trkpt><trkpt lat="45.2458117" lon="10.729935"><ele>32.0</ele><time>2026-04-27T14:21:54.011Z</time></trkpt><trkpt lat="45.2457333" lon="10.729915"><ele>31.999999999999996</ele><time>2026-04-27T14:21:56.011Z</time></trkpt><trkpt lat="45.24564" lon="10.729905"><ele>32.0</ele><time>2026-04-27T14:21:58.011Z</time></trkpt><trkpt lat="45.2455383" lon="10.7298917"><ele>31.6</ele><time>2026-04-27T14:22:00.011Z</time></trkpt><trkpt lat="45.2454417" lon="10.7298667"><ele>31.200000000000003</ele><time>2026-04-27T14:22:02.011Z</time></trkpt><trkpt lat="45.24534" lon="10.7298533"><ele>30.8</ele><time>2026-04-27T14:22:04.01Z</time></trkpt><trkpt lat="45.2452333" lon="10.7298433"><ele>30.4</ele><time>2026-04-27T14:22:06.01Z</time></trkpt><trkpt lat="45.2451317" lon="10.729825"><ele>30.0</ele><time>2026-04-27T14:22:08.01Z</time></trkpt><trkpt lat="45.24503" lon="10.7298"><ele>30.0</ele><time>2026-04-27T14:22:10.01Z</time></trkpt><trkpt lat="45.244935" lon="10.7297817"><ele>30.0</ele><time>2026-04-27T14:22:12.01Z</time></trkpt><trkpt lat="45.24483" lon="10.7297717"><ele>30.0</ele><time>2026-04-27T14:22:14.011Z</time></trkpt><trkpt lat="45.2447283" lon="10.7297583"><ele>30.0</ele><time>2026-04-27T14:22:16.01Z</time></trkpt><trkpt lat="45.244625" lon="10.72975"><ele>30.0</ele><time>2026-04-27T14:22:18.011Z</time></trkpt><trkpt lat="45.2445183" lon="10.7297367"><ele>30.4</ele><time>2026-04-27T14:22:20.011Z</time></trkpt><trkpt lat="45.2444167" lon="10.7297267"><ele>30.8</ele><time>2026-04-27T14:22:22.01Z</time></trkpt><trkpt lat="45.2443117" lon="10.729715"><ele>31.200000000000003</ele><time>2026-04-27T14:22:24.011Z</time></trkpt><trkpt lat="45.2442117" lon="10.7296933"><ele>31.6</ele><time>2026-04-27T14:22:26.01Z</time></trkpt><trkpt lat="45.244115" lon="10.7296733"><ele>32.0</ele><time>2026-04-27T14:22:28.01Z</time></trkpt><trkpt lat="45.244015" lon="10.7296567"><ele>31.8</ele><time>2026-04-27T14:22:30.01Z</time></trkpt><trkpt lat="45.2439217" lon="10.7296517"><ele>31.6</ele><time>2026-04-27T14:22:32.011Z</time></trkpt><trkpt lat="45.24382" lon="10.7296417"><ele>31.400000000000002</ele><time>2026-04-27T14:22:34.01Z</time></trkpt><trkpt lat="45.24371" lon="10.7296217"><ele>31.200000000000003</ele><time>2026-04-27T14:22:36.01Z</time></trkpt><trkpt lat="45.2436" lon="10.7295883"><ele>31.0</ele><time>2026-04-27T14:22:38.01Z</time></trkpt><trkpt lat="45.2434833" lon="10.72956"><ele>31.0</ele><time>2026-04-27T14:22:40.011Z</time></trkpt><trkpt lat="45.2433717" lon="10.729545"><ele>31.0</ele><time>2026-04-27T14:22:42.011Z</time></trkpt><trkpt lat="45.2432667" lon="10.7295217"><ele>31.0</ele><time>2026-04-27T14:22:44.01Z</time></trkpt><trkpt lat="45.2431667" lon="10.7295017"><ele>31.0</ele><time>2026-04-27T14:22:46.011Z</time></trkpt><trkpt lat="45.2430633" lon="10.7294983"><ele>31.0</ele><time>2026-04-27T14:22:48.011Z</time></trkpt><trkpt lat="45.2429667" lon="10.72949"><ele>31.0</ele><time>2026-04-27T14:22:50.011Z</time></trkpt><trkpt lat="45.24288" lon="10.7294683"><ele>31.0</ele><time>2026-04-27T14:22:52.011Z</time></trkpt><trkpt lat="45.2427883" lon="10.7294617"><ele>31.0</ele><time>2026-04-27T14:22:54.01Z</time></trkpt><trkpt lat="45.24265" lon="10.7294567"><ele>31.0</ele><time>2026-04-27T14:22:57.011Z</time></trkpt><trkpt lat="45.2425633" lon="10.7294567"><ele>31.0</ele><time>2026-04-27T14:22:59.011Z</time></trkpt><trkpt lat="45.2424733" lon="10.729455"><ele>31.0</ele><time>2026-04-27T14:23:01.011Z</time></trkpt><trkpt lat="45.2423867" lon="10.72945"><ele>31.0</ele><time>2026-04-27T14:23:03.011Z</time></trkpt><trkpt lat="45.2422983" lon="10.729445"><ele>31.0</ele><time>2026-04-27T14:23:05.01Z</time></trkpt><trkpt lat="45.24221" lon="10.7294317"><ele>31.0</ele><time>2026-04-27T14:23:07.01Z</time></trkpt><trkpt lat="45.2421133" lon="10.72941"><ele>31.0</ele><time>2026-04-27T14:23:09.01Z</time></trkpt><trkpt lat="45.2420117" lon="10.729375"><ele>30.75</ele><time>2026-04-27T14:23:11.011Z</time></trkpt><trkpt lat="45.2418983" lon="10.7293483"><ele>30.5</ele><time>2026-04-27T14:23:13.011Z</time></trkpt><trkpt lat="45.2417833" lon="10.7293183"><ele>30.25</ele><time>2026-04-27T14:23:15.01Z</time></trkpt><trkpt lat="45.2416633" lon="10.72928"><ele>30.0</ele><time>2026-04-27T14:23:17.011Z</time></trkpt><trkpt lat="45.241545" lon="10.7292517"><ele>29.8</ele><time>2026-04-27T14:23:19.01Z</time></trkpt><trkpt lat="45.241425" lon="10.7292367"><ele>29.6</ele><time>2026-04-27T14:23:21.01Z</time></trkpt><trkpt lat="45.2413167" lon="10.7292133"><ele>29.4</ele><time>2026-04-27T14:23:23.011Z</time></trkpt><trkpt lat="45.2412317" lon="10.7292017"><ele>29.2</ele><time>2026-04-27T14:23:25.01Z</time></trkpt><trkpt lat="45.2411617" lon="10.7292017"><ele>29.0</ele><time>2026-04-27T14:23:27.011Z</time></trkpt><trkpt lat="45.2410917" lon="10.7292"><ele>28.999999999999996</ele><time>2026-04-27T14:23:29.011Z</time></trkpt><trkpt lat="45.24103" lon="10.7291817"><ele>29.0</ele><time>2026-04-27T14:23:31.01Z</time></trkpt><trkpt lat="45.240955" lon="10.7291467"><ele>29.0</ele><time>2026-04-27T14:23:34.011Z</time></trkpt><trkpt lat="45.2408567" lon="10.7291817"><ele>29.0</ele><time>2026-04-27T14:23:39.01Z</time></trkpt><trkpt lat="45.24078" lon="10.72916"><ele>28.999999999999996</ele><time>2026-04-27T14:23:43.011Z</time></trkpt><trkpt lat="45.2407133" lon="10.7291633"><ele>29.0</ele><time>2026-04-27T14:23:46.01Z</time></trkpt><trkpt lat="45.2406217" lon="10.7291483"><ele>29.2</ele><time>2026-04-27T14:23:49.01Z</time></trkpt><trkpt lat="45.2405267" lon="10.7291317"><ele>29.4</ele><time>2026-04-27T14:23:51.011Z</time></trkpt><trkpt lat="45.240435" lon="10.72911"><ele>29.6</ele><time>2026-04-27T14:23:53.01Z</time></trkpt><trkpt lat="45.2403317" lon="10.7290833"><ele>29.8</ele><time>2026-04-27T14:23:55.01Z</time></trkpt><trkpt lat="45.240225" lon="10.7290717"><ele>30.0</ele><time>2026-04-27T14:23:57.01Z</time></trkpt><trkpt lat="45.240115" lon="10.7290483"><ele>30.0</ele><time>2026-04-27T14:23:59.01Z</time></trkpt><trkpt lat="45.2400067" lon="10.729025"><ele>30.0</ele><time>2026-04-27T14:24:01.01Z</time></trkpt><trkpt lat="45.2399017" lon="10.7290083"><ele>30.0</ele><time>2026-04-27T14:24:03.01Z</time></trkpt><trkpt lat="45.2398" lon="10.729015"><ele>30.0</ele><time>2026-04-27T14:24:05.011Z</time></trkpt><trkpt lat="45.2396917" lon="10.7289867"><ele>30.0</ele><time>2026-04-27T14:24:07.011Z</time></trkpt><trkpt lat="45.239585" lon="10.72897"><ele>30.0</ele><time>2026-04-27T14:24:09.01Z</time></trkpt><trkpt lat="45.239475" lon="10.728965"><ele>30.0</ele><time>2026-04-27T14:24:11.01Z</time></trkpt><trkpt lat="45.2393683" lon="10.7289483"><ele>30.0</ele><time>2026-04-27T14:24:13.01Z</time></trkpt><trkpt lat="45.2392617" lon="10.7289317"><ele>30.0</ele><time>2026-04-27T14:24:15.011Z</time></trkpt><trkpt lat="45.2391567" lon="10.7289167"><ele>30.0</ele><time>2026-04-27T14:24:17.01Z</time></trkpt><trkpt lat="45.239045" lon="10.7288983"><ele>30.2</ele><time>2026-04-27T14:24:19.011Z</time></trkpt><trkpt lat="45.238935" lon="10.7288817"><ele>30.4</ele><time>2026-04-27T14:24:21.01Z</time></trkpt><trkpt lat="45.2388283" lon="10.72886"><ele>30.6</ele><time>2026-04-27T14:24:23.011Z</time></trkpt><trkpt lat="45.23872" lon="10.728835"><ele>30.8</ele><time>2026-04-27T14:24:25.011Z</time></trkpt><trkpt lat="45.23861" lon="10.7288167"><ele>31.0</ele><time>2026-04-27T14:24:27.011Z</time></trkpt><trkpt lat="45.2385083" lon="10.7287917"><ele>31.0</ele><time>2026-04-27T14:24:29.011Z</time></trkpt><trkpt lat="45.2383983" lon="10.7287733"><ele>31.0</ele><time>2026-04-27T14:24:31.01Z</time></trkpt><trkpt lat="45.2382883" lon="10.7287517"><ele>31.0</ele><time>2026-04-27T14:24:33.01Z</time></trkpt><trkpt lat="45.2381783" lon="10.7287317"><ele>31.0</ele><time>2026-04-27T14:24:35.011Z</time></trkpt><trkpt lat="45.2380767" lon="10.72871"><ele>31.0</ele><time>2026-04-27T14:24:37.01Z</time></trkpt><trkpt lat="45.2379683" lon="10.7286867"><ele>30.5</ele><time>2026-04-27T14:24:39.01Z</time></trkpt><trkpt lat="45.2378533" lon="10.728685"><ele>30.0</ele><time>2026-04-27T14:24:41.011Z</time></trkpt><trkpt lat="45.237745" lon="10.7286783"><ele>29.5</ele><time>2026-04-27T14:24:43.011Z</time></trkpt><trkpt lat="45.23763" lon="10.728665"><ele>29.0</ele><time>2026-04-27T14:24:45.01Z</time></trkpt><trkpt lat="45.23751" lon="10.7286517"><ele>29.0</ele><time>2026-04-27T14:24:47.01Z</time></trkpt><trkpt lat="45.2374017" lon="10.7286383"><ele>29.0</ele><time>2026-04-27T14:24:49.011Z</time></trkpt><trkpt lat="45.2373067" lon="10.7286117"><ele>29.0</ele><time>2026-04-27T14:24:50.011Z</time></trkpt><trkpt lat="45.237205" lon="10.7286217"><ele>29.0</ele><time>2026-04-27T14:24:52.01Z</time></trkpt><trkpt lat="45.2371017" lon="10.7286217"><ele>29.0</ele><time>2026-04-27T14:24:54.01Z</time></trkpt><trkpt lat="45.2370083" lon="10.72862"><ele>29.0</ele><time>2026-04-27T14:24:56.011Z</time></trkpt><trkpt lat="45.2369117" lon="10.728615"><ele>29.0</ele><time>2026-04-27T14:24:58.01Z</time></trkpt><trkpt lat="45.2368333" lon="10.7286"><ele>29.0</ele><time>2026-04-27T14:25:00.011Z</time></trkpt><trkpt lat="45.2367517" lon="10.7285817"><ele>29.0</ele><time>2026-04-27T14:25:02.011Z</time></trkpt><trkpt lat="45.2366667" lon="10.7285583"><ele>29.0</ele><time>2026-04-27T14:25:04.01Z</time></trkpt><trkpt lat="45.23653" lon="10.7284983"><ele>29.0</ele><time>2026-04-27T14:25:07.011Z</time></trkpt><trkpt lat="45.236435" lon="10.7284617"><ele>29.0</ele><time>2026-04-27T14:25:09.01Z</time></trkpt><trkpt lat="45.2363217" lon="10.728445"><ele>29.0</ele><time>2026-04-27T14:25:11.011Z</time></trkpt><trkpt lat="45.2362117" lon="10.7284333"><ele>29.0</ele><time>2026-04-27T14:25:13.011Z</time></trkpt><trkpt lat="45.2361067" lon="10.7284133"><ele>29.0</ele><time>2026-04-27T14:25:15.011Z</time></trkpt><trkpt lat="45.2360017" lon="10.7284017"><ele>29.0</ele><time>2026-04-27T14:25:17.01Z</time></trkpt><trkpt lat="45.2358917" lon="10.7283867"><ele>29.0</ele><time>2026-04-27T14:25:19.011Z</time></trkpt><trkpt lat="45.23579" lon="10.7283567"><ele>29.0</ele><time>2026-04-27T14:25:21.011Z</time></trkpt><trkpt lat="45.23569" lon="10.72834"><ele>29.0</ele><time>2026-04-27T14:25:23.01Z</time></trkpt><trkpt lat="45.2355883" lon="10.7283267"><ele>29.0</ele><time>2026-04-27T14:25:25.011Z</time></trkpt><trkpt lat="45.2354867" lon="10.7283133"><ele>29.4</ele><time>2026-04-27T14:25:27.011Z</time></trkpt><trkpt lat="45.2353867" lon="10.728295"><ele>29.799999999999997</ele><time>2026-04-27T14:25:29.011Z</time></trkpt><trkpt lat="45.235295" lon="10.72827"><ele>30.200000000000003</ele><time>2026-04-27T14:25:31.011Z</time></trkpt><trkpt lat="45.2352" lon="10.72828"><ele>30.6</ele><time>2026-04-27T14:25:33.011Z</time></trkpt><trkpt lat="45.2351017" lon="10.72829"><ele>31.0</ele><time>2026-04-27T14:25:35.011Z</time></trkpt><trkpt lat="45.23501" lon="10.728275"><ele>31.0</ele><time>2026-04-27T14:25:37.011Z</time></trkpt><trkpt lat="45.23491" lon="10.7282383"><ele>31.0</ele><time>2026-04-27T14:25:39.01Z</time></trkpt><trkpt lat="45.2348017" lon="10.7282167"><ele>31.0</ele><time>2026-04-27T14:25:41.01Z</time></trkpt><trkpt lat="45.2346933" lon="10.7282083"><ele>31.0</ele><time>2026-04-27T14:25:43.01Z</time></trkpt><trkpt lat="45.23459" lon="10.728185"><ele>31.0</ele><time>2026-04-27T14:25:45.011Z</time></trkpt><trkpt lat="45.234485" lon="10.7281667"><ele>31.0</ele><time>2026-04-27T14:25:47.011Z</time></trkpt><trkpt lat="45.2343917" lon="10.7281433"><ele>31.0</ele><time>2026-04-27T14:25:49.011Z</time></trkpt><trkpt lat="45.2343017" lon="10.72812"><ele>31.0</ele><time>2026-04-27T14:25:51.01Z</time></trkpt><trkpt lat="45.2342033" lon="10.728125"><ele>31.0</ele><time>2026-04-27T14:25:53.009Z</time></trkpt><trkpt lat="45.2341033" lon="10.728125"><ele>31.0</ele><time>2026-04-27T14:25:55.009Z</time></trkpt><trkpt lat="45.2339933" lon="10.7280967"><ele>30.8</ele><time>2026-04-27T14:25:57.01Z</time></trkpt><trkpt lat="45.2338833" lon="10.72807"><ele>30.6</ele><time>2026-04-27T14:25:59.01Z</time></trkpt><trkpt lat="45.233795" lon="10.7280333"><ele>30.4</ele><time>2026-04-27T14:26:01.009Z</time></trkpt><trkpt lat="45.2336817" lon="10.7280183"><ele>30.2</ele><time>2026-04-27T14:26:03.009Z</time></trkpt><trkpt lat="45.233575" lon="10.7279983"><ele>30.0</ele><time>2026-04-27T14:26:05.01Z</time></trkpt><trkpt lat="45.23347" lon="10.7279833"><ele>30.0</ele><time>2026-04-27T14:26:07.009Z</time></trkpt><trkpt lat="45.23337" lon="10.7279733"><ele>30.0</ele><time>2026-04-27T14:26:09.009Z</time></trkpt><trkpt lat="45.2332667" lon="10.7279583"><ele>30.0</ele><time>2026-04-27T14:26:11.009Z</time></trkpt><trkpt lat="45.233165" lon="10.7279417"><ele>30.0</ele><time>2026-04-27T14:26:13.01Z</time></trkpt><trkpt lat="45.2330583" lon="10.7279217"><ele>30.0</ele><time>2026-04-27T14:26:15.009Z</time></trkpt><trkpt lat="45.2329517" lon="10.7279067"><ele>29.8</ele><time>2026-04-27T14:26:17.009Z</time></trkpt><trkpt lat="45.2328433" lon="10.7278833"><ele>29.6</ele><time>2026-04-27T14:26:19.009Z</time></trkpt><trkpt lat="45.2327367" lon="10.7278717"><ele>29.4</ele><time>2026-04-27T14:26:21.009Z</time></trkpt><trkpt lat="45.2326333" lon="10.7278633"><ele>29.2</ele><time>2026-04-27T14:26:23.009Z</time></trkpt><trkpt lat="45.232535" lon="10.727845"><ele>29.0</ele><time>2026-04-27T14:26:25.009Z</time></trkpt><trkpt lat="45.23244" lon="10.727825"><ele>29.0</ele><time>2026-04-27T14:26:27.01Z</time></trkpt><trkpt lat="45.2323383" lon="10.7278133"><ele>29.0</ele><time>2026-04-27T14:26:29.01Z</time></trkpt><trkpt lat="45.2322333" lon="10.7277983"><ele>29.0</ele><time>2026-04-27T14:26:31.009Z</time></trkpt><trkpt lat="45.2321267" lon="10.7277767"><ele>29.0</ele><time>2026-04-27T14:26:33.01Z</time></trkpt><trkpt lat="45.23203" lon="10.7277567"><ele>29.0</ele><time>2026-04-27T14:26:35.01Z</time></trkpt><trkpt lat="45.231925" lon="10.7277417"><ele>29.0</ele><time>2026-04-27T14:26:37.01Z</time></trkpt><trkpt lat="45.2318217" lon="10.7277267"><ele>29.0</ele><time>2026-04-27T14:26:39.009Z</time></trkpt><trkpt lat="45.23172" lon="10.727715"><ele>29.0</ele><time>2026-04-27T14:26:41.009Z</time></trkpt><trkpt lat="45.2316217" lon="10.72771"><ele>29.0</ele><time>2026-04-27T14:26:43.01Z</time></trkpt><trkpt lat="45.23152" lon="10.7277"><ele>29.0</ele><time>2026-04-27T14:26:45.009Z</time></trkpt><trkpt lat="45.2314367" lon="10.72769"><ele>29.0</ele><time>2026-04-27T14:26:47.009Z</time></trkpt><trkpt lat="45.2313417" lon="10.7276783"><ele>29.0</ele><time>2026-04-27T14:26:49.009Z</time></trkpt><trkpt lat="45.2312517" lon="10.727655"><ele>29.0</ele><time>2026-04-27T14:26:51.009Z</time></trkpt><trkpt lat="45.23116" lon="10.7276417"><ele>29.0</ele><time>2026-04-27T14:26:53.009Z</time></trkpt><trkpt lat="45.23106" lon="10.72763"><ele>29.0</ele><time>2026-04-27T14:26:55.009Z</time></trkpt><trkpt lat="45.2309633" lon="10.7276067"><ele>29.0</ele><time>2026-04-27T14:26:57.01Z</time></trkpt><trkpt lat="45.2308667" lon="10.7275817"><ele>29.0</ele><time>2026-04-27T14:26:59.009Z</time></trkpt><trkpt lat="45.2307633" lon="10.7275717"><ele>29.0</ele><time>2026-04-27T14:27:01.01Z</time></trkpt><trkpt lat="45.2306617" lon="10.72756"><ele>29.0</ele><time>2026-04-27T14:27:03.01Z</time></trkpt><trkpt lat="45.23056" lon="10.7275467"><ele>29.0</ele><time>2026-04-27T14:27:05.009Z</time></trkpt><trkpt lat="45.23046" lon="10.72753"><ele>28.799999999999997</ele><time>2026-04-27T14:27:07.01Z</time></trkpt><trkpt lat="45.2303617" lon="10.7275133"><ele>28.599999999999998</ele><time>2026-04-27T14:27:09.009Z</time></trkpt><trkpt lat="45.2302667" lon="10.7274867"><ele>28.4</ele><time>2026-04-27T14:27:11.009Z</time></trkpt><trkpt lat="45.2301717" lon="10.7274517"><ele>28.2</ele><time>2026-04-27T14:27:13.009Z</time></trkpt><trkpt lat="45.2300767" lon="10.727415"><ele>28.0</ele><time>2026-04-27T14:27:15.01Z</time></trkpt><trkpt lat="45.2299783" lon="10.7273917"><ele>28.0</ele><time>2026-04-27T14:27:17.01Z</time></trkpt><trkpt lat="45.22988" lon="10.727355"><ele>28.0</ele><time>2026-04-27T14:27:19.009Z</time></trkpt><trkpt lat="45.22978" lon="10.72733"><ele>28.0</ele><time>2026-04-27T14:27:21.01Z</time></trkpt><trkpt lat="45.2296267" lon="10.7273017"><ele>28.0</ele><time>2026-04-27T14:27:24.009Z</time></trkpt><trkpt lat="45.2295317" lon="10.7272733"><ele>28.000000000000004</ele><time>2026-04-27T14:27:26.009Z</time></trkpt><trkpt lat="45.2294417" lon="10.7272383"><ele>28.0</ele><time>2026-04-27T14:27:28.01Z</time></trkpt><trkpt lat="45.22936" lon="10.727215"><ele>28.0</ele><time>2026-04-27T14:27:30.01Z</time></trkpt><trkpt lat="45.2292867" lon="10.72718"><ele>28.0</ele><time>2026-04-27T14:27:32.009Z</time></trkpt><trkpt lat="45.2292117" lon="10.7271517"><ele>28.000000000000004</ele><time>2026-04-27T14:27:34.009Z</time></trkpt><trkpt lat="45.2291417" lon="10.7271133"><ele>28.0</ele><time>2026-04-27T14:27:36.009Z</time></trkpt><trkpt lat="45.229065" lon="10.7270683"><ele>28.000000000000004</ele><time>2026-04-27T14:27:38.009Z</time></trkpt><trkpt lat="45.2289833" lon="10.7270233"><ele>28.0</ele><time>2026-04-27T14:27:40.01Z</time></trkpt><trkpt lat="45.2289" lon="10.726985"><ele>28.0</ele><time>2026-04-27T14:27:42.01Z</time></trkpt><trkpt lat="45.2288167" lon="10.72695"><ele>28.0</ele><time>2026-04-27T14:27:44.01Z</time></trkpt><trkpt lat="45.2287367" lon="10.7269017"><ele>28.000000000000004</ele><time>2026-04-27T14:27:46.01Z</time></trkpt><trkpt lat="45.2286567" lon="10.7268633"><ele>28.0</ele><time>2026-04-27T14:27:48.009Z</time></trkpt><trkpt lat="45.22857" lon="10.72682"><ele>28.2</ele><time>2026-04-27T14:27:50.01Z</time></trkpt><trkpt lat="45.2284817" lon="10.726775"><ele>28.4</ele><time>2026-04-27T14:27:52.009Z</time></trkpt><trkpt lat="45.2283883" lon="10.7267383"><ele>28.599999999999998</ele><time>2026-04-27T14:27:54.01Z</time></trkpt><trkpt lat="45.2282983" lon="10.7266967"><ele>28.799999999999997</ele><time>2026-04-27T14:27:56.009Z</time></trkpt><trkpt lat="45.2282133" lon="10.7266417"><ele>29.0</ele><time>2026-04-27T14:27:58.01Z</time></trkpt><trkpt lat="45.2281317" lon="10.7265867"><ele>29.2</ele><time>2026-04-27T14:28:00.01Z</time></trkpt><trkpt lat="45.2280417" lon="10.7265667"><ele>29.4</ele><time>2026-04-27T14:28:02.009Z</time></trkpt><trkpt lat="45.2279417" lon="10.7265567"><ele>29.6</ele><time>2026-04-27T14:28:04.009Z</time></trkpt><trkpt lat="45.2278333" lon="10.7265317"><ele>29.8</ele><time>2026-04-27T14:28:06.01Z</time></trkpt><trkpt lat="45.2277333" lon="10.726485"><ele>30.0</ele><time>2026-04-27T14:28:08.01Z</time></trkpt><trkpt lat="45.227635" lon="10.7264267"><ele>30.0</ele><time>2026-04-27T14:28:10.01Z</time></trkpt><trkpt lat="45.2275533" lon="10.7263617"><ele>30.0</ele><time>2026-04-27T14:28:12.009Z</time></trkpt><trkpt lat="45.227455" lon="10.72629"><ele>30.0</ele><time>2026-04-27T14:28:14.01Z</time></trkpt><trkpt lat="45.2273633" lon="10.7262033"><ele>30.0</ele><time>2026-04-27T14:28:16.009Z</time></trkpt><trkpt lat="45.22729" lon="10.7261567"><ele>30.0</ele><time>2026-04-27T14:28:18.009Z</time></trkpt><trkpt lat="45.2272267" lon="10.726065"><ele>29.833333333333332</ele><time>2026-04-27T14:28:20.009Z</time></trkpt><trkpt lat="45.2271717" lon="10.7259667"><ele>29.666666666666664</ele><time>2026-04-27T14:28:22.009Z</time></trkpt><trkpt lat="45.2271283" lon="10.7258833"><ele>29.5</ele><time>2026-04-27T14:28:24.01Z</time></trkpt><trkpt lat="45.2270917" lon="10.725795"><ele>29.333333333333332</ele><time>2026-04-27T14:28:26.009Z</time></trkpt><trkpt lat="45.2270267" lon="10.725725"><ele>29.166666666666664</ele><time>2026-04-27T14:28:28.009Z</time></trkpt><trkpt lat="45.2269517" lon="10.7256617"><ele>29.0</ele><time>2026-04-27T14:28:30.01Z</time></trkpt><trkpt lat="45.2268733" lon="10.7256"><ele>28.999999999999996</ele><time>2026-04-27T14:28:32.01Z</time></trkpt><trkpt lat="45.2267983" lon="10.7255417"><ele>29.0</ele><time>2026-04-27T14:28:34.01Z</time></trkpt><trkpt lat="45.22672" lon="10.7254783"><ele>29.0</ele><time>2026-04-27T14:28:36.01Z</time></trkpt><trkpt lat="45.2266433" lon="10.72541"><ele>29.0</ele><time>2026-04-27T14:28:38.009Z</time></trkpt><trkpt lat="45.2265683" lon="10.7253433"><ele>28.999999999999996</ele><time>2026-04-27T14:28:40.009Z</time></trkpt><trkpt lat="45.2264933" lon="10.7252733"><ele>29.0</ele><time>2026-04-27T14:28:42.009Z</time></trkpt><trkpt lat="45.2264133" lon="10.7252083"><ele>29.333333333333332</ele><time>2026-04-27T14:28:44.01Z</time></trkpt><trkpt lat="45.2263367" lon="10.7251333"><ele>29.666666666666664</ele><time>2026-04-27T14:28:46.009Z</time></trkpt><trkpt lat="45.2262667" lon="10.7250683"><ele>30.0</ele><time>2026-04-27T14:28:48.009Z</time></trkpt><trkpt lat="45.2261917" lon="10.725005"><ele>30.333333333333336</ele><time>2026-04-27T14:28:50.01Z</time></trkpt><trkpt lat="45.2261267" lon="10.7249433"><ele>30.666666666666668</ele><time>2026-04-27T14:28:52.009Z</time></trkpt><trkpt lat="45.2260567" lon="10.724895"><ele>31.0</ele><time>2026-04-27T14:28:55.009Z</time></trkpt><trkpt lat="45.2259817" lon="10.7248733"><ele>31.000000000000004</ele><time>2026-04-27T14:32:30.008Z</time></trkpt><trkpt lat="45.2259183" lon="10.7248233"><ele>31.0</ele><time>2026-04-27T14:32:33.008Z</time></trkpt><trkpt lat="45.22585" lon="10.7247333"><ele>31.0</ele><time>2026-04-27T14:32:36.009Z</time></trkpt><trkpt lat="45.2257933" lon="10.7246767"><ele>31.0</ele><time>2026-04-27T14:32:38.008Z</time></trkpt><trkpt lat="45.2257267" lon="10.7246283"><ele>31.000000000000004</ele><time>2026-04-27T14:32:40.009Z</time></trkpt><trkpt lat="45.225665" lon="10.7245883"><ele>31.0</ele><time>2026-04-27T14:32:42.008Z</time></trkpt><trkpt lat="45.225565" lon="10.7245167"><ele>31.000000000000004</ele><time>2026-04-27T14:32:45.008Z</time></trkpt><trkpt lat="45.2254933" lon="10.7244533"><ele>31.0</ele><time>2026-04-27T14:32:47.008Z</time></trkpt><trkpt lat="45.225425" lon="10.7243867"><ele>31.0</ele><time>2026-04-27T14:32:49.008Z</time></trkpt><trkpt lat="45.225355" lon="10.7243233"><ele>31.0</ele><time>2026-04-27T14:32:51.008Z</time></trkpt><trkpt lat="45.225285" lon="10.7242583"><ele>31.000000000000004</ele><time>2026-04-27T14:32:53.008Z</time></trkpt><trkpt lat="45.22521" lon="10.7241983"><ele>31.0</ele><time>2026-04-27T14:32:55.008Z</time></trkpt><trkpt lat="45.22513" lon="10.7241333"><ele>30.833333333333336</ele><time>2026-04-27T14:32:57.008Z</time></trkpt><trkpt lat="45.2250717" lon="10.7240633"><ele>30.666666666666668</ele><time>2026-04-27T14:32:59.008Z</time></trkpt><trkpt lat="45.2249917" lon="10.7239933"><ele>30.5</ele><time>2026-04-27T14:33:01.009Z</time></trkpt><trkpt lat="45.2249117" lon="10.7239233"><ele>30.333333333333336</ele><time>2026-04-27T14:33:03.009Z</time></trkpt><trkpt lat="45.2248283" lon="10.7238517"><ele>30.166666666666668</ele><time>2026-04-27T14:33:05.009Z</time></trkpt><trkpt lat="45.2247633" lon="10.72378"><ele>30.0</ele><time>2026-04-27T14:33:07.009Z</time></trkpt><trkpt lat="45.2247" lon="10.7237133"><ele>29.6</ele><time>2026-04-27T14:33:09.008Z</time></trkpt><trkpt lat="45.224615" lon="10.7236433"><ele>29.2</ele><time>2026-04-27T14:33:11.008Z</time></trkpt><trkpt lat="45.22453" lon="10.7235783"><ele>28.799999999999997</ele><time>2026-04-27T14:33:13.008Z</time></trkpt><trkpt lat="45.2244433" lon="10.723525"><ele>28.4</ele><time>2026-04-27T14:33:15.009Z</time></trkpt><trkpt lat="45.22436" lon="10.7234683"><ele>28.0</ele><time>2026-04-27T14:33:17.008Z</time></trkpt><trkpt lat="45.224275" lon="10.7234033"><ele>28.0</ele><time>2026-04-27T14:33:19.008Z</time></trkpt><trkpt lat="45.2241817" lon="10.72334"><ele>27.999999999999996</ele><time>2026-04-27T14:33:21.008Z</time></trkpt><trkpt lat="45.22409" lon="10.723275"><ele>27.999999999999996</ele><time>2026-04-27T14:33:23.009Z</time></trkpt><trkpt lat="45.2240033" lon="10.7232"><ele>28.0</ele><time>2026-04-27T14:33:25.008Z</time></trkpt><trkpt lat="45.2239183" lon="10.7231217"><ele>28.0</ele><time>2026-04-27T14:33:27.008Z</time></trkpt><trkpt lat="45.223835" lon="10.72304"><ele>28.0</ele><time>2026-04-27T14:33:29.009Z</time></trkpt><trkpt lat="45.2237517" lon="10.7229633"><ele>27.999999999999996</ele><time>2026-04-27T14:33:31.008Z</time></trkpt><trkpt lat="45.2236717" lon="10.7228967"><ele>27.999999999999996</ele><time>2026-04-27T14:33:33.008Z</time></trkpt><trkpt lat="45.2235933" lon="10.72282"><ele>28.0</ele><time>2026-04-27T14:33:35.009Z</time></trkpt><trkpt lat="45.2235117" lon="10.7227483"><ele>28.0</ele><time>2026-04-27T14:33:37.008Z</time></trkpt><trkpt lat="45.2234233" lon="10.722675"><ele>28.0</ele><time>2026-04-27T14:33:39.009Z</time></trkpt><trkpt lat="45.2233483" lon="10.7226233"><ele>27.999999999999996</ele><time>2026-04-27T14:33:41.008Z</time></trkpt><trkpt lat="45.22327" lon="10.72255"><ele>27.999999999999996</ele><time>2026-04-27T14:33:43.009Z</time></trkpt><trkpt lat="45.223185" lon="10.72248"><ele>28.0</ele><time>2026-04-27T14:33:45.008Z</time></trkpt><trkpt lat="45.2231083" lon="10.7224133"><ele>28.0</ele><time>2026-04-27T14:33:47.008Z</time></trkpt><trkpt lat="45.2230267" lon="10.722355"><ele>28.2</ele><time>2026-04-27T14:33:49.009Z</time></trkpt><trkpt lat="45.22293" lon="10.7222933"><ele>28.4</ele><time>2026-04-27T14:33:51.009Z</time></trkpt><trkpt lat="45.22285" lon="10.72221"><ele>28.599999999999998</ele><time>2026-04-27T14:33:53.008Z</time></trkpt><trkpt lat="45.2227733" lon="10.7221383"><ele>28.799999999999997</ele><time>2026-04-27T14:33:55.008Z</time></trkpt><trkpt lat="45.22269" lon="10.722065"><ele>29.0</ele><time>2026-04-27T14:33:57.008Z</time></trkpt><trkpt lat="45.222605" lon="10.72199"><ele>29.0</ele><time>2026-04-27T14:33:59.008Z</time></trkpt><trkpt lat="45.222515" lon="10.7219033"><ele>29.0</ele><time>2026-04-27T14:34:01.008Z</time></trkpt><trkpt lat="45.2224233" lon="10.7218233"><ele>29.0</ele><time>2026-04-27T14:34:03.009Z</time></trkpt><trkpt lat="45.22234" lon="10.7217433"><ele>29.0</ele><time>2026-04-27T14:34:05.008Z</time></trkpt><trkpt lat="45.2222517" lon="10.7216833"><ele>29.0</ele><time>2026-04-27T14:34:07.009Z</time></trkpt><trkpt lat="45.22217" lon="10.7216267"><ele>29.0</ele><time>2026-04-27T14:34:09.008Z</time></trkpt><trkpt lat="45.2220833" lon="10.7215367"><ele>29.0</ele><time>2026-04-27T14:34:11.009Z</time></trkpt><trkpt lat="45.2220033" lon="10.7214433"><ele>29.0</ele><time>2026-04-27T14:34:13.009Z</time></trkpt><trkpt lat="45.221915" lon="10.7213817"><ele>29.0</ele><time>2026-04-27T14:34:15.009Z</time></trkpt><trkpt lat="45.2218233" lon="10.72131"><ele>29.0</ele><time>2026-04-27T14:34:17.008Z</time></trkpt><trkpt lat="45.221735" lon="10.7212333"><ele>29.0</ele><time>2026-04-27T14:34:19.009Z</time></trkpt><trkpt lat="45.2216483" lon="10.721165"><ele>29.0</ele><time>2026-04-27T14:34:21.008Z</time></trkpt><trkpt lat="45.22156" lon="10.72111"><ele>29.0</ele><time>2026-04-27T14:34:23.009Z</time></trkpt><trkpt lat="45.2214667" lon="10.7210483"><ele>29.0</ele><time>2026-04-27T14:34:25.008Z</time></trkpt><trkpt lat="45.2213817" lon="10.7209867"><ele>29.0</ele><time>2026-04-27T14:34:27.008Z</time></trkpt><trkpt lat="45.221315" lon="10.7209417"><ele>29.0</ele><time>2026-04-27T14:34:29.008Z</time></trkpt><trkpt lat="45.2212367" lon="10.7208783"><ele>29.0</ele><time>2026-04-27T14:34:31.008Z</time></trkpt><trkpt lat="45.2211167" lon="10.7207683"><ele>29.0</ele><time>2026-04-27T14:34:34.008Z</time></trkpt><trkpt lat="45.2210267" lon="10.72068"><ele>29.0</ele><time>2026-04-27T14:34:36.009Z</time></trkpt><trkpt lat="45.22093" lon="10.72059"><ele>29.0</ele><time>2026-04-27T14:34:38.008Z</time></trkpt><trkpt lat="45.220825" lon="10.7204983"><ele>29.0</ele><time>2026-04-27T14:34:40.009Z</time></trkpt><trkpt lat="45.22073" lon="10.7204083"><ele>29.0</ele><time>2026-04-27T14:34:42.009Z</time></trkpt><trkpt lat="45.2206367" lon="10.7203217"><ele>29.0</ele><time>2026-04-27T14:34:44.009Z</time></trkpt><trkpt lat="45.22055" lon="10.7202517"><ele>29.0</ele><time>2026-04-27T14:34:46.008Z</time></trkpt><trkpt lat="45.22046" lon="10.72018"><ele>28.6</ele><time>2026-04-27T14:34:48.009Z</time></trkpt><trkpt lat="45.220385" lon="10.7201067"><ele>28.2</ele><time>2026-04-27T14:34:50.008Z</time></trkpt><trkpt lat="45.22031" lon="10.7200317"><ele>27.800000000000004</ele><time>2026-04-27T14:34:52.008Z</time></trkpt><trkpt lat="45.220225" lon="10.7199583"><ele>27.400000000000002</ele><time>2026-04-27T14:34:54.009Z</time></trkpt><trkpt lat="45.2201433" lon="10.719885"><ele>27.0</ele><time>2026-04-27T14:34:56.009Z</time></trkpt><trkpt lat="45.2200633" lon="10.7198133"><ele>27.0</ele><time>2026-04-27T14:34:58.009Z</time></trkpt><trkpt lat="45.2199783" lon="10.7197483"><ele>27.000000000000004</ele><time>2026-04-27T14:35:00.009Z</time></trkpt><trkpt lat="45.2198933" lon="10.7196733"><ele>27.000000000000004</ele><time>2026-04-27T14:35:02.009Z</time></trkpt><trkpt lat="45.219815" lon="10.7196083"><ele>27.0</ele><time>2026-04-27T14:35:04.009Z</time></trkpt><trkpt lat="45.2197383" lon="10.719535"><ele>27.0</ele><time>2026-04-27T14:35:06.008Z</time></trkpt><trkpt lat="45.21967" lon="10.7194533"><ele>27.0</ele><time>2026-04-27T14:35:08.009Z</time></trkpt><trkpt lat="45.2195967" lon="10.71938"><ele>27.000000000000004</ele><time>2026-04-27T14:35:10.009Z</time></trkpt><trkpt lat="45.219515" lon="10.7193117"><ele>27.000000000000004</ele><time>2026-04-27T14:35:12.008Z</time></trkpt><trkpt lat="45.2194333" lon="10.7192317"><ele>27.0</ele><time>2026-04-27T14:35:14.008Z</time></trkpt><trkpt lat="45.21935" lon="10.719175"><ele>27.0</ele><time>2026-04-27T14:35:16.009Z</time></trkpt><trkpt lat="45.2192733" lon="10.7191267"><ele>27.0</ele><time>2026-04-27T14:35:18.008Z</time></trkpt><trkpt lat="45.2191933" lon="10.7190533"><ele>27.000000000000004</ele><time>2026-04-27T14:35:20.008Z</time></trkpt><trkpt lat="45.2191133" lon="10.718975"><ele>27.000000000000004</ele><time>2026-04-27T14:35:22.008Z</time></trkpt><trkpt lat="45.2190233" lon="10.7189"><ele>27.0</ele><time>2026-04-27T14:35:24.008Z</time></trkpt><trkpt lat="45.2189517" lon="10.71884"><ele>27.0</ele><time>2026-04-27T14:35:26.009Z</time></trkpt><trkpt lat="45.21886" lon="10.71876"><ele>27.166666666666668</ele><time>2026-04-27T14:35:28.009Z</time></trkpt><trkpt lat="45.2187833" lon="10.7186967"><ele>27.333333333333336</ele><time>2026-04-27T14:35:30.008Z</time></trkpt><trkpt lat="45.2186983" lon="10.7186217"><ele>27.5</ele><time>2026-04-27T14:35:32.008Z</time></trkpt><trkpt lat="45.2186117" lon="10.718545"><ele>27.666666666666668</ele><time>2026-04-27T14:35:34.008Z</time></trkpt><trkpt lat="45.2185383" lon="10.718485"><ele>27.833333333333336</ele><time>2026-04-27T14:35:36.009Z</time></trkpt><trkpt lat="45.2184817" lon="10.7184433"><ele>28.0</ele><time>2026-04-27T14:35:37.009Z</time></trkpt><trkpt lat="45.2184067" lon="10.718375"><ele>28.0</ele><time>2026-04-27T14:35:39.009Z</time></trkpt><trkpt lat="45.2183233" lon="10.7182983"><ele>27.999999999999996</ele><time>2026-04-27T14:35:41.009Z</time></trkpt><trkpt lat="45.2182367" lon="10.718225"><ele>27.999999999999996</ele><time>2026-04-27T14:35:43.009Z</time></trkpt><trkpt lat="45.2181483" lon="10.7181317"><ele>28.0</ele><time>2026-04-27T14:35:45.009Z</time></trkpt><trkpt lat="45.2180633" lon="10.7180567"><ele>28.0</ele><time>2026-04-27T14:35:47.007Z</time></trkpt><trkpt lat="45.2179833" lon="10.7179883"><ele>27.799999999999997</ele><time>2026-04-27T14:35:49.008Z</time></trkpt><trkpt lat="45.2179067" lon="10.7178983"><ele>27.599999999999998</ele><time>2026-04-27T14:35:51.008Z</time></trkpt><trkpt lat="45.2178183" lon="10.7178117"><ele>27.400000000000002</ele><time>2026-04-27T14:35:53.008Z</time></trkpt><trkpt lat="45.2177267" lon="10.71774"><ele>27.200000000000003</ele><time>2026-04-27T14:35:55.007Z</time></trkpt><trkpt lat="45.21764" lon="10.7176717"><ele>27.0</ele><time>2026-04-27T14:35:57.008Z</time></trkpt><trkpt lat="45.2175667" lon="10.7175967"><ele>27.0</ele><time>2026-04-27T14:35:59.007Z</time></trkpt><trkpt lat="45.2174317" lon="10.7174767"><ele>27.0</ele><time>2026-04-27T14:36:02.008Z</time></trkpt><trkpt lat="45.21734" lon="10.7173933"><ele>27.0</ele><time>2026-04-27T14:36:04.007Z</time></trkpt><trkpt lat="45.217245" lon="10.7173133"><ele>27.0</ele><time>2026-04-27T14:36:06.007Z</time></trkpt><trkpt lat="45.217155" lon="10.7172483"><ele>27.0</ele><time>2026-04-27T14:36:08.007Z</time></trkpt><trkpt lat="45.2170617" lon="10.7171733"><ele>27.000000000000004</ele><time>2026-04-27T14:36:10.008Z</time></trkpt><trkpt lat="45.2169683" lon="10.7171033"><ele>27.000000000000004</ele><time>2026-04-27T14:36:12.008Z</time></trkpt><trkpt lat="45.21689" lon="10.7170367"><ele>27.0</ele><time>2026-04-27T14:36:14.007Z</time></trkpt><trkpt lat="45.2167833" lon="10.7169467"><ele>27.0</ele><time>2026-04-27T14:36:16.008Z</time></trkpt><trkpt lat="45.216685" lon="10.7168717"><ele>27.200000000000003</ele><time>2026-04-27T14:36:18.008Z</time></trkpt><trkpt lat="45.216585" lon="10.716795"><ele>27.400000000000002</ele><time>2026-04-27T14:36:20.007Z</time></trkpt><trkpt lat="45.2164917" lon="10.7167083"><ele>27.599999999999998</ele><time>2026-04-27T14:36:22.008Z</time></trkpt><trkpt lat="45.2164033" lon="10.716625"><ele>27.799999999999997</ele><time>2026-04-27T14:36:24.007Z</time></trkpt><trkpt lat="45.2163133" lon="10.7165383"><ele>28.0</ele><time>2026-04-27T14:36:26.007Z</time></trkpt><trkpt lat="45.21622" lon="10.716465"><ele>28.0</ele><time>2026-04-27T14:36:28.007Z</time></trkpt><trkpt lat="45.2161267" lon="10.71639"><ele>27.999999999999996</ele><time>2026-04-27T14:36:30.008Z</time></trkpt><trkpt lat="45.2160317" lon="10.7163033"><ele>27.999999999999996</ele><time>2026-04-27T14:36:32.008Z</time></trkpt><trkpt lat="45.2159383" lon="10.7162217"><ele>28.0</ele><time>2026-04-27T14:36:34.007Z</time></trkpt><trkpt lat="45.215845" lon="10.7161483"><ele>28.0</ele><time>2026-04-27T14:36:36.008Z</time></trkpt><trkpt lat="45.2157633" lon="10.7160767"><ele>28.0</ele><time>2026-04-27T14:36:38.007Z</time></trkpt><trkpt lat="45.2156817" lon="10.7160133"><ele>27.999999999999996</ele><time>2026-04-27T14:36:40.008Z</time></trkpt><trkpt lat="45.21558" lon="10.71593"><ele>27.999999999999996</ele><time>2026-04-27T14:36:42.007Z</time></trkpt><trkpt lat="45.215495" lon="10.71587"><ele>28.0</ele><time>2026-04-27T14:36:44.007Z</time></trkpt><trkpt lat="45.2154067" lon="10.7157967"><ele>28.0</ele><time>2026-04-27T14:36:46.008Z</time></trkpt><trkpt lat="45.2153183" lon="10.7157117"><ele>28.0</ele><time>2026-04-27T14:36:48.008Z</time></trkpt><trkpt lat="45.2152283" lon="10.7156317"><ele>27.999999999999996</ele><time>2026-04-27T14:36:50.008Z</time></trkpt><trkpt lat="45.215135" lon="10.7155683"><ele>27.999999999999996</ele><time>2026-04-27T14:36:52.007Z</time></trkpt><trkpt lat="45.21504" lon="10.7154967"><ele>28.0</ele><time>2026-04-27T14:36:54.008Z</time></trkpt><trkpt lat="45.2149483" lon="10.715425"><ele>28.0</ele><time>2026-04-27T14:36:56.007Z</time></trkpt><trkpt lat="45.2148633" lon="10.715345"><ele>28.2</ele><time>2026-04-27T14:36:58.008Z</time></trkpt><trkpt lat="45.21477" lon="10.71527"><ele>28.4</ele><time>2026-04-27T14:37:00.008Z</time></trkpt><trkpt lat="45.2146883" lon="10.7151967"><ele>28.599999999999998</ele><time>2026-04-27T14:37:02.008Z</time></trkpt><trkpt lat="45.2145967" lon="10.71512"><ele>28.799999999999997</ele><time>2026-04-27T14:37:04.008Z</time></trkpt><trkpt lat="45.21451" lon="10.715055"><ele>29.0</ele><time>2026-04-27T14:37:06.008Z</time></trkpt><trkpt lat="45.2144183" lon="10.714995"><ele>28.999999999999996</ele><time>2026-04-27T14:37:08.008Z</time></trkpt><trkpt lat="45.2143367" lon="10.71494"><ele>29.0</ele><time>2026-04-27T14:37:10.008Z</time></trkpt><trkpt lat="45.2142617" lon="10.7148617"><ele>29.0</ele><time>2026-04-27T14:37:12.007Z</time></trkpt><trkpt lat="45.2141867" lon="10.7148067"><ele>29.0</ele><time>2026-04-27T14:37:14.007Z</time></trkpt><trkpt lat="45.214125" lon="10.7147533"><ele>28.999999999999996</ele><time>2026-04-27T14:37:16.008Z</time></trkpt><trkpt lat="45.2140617" lon="10.71472"><ele>29.0</ele><time>2026-04-27T14:37:18.007Z</time></trkpt><trkpt lat="45.2139933" lon="10.7146733"><ele>28.333333333333332</ele><time>2026-04-27T14:37:21.007Z</time></trkpt><trkpt lat="45.2139067" lon="10.7146417"><ele>27.666666666666664</ele><time>2026-04-27T14:37:24.008Z</time></trkpt><trkpt lat="45.2138433" lon="10.7146767"><ele>27.0</ele><time>2026-04-27T14:37:26.008Z</time></trkpt><trkpt lat="45.2137817" lon="10.7147233"><ele>26.333333333333336</ele><time>2026-04-27T14:37:28.008Z</time></trkpt><trkpt lat="45.21371" lon="10.7147667"><ele>25.666666666666668</ele><time>2026-04-27T14:37:30.007Z</time></trkpt><trkpt lat="45.21364" lon="10.7148117"><ele>25.0</ele><time>2026-04-27T14:37:32.007Z</time></trkpt><trkpt lat="45.2135617" lon="10.7148633"><ele>25.0</ele><time>2026-04-27T14:37:34.008Z</time></trkpt><trkpt lat="45.21347" lon="10.714915"><ele>25.0</ele><time>2026-04-27T14:37:36.007Z</time></trkpt><trkpt lat="45.2133683" lon="10.7149767"><ele>25.0</ele><time>2026-04-27T14:37:38.008Z</time></trkpt><trkpt lat="45.2132617" lon="10.715035"><ele>25.0</ele><time>2026-04-27T14:37:40.007Z</time></trkpt><trkpt lat="45.21315" lon="10.7150983"><ele>25.0</ele><time>2026-04-27T14:37:42.008Z</time></trkpt><trkpt lat="45.21309" lon="10.7151417"><ele>25.000000000000004</ele><time>2026-04-27T14:37:43.008Z</time></trkpt><trkpt lat="45.2130267" lon="10.715185"><ele>25.0</ele><time>2026-04-27T14:37:44.007Z</time></trkpt><trkpt lat="45.212955" lon="10.7152167"><ele>25.0</ele><time>2026-04-27T14:37:45.007Z</time></trkpt><trkpt lat="45.212895" lon="10.7152533"><ele>25.0</ele><time>2026-04-27T14:37:46.007Z</time></trkpt><trkpt lat="45.21277" lon="10.7153233"><ele>25.000000000000004</ele><time>2026-04-27T14:37:48.008Z</time></trkpt><trkpt lat="45.2127" lon="10.715365"><ele>25.0</ele><time>2026-04-27T14:37:49.008Z</time></trkpt><trkpt lat="45.2126283" lon="10.7154017"><ele>25.166666666666668</ele><time>2026-04-27T14:37:50.008Z</time></trkpt><trkpt lat="45.2125533" lon="10.7154483"><ele>25.333333333333336</ele><time>2026-04-27T14:37:51.007Z</time></trkpt><trkpt lat="45.2124833" lon="10.7154817"><ele>25.5</ele><time>2026-04-27T14:37:52.007Z</time></trkpt><trkpt lat="45.2124133" lon="10.7155167"><ele>25.666666666666664</ele><time>2026-04-27T14:37:53.008Z</time></trkpt><trkpt lat="45.2123467" lon="10.71555"><ele>25.833333333333332</ele><time>2026-04-27T14:37:54.007Z</time></trkpt><trkpt lat="45.2122717" lon="10.71558"><ele>26.0</ele><time>2026-04-27T14:37:55.008Z</time></trkpt><trkpt lat="45.2121883" lon="10.7156117"><ele>25.71428571428571</ele><time>2026-04-27T14:37:56.008Z</time></trkpt><trkpt lat="45.212115" lon="10.71565"><ele>25.42857142857143</ele><time>2026-04-27T14:37:57.007Z</time></trkpt><trkpt lat="45.2120367" lon="10.7156833"><ele>25.142857142857142</ele><time>2026-04-27T14:37:58.008Z</time></trkpt><trkpt lat="45.2119633" lon="10.715715"><ele>24.857142857142854</ele><time>2026-04-27T14:37:59.008Z</time></trkpt><trkpt lat="45.211895" lon="10.71575"><ele>24.57142857142857</ele><time>2026-04-27T14:38:00.008Z</time></trkpt><trkpt lat="45.2118317" lon="10.7157833"><ele>24.285714285714285</ele><time>2026-04-27T14:38:01.008Z</time></trkpt><trkpt lat="45.211765" lon="10.7158167"><ele>24.0</ele><time>2026-04-27T14:38:02.008Z</time></trkpt><trkpt lat="45.2117017" lon="10.7158517"><ele>24.0</ele><time>2026-04-27T14:38:03.008Z</time></trkpt><trkpt lat="45.21164" lon="10.7158733"><ele>24.0</ele><time>2026-04-27T14:38:04.008Z</time></trkpt><trkpt lat="45.2115283" lon="10.7159167"><ele>24.0</ele><time>2026-04-27T14:38:06.007Z</time></trkpt><trkpt lat="45.2114333" lon="10.71596"><ele>24.0</ele><time>2026-04-27T14:38:08.008Z</time></trkpt><trkpt lat="45.2113367" lon="10.7160217"><ele>24.0</ele><time>2026-04-27T14:38:10.008Z</time></trkpt><trkpt lat="45.21123" lon="10.71607"><ele>24.4</ele><time>2026-04-27T14:38:12.008Z</time></trkpt><trkpt lat="45.2111333" lon="10.7161133"><ele>24.799999999999997</ele><time>2026-04-27T14:38:14.007Z</time></trkpt><trkpt lat="45.2110383" lon="10.71616"><ele>25.200000000000003</ele><time>2026-04-27T14:38:16.007Z</time></trkpt><trkpt lat="45.2109367" lon="10.71621"><ele>25.6</ele><time>2026-04-27T14:38:18.008Z</time></trkpt><trkpt lat="45.2108383" lon="10.71626"><ele>26.0</ele><time>2026-04-27T14:38:20.007Z</time></trkpt><trkpt lat="45.2107417" lon="10.7163067"><ele>26.200000000000003</ele><time>2026-04-27T14:38:22.007Z</time></trkpt><trkpt lat="45.2106433" lon="10.7163467"><ele>26.400000000000002</ele><time>2026-04-27T14:38:24.008Z</time></trkpt><trkpt lat="45.2105383" lon="10.71639"><ele>26.6</ele><time>2026-04-27T14:38:26.008Z</time></trkpt><trkpt lat="45.21043" lon="10.71643"><ele>26.8</ele><time>2026-04-27T14:38:28.007Z</time></trkpt><trkpt lat="45.21034" lon="10.7164683"><ele>27.0</ele><time>2026-04-27T14:38:30.008Z</time></trkpt><trkpt lat="45.2102633" lon="10.7165167"><ele>27.0</ele><time>2026-04-27T14:38:32.008Z</time></trkpt><trkpt lat="45.210175" lon="10.71658"><ele>27.000000000000004</ele><time>2026-04-27T14:38:34.008Z</time></trkpt><trkpt lat="45.210085" lon="10.716635"><ele>27.000000000000004</ele><time>2026-04-27T14:38:36.007Z</time></trkpt><trkpt lat="45.2099917" lon="10.7166933"><ele>27.0</ele><time>2026-04-27T14:38:38.007Z</time></trkpt><trkpt lat="45.2099017" lon="10.71673"><ele>27.0</ele><time>2026-04-27T14:38:40.007Z</time></trkpt><trkpt lat="45.2098067" lon="10.7167683"><ele>26.8</ele><time>2026-04-27T14:38:42.007Z</time></trkpt><trkpt lat="45.2097183" lon="10.716815"><ele>26.6</ele><time>2026-04-27T14:38:44.007Z</time></trkpt><trkpt lat="45.2096233" lon="10.7168583"><ele>26.400000000000002</ele><time>2026-04-27T14:38:46.008Z</time></trkpt><trkpt lat="45.2095333" lon="10.716905"><ele>26.200000000000003</ele><time>2026-04-27T14:38:48.007Z</time></trkpt><trkpt lat="45.2094467" lon="10.7169633"><ele>26.0</ele><time>2026-04-27T14:38:50.007Z</time></trkpt><trkpt lat="45.20935" lon="10.7169967"><ele>26.0</ele><time>2026-04-27T14:38:52.008Z</time></trkpt><trkpt lat="45.2092533" lon="10.7170433"><ele>26.0</ele><time>2026-04-27T14:38:54.007Z</time></trkpt><trkpt lat="45.2091733" lon="10.7170817"><ele>26.0</ele><time>2026-04-27T14:38:56.008Z</time></trkpt><trkpt lat="45.209085" lon="10.7171283"><ele>26.0</ele><time>2026-04-27T14:38:58.007Z</time></trkpt><trkpt lat="45.2089933" lon="10.717165"><ele>26.0</ele><time>2026-04-27T14:39:00.007Z</time></trkpt><trkpt lat="45.2089033" lon="10.717215"><ele>25.4</ele><time>2026-04-27T14:39:02.007Z</time></trkpt><trkpt lat="45.2088183" lon="10.717255"><ele>24.8</ele><time>2026-04-27T14:39:04.007Z</time></trkpt><trkpt lat="45.20873" lon="10.7172933"><ele>24.2</ele><time>2026-04-27T14:39:06.008Z</time></trkpt><trkpt lat="45.20864" lon="10.7173333"><ele>23.599999999999998</ele><time>2026-04-27T14:39:08.007Z</time></trkpt><trkpt lat="45.20856" lon="10.7173783"><ele>23.0</ele><time>2026-04-27T14:39:10.008Z</time></trkpt><trkpt lat="45.2084733" lon="10.7174333"><ele>23.0</ele><time>2026-04-27T14:39:12.007Z</time></trkpt><trkpt lat="45.2083767" lon="10.7174817"><ele>23.0</ele><time>2026-04-27T14:39:14.007Z</time></trkpt><trkpt lat="45.2082883" lon="10.7175267"><ele>23.0</ele><time>2026-04-27T14:39:16.008Z</time></trkpt><trkpt lat="45.2081967" lon="10.7175767"><ele>23.0</ele><time>2026-04-27T14:39:18.007Z</time></trkpt><trkpt lat="45.2081" lon="10.7176283"><ele>23.0</ele><time>2026-04-27T14:39:20.008Z</time></trkpt><trkpt lat="45.2080083" lon="10.7176767"><ele>23.0</ele><time>2026-04-27T14:39:22.007Z</time></trkpt><trkpt lat="45.2079183" lon="10.7177133"><ele>23.0</ele><time>2026-04-27T14:39:24.008Z</time></trkpt><trkpt lat="45.2078283" lon="10.71776"><ele>23.0</ele><time>2026-04-27T14:39:26.008Z</time></trkpt><trkpt lat="45.2077367" lon="10.7178017"><ele>23.0</ele><time>2026-04-27T14:39:28.008Z</time></trkpt><trkpt lat="45.207645" lon="10.71784"><ele>23.0</ele><time>2026-04-27T14:39:30.008Z</time></trkpt><trkpt lat="45.2075567" lon="10.71789"><ele>23.0</ele><time>2026-04-27T14:39:32.008Z</time></trkpt><trkpt lat="45.2074667" lon="10.7179317"><ele>23.0</ele><time>2026-04-27T14:39:34.008Z</time></trkpt><trkpt lat="45.20738" lon="10.7179717"><ele>23.0</ele><time>2026-04-27T14:39:36.008Z</time></trkpt><trkpt lat="45.2072917" lon="10.71802"><ele>23.0</ele><time>2026-04-27T14:39:38.007Z</time></trkpt><trkpt lat="45.2072017" lon="10.71806"><ele>23.0</ele><time>2026-04-27T14:39:40.008Z</time></trkpt><trkpt lat="45.2071133" lon="10.7181"><ele>23.2</ele><time>2026-04-27T14:39:42.007Z</time></trkpt><trkpt lat="45.2070233" lon="10.7181383"><ele>23.4</ele><time>2026-04-27T14:39:44.007Z</time></trkpt><trkpt lat="45.20693" lon="10.7181717"><ele>23.599999999999998</ele><time>2026-04-27T14:39:46.008Z</time></trkpt><trkpt lat="45.2068417" lon="10.718205"><ele>23.799999999999997</ele><time>2026-04-27T14:39:48.008Z</time></trkpt><trkpt lat="45.206745" lon="10.718245"><ele>24.0</ele><time>2026-04-27T14:39:50.007Z</time></trkpt><trkpt lat="45.2066517" lon="10.7182783"><ele>24.0</ele><time>2026-04-27T14:39:52.007Z</time></trkpt><trkpt lat="45.206555" lon="10.7183083"><ele>24.0</ele><time>2026-04-27T14:39:54.007Z</time></trkpt><trkpt lat="45.2064083" lon="10.71835"><ele>24.0</ele><time>2026-04-27T14:39:57.007Z</time></trkpt><trkpt lat="45.2063117" lon="10.7183883"><ele>24.0</ele><time>2026-04-27T14:39:59.007Z</time></trkpt><trkpt lat="45.20621" lon="10.7184217"><ele>23.799999999999997</ele><time>2026-04-27T14:40:01.007Z</time></trkpt><trkpt lat="45.2061133" lon="10.71846"><ele>23.599999999999998</ele><time>2026-04-27T14:40:03.008Z</time></trkpt><trkpt lat="45.2060183" lon="10.7184817"><ele>23.4</ele><time>2026-04-27T14:40:05.007Z</time></trkpt><trkpt lat="45.2059083" lon="10.718515"><ele>23.2</ele><time>2026-04-27T14:40:07.007Z</time></trkpt><trkpt lat="45.20581" lon="10.7185567"><ele>23.0</ele><time>2026-04-27T14:40:09.008Z</time></trkpt><trkpt lat="45.2057117" lon="10.7185933"><ele>23.2</ele><time>2026-04-27T14:40:11.008Z</time></trkpt><trkpt lat="45.2056083" lon="10.7186333"><ele>23.4</ele><time>2026-04-27T14:40:13.007Z</time></trkpt><trkpt lat="45.2055067" lon="10.7186683"><ele>23.599999999999998</ele><time>2026-04-27T14:40:15.007Z</time></trkpt><trkpt lat="45.2054217" lon="10.71869"><ele>23.799999999999997</ele><time>2026-04-27T14:40:17.008Z</time></trkpt><trkpt lat="45.2053317" lon="10.7187333"><ele>24.0</ele><time>2026-04-27T14:40:19.007Z</time></trkpt><trkpt lat="45.2052433" lon="10.7187733"><ele>24.0</ele><time>2026-04-27T14:40:21.007Z</time></trkpt><trkpt lat="45.20516" lon="10.7188033"><ele>24.0</ele><time>2026-04-27T14:40:23.007Z</time></trkpt><trkpt lat="45.205075" lon="10.718845"><ele>24.0</ele><time>2026-04-27T14:40:25.008Z</time></trkpt><trkpt lat="45.2049833" lon="10.7188733"><ele>24.0</ele><time>2026-04-27T14:40:27.008Z</time></trkpt><trkpt lat="45.2049033" lon="10.7188983"><ele>24.0</ele><time>2026-04-27T14:40:29.007Z</time></trkpt><trkpt lat="45.204825" lon="10.7189333"><ele>24.0</ele><time>2026-04-27T14:40:31.008Z</time></trkpt><trkpt lat="45.2047367" lon="10.718965"><ele>23.75</ele><time>2026-04-27T14:40:33.007Z</time></trkpt><trkpt lat="45.2046233" lon="10.71901"><ele>23.5</ele><time>2026-04-27T14:40:36.008Z</time></trkpt><trkpt lat="45.2044833" lon="10.7190583"><ele>23.25</ele><time>2026-04-27T14:40:39.007Z</time></trkpt><trkpt lat="45.2043917" lon="10.7191017"><ele>23.0</ele><time>2026-04-27T14:40:41.008Z</time></trkpt><trkpt lat="45.2043" lon="10.7191333"><ele>23.0</ele><time>2026-04-27T14:40:43.007Z</time></trkpt><trkpt lat="45.2042133" lon="10.7191633"><ele>23.0</ele><time>2026-04-27T14:40:45.007Z</time></trkpt><trkpt lat="45.2041267" lon="10.7191933"><ele>23.0</ele><time>2026-04-27T14:40:47.008Z</time></trkpt><trkpt lat="45.2040367" lon="10.7192183"><ele>23.0</ele><time>2026-04-27T14:40:49.007Z</time></trkpt><trkpt lat="45.203955" lon="10.719255"><ele>23.0</ele><time>2026-04-27T14:40:51.008Z</time></trkpt><trkpt lat="45.203875" lon="10.7192933"><ele>23.0</ele><time>2026-04-27T14:40:53.008Z</time></trkpt><trkpt lat="45.20375" lon="10.7193417"><ele>23.0</ele><time>2026-04-27T14:40:56.007Z</time></trkpt><trkpt lat="45.2036683" lon="10.7193767"><ele>23.0</ele><time>2026-04-27T14:40:58.006Z</time></trkpt><trkpt lat="45.2035733" lon="10.719405"><ele>23.0</ele><time>2026-04-27T14:41:00.006Z</time></trkpt><trkpt lat="45.203485" lon="10.7194367"><ele>23.0</ele><time>2026-04-27T14:41:02.006Z</time></trkpt><trkpt lat="45.2034" lon="10.7194583"><ele>23.0</ele><time>2026-04-27T14:41:04.006Z</time></trkpt><trkpt lat="45.2033117" lon="10.7194833"><ele>23.333333333333336</ele><time>2026-04-27T14:41:06.007Z</time></trkpt><trkpt lat="45.2032267" lon="10.7195067"><ele>23.666666666666668</ele><time>2026-04-27T14:41:08.007Z</time></trkpt><trkpt lat="45.20315" lon="10.7195433"><ele>24.0</ele><time>2026-04-27T14:41:10.006Z</time></trkpt><trkpt lat="45.2030717" lon="10.7195883"><ele>24.333333333333336</ele><time>2026-04-27T14:41:12.006Z</time></trkpt><trkpt lat="45.202985" lon="10.7196167"><ele>24.666666666666668</ele><time>2026-04-27T14:41:14.006Z</time></trkpt><trkpt lat="45.2029017" lon="10.719635"><ele>25.0</ele><time>2026-04-27T14:41:16.007Z</time></trkpt><trkpt lat="45.2028183" lon="10.7196667"><ele>25.0</ele><time>2026-04-27T14:41:18.007Z</time></trkpt><trkpt lat="45.202735" lon="10.719705"><ele>25.0</ele><time>2026-04-27T14:41:20.007Z</time></trkpt><trkpt lat="45.20265" lon="10.7197283"><ele>25.0</ele><time>2026-04-27T14:41:22.007Z</time></trkpt><trkpt lat="45.2025583" lon="10.7197617"><ele>25.0</ele><time>2026-04-27T14:41:24.006Z</time></trkpt><trkpt lat="45.2024683" lon="10.7197967"><ele>25.0</ele><time>2026-04-27T14:41:26.007Z</time></trkpt><trkpt lat="45.2023633" lon="10.719825"><ele>24.8</ele><time>2026-04-27T14:41:28.007Z</time></trkpt><trkpt lat="45.202275" lon="10.7198567"><ele>24.6</ele><time>2026-04-27T14:41:30.007Z</time></trkpt><trkpt lat="45.2021833" lon="10.7198933"><ele>24.4</ele><time>2026-04-27T14:41:32.007Z</time></trkpt><trkpt lat="45.20209" lon="10.7199217"><ele>24.2</ele><time>2026-04-27T14:41:34.006Z</time></trkpt><trkpt lat="45.20199" lon="10.7199633"><ele>24.0</ele><time>2026-04-27T14:41:36.007Z</time></trkpt><trkpt lat="45.2019" lon="10.72"><ele>24.0</ele><time>2026-04-27T14:41:38.006Z</time></trkpt><trkpt lat="45.2018" lon="10.7200333"><ele>24.0</ele><time>2026-04-27T14:41:40.006Z</time></trkpt><trkpt lat="45.2017183" lon="10.72007"><ele>24.0</ele><time>2026-04-27T14:41:42.006Z</time></trkpt><trkpt lat="45.20163" lon="10.720105"><ele>24.0</ele><time>2026-04-27T14:41:44.006Z</time></trkpt><trkpt lat="45.2015367" lon="10.72013"><ele>24.0</ele><time>2026-04-27T14:41:46.006Z</time></trkpt><trkpt lat="45.2014467" lon="10.7201683"><ele>23.833333333333332</ele><time>2026-04-27T14:41:48.006Z</time></trkpt><trkpt lat="45.2013633" lon="10.7201933"><ele>23.666666666666668</ele><time>2026-04-27T14:41:50.006Z</time></trkpt><trkpt lat="45.2012783" lon="10.7202317"><ele>23.5</ele><time>2026-04-27T14:41:52.007Z</time></trkpt><trkpt lat="45.2012083" lon="10.7202783"><ele>23.333333333333336</ele><time>2026-04-27T14:41:54.006Z</time></trkpt><trkpt lat="45.2011333" lon="10.7203033"><ele>23.166666666666668</ele><time>2026-04-27T14:41:56.007Z</time></trkpt><trkpt lat="45.2010567" lon="10.720325"><ele>23.0</ele><time>2026-04-27T14:41:58.007Z</time></trkpt><trkpt lat="45.2009867" lon="10.72036"><ele>22.0</ele><time>2026-04-27T14:42:00.007Z</time></trkpt><trkpt lat="45.2009267" lon="10.7203183"><ele>22.0</ele><time>2026-04-27T14:42:02.006Z</time></trkpt><trkpt lat="45.2009233" lon="10.7202267"><ele>23.0</ele><time>2026-04-27T14:42:04.006Z</time></trkpt></trkseg></trk></gpx>